<?xml version="1.0" encoding="UTF-8" standalone="no" ?>
<gpx xmlns="http://www.topografix.com/GPX/1/1" xmlns:xsi="http://www.w3.org/2001/XMLSchema-instance" xsi:schemaLocation="http://www.topografix.com/GPX/1/1 http://www.topografix.com/GPX/1/1/gpx.xsd" version="1.1" creator="VisuGPX - https://www.visugpx.com">
  <metadata>
    <name>terre de la vaunage 2015</name>
    <desc><![CDATA[rando calvisson 2015]]></desc>
  </metadata>
  <trk>
    <name><![CDATA[LN CALVISSONNAISE2015 35]]></name>
    <trkseg>
      <trkpt lat="43.78301" lon="4.20288">
        <ele>42.1</ele>
        <time>2015-05-31T06:08:47Z</time>
      </trkpt>
      <trkpt lat="43.78301" lon="4.20288">
        <ele>42.1</ele>
        <time>2015-05-31T06:08:48Z</time>
      </trkpt>
      <trkpt lat="43.7831" lon="4.20292">
        <ele>41.6</ele>
        <time>2015-05-31T06:09:23Z</time>
      </trkpt>
      <trkpt lat="43.78301" lon="4.2029">
        <ele>42.3</ele>
        <time>2015-05-31T06:11:06Z</time>
      </trkpt>
      <trkpt lat="43.78309" lon="4.20295">
        <ele>42.2</ele>
        <time>2015-05-31T06:11:34Z</time>
      </trkpt>
      <trkpt lat="43.78317" lon="4.20287">
        <ele>43</ele>
        <time>2015-05-31T06:14:39Z</time>
      </trkpt>
      <trkpt lat="43.78325" lon="4.2028">
        <ele>43.1</ele>
        <time>2015-05-31T06:14:45Z</time>
      </trkpt>
      <trkpt lat="43.78332" lon="4.2027">
        <ele>43.1</ele>
        <time>2015-05-31T06:14:51Z</time>
      </trkpt>
      <trkpt lat="43.78337" lon="4.20257">
        <ele>43.2</ele>
        <time>2015-05-31T06:14:56Z</time>
      </trkpt>
      <trkpt lat="43.78343" lon="4.20245">
        <ele>43.2</ele>
        <time>2015-05-31T06:15:00Z</time>
      </trkpt>
      <trkpt lat="43.78348" lon="4.20234">
        <ele>43.5</ele>
        <time>2015-05-31T06:15:04Z</time>
      </trkpt>
      <trkpt lat="43.78351" lon="4.20223">
        <ele>43.7</ele>
        <time>2015-05-31T06:15:09Z</time>
      </trkpt>
      <trkpt lat="43.78356" lon="4.20211">
        <ele>43.9</ele>
        <time>2015-05-31T06:15:16Z</time>
      </trkpt>
      <trkpt lat="43.78361" lon="4.202">
        <ele>44</ele>
        <time>2015-05-31T06:15:22Z</time>
      </trkpt>
      <trkpt lat="43.78365" lon="4.20187">
        <ele>44.1</ele>
        <time>2015-05-31T06:15:27Z</time>
      </trkpt>
      <trkpt lat="43.78362" lon="4.20174">
        <ele>44.1</ele>
        <time>2015-05-31T06:15:32Z</time>
      </trkpt>
      <trkpt lat="43.78353" lon="4.20164">
        <ele>44.1</ele>
        <time>2015-05-31T06:15:36Z</time>
      </trkpt>
      <trkpt lat="43.78351" lon="4.20151">
        <ele>44.2</ele>
        <time>2015-05-31T06:15:41Z</time>
      </trkpt>
      <trkpt lat="43.78354" lon="4.20139">
        <ele>44.2</ele>
        <time>2015-05-31T06:15:45Z</time>
      </trkpt>
      <trkpt lat="43.7835" lon="4.20125">
        <ele>43.9</ele>
        <time>2015-05-31T06:16:03Z</time>
      </trkpt>
      <trkpt lat="43.78345" lon="4.20109">
        <ele>43.8</ele>
        <time>2015-05-31T06:16:07Z</time>
      </trkpt>
      <trkpt lat="43.78339" lon="4.201">
        <ele>43.8</ele>
        <time>2015-05-31T06:16:10Z</time>
      </trkpt>
      <trkpt lat="43.78332" lon="4.20092">
        <ele>43.7</ele>
        <time>2015-05-31T06:16:13Z</time>
      </trkpt>
      <trkpt lat="43.78322" lon="4.20084">
        <ele>43.7</ele>
        <time>2015-05-31T06:16:16Z</time>
      </trkpt>
      <trkpt lat="43.78312" lon="4.20075">
        <ele>43.7</ele>
        <time>2015-05-31T06:16:20Z</time>
      </trkpt>
      <trkpt lat="43.78303" lon="4.20071">
        <ele>43.7</ele>
        <time>2015-05-31T06:16:23Z</time>
      </trkpt>
      <trkpt lat="43.78294" lon="4.20065">
        <ele>43.6</ele>
        <time>2015-05-31T06:16:26Z</time>
      </trkpt>
      <trkpt lat="43.78286" lon="4.20058">
        <ele>43.6</ele>
        <time>2015-05-31T06:16:29Z</time>
      </trkpt>
      <trkpt lat="43.78278" lon="4.20052">
        <ele>43.6</ele>
        <time>2015-05-31T06:16:32Z</time>
      </trkpt>
      <trkpt lat="43.78267" lon="4.20044">
        <ele>43.6</ele>
        <time>2015-05-31T06:16:36Z</time>
      </trkpt>
      <trkpt lat="43.78261" lon="4.20036">
        <ele>43.6</ele>
        <time>2015-05-31T06:16:39Z</time>
      </trkpt>
      <trkpt lat="43.78254" lon="4.20024">
        <ele>43.6</ele>
        <time>2015-05-31T06:16:42Z</time>
      </trkpt>
      <trkpt lat="43.78247" lon="4.20012">
        <ele>43.6</ele>
        <time>2015-05-31T06:16:45Z</time>
      </trkpt>
      <trkpt lat="43.7824" lon="4.19996">
        <ele>43.6</ele>
        <time>2015-05-31T06:16:48Z</time>
      </trkpt>
      <trkpt lat="43.78232" lon="4.1998">
        <ele>43.6</ele>
        <time>2015-05-31T06:16:51Z</time>
      </trkpt>
      <trkpt lat="43.78226" lon="4.19967">
        <ele>43.6</ele>
        <time>2015-05-31T06:16:54Z</time>
      </trkpt>
      <trkpt lat="43.78219" lon="4.19953">
        <ele>43.6</ele>
        <time>2015-05-31T06:16:57Z</time>
      </trkpt>
      <trkpt lat="43.78213" lon="4.19939">
        <ele>43.7</ele>
        <time>2015-05-31T06:17:00Z</time>
      </trkpt>
      <trkpt lat="43.78206" lon="4.19924">
        <ele>43.8</ele>
        <time>2015-05-31T06:17:03Z</time>
      </trkpt>
      <trkpt lat="43.78199" lon="4.1991">
        <ele>43.8</ele>
        <time>2015-05-31T06:17:06Z</time>
      </trkpt>
      <trkpt lat="43.78192" lon="4.19896">
        <ele>43.9</ele>
        <time>2015-05-31T06:17:09Z</time>
      </trkpt>
      <trkpt lat="43.78187" lon="4.19883">
        <ele>43.9</ele>
        <time>2015-05-31T06:17:12Z</time>
      </trkpt>
      <trkpt lat="43.78182" lon="4.1987">
        <ele>43.9</ele>
        <time>2015-05-31T06:17:15Z</time>
      </trkpt>
      <trkpt lat="43.78178" lon="4.19857">
        <ele>43.9</ele>
        <time>2015-05-31T06:17:18Z</time>
      </trkpt>
      <trkpt lat="43.78172" lon="4.19844">
        <ele>43.9</ele>
        <time>2015-05-31T06:17:22Z</time>
      </trkpt>
      <trkpt lat="43.78168" lon="4.19833">
        <ele>43.9</ele>
        <time>2015-05-31T06:17:25Z</time>
      </trkpt>
      <trkpt lat="43.78162" lon="4.19819">
        <ele>43.9</ele>
        <time>2015-05-31T06:17:29Z</time>
      </trkpt>
      <trkpt lat="43.78157" lon="4.19805">
        <ele>44.1</ele>
        <time>2015-05-31T06:17:33Z</time>
      </trkpt>
      <trkpt lat="43.78151" lon="4.19791">
        <ele>44.2</ele>
        <time>2015-05-31T06:17:37Z</time>
      </trkpt>
      <trkpt lat="43.78147" lon="4.19776">
        <ele>44.5</ele>
        <time>2015-05-31T06:17:41Z</time>
      </trkpt>
      <trkpt lat="43.78143" lon="4.19765">
        <ele>44.6</ele>
        <time>2015-05-31T06:17:44Z</time>
      </trkpt>
      <trkpt lat="43.78137" lon="4.19754">
        <ele>44.8</ele>
        <time>2015-05-31T06:17:47Z</time>
      </trkpt>
      <trkpt lat="43.78131" lon="4.1974">
        <ele>44.9</ele>
        <time>2015-05-31T06:17:51Z</time>
      </trkpt>
      <trkpt lat="43.78126" lon="4.19729">
        <ele>45</ele>
        <time>2015-05-31T06:17:54Z</time>
      </trkpt>
      <trkpt lat="43.78121" lon="4.19717">
        <ele>45.1</ele>
        <time>2015-05-31T06:17:57Z</time>
      </trkpt>
      <trkpt lat="43.78116" lon="4.19704">
        <ele>45.1</ele>
        <time>2015-05-31T06:18:00Z</time>
      </trkpt>
      <trkpt lat="43.78111" lon="4.19692">
        <ele>45.1</ele>
        <time>2015-05-31T06:18:03Z</time>
      </trkpt>
      <trkpt lat="43.78106" lon="4.19679">
        <ele>45</ele>
        <time>2015-05-31T06:18:06Z</time>
      </trkpt>
      <trkpt lat="43.78101" lon="4.19666">
        <ele>44.9</ele>
        <time>2015-05-31T06:18:09Z</time>
      </trkpt>
      <trkpt lat="43.78095" lon="4.19653">
        <ele>44.9</ele>
        <time>2015-05-31T06:18:12Z</time>
      </trkpt>
      <trkpt lat="43.7809" lon="4.1964">
        <ele>44.8</ele>
        <time>2015-05-31T06:18:15Z</time>
      </trkpt>
      <trkpt lat="43.78085" lon="4.19628">
        <ele>44.8</ele>
        <time>2015-05-31T06:18:18Z</time>
      </trkpt>
      <trkpt lat="43.78079" lon="4.19615">
        <ele>44.8</ele>
        <time>2015-05-31T06:18:21Z</time>
      </trkpt>
      <trkpt lat="43.78074" lon="4.19602">
        <ele>44.8</ele>
        <time>2015-05-31T06:18:24Z</time>
      </trkpt>
      <trkpt lat="43.78068" lon="4.19587">
        <ele>44.8</ele>
        <time>2015-05-31T06:18:27Z</time>
      </trkpt>
      <trkpt lat="43.78063" lon="4.19575">
        <ele>44.8</ele>
        <time>2015-05-31T06:18:29Z</time>
      </trkpt>
      <trkpt lat="43.78058" lon="4.19561">
        <ele>44.7</ele>
        <time>2015-05-31T06:18:31Z</time>
      </trkpt>
      <trkpt lat="43.78053" lon="4.19547">
        <ele>44.7</ele>
        <time>2015-05-31T06:18:33Z</time>
      </trkpt>
      <trkpt lat="43.78047" lon="4.19534">
        <ele>44.7</ele>
        <time>2015-05-31T06:18:35Z</time>
      </trkpt>
      <trkpt lat="43.78042" lon="4.19521">
        <ele>44.7</ele>
        <time>2015-05-31T06:18:37Z</time>
      </trkpt>
      <trkpt lat="43.78037" lon="4.19509">
        <ele>44.6</ele>
        <time>2015-05-31T06:18:39Z</time>
      </trkpt>
      <trkpt lat="43.78033" lon="4.19496">
        <ele>44.5</ele>
        <time>2015-05-31T06:18:41Z</time>
      </trkpt>
      <trkpt lat="43.78027" lon="4.1948">
        <ele>44.5</ele>
        <time>2015-05-31T06:18:44Z</time>
      </trkpt>
      <trkpt lat="43.78022" lon="4.19465">
        <ele>44.4</ele>
        <time>2015-05-31T06:18:47Z</time>
      </trkpt>
      <trkpt lat="43.78017" lon="4.19451">
        <ele>44.4</ele>
        <time>2015-05-31T06:18:50Z</time>
      </trkpt>
      <trkpt lat="43.78013" lon="4.19438">
        <ele>44.4</ele>
        <time>2015-05-31T06:18:53Z</time>
      </trkpt>
      <trkpt lat="43.78008" lon="4.19425">
        <ele>44.4</ele>
        <time>2015-05-31T06:18:56Z</time>
      </trkpt>
      <trkpt lat="43.78002" lon="4.19412">
        <ele>44.5</ele>
        <time>2015-05-31T06:18:59Z</time>
      </trkpt>
      <trkpt lat="43.77993" lon="4.19401">
        <ele>44.6</ele>
        <time>2015-05-31T06:19:02Z</time>
      </trkpt>
      <trkpt lat="43.77983" lon="4.19389">
        <ele>44.8</ele>
        <time>2015-05-31T06:19:05Z</time>
      </trkpt>
      <trkpt lat="43.77977" lon="4.19379">
        <ele>44.8</ele>
        <time>2015-05-31T06:19:07Z</time>
      </trkpt>
      <trkpt lat="43.77973" lon="4.19368">
        <ele>44.9</ele>
        <time>2015-05-31T06:19:09Z</time>
      </trkpt>
      <trkpt lat="43.77968" lon="4.19357">
        <ele>45</ele>
        <time>2015-05-31T06:19:11Z</time>
      </trkpt>
      <trkpt lat="43.77964" lon="4.19346">
        <ele>45.1</ele>
        <time>2015-05-31T06:19:13Z</time>
      </trkpt>
      <trkpt lat="43.77957" lon="4.1933">
        <ele>45.1</ele>
        <time>2015-05-31T06:19:16Z</time>
      </trkpt>
      <trkpt lat="43.77952" lon="4.19318">
        <ele>45.2</ele>
        <time>2015-05-31T06:19:18Z</time>
      </trkpt>
      <trkpt lat="43.77949" lon="4.19307">
        <ele>45.2</ele>
        <time>2015-05-31T06:19:20Z</time>
      </trkpt>
      <trkpt lat="43.77946" lon="4.19292">
        <ele>45.3</ele>
        <time>2015-05-31T06:19:23Z</time>
      </trkpt>
      <trkpt lat="43.77943" lon="4.19278">
        <ele>45.3</ele>
        <time>2015-05-31T06:19:24Z</time>
      </trkpt>
      <trkpt lat="43.77941" lon="4.19264">
        <ele>45.4</ele>
        <time>2015-05-31T06:19:26Z</time>
      </trkpt>
      <trkpt lat="43.77938" lon="4.19251">
        <ele>45.6</ele>
        <time>2015-05-31T06:19:29Z</time>
      </trkpt>
      <trkpt lat="43.77931" lon="4.19238">
        <ele>45.8</ele>
        <time>2015-05-31T06:19:33Z</time>
      </trkpt>
      <trkpt lat="43.77921" lon="4.19227">
        <ele>46</ele>
        <time>2015-05-31T06:19:36Z</time>
      </trkpt>
      <trkpt lat="43.77914" lon="4.1921">
        <ele>46.1</ele>
        <time>2015-05-31T06:19:39Z</time>
      </trkpt>
      <trkpt lat="43.7791" lon="4.19198">
        <ele>46.2</ele>
        <time>2015-05-31T06:19:41Z</time>
      </trkpt>
      <trkpt lat="43.77906" lon="4.19186">
        <ele>46.3</ele>
        <time>2015-05-31T06:19:43Z</time>
      </trkpt>
      <trkpt lat="43.77902" lon="4.19174">
        <ele>46.4</ele>
        <time>2015-05-31T06:19:45Z</time>
      </trkpt>
      <trkpt lat="43.77898" lon="4.19162">
        <ele>46.4</ele>
        <time>2015-05-31T06:19:47Z</time>
      </trkpt>
      <trkpt lat="43.77893" lon="4.19151">
        <ele>46.5</ele>
        <time>2015-05-31T06:19:49Z</time>
      </trkpt>
      <trkpt lat="43.77887" lon="4.19141">
        <ele>46.5</ele>
        <time>2015-05-31T06:19:51Z</time>
      </trkpt>
      <trkpt lat="43.77881" lon="4.19131">
        <ele>46.6</ele>
        <time>2015-05-31T06:19:53Z</time>
      </trkpt>
      <trkpt lat="43.77875" lon="4.1912">
        <ele>46.6</ele>
        <time>2015-05-31T06:19:55Z</time>
      </trkpt>
      <trkpt lat="43.77871" lon="4.19109">
        <ele>46.7</ele>
        <time>2015-05-31T06:19:57Z</time>
      </trkpt>
      <trkpt lat="43.77865" lon="4.19094">
        <ele>46.7</ele>
        <time>2015-05-31T06:20:00Z</time>
      </trkpt>
      <trkpt lat="43.7786" lon="4.19078">
        <ele>46.7</ele>
        <time>2015-05-31T06:20:03Z</time>
      </trkpt>
      <trkpt lat="43.77855" lon="4.19062">
        <ele>46.8</ele>
        <time>2015-05-31T06:20:06Z</time>
      </trkpt>
      <trkpt lat="43.7785" lon="4.19046">
        <ele>46.8</ele>
        <time>2015-05-31T06:20:09Z</time>
      </trkpt>
      <trkpt lat="43.77847" lon="4.19034">
        <ele>46.8</ele>
        <time>2015-05-31T06:20:11Z</time>
      </trkpt>
      <trkpt lat="43.77841" lon="4.19019">
        <ele>46.8</ele>
        <time>2015-05-31T06:20:14Z</time>
      </trkpt>
      <trkpt lat="43.77836" lon="4.19007">
        <ele>46.8</ele>
        <time>2015-05-31T06:20:17Z</time>
      </trkpt>
      <trkpt lat="43.77838" lon="4.18991">
        <ele>46.8</ele>
        <time>2015-05-31T06:20:22Z</time>
      </trkpt>
      <trkpt lat="43.77841" lon="4.18977">
        <ele>46.9</ele>
        <time>2015-05-31T06:20:25Z</time>
      </trkpt>
      <trkpt lat="43.7784" lon="4.18962">
        <ele>46.9</ele>
        <time>2015-05-31T06:20:28Z</time>
      </trkpt>
      <trkpt lat="43.77839" lon="4.18948">
        <ele>46.9</ele>
        <time>2015-05-31T06:20:31Z</time>
      </trkpt>
      <trkpt lat="43.77839" lon="4.18933">
        <ele>46.9</ele>
        <time>2015-05-31T06:20:34Z</time>
      </trkpt>
      <trkpt lat="43.77837" lon="4.18918">
        <ele>46.9</ele>
        <time>2015-05-31T06:20:37Z</time>
      </trkpt>
      <trkpt lat="43.77835" lon="4.18902">
        <ele>46.9</ele>
        <time>2015-05-31T06:20:40Z</time>
      </trkpt>
      <trkpt lat="43.77832" lon="4.18886">
        <ele>47</ele>
        <time>2015-05-31T06:20:43Z</time>
      </trkpt>
      <trkpt lat="43.77828" lon="4.18871">
        <ele>47.1</ele>
        <time>2015-05-31T06:20:46Z</time>
      </trkpt>
      <trkpt lat="43.77826" lon="4.18856">
        <ele>47.1</ele>
        <time>2015-05-31T06:20:49Z</time>
      </trkpt>
      <trkpt lat="43.77823" lon="4.18841">
        <ele>47.2</ele>
        <time>2015-05-31T06:20:52Z</time>
      </trkpt>
      <trkpt lat="43.7782" lon="4.18825">
        <ele>47.4</ele>
        <time>2015-05-31T06:20:55Z</time>
      </trkpt>
      <trkpt lat="43.77818" lon="4.1881">
        <ele>47.6</ele>
        <time>2015-05-31T06:20:58Z</time>
      </trkpt>
      <trkpt lat="43.77817" lon="4.18796">
        <ele>47.7</ele>
        <time>2015-05-31T06:21:01Z</time>
      </trkpt>
      <trkpt lat="43.77816" lon="4.1878">
        <ele>48</ele>
        <time>2015-05-31T06:21:04Z</time>
      </trkpt>
      <trkpt lat="43.77819" lon="4.18768">
        <ele>48.2</ele>
        <time>2015-05-31T06:21:07Z</time>
      </trkpt>
      <trkpt lat="43.77829" lon="4.18761">
        <ele>48.5</ele>
        <time>2015-05-31T06:21:11Z</time>
      </trkpt>
      <trkpt lat="43.77839" lon="4.18761">
        <ele>48.9</ele>
        <time>2015-05-31T06:21:14Z</time>
      </trkpt>
      <trkpt lat="43.77849" lon="4.18764">
        <ele>49.2</ele>
        <time>2015-05-31T06:21:17Z</time>
      </trkpt>
      <trkpt lat="43.77861" lon="4.18767">
        <ele>49.7</ele>
        <time>2015-05-31T06:21:21Z</time>
      </trkpt>
      <trkpt lat="43.7787" lon="4.18771">
        <ele>50</ele>
        <time>2015-05-31T06:21:24Z</time>
      </trkpt>
      <trkpt lat="43.7788" lon="4.18773">
        <ele>50.4</ele>
        <time>2015-05-31T06:21:27Z</time>
      </trkpt>
      <trkpt lat="43.7789" lon="4.18775">
        <ele>50.9</ele>
        <time>2015-05-31T06:21:30Z</time>
      </trkpt>
      <trkpt lat="43.779" lon="4.1878">
        <ele>51.7</ele>
        <time>2015-05-31T06:21:34Z</time>
      </trkpt>
      <trkpt lat="43.7791" lon="4.18783">
        <ele>52.4</ele>
        <time>2015-05-31T06:21:38Z</time>
      </trkpt>
      <trkpt lat="43.77921" lon="4.18787">
        <ele>53.3</ele>
        <time>2015-05-31T06:21:42Z</time>
      </trkpt>
      <trkpt lat="43.77933" lon="4.1879">
        <ele>54.1</ele>
        <time>2015-05-31T06:21:46Z</time>
      </trkpt>
      <trkpt lat="43.77943" lon="4.18793">
        <ele>54.9</ele>
        <time>2015-05-31T06:21:50Z</time>
      </trkpt>
      <trkpt lat="43.77954" lon="4.18795">
        <ele>55.8</ele>
        <time>2015-05-31T06:21:54Z</time>
      </trkpt>
      <trkpt lat="43.77965" lon="4.18797">
        <ele>56.6</ele>
        <time>2015-05-31T06:21:58Z</time>
      </trkpt>
      <trkpt lat="43.77973" lon="4.18799">
        <ele>57.4</ele>
        <time>2015-05-31T06:22:02Z</time>
      </trkpt>
      <trkpt lat="43.77984" lon="4.18801">
        <ele>58.2</ele>
        <time>2015-05-31T06:22:06Z</time>
      </trkpt>
      <trkpt lat="43.77993" lon="4.18803">
        <ele>58.8</ele>
        <time>2015-05-31T06:22:09Z</time>
      </trkpt>
      <trkpt lat="43.78003" lon="4.18809">
        <ele>59.6</ele>
        <time>2015-05-31T06:22:14Z</time>
      </trkpt>
      <trkpt lat="43.78005" lon="4.18822">
        <ele>60.6</ele>
        <time>2015-05-31T06:22:19Z</time>
      </trkpt>
      <trkpt lat="43.78009" lon="4.18833">
        <ele>61.4</ele>
        <time>2015-05-31T06:22:23Z</time>
      </trkpt>
      <trkpt lat="43.78017" lon="4.18843">
        <ele>62.1</ele>
        <time>2015-05-31T06:22:27Z</time>
      </trkpt>
      <trkpt lat="43.78026" lon="4.18852">
        <ele>62.6</ele>
        <time>2015-05-31T06:22:30Z</time>
      </trkpt>
      <trkpt lat="43.78034" lon="4.18859">
        <ele>63.5</ele>
        <time>2015-05-31T06:22:35Z</time>
      </trkpt>
      <trkpt lat="43.78036" lon="4.18871">
        <ele>64.3</ele>
        <time>2015-05-31T06:22:39Z</time>
      </trkpt>
      <trkpt lat="43.78039" lon="4.18883">
        <ele>64.9</ele>
        <time>2015-05-31T06:22:42Z</time>
      </trkpt>
      <trkpt lat="43.78043" lon="4.18896">
        <ele>65.4</ele>
        <time>2015-05-31T06:22:45Z</time>
      </trkpt>
      <trkpt lat="43.78048" lon="4.18907">
        <ele>65.6</ele>
        <time>2015-05-31T06:22:47Z</time>
      </trkpt>
      <trkpt lat="43.78055" lon="4.18923">
        <ele>66</ele>
        <time>2015-05-31T06:22:50Z</time>
      </trkpt>
      <trkpt lat="43.7806" lon="4.18935">
        <ele>66.1</ele>
        <time>2015-05-31T06:22:52Z</time>
      </trkpt>
      <trkpt lat="43.78066" lon="4.18945">
        <ele>66.3</ele>
        <time>2015-05-31T06:22:54Z</time>
      </trkpt>
      <trkpt lat="43.78073" lon="4.18955">
        <ele>66.5</ele>
        <time>2015-05-31T06:22:56Z</time>
      </trkpt>
      <trkpt lat="43.78079" lon="4.18965">
        <ele>66.6</ele>
        <time>2015-05-31T06:22:58Z</time>
      </trkpt>
      <trkpt lat="43.78086" lon="4.18973">
        <ele>66.4</ele>
        <time>2015-05-31T06:23:00Z</time>
      </trkpt>
      <trkpt lat="43.78096" lon="4.1898">
        <ele>66.4</ele>
        <time>2015-05-31T06:23:03Z</time>
      </trkpt>
      <trkpt lat="43.78107" lon="4.18985">
        <ele>66.5</ele>
        <time>2015-05-31T06:23:07Z</time>
      </trkpt>
      <trkpt lat="43.78116" lon="4.1899">
        <ele>66.7</ele>
        <time>2015-05-31T06:23:10Z</time>
      </trkpt>
      <trkpt lat="43.78125" lon="4.18993">
        <ele>67</ele>
        <time>2015-05-31T06:23:13Z</time>
      </trkpt>
      <trkpt lat="43.78134" lon="4.18997">
        <ele>67.4</ele>
        <time>2015-05-31T06:23:16Z</time>
      </trkpt>
      <trkpt lat="43.78145" lon="4.19005">
        <ele>68</ele>
        <time>2015-05-31T06:23:20Z</time>
      </trkpt>
      <trkpt lat="43.78153" lon="4.19012">
        <ele>68.4</ele>
        <time>2015-05-31T06:23:23Z</time>
      </trkpt>
      <trkpt lat="43.78162" lon="4.19015">
        <ele>68.9</ele>
        <time>2015-05-31T06:23:26Z</time>
      </trkpt>
      <trkpt lat="43.78173" lon="4.1902">
        <ele>69.5</ele>
        <time>2015-05-31T06:23:30Z</time>
      </trkpt>
      <trkpt lat="43.78183" lon="4.19023">
        <ele>70.1</ele>
        <time>2015-05-31T06:23:34Z</time>
      </trkpt>
      <trkpt lat="43.78193" lon="4.19023">
        <ele>70.8</ele>
        <time>2015-05-31T06:23:38Z</time>
      </trkpt>
      <trkpt lat="43.78204" lon="4.19027">
        <ele>71.8</ele>
        <time>2015-05-31T06:23:43Z</time>
      </trkpt>
      <trkpt lat="43.78214" lon="4.19029">
        <ele>73.1</ele>
        <time>2015-05-31T06:23:49Z</time>
      </trkpt>
      <trkpt lat="43.78224" lon="4.19029">
        <ele>74.1</ele>
        <time>2015-05-31T06:23:54Z</time>
      </trkpt>
      <trkpt lat="43.78235" lon="4.1903">
        <ele>75.1</ele>
        <time>2015-05-31T06:23:59Z</time>
      </trkpt>
      <trkpt lat="43.78246" lon="4.19031">
        <ele>76.3</ele>
        <time>2015-05-31T06:24:04Z</time>
      </trkpt>
      <trkpt lat="43.78257" lon="4.1903">
        <ele>77.4</ele>
        <time>2015-05-31T06:24:09Z</time>
      </trkpt>
      <trkpt lat="43.78266" lon="4.19025">
        <ele>78.5</ele>
        <time>2015-05-31T06:24:14Z</time>
      </trkpt>
      <trkpt lat="43.78275" lon="4.19016">
        <ele>79.6</ele>
        <time>2015-05-31T06:24:19Z</time>
      </trkpt>
      <trkpt lat="43.7828" lon="4.19005">
        <ele>80.6</ele>
        <time>2015-05-31T06:24:24Z</time>
      </trkpt>
      <trkpt lat="43.78271" lon="4.18998">
        <ele>81.9</ele>
        <time>2015-05-31T06:24:30Z</time>
      </trkpt>
      <trkpt lat="43.78262" lon="4.18996">
        <ele>83</ele>
        <time>2015-05-31T06:24:35Z</time>
      </trkpt>
      <trkpt lat="43.78253" lon="4.18992">
        <ele>84.4</ele>
        <time>2015-05-31T06:24:40Z</time>
      </trkpt>
      <trkpt lat="43.78244" lon="4.18989">
        <ele>85.7</ele>
        <time>2015-05-31T06:24:45Z</time>
      </trkpt>
      <trkpt lat="43.78235" lon="4.18986">
        <ele>86.8</ele>
        <time>2015-05-31T06:24:50Z</time>
      </trkpt>
      <trkpt lat="43.78225" lon="4.18984">
        <ele>87.8</ele>
        <time>2015-05-31T06:24:55Z</time>
      </trkpt>
      <trkpt lat="43.78213" lon="4.18983">
        <ele>88.7</ele>
        <time>2015-05-31T06:25:00Z</time>
      </trkpt>
      <trkpt lat="43.78203" lon="4.18979">
        <ele>89.4</ele>
        <time>2015-05-31T06:25:05Z</time>
      </trkpt>
      <trkpt lat="43.78195" lon="4.1897">
        <ele>90.1</ele>
        <time>2015-05-31T06:25:10Z</time>
      </trkpt>
      <trkpt lat="43.78188" lon="4.1896">
        <ele>90.9</ele>
        <time>2015-05-31T06:25:16Z</time>
      </trkpt>
      <trkpt lat="43.78179" lon="4.18952">
        <ele>92.2</ele>
        <time>2015-05-31T06:25:23Z</time>
      </trkpt>
      <trkpt lat="43.78173" lon="4.18941">
        <ele>93.2</ele>
        <time>2015-05-31T06:25:29Z</time>
      </trkpt>
      <trkpt lat="43.78166" lon="4.18932">
        <ele>94.3</ele>
        <time>2015-05-31T06:25:38Z</time>
      </trkpt>
      <trkpt lat="43.78161" lon="4.1892">
        <ele>95.1</ele>
        <time>2015-05-31T06:25:44Z</time>
      </trkpt>
      <trkpt lat="43.78155" lon="4.1891">
        <ele>95.8</ele>
        <time>2015-05-31T06:25:49Z</time>
      </trkpt>
      <trkpt lat="43.78149" lon="4.18898">
        <ele>96.8</ele>
        <time>2015-05-31T06:25:54Z</time>
      </trkpt>
      <trkpt lat="43.78143" lon="4.18886">
        <ele>98</ele>
        <time>2015-05-31T06:26:00Z</time>
      </trkpt>
      <trkpt lat="43.7814" lon="4.18873">
        <ele>98.9</ele>
        <time>2015-05-31T06:26:05Z</time>
      </trkpt>
      <trkpt lat="43.78136" lon="4.18861">
        <ele>99.7</ele>
        <time>2015-05-31T06:26:10Z</time>
      </trkpt>
      <trkpt lat="43.78134" lon="4.18848">
        <ele>100.2</ele>
        <time>2015-05-31T06:26:15Z</time>
      </trkpt>
      <trkpt lat="43.78131" lon="4.18836">
        <ele>100.6</ele>
        <time>2015-05-31T06:26:18Z</time>
      </trkpt>
      <trkpt lat="43.78131" lon="4.18823">
        <ele>100.9</ele>
        <time>2015-05-31T06:26:21Z</time>
      </trkpt>
      <trkpt lat="43.78133" lon="4.18806">
        <ele>101.2</ele>
        <time>2015-05-31T06:26:25Z</time>
      </trkpt>
      <trkpt lat="43.78134" lon="4.18793">
        <ele>101.4</ele>
        <time>2015-05-31T06:26:28Z</time>
      </trkpt>
      <trkpt lat="43.78135" lon="4.18779">
        <ele>101.7</ele>
        <time>2015-05-31T06:26:32Z</time>
      </trkpt>
      <trkpt lat="43.78136" lon="4.18763">
        <ele>102</ele>
        <time>2015-05-31T06:26:36Z</time>
      </trkpt>
      <trkpt lat="43.78136" lon="4.18747">
        <ele>102.5</ele>
        <time>2015-05-31T06:26:40Z</time>
      </trkpt>
      <trkpt lat="43.78134" lon="4.18734">
        <ele>102.8</ele>
        <time>2015-05-31T06:26:43Z</time>
      </trkpt>
      <trkpt lat="43.78133" lon="4.18721">
        <ele>103.1</ele>
        <time>2015-05-31T06:26:46Z</time>
      </trkpt>
      <trkpt lat="43.78133" lon="4.18708">
        <ele>103.6</ele>
        <time>2015-05-31T06:26:49Z</time>
      </trkpt>
      <trkpt lat="43.78132" lon="4.18693">
        <ele>104</ele>
        <time>2015-05-31T06:26:52Z</time>
      </trkpt>
      <trkpt lat="43.78132" lon="4.18679">
        <ele>104.3</ele>
        <time>2015-05-31T06:26:55Z</time>
      </trkpt>
      <trkpt lat="43.78132" lon="4.18666">
        <ele>104.6</ele>
        <time>2015-05-31T06:26:58Z</time>
      </trkpt>
      <trkpt lat="43.78133" lon="4.18652">
        <ele>105.1</ele>
        <time>2015-05-31T06:27:03Z</time>
      </trkpt>
      <trkpt lat="43.78136" lon="4.1864">
        <ele>105.9</ele>
        <time>2015-05-31T06:27:10Z</time>
      </trkpt>
      <trkpt lat="43.78135" lon="4.18627">
        <ele>108.3</ele>
        <time>2015-05-31T06:27:36Z</time>
      </trkpt>
      <trkpt lat="43.78135" lon="4.18615">
        <ele>109.2</ele>
        <time>2015-05-31T06:27:44Z</time>
      </trkpt>
      <trkpt lat="43.78133" lon="4.18602">
        <ele>110.5</ele>
        <time>2015-05-31T06:27:56Z</time>
      </trkpt>
      <trkpt lat="43.78133" lon="4.18589">
        <ele>111.7</ele>
        <time>2015-05-31T06:28:06Z</time>
      </trkpt>
      <trkpt lat="43.78131" lon="4.18576">
        <ele>113.2</ele>
        <time>2015-05-31T06:28:14Z</time>
      </trkpt>
      <trkpt lat="43.78129" lon="4.18563">
        <ele>114.6</ele>
        <time>2015-05-31T06:28:23Z</time>
      </trkpt>
      <trkpt lat="43.78123" lon="4.18553">
        <ele>116.7</ele>
        <time>2015-05-31T06:28:44Z</time>
      </trkpt>
      <trkpt lat="43.78118" lon="4.18539">
        <ele>116.9</ele>
        <time>2015-05-31T06:28:49Z</time>
      </trkpt>
      <trkpt lat="43.78114" lon="4.18525">
        <ele>117.1</ele>
        <time>2015-05-31T06:28:53Z</time>
      </trkpt>
      <trkpt lat="43.78109" lon="4.18514">
        <ele>117.3</ele>
        <time>2015-05-31T06:28:57Z</time>
      </trkpt>
      <trkpt lat="43.78104" lon="4.185">
        <ele>117.6</ele>
        <time>2015-05-31T06:29:01Z</time>
      </trkpt>
      <trkpt lat="43.78101" lon="4.18485">
        <ele>117.8</ele>
        <time>2015-05-31T06:29:05Z</time>
      </trkpt>
      <trkpt lat="43.78097" lon="4.1847">
        <ele>118</ele>
        <time>2015-05-31T06:29:09Z</time>
      </trkpt>
      <trkpt lat="43.78096" lon="4.18454">
        <ele>118.4</ele>
        <time>2015-05-31T06:29:13Z</time>
      </trkpt>
      <trkpt lat="43.78095" lon="4.18442">
        <ele>118.7</ele>
        <time>2015-05-31T06:29:16Z</time>
      </trkpt>
      <trkpt lat="43.78092" lon="4.18426">
        <ele>119.2</ele>
        <time>2015-05-31T06:29:20Z</time>
      </trkpt>
      <trkpt lat="43.78088" lon="4.18411">
        <ele>119.4</ele>
        <time>2015-05-31T06:29:23Z</time>
      </trkpt>
      <trkpt lat="43.78084" lon="4.18397">
        <ele>119.7</ele>
        <time>2015-05-31T06:29:26Z</time>
      </trkpt>
      <trkpt lat="43.78081" lon="4.18382">
        <ele>120.1</ele>
        <time>2015-05-31T06:29:29Z</time>
      </trkpt>
      <trkpt lat="43.7808" lon="4.18366">
        <ele>120.4</ele>
        <time>2015-05-31T06:29:32Z</time>
      </trkpt>
      <trkpt lat="43.78079" lon="4.18349">
        <ele>120.7</ele>
        <time>2015-05-31T06:29:35Z</time>
      </trkpt>
      <trkpt lat="43.7808" lon="4.18336">
        <ele>120.9</ele>
        <time>2015-05-31T06:29:37Z</time>
      </trkpt>
      <trkpt lat="43.78081" lon="4.18323">
        <ele>121.1</ele>
        <time>2015-05-31T06:29:39Z</time>
      </trkpt>
      <trkpt lat="43.78083" lon="4.18309">
        <ele>121.2</ele>
        <time>2015-05-31T06:29:41Z</time>
      </trkpt>
      <trkpt lat="43.78084" lon="4.18296">
        <ele>121.4</ele>
        <time>2015-05-31T06:29:43Z</time>
      </trkpt>
      <trkpt lat="43.78087" lon="4.18283">
        <ele>121.5</ele>
        <time>2015-05-31T06:29:45Z</time>
      </trkpt>
      <trkpt lat="43.7809" lon="4.18271">
        <ele>121.7</ele>
        <time>2015-05-31T06:29:47Z</time>
      </trkpt>
      <trkpt lat="43.78094" lon="4.18254">
        <ele>121.9</ele>
        <time>2015-05-31T06:29:50Z</time>
      </trkpt>
      <trkpt lat="43.78097" lon="4.18242">
        <ele>122.1</ele>
        <time>2015-05-31T06:29:52Z</time>
      </trkpt>
      <trkpt lat="43.78101" lon="4.1823">
        <ele>122.2</ele>
        <time>2015-05-31T06:29:54Z</time>
      </trkpt>
      <trkpt lat="43.78106" lon="4.18217">
        <ele>122.2</ele>
        <time>2015-05-31T06:29:56Z</time>
      </trkpt>
      <trkpt lat="43.7811" lon="4.18203">
        <ele>122.2</ele>
        <time>2015-05-31T06:29:58Z</time>
      </trkpt>
      <trkpt lat="43.78113" lon="4.1819">
        <ele>122.2</ele>
        <time>2015-05-31T06:30:00Z</time>
      </trkpt>
      <trkpt lat="43.78112" lon="4.18175">
        <ele>122.2</ele>
        <time>2015-05-31T06:30:02Z</time>
      </trkpt>
      <trkpt lat="43.78111" lon="4.1816">
        <ele>122.2</ele>
        <time>2015-05-31T06:30:04Z</time>
      </trkpt>
      <trkpt lat="43.78109" lon="4.18145">
        <ele>122.2</ele>
        <time>2015-05-31T06:30:06Z</time>
      </trkpt>
      <trkpt lat="43.78106" lon="4.18131">
        <ele>122.1</ele>
        <time>2015-05-31T06:30:08Z</time>
      </trkpt>
      <trkpt lat="43.78102" lon="4.1812">
        <ele>122.1</ele>
        <time>2015-05-31T06:30:10Z</time>
      </trkpt>
      <trkpt lat="43.78098" lon="4.18103">
        <ele>122.1</ele>
        <time>2015-05-31T06:30:13Z</time>
      </trkpt>
      <trkpt lat="43.78094" lon="4.18085">
        <ele>122</ele>
        <time>2015-05-31T06:30:16Z</time>
      </trkpt>
      <trkpt lat="43.78094" lon="4.18067">
        <ele>122</ele>
        <time>2015-05-31T06:30:19Z</time>
      </trkpt>
      <trkpt lat="43.78097" lon="4.18056">
        <ele>122</ele>
        <time>2015-05-31T06:30:21Z</time>
      </trkpt>
      <trkpt lat="43.78102" lon="4.18043">
        <ele>122</ele>
        <time>2015-05-31T06:30:23Z</time>
      </trkpt>
      <trkpt lat="43.78106" lon="4.1803">
        <ele>121.9</ele>
        <time>2015-05-31T06:30:25Z</time>
      </trkpt>
      <trkpt lat="43.78109" lon="4.18016">
        <ele>121.8</ele>
        <time>2015-05-31T06:30:27Z</time>
      </trkpt>
      <trkpt lat="43.78112" lon="4.18003">
        <ele>121.7</ele>
        <time>2015-05-31T06:30:29Z</time>
      </trkpt>
      <trkpt lat="43.78115" lon="4.1799">
        <ele>121.5</ele>
        <time>2015-05-31T06:30:31Z</time>
      </trkpt>
      <trkpt lat="43.78115" lon="4.17977">
        <ele>121.3</ele>
        <time>2015-05-31T06:30:33Z</time>
      </trkpt>
      <trkpt lat="43.78115" lon="4.17964">
        <ele>121.1</ele>
        <time>2015-05-31T06:30:35Z</time>
      </trkpt>
      <trkpt lat="43.78115" lon="4.17951">
        <ele>120.9</ele>
        <time>2015-05-31T06:30:37Z</time>
      </trkpt>
      <trkpt lat="43.78116" lon="4.17938">
        <ele>120.7</ele>
        <time>2015-05-31T06:30:39Z</time>
      </trkpt>
      <trkpt lat="43.78115" lon="4.17921">
        <ele>120.3</ele>
        <time>2015-05-31T06:30:42Z</time>
      </trkpt>
      <trkpt lat="43.78107" lon="4.1791">
        <ele>119.7</ele>
        <time>2015-05-31T06:30:46Z</time>
      </trkpt>
      <trkpt lat="43.78097" lon="4.17907">
        <ele>119.4</ele>
        <time>2015-05-31T06:30:49Z</time>
      </trkpt>
      <trkpt lat="43.78088" lon="4.17904">
        <ele>118.8</ele>
        <time>2015-05-31T06:30:56Z</time>
      </trkpt>
      <trkpt lat="43.7808" lon="4.17893">
        <ele>118.9</ele>
        <time>2015-05-31T06:31:01Z</time>
      </trkpt>
      <trkpt lat="43.78071" lon="4.17886">
        <ele>119</ele>
        <time>2015-05-31T06:31:06Z</time>
      </trkpt>
      <trkpt lat="43.78066" lon="4.17874">
        <ele>119.2</ele>
        <time>2015-05-31T06:31:09Z</time>
      </trkpt>
      <trkpt lat="43.78061" lon="4.17861">
        <ele>119.4</ele>
        <time>2015-05-31T06:31:13Z</time>
      </trkpt>
      <trkpt lat="43.78055" lon="4.17848">
        <ele>119.8</ele>
        <time>2015-05-31T06:31:17Z</time>
      </trkpt>
      <trkpt lat="43.78053" lon="4.17835">
        <ele>120.2</ele>
        <time>2015-05-31T06:31:21Z</time>
      </trkpt>
      <trkpt lat="43.78048" lon="4.17823">
        <ele>120.6</ele>
        <time>2015-05-31T06:31:25Z</time>
      </trkpt>
      <trkpt lat="43.78042" lon="4.1781">
        <ele>121</ele>
        <time>2015-05-31T06:31:30Z</time>
      </trkpt>
      <trkpt lat="43.78036" lon="4.17798">
        <ele>121.4</ele>
        <time>2015-05-31T06:31:34Z</time>
      </trkpt>
      <trkpt lat="43.78039" lon="4.17782">
        <ele>122.1</ele>
        <time>2015-05-31T06:31:39Z</time>
      </trkpt>
      <trkpt lat="43.78045" lon="4.1777">
        <ele>122.5</ele>
        <time>2015-05-31T06:31:43Z</time>
      </trkpt>
      <trkpt lat="43.78049" lon="4.17758">
        <ele>122.9</ele>
        <time>2015-05-31T06:31:47Z</time>
      </trkpt>
      <trkpt lat="43.78055" lon="4.17744">
        <ele>122.9</ele>
        <time>2015-05-31T06:31:51Z</time>
      </trkpt>
      <trkpt lat="43.78063" lon="4.1773">
        <ele>122.9</ele>
        <time>2015-05-31T06:31:54Z</time>
      </trkpt>
      <trkpt lat="43.78068" lon="4.1772">
        <ele>122.9</ele>
        <time>2015-05-31T06:31:56Z</time>
      </trkpt>
      <trkpt lat="43.78074" lon="4.17709">
        <ele>122.8</ele>
        <time>2015-05-31T06:31:58Z</time>
      </trkpt>
      <trkpt lat="43.78079" lon="4.17692">
        <ele>122.5</ele>
        <time>2015-05-31T06:32:01Z</time>
      </trkpt>
      <trkpt lat="43.78084" lon="4.17679">
        <ele>122.3</ele>
        <time>2015-05-31T06:32:03Z</time>
      </trkpt>
      <trkpt lat="43.7809" lon="4.17669">
        <ele>122.1</ele>
        <time>2015-05-31T06:32:06Z</time>
      </trkpt>
      <trkpt lat="43.78099" lon="4.17659">
        <ele>122</ele>
        <time>2015-05-31T06:32:11Z</time>
      </trkpt>
      <trkpt lat="43.78105" lon="4.17647">
        <ele>122</ele>
        <time>2015-05-31T06:32:15Z</time>
      </trkpt>
      <trkpt lat="43.78114" lon="4.17635">
        <ele>122</ele>
        <time>2015-05-31T06:32:18Z</time>
      </trkpt>
      <trkpt lat="43.78122" lon="4.17627">
        <ele>121.8</ele>
        <time>2015-05-31T06:32:20Z</time>
      </trkpt>
      <trkpt lat="43.78131" lon="4.17616">
        <ele>121.6</ele>
        <time>2015-05-31T06:32:23Z</time>
      </trkpt>
      <trkpt lat="43.78142" lon="4.17607">
        <ele>121.6</ele>
        <time>2015-05-31T06:32:26Z</time>
      </trkpt>
      <trkpt lat="43.78145" lon="4.17593">
        <ele>121.7</ele>
        <time>2015-05-31T06:32:30Z</time>
      </trkpt>
      <trkpt lat="43.78156" lon="4.17586">
        <ele>121.9</ele>
        <time>2015-05-31T06:32:34Z</time>
      </trkpt>
      <trkpt lat="43.78166" lon="4.17579">
        <ele>122</ele>
        <time>2015-05-31T06:32:37Z</time>
      </trkpt>
      <trkpt lat="43.78174" lon="4.17567">
        <ele>122.1</ele>
        <time>2015-05-31T06:32:40Z</time>
      </trkpt>
      <trkpt lat="43.78183" lon="4.17558">
        <ele>122.1</ele>
        <time>2015-05-31T06:32:43Z</time>
      </trkpt>
      <trkpt lat="43.78193" lon="4.17547">
        <ele>122.1</ele>
        <time>2015-05-31T06:32:46Z</time>
      </trkpt>
      <trkpt lat="43.78202" lon="4.17535">
        <ele>121.9</ele>
        <time>2015-05-31T06:32:49Z</time>
      </trkpt>
      <trkpt lat="43.78207" lon="4.17523">
        <ele>121.5</ele>
        <time>2015-05-31T06:32:55Z</time>
      </trkpt>
      <trkpt lat="43.7821" lon="4.17511">
        <ele>121.3</ele>
        <time>2015-05-31T06:32:59Z</time>
      </trkpt>
      <trkpt lat="43.78212" lon="4.17498">
        <ele>121.1</ele>
        <time>2015-05-31T06:33:02Z</time>
      </trkpt>
      <trkpt lat="43.78214" lon="4.17482">
        <ele>121</ele>
        <time>2015-05-31T06:33:05Z</time>
      </trkpt>
      <trkpt lat="43.78218" lon="4.17468">
        <ele>120.8</ele>
        <time>2015-05-31T06:33:08Z</time>
      </trkpt>
      <trkpt lat="43.78223" lon="4.17457">
        <ele>120.5</ele>
        <time>2015-05-31T06:33:12Z</time>
      </trkpt>
      <trkpt lat="43.7823" lon="4.17449">
        <ele>120.3</ele>
        <time>2015-05-31T06:33:18Z</time>
      </trkpt>
      <trkpt lat="43.78237" lon="4.17458">
        <ele>120.7</ele>
        <time>2015-05-31T06:33:24Z</time>
      </trkpt>
      <trkpt lat="43.78239" lon="4.17471">
        <ele>121.2</ele>
        <time>2015-05-31T06:33:29Z</time>
      </trkpt>
      <trkpt lat="43.78236" lon="4.17484">
        <ele>121.5</ele>
        <time>2015-05-31T06:33:33Z</time>
      </trkpt>
      <trkpt lat="43.78236" lon="4.17499">
        <ele>122.2</ele>
        <time>2015-05-31T06:33:39Z</time>
      </trkpt>
      <trkpt lat="43.78239" lon="4.17511">
        <ele>123</ele>
        <time>2015-05-31T06:33:44Z</time>
      </trkpt>
      <trkpt lat="43.78241" lon="4.17524">
        <ele>123.9</ele>
        <time>2015-05-31T06:33:51Z</time>
      </trkpt>
      <trkpt lat="43.78243" lon="4.17536">
        <ele>125</ele>
        <time>2015-05-31T06:33:57Z</time>
      </trkpt>
      <trkpt lat="43.78252" lon="4.17545">
        <ele>126.2</ele>
        <time>2015-05-31T06:34:05Z</time>
      </trkpt>
      <trkpt lat="43.78263" lon="4.17544">
        <ele>126.6</ele>
        <time>2015-05-31T06:34:09Z</time>
      </trkpt>
      <trkpt lat="43.78272" lon="4.17539">
        <ele>127</ele>
        <time>2015-05-31T06:34:12Z</time>
      </trkpt>
      <trkpt lat="43.7828" lon="4.17531">
        <ele>127.3</ele>
        <time>2015-05-31T06:34:15Z</time>
      </trkpt>
      <trkpt lat="43.78291" lon="4.17528">
        <ele>127.5</ele>
        <time>2015-05-31T06:34:18Z</time>
      </trkpt>
      <trkpt lat="43.78301" lon="4.17525">
        <ele>127.7</ele>
        <time>2015-05-31T06:34:21Z</time>
      </trkpt>
      <trkpt lat="43.78311" lon="4.17521">
        <ele>127.8</ele>
        <time>2015-05-31T06:34:24Z</time>
      </trkpt>
      <trkpt lat="43.7832" lon="4.17519">
        <ele>127.9</ele>
        <time>2015-05-31T06:34:27Z</time>
      </trkpt>
      <trkpt lat="43.78331" lon="4.17516">
        <ele>127.9</ele>
        <time>2015-05-31T06:34:30Z</time>
      </trkpt>
      <trkpt lat="43.78343" lon="4.17516">
        <ele>127.8</ele>
        <time>2015-05-31T06:34:33Z</time>
      </trkpt>
      <trkpt lat="43.78355" lon="4.17518">
        <ele>127.3</ele>
        <time>2015-05-31T06:34:36Z</time>
      </trkpt>
      <trkpt lat="43.78367" lon="4.1752">
        <ele>126.8</ele>
        <time>2015-05-31T06:34:39Z</time>
      </trkpt>
      <trkpt lat="43.78378" lon="4.17517">
        <ele>126.4</ele>
        <time>2015-05-31T06:34:42Z</time>
      </trkpt>
      <trkpt lat="43.78387" lon="4.17507">
        <ele>126</ele>
        <time>2015-05-31T06:34:45Z</time>
      </trkpt>
      <trkpt lat="43.78396" lon="4.17499">
        <ele>125.6</ele>
        <time>2015-05-31T06:34:49Z</time>
      </trkpt>
      <trkpt lat="43.78406" lon="4.17489">
        <ele>125.3</ele>
        <time>2015-05-31T06:34:52Z</time>
      </trkpt>
      <trkpt lat="43.78417" lon="4.1748">
        <ele>125.1</ele>
        <time>2015-05-31T06:34:55Z</time>
      </trkpt>
      <trkpt lat="43.78429" lon="4.17472">
        <ele>124.9</ele>
        <time>2015-05-31T06:34:58Z</time>
      </trkpt>
      <trkpt lat="43.78436" lon="4.17465">
        <ele>124.8</ele>
        <time>2015-05-31T06:35:00Z</time>
      </trkpt>
      <trkpt lat="43.78445" lon="4.17457">
        <ele>124.6</ele>
        <time>2015-05-31T06:35:02Z</time>
      </trkpt>
      <trkpt lat="43.78453" lon="4.17452">
        <ele>124.4</ele>
        <time>2015-05-31T06:35:04Z</time>
      </trkpt>
      <trkpt lat="43.78461" lon="4.17446">
        <ele>124.1</ele>
        <time>2015-05-31T06:35:07Z</time>
      </trkpt>
      <trkpt lat="43.78466" lon="4.17431">
        <ele>123.7</ele>
        <time>2015-05-31T06:35:12Z</time>
      </trkpt>
      <trkpt lat="43.78469" lon="4.17415">
        <ele>123.2</ele>
        <time>2015-05-31T06:35:16Z</time>
      </trkpt>
      <trkpt lat="43.78464" lon="4.17401">
        <ele>122.8</ele>
        <time>2015-05-31T06:35:19Z</time>
      </trkpt>
      <trkpt lat="43.78458" lon="4.17388">
        <ele>122.1</ele>
        <time>2015-05-31T06:35:23Z</time>
      </trkpt>
      <trkpt lat="43.78455" lon="4.17374">
        <ele>121.6</ele>
        <time>2015-05-31T06:35:27Z</time>
      </trkpt>
      <trkpt lat="43.78461" lon="4.17364">
        <ele>119.9</ele>
        <time>2015-05-31T06:35:39Z</time>
      </trkpt>
      <trkpt lat="43.78467" lon="4.17354">
        <ele>119.5</ele>
        <time>2015-05-31T06:35:47Z</time>
      </trkpt>
      <trkpt lat="43.78476" lon="4.17353">
        <ele>118.9</ele>
        <time>2015-05-31T06:36:02Z</time>
      </trkpt>
      <trkpt lat="43.78484" lon="4.17349">
        <ele>118.7</ele>
        <time>2015-05-31T06:36:08Z</time>
      </trkpt>
      <trkpt lat="43.78481" lon="4.17332">
        <ele>118.8</ele>
        <time>2015-05-31T06:36:15Z</time>
      </trkpt>
      <trkpt lat="43.78479" lon="4.17317">
        <ele>118.9</ele>
        <time>2015-05-31T06:36:18Z</time>
      </trkpt>
      <trkpt lat="43.78474" lon="4.17307">
        <ele>118.9</ele>
        <time>2015-05-31T06:36:22Z</time>
      </trkpt>
      <trkpt lat="43.78476" lon="4.17291">
        <ele>118.9</ele>
        <time>2015-05-31T06:36:27Z</time>
      </trkpt>
      <trkpt lat="43.78477" lon="4.17273">
        <ele>119</ele>
        <time>2015-05-31T06:36:31Z</time>
      </trkpt>
      <trkpt lat="43.78479" lon="4.17259">
        <ele>118.9</ele>
        <time>2015-05-31T06:36:34Z</time>
      </trkpt>
      <trkpt lat="43.78482" lon="4.17244">
        <ele>118.8</ele>
        <time>2015-05-31T06:36:37Z</time>
      </trkpt>
      <trkpt lat="43.78482" lon="4.1723">
        <ele>118.7</ele>
        <time>2015-05-31T06:36:40Z</time>
      </trkpt>
      <trkpt lat="43.78482" lon="4.17214">
        <ele>118.7</ele>
        <time>2015-05-31T06:36:43Z</time>
      </trkpt>
      <trkpt lat="43.78482" lon="4.17197">
        <ele>118.6</ele>
        <time>2015-05-31T06:36:46Z</time>
      </trkpt>
      <trkpt lat="43.78484" lon="4.17182">
        <ele>118.4</ele>
        <time>2015-05-31T06:36:49Z</time>
      </trkpt>
      <trkpt lat="43.78488" lon="4.17168">
        <ele>118.2</ele>
        <time>2015-05-31T06:36:53Z</time>
      </trkpt>
      <trkpt lat="43.78493" lon="4.17157">
        <ele>117.8</ele>
        <time>2015-05-31T06:37:08Z</time>
      </trkpt>
      <trkpt lat="43.785" lon="4.17144">
        <ele>117.5</ele>
        <time>2015-05-31T06:37:14Z</time>
      </trkpt>
      <trkpt lat="43.7851" lon="4.17137">
        <ele>117.3</ele>
        <time>2015-05-31T06:37:17Z</time>
      </trkpt>
      <trkpt lat="43.78521" lon="4.17134">
        <ele>117.1</ele>
        <time>2015-05-31T06:37:20Z</time>
      </trkpt>
      <trkpt lat="43.7853" lon="4.17127">
        <ele>116.8</ele>
        <time>2015-05-31T06:37:23Z</time>
      </trkpt>
      <trkpt lat="43.78537" lon="4.17114">
        <ele>116.4</ele>
        <time>2015-05-31T06:37:26Z</time>
      </trkpt>
      <trkpt lat="43.78545" lon="4.17104">
        <ele>115.8</ele>
        <time>2015-05-31T06:37:30Z</time>
      </trkpt>
      <trkpt lat="43.78556" lon="4.17109">
        <ele>115.2</ele>
        <time>2015-05-31T06:37:34Z</time>
      </trkpt>
      <trkpt lat="43.78565" lon="4.17113">
        <ele>114.7</ele>
        <time>2015-05-31T06:37:39Z</time>
      </trkpt>
      <trkpt lat="43.78575" lon="4.17116">
        <ele>114.3</ele>
        <time>2015-05-31T06:37:45Z</time>
      </trkpt>
      <trkpt lat="43.78585" lon="4.1711">
        <ele>114.1</ele>
        <time>2015-05-31T06:37:50Z</time>
      </trkpt>
      <trkpt lat="43.78595" lon="4.17107">
        <ele>113.9</ele>
        <time>2015-05-31T06:37:54Z</time>
      </trkpt>
      <trkpt lat="43.78604" lon="4.17109">
        <ele>113.7</ele>
        <time>2015-05-31T06:37:57Z</time>
      </trkpt>
      <trkpt lat="43.78614" lon="4.171">
        <ele>113.5</ele>
        <time>2015-05-31T06:38:01Z</time>
      </trkpt>
      <trkpt lat="43.78621" lon="4.17091">
        <ele>113.4</ele>
        <time>2015-05-31T06:38:04Z</time>
      </trkpt>
      <trkpt lat="43.7863" lon="4.17088">
        <ele>113.3</ele>
        <time>2015-05-31T06:38:07Z</time>
      </trkpt>
      <trkpt lat="43.7864" lon="4.17079">
        <ele>113.2</ele>
        <time>2015-05-31T06:38:11Z</time>
      </trkpt>
      <trkpt lat="43.78645" lon="4.17067">
        <ele>113.1</ele>
        <time>2015-05-31T06:38:14Z</time>
      </trkpt>
      <trkpt lat="43.78651" lon="4.17055">
        <ele>112.8</ele>
        <time>2015-05-31T06:38:17Z</time>
      </trkpt>
      <trkpt lat="43.78657" lon="4.17043">
        <ele>112.5</ele>
        <time>2015-05-31T06:38:21Z</time>
      </trkpt>
      <trkpt lat="43.78661" lon="4.17028">
        <ele>112.4</ele>
        <time>2015-05-31T06:38:25Z</time>
      </trkpt>
      <trkpt lat="43.78663" lon="4.17012">
        <ele>112.2</ele>
        <time>2015-05-31T06:38:29Z</time>
      </trkpt>
      <trkpt lat="43.78669" lon="4.17">
        <ele>112</ele>
        <time>2015-05-31T06:38:32Z</time>
      </trkpt>
      <trkpt lat="43.78678" lon="4.16986">
        <ele>111.8</ele>
        <time>2015-05-31T06:38:35Z</time>
      </trkpt>
      <trkpt lat="43.78686" lon="4.16977">
        <ele>111.6</ele>
        <time>2015-05-31T06:38:37Z</time>
      </trkpt>
      <trkpt lat="43.78697" lon="4.16965">
        <ele>111.2</ele>
        <time>2015-05-31T06:38:40Z</time>
      </trkpt>
      <trkpt lat="43.78708" lon="4.16955">
        <ele>110.5</ele>
        <time>2015-05-31T06:38:43Z</time>
      </trkpt>
      <trkpt lat="43.78716" lon="4.16948">
        <ele>110.1</ele>
        <time>2015-05-31T06:38:45Z</time>
      </trkpt>
      <trkpt lat="43.78724" lon="4.16935">
        <ele>109.3</ele>
        <time>2015-05-31T06:38:48Z</time>
      </trkpt>
      <trkpt lat="43.78731" lon="4.1692">
        <ele>108.5</ele>
        <time>2015-05-31T06:38:51Z</time>
      </trkpt>
      <trkpt lat="43.78743" lon="4.1691">
        <ele>107.8</ele>
        <time>2015-05-31T06:38:54Z</time>
      </trkpt>
      <trkpt lat="43.78751" lon="4.16902">
        <ele>107.3</ele>
        <time>2015-05-31T06:38:56Z</time>
      </trkpt>
      <trkpt lat="43.7876" lon="4.16903">
        <ele>106.6</ele>
        <time>2015-05-31T06:38:59Z</time>
      </trkpt>
      <trkpt lat="43.7877" lon="4.169">
        <ele>105.8</ele>
        <time>2015-05-31T06:39:03Z</time>
      </trkpt>
      <trkpt lat="43.78781" lon="4.16895">
        <ele>105.1</ele>
        <time>2015-05-31T06:39:07Z</time>
      </trkpt>
      <trkpt lat="43.78791" lon="4.16895">
        <ele>104.6</ele>
        <time>2015-05-31T06:39:10Z</time>
      </trkpt>
      <trkpt lat="43.78801" lon="4.16893">
        <ele>104.2</ele>
        <time>2015-05-31T06:39:13Z</time>
      </trkpt>
      <trkpt lat="43.78812" lon="4.16892">
        <ele>103.9</ele>
        <time>2015-05-31T06:39:16Z</time>
      </trkpt>
      <trkpt lat="43.78823" lon="4.16895">
        <ele>103.6</ele>
        <time>2015-05-31T06:39:19Z</time>
      </trkpt>
      <trkpt lat="43.78835" lon="4.16897">
        <ele>103.3</ele>
        <time>2015-05-31T06:39:22Z</time>
      </trkpt>
      <trkpt lat="43.78845" lon="4.169">
        <ele>103.1</ele>
        <time>2015-05-31T06:39:25Z</time>
      </trkpt>
      <trkpt lat="43.78857" lon="4.169">
        <ele>102.8</ele>
        <time>2015-05-31T06:39:28Z</time>
      </trkpt>
      <trkpt lat="43.78868" lon="4.16895">
        <ele>102.4</ele>
        <time>2015-05-31T06:39:31Z</time>
      </trkpt>
      <trkpt lat="43.78877" lon="4.1689">
        <ele>101.8</ele>
        <time>2015-05-31T06:39:34Z</time>
      </trkpt>
      <trkpt lat="43.78886" lon="4.16887">
        <ele>101.1</ele>
        <time>2015-05-31T06:39:37Z</time>
      </trkpt>
      <trkpt lat="43.78894" lon="4.16878">
        <ele>100.5</ele>
        <time>2015-05-31T06:39:40Z</time>
      </trkpt>
      <trkpt lat="43.78903" lon="4.16867">
        <ele>99.9</ele>
        <time>2015-05-31T06:39:44Z</time>
      </trkpt>
      <trkpt lat="43.78909" lon="4.16856">
        <ele>99.5</ele>
        <time>2015-05-31T06:39:47Z</time>
      </trkpt>
      <trkpt lat="43.78917" lon="4.16843">
        <ele>99</ele>
        <time>2015-05-31T06:39:51Z</time>
      </trkpt>
      <trkpt lat="43.78925" lon="4.16832">
        <ele>98.7</ele>
        <time>2015-05-31T06:39:54Z</time>
      </trkpt>
      <trkpt lat="43.78935" lon="4.16826">
        <ele>98.3</ele>
        <time>2015-05-31T06:39:58Z</time>
      </trkpt>
      <trkpt lat="43.78947" lon="4.16829">
        <ele>97.6</ele>
        <time>2015-05-31T06:40:02Z</time>
      </trkpt>
      <trkpt lat="43.78954" lon="4.16838">
        <ele>96.7</ele>
        <time>2015-05-31T06:40:05Z</time>
      </trkpt>
      <trkpt lat="43.78958" lon="4.16853">
        <ele>95.6</ele>
        <time>2015-05-31T06:40:08Z</time>
      </trkpt>
      <trkpt lat="43.7896" lon="4.16865">
        <ele>94.3</ele>
        <time>2015-05-31T06:40:12Z</time>
      </trkpt>
      <trkpt lat="43.78954" lon="4.16879">
        <ele>92.7</ele>
        <time>2015-05-31T06:40:16Z</time>
      </trkpt>
      <trkpt lat="43.78947" lon="4.1689">
        <ele>91.6</ele>
        <time>2015-05-31T06:40:19Z</time>
      </trkpt>
      <trkpt lat="43.7894" lon="4.16903">
        <ele>90.5</ele>
        <time>2015-05-31T06:40:22Z</time>
      </trkpt>
      <trkpt lat="43.78933" lon="4.16913">
        <ele>89.6</ele>
        <time>2015-05-31T06:40:25Z</time>
      </trkpt>
      <trkpt lat="43.78926" lon="4.16926">
        <ele>88.8</ele>
        <time>2015-05-31T06:40:28Z</time>
      </trkpt>
      <trkpt lat="43.78918" lon="4.1694">
        <ele>88</ele>
        <time>2015-05-31T06:40:31Z</time>
      </trkpt>
      <trkpt lat="43.78911" lon="4.1695">
        <ele>87.5</ele>
        <time>2015-05-31T06:40:33Z</time>
      </trkpt>
      <trkpt lat="43.78904" lon="4.16962">
        <ele>86.8</ele>
        <time>2015-05-31T06:40:35Z</time>
      </trkpt>
      <trkpt lat="43.78897" lon="4.16975">
        <ele>86.2</ele>
        <time>2015-05-31T06:40:37Z</time>
      </trkpt>
      <trkpt lat="43.78889" lon="4.16987">
        <ele>85.7</ele>
        <time>2015-05-31T06:40:39Z</time>
      </trkpt>
      <trkpt lat="43.78884" lon="4.16998">
        <ele>85.3</ele>
        <time>2015-05-31T06:40:41Z</time>
      </trkpt>
      <trkpt lat="43.78877" lon="4.17012">
        <ele>84.7</ele>
        <time>2015-05-31T06:40:44Z</time>
      </trkpt>
      <trkpt lat="43.78872" lon="4.17025">
        <ele>84</ele>
        <time>2015-05-31T06:40:47Z</time>
      </trkpt>
      <trkpt lat="43.78869" lon="4.1704">
        <ele>83.5</ele>
        <time>2015-05-31T06:40:50Z</time>
      </trkpt>
      <trkpt lat="43.78873" lon="4.17053">
        <ele>82.8</ele>
        <time>2015-05-31T06:40:53Z</time>
      </trkpt>
      <trkpt lat="43.78884" lon="4.17049">
        <ele>81.9</ele>
        <time>2015-05-31T06:40:57Z</time>
      </trkpt>
      <trkpt lat="43.78892" lon="4.17038">
        <ele>81.3</ele>
        <time>2015-05-31T06:41:00Z</time>
      </trkpt>
      <trkpt lat="43.78904" lon="4.17033">
        <ele>80.7</ele>
        <time>2015-05-31T06:41:03Z</time>
      </trkpt>
      <trkpt lat="43.78915" lon="4.17035">
        <ele>80.2</ele>
        <time>2015-05-31T06:41:06Z</time>
      </trkpt>
      <trkpt lat="43.78926" lon="4.17038">
        <ele>79.7</ele>
        <time>2015-05-31T06:41:09Z</time>
      </trkpt>
      <trkpt lat="43.78937" lon="4.17043">
        <ele>79.3</ele>
        <time>2015-05-31T06:41:12Z</time>
      </trkpt>
      <trkpt lat="43.78948" lon="4.17048">
        <ele>78.9</ele>
        <time>2015-05-31T06:41:15Z</time>
      </trkpt>
      <trkpt lat="43.78957" lon="4.17053">
        <ele>78.6</ele>
        <time>2015-05-31T06:41:18Z</time>
      </trkpt>
      <trkpt lat="43.78968" lon="4.17059">
        <ele>78.3</ele>
        <time>2015-05-31T06:41:21Z</time>
      </trkpt>
      <trkpt lat="43.78976" lon="4.17065">
        <ele>78.2</ele>
        <time>2015-05-31T06:41:23Z</time>
      </trkpt>
      <trkpt lat="43.78985" lon="4.17071">
        <ele>78</ele>
        <time>2015-05-31T06:41:25Z</time>
      </trkpt>
      <trkpt lat="43.78993" lon="4.17077">
        <ele>77.9</ele>
        <time>2015-05-31T06:41:27Z</time>
      </trkpt>
      <trkpt lat="43.79002" lon="4.17082">
        <ele>77.8</ele>
        <time>2015-05-31T06:41:29Z</time>
      </trkpt>
      <trkpt lat="43.79012" lon="4.17088">
        <ele>77.6</ele>
        <time>2015-05-31T06:41:32Z</time>
      </trkpt>
      <trkpt lat="43.79021" lon="4.17092">
        <ele>77.5</ele>
        <time>2015-05-31T06:41:35Z</time>
      </trkpt>
      <trkpt lat="43.79031" lon="4.17097">
        <ele>77.3</ele>
        <time>2015-05-31T06:41:39Z</time>
      </trkpt>
      <trkpt lat="43.7904" lon="4.17101">
        <ele>77.3</ele>
        <time>2015-05-31T06:41:42Z</time>
      </trkpt>
      <trkpt lat="43.7905" lon="4.17103">
        <ele>77.2</ele>
        <time>2015-05-31T06:41:45Z</time>
      </trkpt>
      <trkpt lat="43.7906" lon="4.17107">
        <ele>77.1</ele>
        <time>2015-05-31T06:41:48Z</time>
      </trkpt>
      <trkpt lat="43.79071" lon="4.1711">
        <ele>77.1</ele>
        <time>2015-05-31T06:41:51Z</time>
      </trkpt>
      <trkpt lat="43.79081" lon="4.17113">
        <ele>77.1</ele>
        <time>2015-05-31T06:41:54Z</time>
      </trkpt>
      <trkpt lat="43.79091" lon="4.17116">
        <ele>77</ele>
        <time>2015-05-31T06:41:57Z</time>
      </trkpt>
      <trkpt lat="43.791" lon="4.1712">
        <ele>77</ele>
        <time>2015-05-31T06:42:00Z</time>
      </trkpt>
      <trkpt lat="43.79111" lon="4.17124">
        <ele>77</ele>
        <time>2015-05-31T06:42:03Z</time>
      </trkpt>
      <trkpt lat="43.79121" lon="4.17126">
        <ele>77</ele>
        <time>2015-05-31T06:42:06Z</time>
      </trkpt>
      <trkpt lat="43.7913" lon="4.1713">
        <ele>77</ele>
        <time>2015-05-31T06:42:09Z</time>
      </trkpt>
      <trkpt lat="43.7914" lon="4.17134">
        <ele>77</ele>
        <time>2015-05-31T06:42:12Z</time>
      </trkpt>
      <trkpt lat="43.79149" lon="4.17138">
        <ele>77</ele>
        <time>2015-05-31T06:42:15Z</time>
      </trkpt>
      <trkpt lat="43.79159" lon="4.17143">
        <ele>77.1</ele>
        <time>2015-05-31T06:42:19Z</time>
      </trkpt>
      <trkpt lat="43.7917" lon="4.17149">
        <ele>77.3</ele>
        <time>2015-05-31T06:42:23Z</time>
      </trkpt>
      <trkpt lat="43.7918" lon="4.17156">
        <ele>77.6</ele>
        <time>2015-05-31T06:42:27Z</time>
      </trkpt>
      <trkpt lat="43.7919" lon="4.17166">
        <ele>77.8</ele>
        <time>2015-05-31T06:42:31Z</time>
      </trkpt>
      <trkpt lat="43.79196" lon="4.17175">
        <ele>78</ele>
        <time>2015-05-31T06:42:34Z</time>
      </trkpt>
      <trkpt lat="43.79202" lon="4.17185">
        <ele>78.2</ele>
        <time>2015-05-31T06:42:37Z</time>
      </trkpt>
      <trkpt lat="43.79208" lon="4.17195">
        <ele>78.5</ele>
        <time>2015-05-31T06:42:40Z</time>
      </trkpt>
      <trkpt lat="43.79214" lon="4.17207">
        <ele>78.7</ele>
        <time>2015-05-31T06:42:43Z</time>
      </trkpt>
      <trkpt lat="43.79219" lon="4.17221">
        <ele>78.9</ele>
        <time>2015-05-31T06:42:46Z</time>
      </trkpt>
      <trkpt lat="43.79223" lon="4.17235">
        <ele>79.3</ele>
        <time>2015-05-31T06:42:49Z</time>
      </trkpt>
      <trkpt lat="43.79226" lon="4.1725">
        <ele>79.5</ele>
        <time>2015-05-31T06:42:52Z</time>
      </trkpt>
      <trkpt lat="43.79229" lon="4.17266">
        <ele>79.8</ele>
        <time>2015-05-31T06:42:55Z</time>
      </trkpt>
      <trkpt lat="43.79232" lon="4.17282">
        <ele>80.1</ele>
        <time>2015-05-31T06:42:58Z</time>
      </trkpt>
      <trkpt lat="43.79234" lon="4.17297">
        <ele>80.3</ele>
        <time>2015-05-31T06:43:01Z</time>
      </trkpt>
      <trkpt lat="43.79235" lon="4.17314">
        <ele>80.5</ele>
        <time>2015-05-31T06:43:04Z</time>
      </trkpt>
      <trkpt lat="43.79237" lon="4.17332">
        <ele>80.6</ele>
        <time>2015-05-31T06:43:07Z</time>
      </trkpt>
      <trkpt lat="43.79237" lon="4.17348">
        <ele>80.8</ele>
        <time>2015-05-31T06:43:10Z</time>
      </trkpt>
      <trkpt lat="43.79237" lon="4.17365">
        <ele>80.9</ele>
        <time>2015-05-31T06:43:13Z</time>
      </trkpt>
      <trkpt lat="43.79236" lon="4.17383">
        <ele>81</ele>
        <time>2015-05-31T06:43:16Z</time>
      </trkpt>
      <trkpt lat="43.79235" lon="4.17396">
        <ele>81</ele>
        <time>2015-05-31T06:43:18Z</time>
      </trkpt>
      <trkpt lat="43.79236" lon="4.17409">
        <ele>81.1</ele>
        <time>2015-05-31T06:43:20Z</time>
      </trkpt>
      <trkpt lat="43.79237" lon="4.17427">
        <ele>81.2</ele>
        <time>2015-05-31T06:43:23Z</time>
      </trkpt>
      <trkpt lat="43.79243" lon="4.17439">
        <ele>81.2</ele>
        <time>2015-05-31T06:43:26Z</time>
      </trkpt>
      <trkpt lat="43.79249" lon="4.17449">
        <ele>81.2</ele>
        <time>2015-05-31T06:43:29Z</time>
      </trkpt>
      <trkpt lat="43.79255" lon="4.1746">
        <ele>81.2</ele>
        <time>2015-05-31T06:43:32Z</time>
      </trkpt>
      <trkpt lat="43.79263" lon="4.17472">
        <ele>81.3</ele>
        <time>2015-05-31T06:43:35Z</time>
      </trkpt>
      <trkpt lat="43.79271" lon="4.17484">
        <ele>81.3</ele>
        <time>2015-05-31T06:43:38Z</time>
      </trkpt>
      <trkpt lat="43.79278" lon="4.17494">
        <ele>81.3</ele>
        <time>2015-05-31T06:43:41Z</time>
      </trkpt>
      <trkpt lat="43.79285" lon="4.17504">
        <ele>81.3</ele>
        <time>2015-05-31T06:43:44Z</time>
      </trkpt>
      <trkpt lat="43.79293" lon="4.17516">
        <ele>81.3</ele>
        <time>2015-05-31T06:43:47Z</time>
      </trkpt>
      <trkpt lat="43.793" lon="4.17528">
        <ele>81.3</ele>
        <time>2015-05-31T06:43:50Z</time>
      </trkpt>
      <trkpt lat="43.79306" lon="4.17539">
        <ele>81.3</ele>
        <time>2015-05-31T06:43:53Z</time>
      </trkpt>
      <trkpt lat="43.79312" lon="4.17551">
        <ele>81.3</ele>
        <time>2015-05-31T06:43:56Z</time>
      </trkpt>
      <trkpt lat="43.79318" lon="4.17562">
        <ele>81.4</ele>
        <time>2015-05-31T06:43:59Z</time>
      </trkpt>
      <trkpt lat="43.79325" lon="4.17573">
        <ele>81.4</ele>
        <time>2015-05-31T06:44:02Z</time>
      </trkpt>
      <trkpt lat="43.79331" lon="4.17584">
        <ele>81.6</ele>
        <time>2015-05-31T06:44:05Z</time>
      </trkpt>
      <trkpt lat="43.79338" lon="4.17596">
        <ele>81.8</ele>
        <time>2015-05-31T06:44:08Z</time>
      </trkpt>
      <trkpt lat="43.79347" lon="4.17607">
        <ele>82.1</ele>
        <time>2015-05-31T06:44:11Z</time>
      </trkpt>
      <trkpt lat="43.79354" lon="4.17619">
        <ele>82.2</ele>
        <time>2015-05-31T06:44:14Z</time>
      </trkpt>
      <trkpt lat="43.79359" lon="4.17632">
        <ele>82.4</ele>
        <time>2015-05-31T06:44:17Z</time>
      </trkpt>
      <trkpt lat="43.79363" lon="4.17644">
        <ele>82.6</ele>
        <time>2015-05-31T06:44:20Z</time>
      </trkpt>
      <trkpt lat="43.79368" lon="4.17656">
        <ele>82.8</ele>
        <time>2015-05-31T06:44:23Z</time>
      </trkpt>
      <trkpt lat="43.79374" lon="4.17666">
        <ele>83.1</ele>
        <time>2015-05-31T06:44:26Z</time>
      </trkpt>
      <trkpt lat="43.7938" lon="4.17679">
        <ele>83.5</ele>
        <time>2015-05-31T06:44:30Z</time>
      </trkpt>
      <trkpt lat="43.79385" lon="4.17691">
        <ele>84</ele>
        <time>2015-05-31T06:44:34Z</time>
      </trkpt>
      <trkpt lat="43.79392" lon="4.17704">
        <ele>84.7</ele>
        <time>2015-05-31T06:44:38Z</time>
      </trkpt>
      <trkpt lat="43.79398" lon="4.17716">
        <ele>85.3</ele>
        <time>2015-05-31T06:44:42Z</time>
      </trkpt>
      <trkpt lat="43.79404" lon="4.17727">
        <ele>85.9</ele>
        <time>2015-05-31T06:44:46Z</time>
      </trkpt>
      <trkpt lat="43.79409" lon="4.17737">
        <ele>86.4</ele>
        <time>2015-05-31T06:44:50Z</time>
      </trkpt>
      <trkpt lat="43.79411" lon="4.17751">
        <ele>87.2</ele>
        <time>2015-05-31T06:44:55Z</time>
      </trkpt>
      <trkpt lat="43.79405" lon="4.17766">
        <ele>87.8</ele>
        <time>2015-05-31T06:44:59Z</time>
      </trkpt>
      <trkpt lat="43.79401" lon="4.17779">
        <ele>88.2</ele>
        <time>2015-05-31T06:45:02Z</time>
      </trkpt>
      <trkpt lat="43.79398" lon="4.17793">
        <ele>88.5</ele>
        <time>2015-05-31T06:45:05Z</time>
      </trkpt>
      <trkpt lat="43.79398" lon="4.17807">
        <ele>88.7</ele>
        <time>2015-05-31T06:45:08Z</time>
      </trkpt>
      <trkpt lat="43.79407" lon="4.17818">
        <ele>89</ele>
        <time>2015-05-31T06:45:12Z</time>
      </trkpt>
      <trkpt lat="43.79416" lon="4.17816">
        <ele>89.2</ele>
        <time>2015-05-31T06:45:16Z</time>
      </trkpt>
      <trkpt lat="43.79423" lon="4.17805">
        <ele>89.5</ele>
        <time>2015-05-31T06:45:20Z</time>
      </trkpt>
      <trkpt lat="43.79428" lon="4.17793">
        <ele>90</ele>
        <time>2015-05-31T06:45:24Z</time>
      </trkpt>
      <trkpt lat="43.79433" lon="4.17779">
        <ele>90.4</ele>
        <time>2015-05-31T06:45:28Z</time>
      </trkpt>
      <trkpt lat="43.79443" lon="4.17775">
        <ele>90.9</ele>
        <time>2015-05-31T06:45:32Z</time>
      </trkpt>
      <trkpt lat="43.79453" lon="4.17776">
        <ele>91.3</ele>
        <time>2015-05-31T06:45:36Z</time>
      </trkpt>
      <trkpt lat="43.79462" lon="4.17772">
        <ele>91.8</ele>
        <time>2015-05-31T06:45:40Z</time>
      </trkpt>
      <trkpt lat="43.79472" lon="4.17769">
        <ele>92.4</ele>
        <time>2015-05-31T06:45:44Z</time>
      </trkpt>
      <trkpt lat="43.79481" lon="4.17761">
        <ele>92.9</ele>
        <time>2015-05-31T06:45:48Z</time>
      </trkpt>
      <trkpt lat="43.79489" lon="4.17751">
        <ele>93.6</ele>
        <time>2015-05-31T06:45:53Z</time>
      </trkpt>
      <trkpt lat="43.79499" lon="4.17749">
        <ele>94.4</ele>
        <time>2015-05-31T06:45:58Z</time>
      </trkpt>
      <trkpt lat="43.79509" lon="4.17749">
        <ele>95.3</ele>
        <time>2015-05-31T06:46:03Z</time>
      </trkpt>
      <trkpt lat="43.79518" lon="4.17746">
        <ele>96.3</ele>
        <time>2015-05-31T06:46:09Z</time>
      </trkpt>
      <trkpt lat="43.79527" lon="4.17744">
        <ele>97.4</ele>
        <time>2015-05-31T06:46:15Z</time>
      </trkpt>
      <trkpt lat="43.79534" lon="4.17736">
        <ele>98.4</ele>
        <time>2015-05-31T06:46:22Z</time>
      </trkpt>
      <trkpt lat="43.79537" lon="4.17724">
        <ele>99.5</ele>
        <time>2015-05-31T06:46:28Z</time>
      </trkpt>
      <trkpt lat="43.7954" lon="4.17711">
        <ele>100.2</ele>
        <time>2015-05-31T06:46:33Z</time>
      </trkpt>
      <trkpt lat="43.79548" lon="4.177">
        <ele>101.3</ele>
        <time>2015-05-31T06:46:40Z</time>
      </trkpt>
      <trkpt lat="43.79555" lon="4.17687">
        <ele>102.2</ele>
        <time>2015-05-31T06:46:45Z</time>
      </trkpt>
      <trkpt lat="43.79565" lon="4.17685">
        <ele>103.1</ele>
        <time>2015-05-31T06:46:49Z</time>
      </trkpt>
      <trkpt lat="43.79571" lon="4.17676">
        <ele>104.4</ele>
        <time>2015-05-31T06:46:55Z</time>
      </trkpt>
      <trkpt lat="43.79578" lon="4.17666">
        <ele>106.1</ele>
        <time>2015-05-31T06:47:03Z</time>
      </trkpt>
      <trkpt lat="43.79581" lon="4.17654">
        <ele>106.9</ele>
        <time>2015-05-31T06:47:08Z</time>
      </trkpt>
      <trkpt lat="43.79584" lon="4.17641">
        <ele>107.5</ele>
        <time>2015-05-31T06:47:12Z</time>
      </trkpt>
      <trkpt lat="43.79589" lon="4.17628">
        <ele>108.2</ele>
        <time>2015-05-31T06:47:16Z</time>
      </trkpt>
      <trkpt lat="43.79596" lon="4.17616">
        <ele>108.7</ele>
        <time>2015-05-31T06:47:20Z</time>
      </trkpt>
      <trkpt lat="43.796" lon="4.17601">
        <ele>109.2</ele>
        <time>2015-05-31T06:47:24Z</time>
      </trkpt>
      <trkpt lat="43.79604" lon="4.17591">
        <ele>109.6</ele>
        <time>2015-05-31T06:47:27Z</time>
      </trkpt>
      <trkpt lat="43.79606" lon="4.17578">
        <ele>109.8</ele>
        <time>2015-05-31T06:47:30Z</time>
      </trkpt>
      <trkpt lat="43.79611" lon="4.17565">
        <ele>110</ele>
        <time>2015-05-31T06:47:33Z</time>
      </trkpt>
      <trkpt lat="43.79616" lon="4.17548">
        <ele>110</ele>
        <time>2015-05-31T06:47:36Z</time>
      </trkpt>
      <trkpt lat="43.79622" lon="4.17538">
        <ele>110</ele>
        <time>2015-05-31T06:47:39Z</time>
      </trkpt>
      <trkpt lat="43.79626" lon="4.17525">
        <ele>110</ele>
        <time>2015-05-31T06:47:42Z</time>
      </trkpt>
      <trkpt lat="43.79631" lon="4.17511">
        <ele>109.8</ele>
        <time>2015-05-31T06:47:45Z</time>
      </trkpt>
      <trkpt lat="43.79634" lon="4.17494">
        <ele>109.5</ele>
        <time>2015-05-31T06:47:48Z</time>
      </trkpt>
      <trkpt lat="43.79639" lon="4.17478">
        <ele>109</ele>
        <time>2015-05-31T06:47:51Z</time>
      </trkpt>
      <trkpt lat="43.79644" lon="4.17465">
        <ele>108.6</ele>
        <time>2015-05-31T06:47:53Z</time>
      </trkpt>
      <trkpt lat="43.79647" lon="4.17452">
        <ele>108.2</ele>
        <time>2015-05-31T06:47:55Z</time>
      </trkpt>
      <trkpt lat="43.79648" lon="4.17436">
        <ele>107.1</ele>
        <time>2015-05-31T06:47:58Z</time>
      </trkpt>
      <trkpt lat="43.79649" lon="4.17423">
        <ele>106</ele>
        <time>2015-05-31T06:48:02Z</time>
      </trkpt>
      <trkpt lat="43.7966" lon="4.17423">
        <ele>105</ele>
        <time>2015-05-31T06:48:07Z</time>
      </trkpt>
      <trkpt lat="43.79669" lon="4.17414">
        <ele>104.3</ele>
        <time>2015-05-31T06:48:12Z</time>
      </trkpt>
      <trkpt lat="43.79679" lon="4.17406">
        <ele>103.8</ele>
        <time>2015-05-31T06:48:16Z</time>
      </trkpt>
      <trkpt lat="43.79687" lon="4.174">
        <ele>103.7</ele>
        <time>2015-05-31T06:48:19Z</time>
      </trkpt>
      <trkpt lat="43.79695" lon="4.1739">
        <ele>103.6</ele>
        <time>2015-05-31T06:48:23Z</time>
      </trkpt>
      <trkpt lat="43.79697" lon="4.17376">
        <ele>103.4</ele>
        <time>2015-05-31T06:48:26Z</time>
      </trkpt>
      <trkpt lat="43.79699" lon="4.17362">
        <ele>103.2</ele>
        <time>2015-05-31T06:48:28Z</time>
      </trkpt>
      <trkpt lat="43.79701" lon="4.17347">
        <ele>103</ele>
        <time>2015-05-31T06:48:30Z</time>
      </trkpt>
      <trkpt lat="43.79697" lon="4.17331">
        <ele>102.8</ele>
        <time>2015-05-31T06:48:33Z</time>
      </trkpt>
      <trkpt lat="43.79696" lon="4.17316">
        <ele>102.6</ele>
        <time>2015-05-31T06:48:36Z</time>
      </trkpt>
      <trkpt lat="43.79696" lon="4.17299">
        <ele>102.4</ele>
        <time>2015-05-31T06:48:40Z</time>
      </trkpt>
      <trkpt lat="43.79698" lon="4.17285">
        <ele>102.4</ele>
        <time>2015-05-31T06:48:44Z</time>
      </trkpt>
      <trkpt lat="43.79697" lon="4.1727">
        <ele>102.7</ele>
        <time>2015-05-31T06:48:51Z</time>
      </trkpt>
      <trkpt lat="43.79699" lon="4.17257">
        <ele>104.5</ele>
        <time>2015-05-31T06:49:09Z</time>
      </trkpt>
      <trkpt lat="43.79705" lon="4.17245">
        <ele>106.2</ele>
        <time>2015-05-31T06:49:31Z</time>
      </trkpt>
      <trkpt lat="43.79705" lon="4.1723">
        <ele>106.6</ele>
        <time>2015-05-31T06:49:37Z</time>
      </trkpt>
      <trkpt lat="43.79702" lon="4.17218">
        <ele>107</ele>
        <time>2015-05-31T06:49:42Z</time>
      </trkpt>
      <trkpt lat="43.79702" lon="4.17203">
        <ele>107.3</ele>
        <time>2015-05-31T06:49:48Z</time>
      </trkpt>
      <trkpt lat="43.79707" lon="4.17189">
        <ele>107.9</ele>
        <time>2015-05-31T06:49:53Z</time>
      </trkpt>
      <trkpt lat="43.79708" lon="4.17176">
        <ele>108.3</ele>
        <time>2015-05-31T06:49:57Z</time>
      </trkpt>
      <trkpt lat="43.79707" lon="4.17163">
        <ele>108.6</ele>
        <time>2015-05-31T06:50:00Z</time>
      </trkpt>
      <trkpt lat="43.79709" lon="4.17147">
        <ele>108.9</ele>
        <time>2015-05-31T06:50:03Z</time>
      </trkpt>
      <trkpt lat="43.7971" lon="4.17133">
        <ele>109.1</ele>
        <time>2015-05-31T06:50:06Z</time>
      </trkpt>
      <trkpt lat="43.79708" lon="4.1712">
        <ele>109.3</ele>
        <time>2015-05-31T06:50:09Z</time>
      </trkpt>
      <trkpt lat="43.79708" lon="4.17104">
        <ele>109.5</ele>
        <time>2015-05-31T06:50:12Z</time>
      </trkpt>
      <trkpt lat="43.79708" lon="4.17087">
        <ele>109.6</ele>
        <time>2015-05-31T06:50:15Z</time>
      </trkpt>
      <trkpt lat="43.79711" lon="4.17069">
        <ele>109.7</ele>
        <time>2015-05-31T06:50:18Z</time>
      </trkpt>
      <trkpt lat="43.79715" lon="4.17055">
        <ele>109.7</ele>
        <time>2015-05-31T06:50:20Z</time>
      </trkpt>
      <trkpt lat="43.79719" lon="4.17041">
        <ele>109.6</ele>
        <time>2015-05-31T06:50:22Z</time>
      </trkpt>
      <trkpt lat="43.79727" lon="4.17029">
        <ele>109.5</ele>
        <time>2015-05-31T06:50:24Z</time>
      </trkpt>
      <trkpt lat="43.79734" lon="4.17018">
        <ele>109.4</ele>
        <time>2015-05-31T06:50:26Z</time>
      </trkpt>
      <trkpt lat="43.79741" lon="4.17008">
        <ele>109.3</ele>
        <time>2015-05-31T06:50:28Z</time>
      </trkpt>
      <trkpt lat="43.79747" lon="4.16999">
        <ele>109.1</ele>
        <time>2015-05-31T06:50:30Z</time>
      </trkpt>
      <trkpt lat="43.79755" lon="4.16988">
        <ele>108.9</ele>
        <time>2015-05-31T06:50:32Z</time>
      </trkpt>
      <trkpt lat="43.79762" lon="4.16978">
        <ele>108.7</ele>
        <time>2015-05-31T06:50:34Z</time>
      </trkpt>
      <trkpt lat="43.79768" lon="4.16968">
        <ele>108.5</ele>
        <time>2015-05-31T06:50:36Z</time>
      </trkpt>
      <trkpt lat="43.79779" lon="4.16963">
        <ele>108.3</ele>
        <time>2015-05-31T06:50:39Z</time>
      </trkpt>
      <trkpt lat="43.79789" lon="4.16966">
        <ele>108</ele>
        <time>2015-05-31T06:50:42Z</time>
      </trkpt>
      <trkpt lat="43.79799" lon="4.16964">
        <ele>107.8</ele>
        <time>2015-05-31T06:50:45Z</time>
      </trkpt>
      <trkpt lat="43.79805" lon="4.16951">
        <ele>107.7</ele>
        <time>2015-05-31T06:50:48Z</time>
      </trkpt>
      <trkpt lat="43.79809" lon="4.16934">
        <ele>107.4</ele>
        <time>2015-05-31T06:50:51Z</time>
      </trkpt>
      <trkpt lat="43.79806" lon="4.16923">
        <ele>107.2</ele>
        <time>2015-05-31T06:50:54Z</time>
      </trkpt>
      <trkpt lat="43.79796" lon="4.16914">
        <ele>106.9</ele>
        <time>2015-05-31T06:50:57Z</time>
      </trkpt>
      <trkpt lat="43.79787" lon="4.16901">
        <ele>106.6</ele>
        <time>2015-05-31T06:51:00Z</time>
      </trkpt>
      <trkpt lat="43.79781" lon="4.16889">
        <ele>106.4</ele>
        <time>2015-05-31T06:51:03Z</time>
      </trkpt>
      <trkpt lat="43.79776" lon="4.16877">
        <ele>106</ele>
        <time>2015-05-31T06:51:07Z</time>
      </trkpt>
      <trkpt lat="43.79776" lon="4.16864">
        <ele>105.7</ele>
        <time>2015-05-31T06:51:12Z</time>
      </trkpt>
      <trkpt lat="43.79781" lon="4.16853">
        <ele>105.6</ele>
        <time>2015-05-31T06:51:16Z</time>
      </trkpt>
      <trkpt lat="43.79782" lon="4.16839">
        <ele>106</ele>
        <time>2015-05-31T06:51:21Z</time>
      </trkpt>
      <trkpt lat="43.7978" lon="4.16825">
        <ele>106.7</ele>
        <time>2015-05-31T06:51:26Z</time>
      </trkpt>
      <trkpt lat="43.79777" lon="4.16813">
        <ele>107</ele>
        <time>2015-05-31T06:51:29Z</time>
      </trkpt>
      <trkpt lat="43.79776" lon="4.16799">
        <ele>107.4</ele>
        <time>2015-05-31T06:51:32Z</time>
      </trkpt>
      <trkpt lat="43.79773" lon="4.16786">
        <ele>107.8</ele>
        <time>2015-05-31T06:51:35Z</time>
      </trkpt>
      <trkpt lat="43.79771" lon="4.16773">
        <ele>108.3</ele>
        <time>2015-05-31T06:51:39Z</time>
      </trkpt>
      <trkpt lat="43.79771" lon="4.1676">
        <ele>109.2</ele>
        <time>2015-05-31T06:51:44Z</time>
      </trkpt>
      <trkpt lat="43.79775" lon="4.16746">
        <ele>110.4</ele>
        <time>2015-05-31T06:51:53Z</time>
      </trkpt>
      <trkpt lat="43.79781" lon="4.16734">
        <ele>110.9</ele>
        <time>2015-05-31T06:51:57Z</time>
      </trkpt>
      <trkpt lat="43.79784" lon="4.16722">
        <ele>111.5</ele>
        <time>2015-05-31T06:52:01Z</time>
      </trkpt>
      <trkpt lat="43.79785" lon="4.16707">
        <ele>112.1</ele>
        <time>2015-05-31T06:52:05Z</time>
      </trkpt>
      <trkpt lat="43.79785" lon="4.16691">
        <ele>112.6</ele>
        <time>2015-05-31T06:52:09Z</time>
      </trkpt>
      <trkpt lat="43.7979" lon="4.16679">
        <ele>113</ele>
        <time>2015-05-31T06:52:12Z</time>
      </trkpt>
      <trkpt lat="43.79795" lon="4.16668">
        <ele>113.3</ele>
        <time>2015-05-31T06:52:15Z</time>
      </trkpt>
      <trkpt lat="43.79799" lon="4.16654">
        <ele>113.7</ele>
        <time>2015-05-31T06:52:19Z</time>
      </trkpt>
      <trkpt lat="43.79804" lon="4.16639">
        <ele>114</ele>
        <time>2015-05-31T06:52:23Z</time>
      </trkpt>
      <trkpt lat="43.79807" lon="4.16627">
        <ele>114.2</ele>
        <time>2015-05-31T06:52:26Z</time>
      </trkpt>
      <trkpt lat="43.79811" lon="4.16614">
        <ele>114.3</ele>
        <time>2015-05-31T06:52:29Z</time>
      </trkpt>
      <trkpt lat="43.79816" lon="4.16601">
        <ele>114.5</ele>
        <time>2015-05-31T06:52:32Z</time>
      </trkpt>
      <trkpt lat="43.79819" lon="4.16588">
        <ele>114.6</ele>
        <time>2015-05-31T06:52:35Z</time>
      </trkpt>
      <trkpt lat="43.79826" lon="4.16576">
        <ele>114.8</ele>
        <time>2015-05-31T06:52:38Z</time>
      </trkpt>
      <trkpt lat="43.79833" lon="4.16565">
        <ele>114.9</ele>
        <time>2015-05-31T06:52:41Z</time>
      </trkpt>
      <trkpt lat="43.79837" lon="4.16552">
        <ele>115</ele>
        <time>2015-05-31T06:52:45Z</time>
      </trkpt>
      <trkpt lat="43.79842" lon="4.1654">
        <ele>115.2</ele>
        <time>2015-05-31T06:52:50Z</time>
      </trkpt>
      <trkpt lat="43.79848" lon="4.16528">
        <ele>115.8</ele>
        <time>2015-05-31T06:52:56Z</time>
      </trkpt>
      <trkpt lat="43.79855" lon="4.16515">
        <ele>116.6</ele>
        <time>2015-05-31T06:53:02Z</time>
      </trkpt>
      <trkpt lat="43.79859" lon="4.16502">
        <ele>117.1</ele>
        <time>2015-05-31T06:53:06Z</time>
      </trkpt>
      <trkpt lat="43.79862" lon="4.16488">
        <ele>117.6</ele>
        <time>2015-05-31T06:53:10Z</time>
      </trkpt>
      <trkpt lat="43.79866" lon="4.16476">
        <ele>118.1</ele>
        <time>2015-05-31T06:53:14Z</time>
      </trkpt>
      <trkpt lat="43.79868" lon="4.16464">
        <ele>118.5</ele>
        <time>2015-05-31T06:53:18Z</time>
      </trkpt>
      <trkpt lat="43.79874" lon="4.16452">
        <ele>119</ele>
        <time>2015-05-31T06:53:22Z</time>
      </trkpt>
      <trkpt lat="43.79879" lon="4.16439">
        <ele>119.5</ele>
        <time>2015-05-31T06:53:26Z</time>
      </trkpt>
      <trkpt lat="43.79883" lon="4.16428">
        <ele>119.8</ele>
        <time>2015-05-31T06:53:29Z</time>
      </trkpt>
      <trkpt lat="43.79888" lon="4.16416">
        <ele>120.2</ele>
        <time>2015-05-31T06:53:32Z</time>
      </trkpt>
      <trkpt lat="43.79893" lon="4.16401">
        <ele>120.5</ele>
        <time>2015-05-31T06:53:36Z</time>
      </trkpt>
      <trkpt lat="43.79901" lon="4.16391">
        <ele>120.7</ele>
        <time>2015-05-31T06:53:39Z</time>
      </trkpt>
      <trkpt lat="43.79909" lon="4.16382">
        <ele>120.9</ele>
        <time>2015-05-31T06:53:43Z</time>
      </trkpt>
      <trkpt lat="43.79917" lon="4.16369">
        <ele>121.1</ele>
        <time>2015-05-31T06:53:47Z</time>
      </trkpt>
      <trkpt lat="43.79925" lon="4.16356">
        <ele>120.9</ele>
        <time>2015-05-31T06:53:50Z</time>
      </trkpt>
      <trkpt lat="43.79932" lon="4.16342">
        <ele>120.6</ele>
        <time>2015-05-31T06:53:53Z</time>
      </trkpt>
      <trkpt lat="43.79939" lon="4.1633">
        <ele>120.4</ele>
        <time>2015-05-31T06:53:56Z</time>
      </trkpt>
      <trkpt lat="43.79949" lon="4.16323">
        <ele>120.1</ele>
        <time>2015-05-31T06:53:59Z</time>
      </trkpt>
      <trkpt lat="43.79958" lon="4.16315">
        <ele>119.8</ele>
        <time>2015-05-31T06:54:02Z</time>
      </trkpt>
      <trkpt lat="43.79966" lon="4.16305">
        <ele>119.3</ele>
        <time>2015-05-31T06:54:05Z</time>
      </trkpt>
      <trkpt lat="43.79978" lon="4.16298">
        <ele>118.9</ele>
        <time>2015-05-31T06:54:08Z</time>
      </trkpt>
      <trkpt lat="43.7999" lon="4.16294">
        <ele>118.5</ele>
        <time>2015-05-31T06:54:11Z</time>
      </trkpt>
      <trkpt lat="43.79999" lon="4.16297">
        <ele>117.9</ele>
        <time>2015-05-31T06:54:14Z</time>
      </trkpt>
      <trkpt lat="43.80009" lon="4.16304">
        <ele>117.5</ele>
        <time>2015-05-31T06:54:17Z</time>
      </trkpt>
      <trkpt lat="43.80019" lon="4.1631">
        <ele>117.1</ele>
        <time>2015-05-31T06:54:20Z</time>
      </trkpt>
      <trkpt lat="43.80029" lon="4.16316">
        <ele>116.8</ele>
        <time>2015-05-31T06:54:23Z</time>
      </trkpt>
      <trkpt lat="43.8004" lon="4.1632">
        <ele>116.5</ele>
        <time>2015-05-31T06:54:26Z</time>
      </trkpt>
      <trkpt lat="43.80053" lon="4.16325">
        <ele>116.2</ele>
        <time>2015-05-31T06:54:29Z</time>
      </trkpt>
      <trkpt lat="43.80066" lon="4.1633">
        <ele>115.9</ele>
        <time>2015-05-31T06:54:32Z</time>
      </trkpt>
      <trkpt lat="43.80078" lon="4.16335">
        <ele>115.6</ele>
        <time>2015-05-31T06:54:35Z</time>
      </trkpt>
      <trkpt lat="43.80089" lon="4.1634">
        <ele>115.3</ele>
        <time>2015-05-31T06:54:38Z</time>
      </trkpt>
      <trkpt lat="43.80102" lon="4.16347">
        <ele>115.1</ele>
        <time>2015-05-31T06:54:41Z</time>
      </trkpt>
      <trkpt lat="43.80112" lon="4.16354">
        <ele>114.8</ele>
        <time>2015-05-31T06:54:44Z</time>
      </trkpt>
      <trkpt lat="43.80124" lon="4.16362">
        <ele>114.5</ele>
        <time>2015-05-31T06:54:47Z</time>
      </trkpt>
      <trkpt lat="43.80133" lon="4.16367">
        <ele>114.3</ele>
        <time>2015-05-31T06:54:49Z</time>
      </trkpt>
      <trkpt lat="43.80144" lon="4.16375">
        <ele>114</ele>
        <time>2015-05-31T06:54:52Z</time>
      </trkpt>
      <trkpt lat="43.80157" lon="4.16382">
        <ele>113.7</ele>
        <time>2015-05-31T06:54:55Z</time>
      </trkpt>
      <trkpt lat="43.80167" lon="4.16391">
        <ele>113.4</ele>
        <time>2015-05-31T06:54:58Z</time>
      </trkpt>
      <trkpt lat="43.80175" lon="4.16398">
        <ele>113.2</ele>
        <time>2015-05-31T06:55:01Z</time>
      </trkpt>
      <trkpt lat="43.80184" lon="4.16403">
        <ele>113</ele>
        <time>2015-05-31T06:55:04Z</time>
      </trkpt>
      <trkpt lat="43.80195" lon="4.16409">
        <ele>112.8</ele>
        <time>2015-05-31T06:55:08Z</time>
      </trkpt>
      <trkpt lat="43.80206" lon="4.16414">
        <ele>112.6</ele>
        <time>2015-05-31T06:55:11Z</time>
      </trkpt>
      <trkpt lat="43.80219" lon="4.16418">
        <ele>112.5</ele>
        <time>2015-05-31T06:55:14Z</time>
      </trkpt>
      <trkpt lat="43.8023" lon="4.16423">
        <ele>112.4</ele>
        <time>2015-05-31T06:55:17Z</time>
      </trkpt>
      <trkpt lat="43.8024" lon="4.16432">
        <ele>112.3</ele>
        <time>2015-05-31T06:55:21Z</time>
      </trkpt>
      <trkpt lat="43.8025" lon="4.16432">
        <ele>112.2</ele>
        <time>2015-05-31T06:55:24Z</time>
      </trkpt>
      <trkpt lat="43.8026" lon="4.16435">
        <ele>112.2</ele>
        <time>2015-05-31T06:55:27Z</time>
      </trkpt>
      <trkpt lat="43.8027" lon="4.16441">
        <ele>112.1</ele>
        <time>2015-05-31T06:55:30Z</time>
      </trkpt>
      <trkpt lat="43.80279" lon="4.16444">
        <ele>112.1</ele>
        <time>2015-05-31T06:55:33Z</time>
      </trkpt>
      <trkpt lat="43.80289" lon="4.16444">
        <ele>112.1</ele>
        <time>2015-05-31T06:55:36Z</time>
      </trkpt>
      <trkpt lat="43.80299" lon="4.16445">
        <ele>112</ele>
        <time>2015-05-31T06:55:39Z</time>
      </trkpt>
      <trkpt lat="43.8031" lon="4.16447">
        <ele>112</ele>
        <time>2015-05-31T06:55:42Z</time>
      </trkpt>
      <trkpt lat="43.80319" lon="4.1645">
        <ele>112</ele>
        <time>2015-05-31T06:55:44Z</time>
      </trkpt>
      <trkpt lat="43.8033" lon="4.16458">
        <ele>112</ele>
        <time>2015-05-31T06:55:47Z</time>
      </trkpt>
      <trkpt lat="43.80341" lon="4.1646">
        <ele>112.1</ele>
        <time>2015-05-31T06:55:50Z</time>
      </trkpt>
      <trkpt lat="43.80353" lon="4.16461">
        <ele>112.1</ele>
        <time>2015-05-31T06:55:53Z</time>
      </trkpt>
      <trkpt lat="43.80364" lon="4.16463">
        <ele>112.2</ele>
        <time>2015-05-31T06:55:56Z</time>
      </trkpt>
      <trkpt lat="43.80375" lon="4.16462">
        <ele>112.3</ele>
        <time>2015-05-31T06:55:59Z</time>
      </trkpt>
      <trkpt lat="43.80386" lon="4.16459">
        <ele>112.4</ele>
        <time>2015-05-31T06:56:02Z</time>
      </trkpt>
      <trkpt lat="43.80398" lon="4.16461">
        <ele>112.5</ele>
        <time>2015-05-31T06:56:05Z</time>
      </trkpt>
      <trkpt lat="43.80408" lon="4.16463">
        <ele>112.6</ele>
        <time>2015-05-31T06:56:08Z</time>
      </trkpt>
      <trkpt lat="43.80419" lon="4.1646">
        <ele>112.7</ele>
        <time>2015-05-31T06:56:11Z</time>
      </trkpt>
      <trkpt lat="43.8043" lon="4.16453">
        <ele>112.8</ele>
        <time>2015-05-31T06:56:14Z</time>
      </trkpt>
      <trkpt lat="43.80439" lon="4.1645">
        <ele>113</ele>
        <time>2015-05-31T06:56:16Z</time>
      </trkpt>
      <trkpt lat="43.80448" lon="4.16451">
        <ele>113.1</ele>
        <time>2015-05-31T06:56:18Z</time>
      </trkpt>
      <trkpt lat="43.80459" lon="4.16454">
        <ele>113.2</ele>
        <time>2015-05-31T06:56:21Z</time>
      </trkpt>
      <trkpt lat="43.80469" lon="4.16457">
        <ele>113.3</ele>
        <time>2015-05-31T06:56:24Z</time>
      </trkpt>
      <trkpt lat="43.80478" lon="4.16464">
        <ele>113.4</ele>
        <time>2015-05-31T06:56:28Z</time>
      </trkpt>
      <trkpt lat="43.80486" lon="4.16473">
        <ele>113.6</ele>
        <time>2015-05-31T06:56:32Z</time>
      </trkpt>
      <trkpt lat="43.80495" lon="4.16477">
        <ele>113.8</ele>
        <time>2015-05-31T06:56:35Z</time>
      </trkpt>
      <trkpt lat="43.80504" lon="4.16483">
        <ele>114.1</ele>
        <time>2015-05-31T06:56:39Z</time>
      </trkpt>
      <trkpt lat="43.80514" lon="4.16484">
        <ele>114.2</ele>
        <time>2015-05-31T06:56:43Z</time>
      </trkpt>
      <trkpt lat="43.80523" lon="4.1648">
        <ele>114.4</ele>
        <time>2015-05-31T06:56:47Z</time>
      </trkpt>
      <trkpt lat="43.80533" lon="4.16474">
        <ele>114.5</ele>
        <time>2015-05-31T06:56:51Z</time>
      </trkpt>
      <trkpt lat="43.80542" lon="4.16466">
        <ele>114.8</ele>
        <time>2015-05-31T06:56:55Z</time>
      </trkpt>
      <trkpt lat="43.80552" lon="4.16459">
        <ele>115.1</ele>
        <time>2015-05-31T06:56:59Z</time>
      </trkpt>
      <trkpt lat="43.80563" lon="4.16455">
        <ele>115.4</ele>
        <time>2015-05-31T06:57:03Z</time>
      </trkpt>
      <trkpt lat="43.80573" lon="4.16451">
        <ele>115.7</ele>
        <time>2015-05-31T06:57:07Z</time>
      </trkpt>
      <trkpt lat="43.80582" lon="4.16451">
        <ele>115.9</ele>
        <time>2015-05-31T06:57:10Z</time>
      </trkpt>
      <trkpt lat="43.80591" lon="4.16451">
        <ele>116.1</ele>
        <time>2015-05-31T06:57:13Z</time>
      </trkpt>
      <trkpt lat="43.80601" lon="4.16452">
        <ele>116.2</ele>
        <time>2015-05-31T06:57:16Z</time>
      </trkpt>
      <trkpt lat="43.80612" lon="4.16455">
        <ele>116.3</ele>
        <time>2015-05-31T06:57:20Z</time>
      </trkpt>
      <trkpt lat="43.80623" lon="4.16457">
        <ele>116.5</ele>
        <time>2015-05-31T06:57:24Z</time>
      </trkpt>
      <trkpt lat="43.80633" lon="4.16458">
        <ele>116.6</ele>
        <time>2015-05-31T06:57:28Z</time>
      </trkpt>
      <trkpt lat="43.80643" lon="4.16459">
        <ele>116.7</ele>
        <time>2015-05-31T06:57:32Z</time>
      </trkpt>
      <trkpt lat="43.80654" lon="4.1646">
        <ele>116.8</ele>
        <time>2015-05-31T06:57:36Z</time>
      </trkpt>
      <trkpt lat="43.80662" lon="4.16466">
        <ele>117</ele>
        <time>2015-05-31T06:57:40Z</time>
      </trkpt>
      <trkpt lat="43.80668" lon="4.16477">
        <ele>117.4</ele>
        <time>2015-05-31T06:57:45Z</time>
      </trkpt>
      <trkpt lat="43.80669" lon="4.16491">
        <ele>117.8</ele>
        <time>2015-05-31T06:57:49Z</time>
      </trkpt>
      <trkpt lat="43.80674" lon="4.16505">
        <ele>118.2</ele>
        <time>2015-05-31T06:57:53Z</time>
      </trkpt>
      <trkpt lat="43.80679" lon="4.16518">
        <ele>118.6</ele>
        <time>2015-05-31T06:57:57Z</time>
      </trkpt>
      <trkpt lat="43.80678" lon="4.16533">
        <ele>119</ele>
        <time>2015-05-31T06:58:01Z</time>
      </trkpt>
      <trkpt lat="43.8068" lon="4.16546">
        <ele>119.5</ele>
        <time>2015-05-31T06:58:05Z</time>
      </trkpt>
      <trkpt lat="43.80682" lon="4.16559">
        <ele>120</ele>
        <time>2015-05-31T06:58:09Z</time>
      </trkpt>
      <trkpt lat="43.80682" lon="4.16574">
        <ele>120.4</ele>
        <time>2015-05-31T06:58:13Z</time>
      </trkpt>
      <trkpt lat="43.80681" lon="4.16591">
        <ele>120.7</ele>
        <time>2015-05-31T06:58:17Z</time>
      </trkpt>
      <trkpt lat="43.80682" lon="4.16607">
        <ele>120.9</ele>
        <time>2015-05-31T06:58:21Z</time>
      </trkpt>
      <trkpt lat="43.80688" lon="4.16622">
        <ele>121.1</ele>
        <time>2015-05-31T06:58:25Z</time>
      </trkpt>
      <trkpt lat="43.80693" lon="4.16634">
        <ele>121.4</ele>
        <time>2015-05-31T06:58:30Z</time>
      </trkpt>
      <trkpt lat="43.80702" lon="4.16643">
        <ele>121.8</ele>
        <time>2015-05-31T06:58:34Z</time>
      </trkpt>
      <trkpt lat="43.80709" lon="4.16652">
        <ele>122.2</ele>
        <time>2015-05-31T06:58:38Z</time>
      </trkpt>
      <trkpt lat="43.80717" lon="4.16661">
        <ele>122.6</ele>
        <time>2015-05-31T06:58:42Z</time>
      </trkpt>
      <trkpt lat="43.80721" lon="4.16672">
        <ele>122.8</ele>
        <time>2015-05-31T06:58:45Z</time>
      </trkpt>
      <trkpt lat="43.80728" lon="4.16685">
        <ele>123.1</ele>
        <time>2015-05-31T06:58:49Z</time>
      </trkpt>
      <trkpt lat="43.80735" lon="4.16695">
        <ele>123.4</ele>
        <time>2015-05-31T06:58:53Z</time>
      </trkpt>
      <trkpt lat="43.80741" lon="4.16705">
        <ele>123.8</ele>
        <time>2015-05-31T06:58:57Z</time>
      </trkpt>
      <trkpt lat="43.80743" lon="4.16721">
        <ele>124.2</ele>
        <time>2015-05-31T06:59:02Z</time>
      </trkpt>
      <trkpt lat="43.80742" lon="4.16735">
        <ele>124.4</ele>
        <time>2015-05-31T06:59:06Z</time>
      </trkpt>
      <trkpt lat="43.80741" lon="4.16749">
        <ele>124.7</ele>
        <time>2015-05-31T06:59:10Z</time>
      </trkpt>
      <trkpt lat="43.8074" lon="4.16762">
        <ele>125.1</ele>
        <time>2015-05-31T06:59:14Z</time>
      </trkpt>
      <trkpt lat="43.80741" lon="4.16775">
        <ele>125.5</ele>
        <time>2015-05-31T06:59:18Z</time>
      </trkpt>
      <trkpt lat="43.8074" lon="4.16789">
        <ele>125.9</ele>
        <time>2015-05-31T06:59:22Z</time>
      </trkpt>
      <trkpt lat="43.80743" lon="4.16801">
        <ele>126.3</ele>
        <time>2015-05-31T06:59:26Z</time>
      </trkpt>
      <trkpt lat="43.80748" lon="4.16812">
        <ele>126.7</ele>
        <time>2015-05-31T06:59:30Z</time>
      </trkpt>
      <trkpt lat="43.80755" lon="4.16823">
        <ele>127.1</ele>
        <time>2015-05-31T06:59:34Z</time>
      </trkpt>
      <trkpt lat="43.80764" lon="4.16831">
        <ele>127.3</ele>
        <time>2015-05-31T06:59:39Z</time>
      </trkpt>
      <trkpt lat="43.80774" lon="4.16835">
        <ele>127.6</ele>
        <time>2015-05-31T06:59:44Z</time>
      </trkpt>
      <trkpt lat="43.80783" lon="4.1684">
        <ele>127.9</ele>
        <time>2015-05-31T06:59:48Z</time>
      </trkpt>
      <trkpt lat="43.80791" lon="4.16846">
        <ele>128.1</ele>
        <time>2015-05-31T06:59:52Z</time>
      </trkpt>
      <trkpt lat="43.80801" lon="4.16848">
        <ele>128.4</ele>
        <time>2015-05-31T06:59:56Z</time>
      </trkpt>
      <trkpt lat="43.80811" lon="4.16848">
        <ele>128.7</ele>
        <time>2015-05-31T07:00:00Z</time>
      </trkpt>
      <trkpt lat="43.8082" lon="4.1685">
        <ele>129.1</ele>
        <time>2015-05-31T07:00:04Z</time>
      </trkpt>
      <trkpt lat="43.80829" lon="4.16846">
        <ele>129.5</ele>
        <time>2015-05-31T07:00:08Z</time>
      </trkpt>
      <trkpt lat="43.80839" lon="4.16839">
        <ele>130</ele>
        <time>2015-05-31T07:00:12Z</time>
      </trkpt>
      <trkpt lat="43.8085" lon="4.16832">
        <ele>130.3</ele>
        <time>2015-05-31T07:00:16Z</time>
      </trkpt>
      <trkpt lat="43.80861" lon="4.16829">
        <ele>130.5</ele>
        <time>2015-05-31T07:00:20Z</time>
      </trkpt>
      <trkpt lat="43.80871" lon="4.16832">
        <ele>130.7</ele>
        <time>2015-05-31T07:00:24Z</time>
      </trkpt>
      <trkpt lat="43.80881" lon="4.16833">
        <ele>131</ele>
        <time>2015-05-31T07:00:28Z</time>
      </trkpt>
      <trkpt lat="43.80891" lon="4.16831">
        <ele>131.3</ele>
        <time>2015-05-31T07:00:32Z</time>
      </trkpt>
      <trkpt lat="43.80901" lon="4.16831">
        <ele>131.6</ele>
        <time>2015-05-31T07:00:36Z</time>
      </trkpt>
      <trkpt lat="43.80911" lon="4.16829">
        <ele>131.8</ele>
        <time>2015-05-31T07:00:40Z</time>
      </trkpt>
      <trkpt lat="43.8092" lon="4.16833">
        <ele>132.1</ele>
        <time>2015-05-31T07:00:44Z</time>
      </trkpt>
      <trkpt lat="43.80929" lon="4.16839">
        <ele>132.5</ele>
        <time>2015-05-31T07:00:48Z</time>
      </trkpt>
      <trkpt lat="43.80938" lon="4.16843">
        <ele>132.8</ele>
        <time>2015-05-31T07:00:52Z</time>
      </trkpt>
      <trkpt lat="43.80946" lon="4.16848">
        <ele>133.3</ele>
        <time>2015-05-31T07:00:58Z</time>
      </trkpt>
      <trkpt lat="43.80954" lon="4.16856">
        <ele>134.3</ele>
        <time>2015-05-31T07:01:36Z</time>
      </trkpt>
      <trkpt lat="43.80961" lon="4.16868">
        <ele>134.3</ele>
        <time>2015-05-31T07:01:40Z</time>
      </trkpt>
      <trkpt lat="43.80968" lon="4.1688">
        <ele>134.4</ele>
        <time>2015-05-31T07:01:44Z</time>
      </trkpt>
      <trkpt lat="43.80974" lon="4.16889">
        <ele>134.8</ele>
        <time>2015-05-31T07:01:49Z</time>
      </trkpt>
      <trkpt lat="43.80981" lon="4.16901">
        <ele>135.3</ele>
        <time>2015-05-31T07:01:55Z</time>
      </trkpt>
      <trkpt lat="43.80987" lon="4.16911">
        <ele>135.7</ele>
        <time>2015-05-31T07:01:59Z</time>
      </trkpt>
      <trkpt lat="43.80994" lon="4.16919">
        <ele>136.1</ele>
        <time>2015-05-31T07:02:03Z</time>
      </trkpt>
      <trkpt lat="43.81001" lon="4.16928">
        <ele>136.6</ele>
        <time>2015-05-31T07:02:07Z</time>
      </trkpt>
      <trkpt lat="43.81008" lon="4.16935">
        <ele>137</ele>
        <time>2015-05-31T07:02:11Z</time>
      </trkpt>
      <trkpt lat="43.81016" lon="4.16943">
        <ele>137.7</ele>
        <time>2015-05-31T07:02:16Z</time>
      </trkpt>
      <trkpt lat="43.81025" lon="4.16949">
        <ele>138.3</ele>
        <time>2015-05-31T07:02:21Z</time>
      </trkpt>
      <trkpt lat="43.81035" lon="4.16956">
        <ele>138.8</ele>
        <time>2015-05-31T07:02:26Z</time>
      </trkpt>
      <trkpt lat="43.81044" lon="4.16962">
        <ele>139.3</ele>
        <time>2015-05-31T07:02:31Z</time>
      </trkpt>
      <trkpt lat="43.81053" lon="4.16968">
        <ele>139.8</ele>
        <time>2015-05-31T07:02:36Z</time>
      </trkpt>
      <trkpt lat="43.81061" lon="4.16975">
        <ele>140.2</ele>
        <time>2015-05-31T07:02:41Z</time>
      </trkpt>
      <trkpt lat="43.81069" lon="4.16981">
        <ele>140.8</ele>
        <time>2015-05-31T07:02:46Z</time>
      </trkpt>
      <trkpt lat="43.81076" lon="4.1699">
        <ele>141.4</ele>
        <time>2015-05-31T07:02:51Z</time>
      </trkpt>
      <trkpt lat="43.81084" lon="4.16999">
        <ele>142</ele>
        <time>2015-05-31T07:02:56Z</time>
      </trkpt>
      <trkpt lat="43.81091" lon="4.1701">
        <ele>142.5</ele>
        <time>2015-05-31T07:03:02Z</time>
      </trkpt>
      <trkpt lat="43.81094" lon="4.17026">
        <ele>143</ele>
        <time>2015-05-31T07:03:08Z</time>
      </trkpt>
      <trkpt lat="43.81091" lon="4.1704">
        <ele>143.4</ele>
        <time>2015-05-31T07:03:13Z</time>
      </trkpt>
      <trkpt lat="43.81089" lon="4.17055">
        <ele>143.8</ele>
        <time>2015-05-31T07:03:18Z</time>
      </trkpt>
      <trkpt lat="43.81086" lon="4.1707">
        <ele>144.3</ele>
        <time>2015-05-31T07:03:23Z</time>
      </trkpt>
      <trkpt lat="43.8108" lon="4.17083">
        <ele>144.8</ele>
        <time>2015-05-31T07:03:28Z</time>
      </trkpt>
      <trkpt lat="43.81075" lon="4.17094">
        <ele>145.4</ele>
        <time>2015-05-31T07:03:33Z</time>
      </trkpt>
      <trkpt lat="43.81068" lon="4.17103">
        <ele>145.9</ele>
        <time>2015-05-31T07:03:37Z</time>
      </trkpt>
      <trkpt lat="43.81059" lon="4.1711">
        <ele>146.5</ele>
        <time>2015-05-31T07:03:42Z</time>
      </trkpt>
      <trkpt lat="43.81049" lon="4.17114">
        <ele>147</ele>
        <time>2015-05-31T07:03:47Z</time>
      </trkpt>
      <trkpt lat="43.81037" lon="4.17114">
        <ele>147.4</ele>
        <time>2015-05-31T07:03:51Z</time>
      </trkpt>
      <trkpt lat="43.81027" lon="4.17113">
        <ele>147.7</ele>
        <time>2015-05-31T07:03:55Z</time>
      </trkpt>
      <trkpt lat="43.81018" lon="4.17111">
        <ele>148.1</ele>
        <time>2015-05-31T07:03:59Z</time>
      </trkpt>
      <trkpt lat="43.81007" lon="4.1711">
        <ele>148.5</ele>
        <time>2015-05-31T07:04:04Z</time>
      </trkpt>
      <trkpt lat="43.80998" lon="4.17112">
        <ele>148.8</ele>
        <time>2015-05-31T07:04:09Z</time>
      </trkpt>
      <trkpt lat="43.80988" lon="4.17116">
        <ele>149</ele>
        <time>2015-05-31T07:04:14Z</time>
      </trkpt>
      <trkpt lat="43.8098" lon="4.17126">
        <ele>149.5</ele>
        <time>2015-05-31T07:04:20Z</time>
      </trkpt>
      <trkpt lat="43.80975" lon="4.17138">
        <ele>149.9</ele>
        <time>2015-05-31T07:04:25Z</time>
      </trkpt>
      <trkpt lat="43.80974" lon="4.1715">
        <ele>150.4</ele>
        <time>2015-05-31T07:04:30Z</time>
      </trkpt>
      <trkpt lat="43.80975" lon="4.17164">
        <ele>151</ele>
        <time>2015-05-31T07:04:35Z</time>
      </trkpt>
      <trkpt lat="43.80975" lon="4.17178">
        <ele>151.5</ele>
        <time>2015-05-31T07:04:39Z</time>
      </trkpt>
      <trkpt lat="43.80976" lon="4.17193">
        <ele>151.9</ele>
        <time>2015-05-31T07:04:43Z</time>
      </trkpt>
      <trkpt lat="43.80978" lon="4.17206">
        <ele>152.3</ele>
        <time>2015-05-31T07:04:47Z</time>
      </trkpt>
      <trkpt lat="43.80979" lon="4.17221">
        <ele>152.6</ele>
        <time>2015-05-31T07:04:52Z</time>
      </trkpt>
      <trkpt lat="43.80979" lon="4.17236">
        <ele>153.1</ele>
        <time>2015-05-31T07:04:57Z</time>
      </trkpt>
      <trkpt lat="43.80977" lon="4.17248">
        <ele>153.4</ele>
        <time>2015-05-31T07:05:01Z</time>
      </trkpt>
      <trkpt lat="43.80974" lon="4.17261">
        <ele>153.9</ele>
        <time>2015-05-31T07:05:05Z</time>
      </trkpt>
      <trkpt lat="43.80969" lon="4.17273">
        <ele>154.4</ele>
        <time>2015-05-31T07:05:09Z</time>
      </trkpt>
      <trkpt lat="43.80964" lon="4.17283">
        <ele>154.7</ele>
        <time>2015-05-31T07:05:13Z</time>
      </trkpt>
      <trkpt lat="43.80957" lon="4.17295">
        <ele>155.2</ele>
        <time>2015-05-31T07:05:18Z</time>
      </trkpt>
      <trkpt lat="43.80965" lon="4.17302">
        <ele>156.3</ele>
        <time>2015-05-31T07:05:29Z</time>
      </trkpt>
      <trkpt lat="43.80973" lon="4.1729">
        <ele>156.6</ele>
        <time>2015-05-31T07:05:34Z</time>
      </trkpt>
      <trkpt lat="43.80979" lon="4.1728">
        <ele>156.8</ele>
        <time>2015-05-31T07:05:37Z</time>
      </trkpt>
      <trkpt lat="43.80986" lon="4.17267">
        <ele>157.1</ele>
        <time>2015-05-31T07:05:40Z</time>
      </trkpt>
      <trkpt lat="43.80992" lon="4.17253">
        <ele>157.3</ele>
        <time>2015-05-31T07:05:43Z</time>
      </trkpt>
      <trkpt lat="43.80995" lon="4.17238">
        <ele>157.5</ele>
        <time>2015-05-31T07:05:46Z</time>
      </trkpt>
      <trkpt lat="43.80998" lon="4.17223">
        <ele>157.7</ele>
        <time>2015-05-31T07:05:49Z</time>
      </trkpt>
      <trkpt lat="43.81" lon="4.17207">
        <ele>158</ele>
        <time>2015-05-31T07:05:52Z</time>
      </trkpt>
      <trkpt lat="43.81003" lon="4.17192">
        <ele>158.2</ele>
        <time>2015-05-31T07:05:55Z</time>
      </trkpt>
      <trkpt lat="43.81008" lon="4.1718">
        <ele>158.4</ele>
        <time>2015-05-31T07:05:58Z</time>
      </trkpt>
      <trkpt lat="43.81018" lon="4.17171">
        <ele>158.6</ele>
        <time>2015-05-31T07:06:01Z</time>
      </trkpt>
      <trkpt lat="43.81029" lon="4.17168">
        <ele>158.9</ele>
        <time>2015-05-31T07:06:04Z</time>
      </trkpt>
      <trkpt lat="43.81041" lon="4.17165">
        <ele>159.1</ele>
        <time>2015-05-31T07:06:07Z</time>
      </trkpt>
      <trkpt lat="43.81053" lon="4.17162">
        <ele>159.2</ele>
        <time>2015-05-31T07:06:10Z</time>
      </trkpt>
      <trkpt lat="43.81065" lon="4.1716">
        <ele>159.4</ele>
        <time>2015-05-31T07:06:13Z</time>
      </trkpt>
      <trkpt lat="43.81074" lon="4.17157">
        <ele>159.5</ele>
        <time>2015-05-31T07:06:15Z</time>
      </trkpt>
      <trkpt lat="43.81083" lon="4.17153">
        <ele>159.5</ele>
        <time>2015-05-31T07:06:17Z</time>
      </trkpt>
      <trkpt lat="43.81091" lon="4.17149">
        <ele>159.6</ele>
        <time>2015-05-31T07:06:19Z</time>
      </trkpt>
      <trkpt lat="43.81103" lon="4.1714">
        <ele>159.7</ele>
        <time>2015-05-31T07:06:22Z</time>
      </trkpt>
      <trkpt lat="43.81113" lon="4.1713">
        <ele>159.7</ele>
        <time>2015-05-31T07:06:25Z</time>
      </trkpt>
      <trkpt lat="43.81123" lon="4.17117">
        <ele>159.8</ele>
        <time>2015-05-31T07:06:28Z</time>
      </trkpt>
      <trkpt lat="43.81129" lon="4.17108">
        <ele>159.8</ele>
        <time>2015-05-31T07:06:30Z</time>
      </trkpt>
      <trkpt lat="43.81135" lon="4.17098">
        <ele>159.8</ele>
        <time>2015-05-31T07:06:32Z</time>
      </trkpt>
      <trkpt lat="43.81142" lon="4.17082">
        <ele>159.9</ele>
        <time>2015-05-31T07:06:35Z</time>
      </trkpt>
      <trkpt lat="43.81149" lon="4.17068">
        <ele>159.9</ele>
        <time>2015-05-31T07:06:38Z</time>
      </trkpt>
      <trkpt lat="43.81154" lon="4.17057">
        <ele>159.9</ele>
        <time>2015-05-31T07:06:40Z</time>
      </trkpt>
      <trkpt lat="43.81162" lon="4.17043">
        <ele>159.9</ele>
        <time>2015-05-31T07:06:43Z</time>
      </trkpt>
      <trkpt lat="43.81171" lon="4.17031">
        <ele>159.9</ele>
        <time>2015-05-31T07:06:46Z</time>
      </trkpt>
      <trkpt lat="43.81178" lon="4.17019">
        <ele>159.9</ele>
        <time>2015-05-31T07:06:49Z</time>
      </trkpt>
      <trkpt lat="43.81185" lon="4.17006">
        <ele>160</ele>
        <time>2015-05-31T07:06:52Z</time>
      </trkpt>
      <trkpt lat="43.81191" lon="4.16994">
        <ele>160</ele>
        <time>2015-05-31T07:06:55Z</time>
      </trkpt>
      <trkpt lat="43.81196" lon="4.16983">
        <ele>160</ele>
        <time>2015-05-31T07:06:58Z</time>
      </trkpt>
      <trkpt lat="43.81201" lon="4.16972">
        <ele>160.1</ele>
        <time>2015-05-31T07:07:01Z</time>
      </trkpt>
      <trkpt lat="43.81206" lon="4.16959">
        <ele>160.5</ele>
        <time>2015-05-31T07:07:05Z</time>
      </trkpt>
      <trkpt lat="43.81212" lon="4.16947">
        <ele>161.2</ele>
        <time>2015-05-31T07:07:10Z</time>
      </trkpt>
      <trkpt lat="43.81217" lon="4.16935">
        <ele>161.8</ele>
        <time>2015-05-31T07:07:14Z</time>
      </trkpt>
      <trkpt lat="43.81221" lon="4.16923">
        <ele>162.6</ele>
        <time>2015-05-31T07:07:18Z</time>
      </trkpt>
      <trkpt lat="43.81227" lon="4.16911">
        <ele>163.2</ele>
        <time>2015-05-31T07:07:22Z</time>
      </trkpt>
      <trkpt lat="43.81233" lon="4.16901">
        <ele>163.9</ele>
        <time>2015-05-31T07:07:26Z</time>
      </trkpt>
      <trkpt lat="43.81241" lon="4.16891">
        <ele>164.5</ele>
        <time>2015-05-31T07:07:30Z</time>
      </trkpt>
      <trkpt lat="43.81248" lon="4.1688">
        <ele>165.2</ele>
        <time>2015-05-31T07:07:35Z</time>
      </trkpt>
      <trkpt lat="43.81255" lon="4.16871">
        <ele>168.1</ele>
        <time>2015-05-31T07:08:43Z</time>
      </trkpt>
      <trkpt lat="43.81266" lon="4.1687">
        <ele>168.1</ele>
        <time>2015-05-31T07:08:50Z</time>
      </trkpt>
      <trkpt lat="43.81277" lon="4.16866">
        <ele>168.1</ele>
        <time>2015-05-31T07:08:54Z</time>
      </trkpt>
      <trkpt lat="43.8129" lon="4.16865">
        <ele>168</ele>
        <time>2015-05-31T07:08:58Z</time>
      </trkpt>
      <trkpt lat="43.81302" lon="4.16861">
        <ele>168</ele>
        <time>2015-05-31T07:09:01Z</time>
      </trkpt>
      <trkpt lat="43.81314" lon="4.16855">
        <ele>167.9</ele>
        <time>2015-05-31T07:09:04Z</time>
      </trkpt>
      <trkpt lat="43.81326" lon="4.16856">
        <ele>167.8</ele>
        <time>2015-05-31T07:09:07Z</time>
      </trkpt>
      <trkpt lat="43.81336" lon="4.1686">
        <ele>167.5</ele>
        <time>2015-05-31T07:09:10Z</time>
      </trkpt>
      <trkpt lat="43.81345" lon="4.16861">
        <ele>167.2</ele>
        <time>2015-05-31T07:09:13Z</time>
      </trkpt>
      <trkpt lat="43.81351" lon="4.1685">
        <ele>166.9</ele>
        <time>2015-05-31T07:09:16Z</time>
      </trkpt>
      <trkpt lat="43.81354" lon="4.16834">
        <ele>166.4</ele>
        <time>2015-05-31T07:09:19Z</time>
      </trkpt>
      <trkpt lat="43.81361" lon="4.16822">
        <ele>165.8</ele>
        <time>2015-05-31T07:09:22Z</time>
      </trkpt>
      <trkpt lat="43.81372" lon="4.16818">
        <ele>165.3</ele>
        <time>2015-05-31T07:09:25Z</time>
      </trkpt>
      <trkpt lat="43.81384" lon="4.16818">
        <ele>164.9</ele>
        <time>2015-05-31T07:09:28Z</time>
      </trkpt>
      <trkpt lat="43.81397" lon="4.16818">
        <ele>164.5</ele>
        <time>2015-05-31T07:09:31Z</time>
      </trkpt>
      <trkpt lat="43.8141" lon="4.16818">
        <ele>164.2</ele>
        <time>2015-05-31T07:09:34Z</time>
      </trkpt>
      <trkpt lat="43.81421" lon="4.16814">
        <ele>164</ele>
        <time>2015-05-31T07:09:37Z</time>
      </trkpt>
      <trkpt lat="43.81432" lon="4.16809">
        <ele>163.8</ele>
        <time>2015-05-31T07:09:40Z</time>
      </trkpt>
      <trkpt lat="43.81444" lon="4.16804">
        <ele>163.6</ele>
        <time>2015-05-31T07:09:43Z</time>
      </trkpt>
      <trkpt lat="43.81454" lon="4.16803">
        <ele>163.5</ele>
        <time>2015-05-31T07:09:46Z</time>
      </trkpt>
      <trkpt lat="43.81465" lon="4.16804">
        <ele>163.5</ele>
        <time>2015-05-31T07:09:50Z</time>
      </trkpt>
      <trkpt lat="43.81477" lon="4.16807">
        <ele>163.7</ele>
        <time>2015-05-31T07:09:54Z</time>
      </trkpt>
      <trkpt lat="43.81487" lon="4.16809">
        <ele>163.8</ele>
        <time>2015-05-31T07:09:57Z</time>
      </trkpt>
      <trkpt lat="43.81499" lon="4.16809">
        <ele>163.9</ele>
        <time>2015-05-31T07:10:00Z</time>
      </trkpt>
      <trkpt lat="43.81511" lon="4.16805">
        <ele>164.2</ele>
        <time>2015-05-31T07:10:03Z</time>
      </trkpt>
      <trkpt lat="43.81522" lon="4.16801">
        <ele>164.4</ele>
        <time>2015-05-31T07:10:06Z</time>
      </trkpt>
      <trkpt lat="43.81532" lon="4.16799">
        <ele>164.6</ele>
        <time>2015-05-31T07:10:09Z</time>
      </trkpt>
      <trkpt lat="43.81542" lon="4.16798">
        <ele>164.7</ele>
        <time>2015-05-31T07:10:12Z</time>
      </trkpt>
      <trkpt lat="43.81554" lon="4.16802">
        <ele>164.9</ele>
        <time>2015-05-31T07:10:15Z</time>
      </trkpt>
      <trkpt lat="43.81566" lon="4.16809">
        <ele>165</ele>
        <time>2015-05-31T07:10:18Z</time>
      </trkpt>
      <trkpt lat="43.81575" lon="4.16815">
        <ele>165.1</ele>
        <time>2015-05-31T07:10:20Z</time>
      </trkpt>
      <trkpt lat="43.81583" lon="4.16822">
        <ele>165.2</ele>
        <time>2015-05-31T07:10:22Z</time>
      </trkpt>
      <trkpt lat="43.81591" lon="4.16827">
        <ele>165.2</ele>
        <time>2015-05-31T07:10:24Z</time>
      </trkpt>
      <trkpt lat="43.81603" lon="4.16835">
        <ele>165.3</ele>
        <time>2015-05-31T07:10:27Z</time>
      </trkpt>
      <trkpt lat="43.81614" lon="4.16841">
        <ele>165.4</ele>
        <time>2015-05-31T07:10:30Z</time>
      </trkpt>
      <trkpt lat="43.81626" lon="4.16848">
        <ele>165.4</ele>
        <time>2015-05-31T07:10:33Z</time>
      </trkpt>
      <trkpt lat="43.81635" lon="4.16852">
        <ele>165.5</ele>
        <time>2015-05-31T07:10:35Z</time>
      </trkpt>
      <trkpt lat="43.81644" lon="4.16855">
        <ele>165.5</ele>
        <time>2015-05-31T07:10:37Z</time>
      </trkpt>
      <trkpt lat="43.81655" lon="4.1686">
        <ele>165.5</ele>
        <time>2015-05-31T07:10:40Z</time>
      </trkpt>
      <trkpt lat="43.81665" lon="4.16863">
        <ele>165.6</ele>
        <time>2015-05-31T07:10:43Z</time>
      </trkpt>
      <trkpt lat="43.81675" lon="4.16865">
        <ele>165.7</ele>
        <time>2015-05-31T07:10:46Z</time>
      </trkpt>
      <trkpt lat="43.81685" lon="4.16865">
        <ele>166</ele>
        <time>2015-05-31T07:10:49Z</time>
      </trkpt>
      <trkpt lat="43.81694" lon="4.16863">
        <ele>166.3</ele>
        <time>2015-05-31T07:10:52Z</time>
      </trkpt>
      <trkpt lat="43.81703" lon="4.16858">
        <ele>166.6</ele>
        <time>2015-05-31T07:10:55Z</time>
      </trkpt>
      <trkpt lat="43.81712" lon="4.16853">
        <ele>167.2</ele>
        <time>2015-05-31T07:10:58Z</time>
      </trkpt>
      <trkpt lat="43.8172" lon="4.16847">
        <ele>167.7</ele>
        <time>2015-05-31T07:11:01Z</time>
      </trkpt>
      <trkpt lat="43.8173" lon="4.16841">
        <ele>168.1</ele>
        <time>2015-05-31T07:11:04Z</time>
      </trkpt>
      <trkpt lat="43.8174" lon="4.16835">
        <ele>168.5</ele>
        <time>2015-05-31T07:11:07Z</time>
      </trkpt>
      <trkpt lat="43.81749" lon="4.1683">
        <ele>168.9</ele>
        <time>2015-05-31T07:11:10Z</time>
      </trkpt>
      <trkpt lat="43.81759" lon="4.16826">
        <ele>169.4</ele>
        <time>2015-05-31T07:11:14Z</time>
      </trkpt>
      <trkpt lat="43.81768" lon="4.16818">
        <ele>169.8</ele>
        <time>2015-05-31T07:11:19Z</time>
      </trkpt>
      <trkpt lat="43.81776" lon="4.16808">
        <ele>169.9</ele>
        <time>2015-05-31T07:11:22Z</time>
      </trkpt>
      <trkpt lat="43.81785" lon="4.16796">
        <ele>169.7</ele>
        <time>2015-05-31T07:11:25Z</time>
      </trkpt>
      <trkpt lat="43.81794" lon="4.16786">
        <ele>169.5</ele>
        <time>2015-05-31T07:11:28Z</time>
      </trkpt>
      <trkpt lat="43.81801" lon="4.16775">
        <ele>169.3</ele>
        <time>2015-05-31T07:11:30Z</time>
      </trkpt>
      <trkpt lat="43.81807" lon="4.16764">
        <ele>169.1</ele>
        <time>2015-05-31T07:11:32Z</time>
      </trkpt>
      <trkpt lat="43.81814" lon="4.16752">
        <ele>168.8</ele>
        <time>2015-05-31T07:11:34Z</time>
      </trkpt>
      <trkpt lat="43.81821" lon="4.16741">
        <ele>168.5</ele>
        <time>2015-05-31T07:11:36Z</time>
      </trkpt>
      <trkpt lat="43.81829" lon="4.16732">
        <ele>168.2</ele>
        <time>2015-05-31T07:11:38Z</time>
      </trkpt>
      <trkpt lat="43.81837" lon="4.16723">
        <ele>167.9</ele>
        <time>2015-05-31T07:11:40Z</time>
      </trkpt>
      <trkpt lat="43.81845" lon="4.16712">
        <ele>167.6</ele>
        <time>2015-05-31T07:11:42Z</time>
      </trkpt>
      <trkpt lat="43.8185" lon="4.16699">
        <ele>167.3</ele>
        <time>2015-05-31T07:11:44Z</time>
      </trkpt>
      <trkpt lat="43.81853" lon="4.16687">
        <ele>166.9</ele>
        <time>2015-05-31T07:11:46Z</time>
      </trkpt>
      <trkpt lat="43.81858" lon="4.16671">
        <ele>166.4</ele>
        <time>2015-05-31T07:11:49Z</time>
      </trkpt>
      <trkpt lat="43.81862" lon="4.16659">
        <ele>166</ele>
        <time>2015-05-31T07:11:51Z</time>
      </trkpt>
      <trkpt lat="43.81863" lon="4.16646">
        <ele>165.5</ele>
        <time>2015-05-31T07:11:53Z</time>
      </trkpt>
      <trkpt lat="43.81862" lon="4.16632">
        <ele>165</ele>
        <time>2015-05-31T07:11:55Z</time>
      </trkpt>
      <trkpt lat="43.81862" lon="4.16616">
        <ele>164.3</ele>
        <time>2015-05-31T07:11:57Z</time>
      </trkpt>
      <trkpt lat="43.81863" lon="4.16601">
        <ele>163.8</ele>
        <time>2015-05-31T07:11:59Z</time>
      </trkpt>
      <trkpt lat="43.81863" lon="4.16587">
        <ele>163.3</ele>
        <time>2015-05-31T07:12:01Z</time>
      </trkpt>
      <trkpt lat="43.81863" lon="4.16573">
        <ele>162.9</ele>
        <time>2015-05-31T07:12:03Z</time>
      </trkpt>
      <trkpt lat="43.81862" lon="4.16561">
        <ele>162.5</ele>
        <time>2015-05-31T07:12:05Z</time>
      </trkpt>
      <trkpt lat="43.81865" lon="4.16546">
        <ele>162</ele>
        <time>2015-05-31T07:12:08Z</time>
      </trkpt>
      <trkpt lat="43.81867" lon="4.16529">
        <ele>161.6</ele>
        <time>2015-05-31T07:12:11Z</time>
      </trkpt>
      <trkpt lat="43.81868" lon="4.1651">
        <ele>161.2</ele>
        <time>2015-05-31T07:12:14Z</time>
      </trkpt>
      <trkpt lat="43.81869" lon="4.16497">
        <ele>161</ele>
        <time>2015-05-31T07:12:16Z</time>
      </trkpt>
      <trkpt lat="43.81869" lon="4.16484">
        <ele>160.9</ele>
        <time>2015-05-31T07:12:18Z</time>
      </trkpt>
      <trkpt lat="43.81869" lon="4.1647">
        <ele>160.7</ele>
        <time>2015-05-31T07:12:20Z</time>
      </trkpt>
      <trkpt lat="43.81867" lon="4.16455">
        <ele>160.6</ele>
        <time>2015-05-31T07:12:22Z</time>
      </trkpt>
      <trkpt lat="43.81863" lon="4.16434">
        <ele>160.4</ele>
        <time>2015-05-31T07:12:24Z</time>
      </trkpt>
      <trkpt lat="43.81864" lon="4.16418">
        <ele>160.3</ele>
        <time>2015-05-31T07:12:26Z</time>
      </trkpt>
      <trkpt lat="43.81869" lon="4.16401">
        <ele>159.9</ele>
        <time>2015-05-31T07:12:28Z</time>
      </trkpt>
      <trkpt lat="43.81873" lon="4.16385">
        <ele>159.5</ele>
        <time>2015-05-31T07:12:30Z</time>
      </trkpt>
      <trkpt lat="43.81873" lon="4.16367">
        <ele>159.2</ele>
        <time>2015-05-31T07:12:32Z</time>
      </trkpt>
      <trkpt lat="43.81874" lon="4.1635">
        <ele>158.8</ele>
        <time>2015-05-31T07:12:34Z</time>
      </trkpt>
      <trkpt lat="43.81875" lon="4.16334">
        <ele>158.3</ele>
        <time>2015-05-31T07:12:36Z</time>
      </trkpt>
      <trkpt lat="43.81874" lon="4.16321">
        <ele>157.8</ele>
        <time>2015-05-31T07:12:38Z</time>
      </trkpt>
      <trkpt lat="43.81876" lon="4.16308">
        <ele>157.1</ele>
        <time>2015-05-31T07:12:40Z</time>
      </trkpt>
      <trkpt lat="43.81881" lon="4.16296">
        <ele>156.1</ele>
        <time>2015-05-31T07:12:43Z</time>
      </trkpt>
      <trkpt lat="43.8189" lon="4.16292">
        <ele>155.3</ele>
        <time>2015-05-31T07:12:46Z</time>
      </trkpt>
      <trkpt lat="43.81899" lon="4.16285">
        <ele>154.4</ele>
        <time>2015-05-31T07:12:49Z</time>
      </trkpt>
      <trkpt lat="43.81907" lon="4.16277">
        <ele>153.2</ele>
        <time>2015-05-31T07:12:53Z</time>
      </trkpt>
      <trkpt lat="43.81919" lon="4.1628">
        <ele>151</ele>
        <time>2015-05-31T07:13:00Z</time>
      </trkpt>
      <trkpt lat="43.81932" lon="4.1628">
        <ele>150.2</ele>
        <time>2015-05-31T07:13:03Z</time>
      </trkpt>
      <trkpt lat="43.81943" lon="4.16274">
        <ele>149.6</ele>
        <time>2015-05-31T07:13:05Z</time>
      </trkpt>
      <trkpt lat="43.81952" lon="4.16266">
        <ele>149</ele>
        <time>2015-05-31T07:13:07Z</time>
      </trkpt>
      <trkpt lat="43.81962" lon="4.16259">
        <ele>148.4</ele>
        <time>2015-05-31T07:13:09Z</time>
      </trkpt>
      <trkpt lat="43.81971" lon="4.16254">
        <ele>147.7</ele>
        <time>2015-05-31T07:13:11Z</time>
      </trkpt>
      <trkpt lat="43.8198" lon="4.16249">
        <ele>147</ele>
        <time>2015-05-31T07:13:13Z</time>
      </trkpt>
      <trkpt lat="43.81988" lon="4.16242">
        <ele>146.4</ele>
        <time>2015-05-31T07:13:15Z</time>
      </trkpt>
      <trkpt lat="43.81997" lon="4.16237">
        <ele>145.5</ele>
        <time>2015-05-31T07:13:17Z</time>
      </trkpt>
      <trkpt lat="43.82007" lon="4.16229">
        <ele>144.3</ele>
        <time>2015-05-31T07:13:20Z</time>
      </trkpt>
      <trkpt lat="43.82017" lon="4.16217">
        <ele>143</ele>
        <time>2015-05-31T07:13:23Z</time>
      </trkpt>
      <trkpt lat="43.82025" lon="4.16203">
        <ele>141.7</ele>
        <time>2015-05-31T07:13:26Z</time>
      </trkpt>
      <trkpt lat="43.82032" lon="4.16188">
        <ele>140.4</ele>
        <time>2015-05-31T07:13:29Z</time>
      </trkpt>
      <trkpt lat="43.82035" lon="4.16175">
        <ele>139.4</ele>
        <time>2015-05-31T07:13:31Z</time>
      </trkpt>
      <trkpt lat="43.82038" lon="4.16163">
        <ele>138.6</ele>
        <time>2015-05-31T07:13:33Z</time>
      </trkpt>
      <trkpt lat="43.82043" lon="4.16148">
        <ele>137.4</ele>
        <time>2015-05-31T07:13:36Z</time>
      </trkpt>
      <trkpt lat="43.8205" lon="4.16133">
        <ele>136.3</ele>
        <time>2015-05-31T07:13:39Z</time>
      </trkpt>
      <trkpt lat="43.82054" lon="4.16121">
        <ele>135.4</ele>
        <time>2015-05-31T07:13:41Z</time>
      </trkpt>
      <trkpt lat="43.82058" lon="4.16109">
        <ele>134.6</ele>
        <time>2015-05-31T07:13:43Z</time>
      </trkpt>
      <trkpt lat="43.82064" lon="4.16099">
        <ele>133.9</ele>
        <time>2015-05-31T07:13:45Z</time>
      </trkpt>
      <trkpt lat="43.82072" lon="4.1609">
        <ele>133.2</ele>
        <time>2015-05-31T07:13:47Z</time>
      </trkpt>
      <trkpt lat="43.82082" lon="4.16082">
        <ele>132.5</ele>
        <time>2015-05-31T07:13:49Z</time>
      </trkpt>
      <trkpt lat="43.8209" lon="4.16076">
        <ele>131.8</ele>
        <time>2015-05-31T07:13:51Z</time>
      </trkpt>
      <trkpt lat="43.82099" lon="4.16069">
        <ele>130.5</ele>
        <time>2015-05-31T07:13:55Z</time>
      </trkpt>
      <trkpt lat="43.82107" lon="4.16062">
        <ele>129.1</ele>
        <time>2015-05-31T07:13:59Z</time>
      </trkpt>
      <trkpt lat="43.8212" lon="4.16057">
        <ele>128.2</ele>
        <time>2015-05-31T07:14:02Z</time>
      </trkpt>
      <trkpt lat="43.82128" lon="4.1605">
        <ele>127.6</ele>
        <time>2015-05-31T07:14:04Z</time>
      </trkpt>
      <trkpt lat="43.82134" lon="4.16035">
        <ele>126.8</ele>
        <time>2015-05-31T07:14:07Z</time>
      </trkpt>
      <trkpt lat="43.8214" lon="4.16019">
        <ele>125.9</ele>
        <time>2015-05-31T07:14:10Z</time>
      </trkpt>
      <trkpt lat="43.82144" lon="4.16002">
        <ele>125.1</ele>
        <time>2015-05-31T07:14:13Z</time>
      </trkpt>
      <trkpt lat="43.82147" lon="4.15984">
        <ele>124.2</ele>
        <time>2015-05-31T07:14:16Z</time>
      </trkpt>
      <trkpt lat="43.82151" lon="4.15967">
        <ele>123.4</ele>
        <time>2015-05-31T07:14:19Z</time>
      </trkpt>
      <trkpt lat="43.82154" lon="4.1595">
        <ele>122.7</ele>
        <time>2015-05-31T07:14:22Z</time>
      </trkpt>
      <trkpt lat="43.82157" lon="4.15938">
        <ele>122.3</ele>
        <time>2015-05-31T07:14:24Z</time>
      </trkpt>
      <trkpt lat="43.82162" lon="4.15926">
        <ele>122</ele>
        <time>2015-05-31T07:14:26Z</time>
      </trkpt>
      <trkpt lat="43.82168" lon="4.15914">
        <ele>121.6</ele>
        <time>2015-05-31T07:14:28Z</time>
      </trkpt>
      <trkpt lat="43.82174" lon="4.15904">
        <ele>121.1</ele>
        <time>2015-05-31T07:14:30Z</time>
      </trkpt>
      <trkpt lat="43.82181" lon="4.15889">
        <ele>120.2</ele>
        <time>2015-05-31T07:14:33Z</time>
      </trkpt>
      <trkpt lat="43.82188" lon="4.15876">
        <ele>119.3</ele>
        <time>2015-05-31T07:14:36Z</time>
      </trkpt>
      <trkpt lat="43.82195" lon="4.15866">
        <ele>116.2</ele>
        <time>2015-05-31T07:14:53Z</time>
      </trkpt>
      <trkpt lat="43.82204" lon="4.15856">
        <ele>115.7</ele>
        <time>2015-05-31T07:14:57Z</time>
      </trkpt>
      <trkpt lat="43.8221" lon="4.15846">
        <ele>115.3</ele>
        <time>2015-05-31T07:15:00Z</time>
      </trkpt>
      <trkpt lat="43.82219" lon="4.15833">
        <ele>115</ele>
        <time>2015-05-31T07:15:03Z</time>
      </trkpt>
      <trkpt lat="43.82231" lon="4.15828">
        <ele>114.8</ele>
        <time>2015-05-31T07:15:06Z</time>
      </trkpt>
      <trkpt lat="43.82243" lon="4.15836">
        <ele>114.6</ele>
        <time>2015-05-31T07:15:09Z</time>
      </trkpt>
      <trkpt lat="43.82252" lon="4.15847">
        <ele>114.4</ele>
        <time>2015-05-31T07:15:12Z</time>
      </trkpt>
      <trkpt lat="43.8226" lon="4.15858">
        <ele>114.3</ele>
        <time>2015-05-31T07:15:15Z</time>
      </trkpt>
      <trkpt lat="43.82266" lon="4.15868">
        <ele>114.2</ele>
        <time>2015-05-31T07:15:18Z</time>
      </trkpt>
      <trkpt lat="43.82272" lon="4.15878">
        <ele>114.1</ele>
        <time>2015-05-31T07:15:21Z</time>
      </trkpt>
      <trkpt lat="43.82279" lon="4.15887">
        <ele>114.1</ele>
        <time>2015-05-31T07:15:24Z</time>
      </trkpt>
      <trkpt lat="43.82287" lon="4.15895">
        <ele>114.3</ele>
        <time>2015-05-31T07:15:27Z</time>
      </trkpt>
      <trkpt lat="43.82295" lon="4.15902">
        <ele>114.9</ele>
        <time>2015-05-31T07:15:32Z</time>
      </trkpt>
      <trkpt lat="43.823" lon="4.15914">
        <ele>115.8</ele>
        <time>2015-05-31T07:15:37Z</time>
      </trkpt>
      <trkpt lat="43.82303" lon="4.15928">
        <ele>116.4</ele>
        <time>2015-05-31T07:15:41Z</time>
      </trkpt>
      <trkpt lat="43.82306" lon="4.15941">
        <ele>116.9</ele>
        <time>2015-05-31T07:15:44Z</time>
      </trkpt>
      <trkpt lat="43.82311" lon="4.15954">
        <ele>117.3</ele>
        <time>2015-05-31T07:15:47Z</time>
      </trkpt>
      <trkpt lat="43.82315" lon="4.15968">
        <ele>117.6</ele>
        <time>2015-05-31T07:15:50Z</time>
      </trkpt>
      <trkpt lat="43.82318" lon="4.15983">
        <ele>117.9</ele>
        <time>2015-05-31T07:15:53Z</time>
      </trkpt>
      <trkpt lat="43.82319" lon="4.15998">
        <ele>118.2</ele>
        <time>2015-05-31T07:15:56Z</time>
      </trkpt>
      <trkpt lat="43.82319" lon="4.16011">
        <ele>118.5</ele>
        <time>2015-05-31T07:15:59Z</time>
      </trkpt>
      <trkpt lat="43.82318" lon="4.16025">
        <ele>118.9</ele>
        <time>2015-05-31T07:16:03Z</time>
      </trkpt>
      <trkpt lat="43.82317" lon="4.16039">
        <ele>119.2</ele>
        <time>2015-05-31T07:16:07Z</time>
      </trkpt>
      <trkpt lat="43.82316" lon="4.16053">
        <ele>119.7</ele>
        <time>2015-05-31T07:16:12Z</time>
      </trkpt>
      <trkpt lat="43.82311" lon="4.16065">
        <ele>120.1</ele>
        <time>2015-05-31T07:16:16Z</time>
      </trkpt>
      <trkpt lat="43.82305" lon="4.16074">
        <ele>120.4</ele>
        <time>2015-05-31T07:16:19Z</time>
      </trkpt>
      <trkpt lat="43.82298" lon="4.16088">
        <ele>120.7</ele>
        <time>2015-05-31T07:16:23Z</time>
      </trkpt>
      <trkpt lat="43.82294" lon="4.16101">
        <ele>121</ele>
        <time>2015-05-31T07:16:27Z</time>
      </trkpt>
      <trkpt lat="43.8229" lon="4.16112">
        <ele>121.5</ele>
        <time>2015-05-31T07:16:31Z</time>
      </trkpt>
      <trkpt lat="43.82291" lon="4.16127">
        <ele>122.1</ele>
        <time>2015-05-31T07:16:36Z</time>
      </trkpt>
      <trkpt lat="43.82289" lon="4.1614">
        <ele>122.6</ele>
        <time>2015-05-31T07:16:40Z</time>
      </trkpt>
      <trkpt lat="43.82285" lon="4.16154">
        <ele>123.2</ele>
        <time>2015-05-31T07:16:45Z</time>
      </trkpt>
      <trkpt lat="43.82287" lon="4.16168">
        <ele>123.7</ele>
        <time>2015-05-31T07:16:49Z</time>
      </trkpt>
      <trkpt lat="43.82296" lon="4.16174">
        <ele>124.2</ele>
        <time>2015-05-31T07:16:53Z</time>
      </trkpt>
      <trkpt lat="43.82298" lon="4.16188">
        <ele>125</ele>
        <time>2015-05-31T07:17:00Z</time>
      </trkpt>
      <trkpt lat="43.82296" lon="4.16202">
        <ele>125.5</ele>
        <time>2015-05-31T07:17:05Z</time>
      </trkpt>
      <trkpt lat="43.823" lon="4.16214">
        <ele>125.9</ele>
        <time>2015-05-31T07:17:09Z</time>
      </trkpt>
      <trkpt lat="43.82304" lon="4.16225">
        <ele>126.4</ele>
        <time>2015-05-31T07:17:13Z</time>
      </trkpt>
      <trkpt lat="43.82308" lon="4.16237">
        <ele>126.9</ele>
        <time>2015-05-31T07:17:18Z</time>
      </trkpt>
      <trkpt lat="43.82316" lon="4.16245">
        <ele>128</ele>
        <time>2015-05-31T07:17:35Z</time>
      </trkpt>
      <trkpt lat="43.82322" lon="4.16254">
        <ele>128.9</ele>
        <time>2015-05-31T07:17:46Z</time>
      </trkpt>
      <trkpt lat="43.82331" lon="4.1626">
        <ele>129.3</ele>
        <time>2015-05-31T07:17:53Z</time>
      </trkpt>
      <trkpt lat="43.8234" lon="4.16266">
        <ele>129.5</ele>
        <time>2015-05-31T07:17:58Z</time>
      </trkpt>
      <trkpt lat="43.82345" lon="4.16278">
        <ele>129.8</ele>
        <time>2015-05-31T07:18:03Z</time>
      </trkpt>
      <trkpt lat="43.8235" lon="4.16289">
        <ele>130.2</ele>
        <time>2015-05-31T07:18:08Z</time>
      </trkpt>
      <trkpt lat="43.82359" lon="4.16294">
        <ele>130.5</ele>
        <time>2015-05-31T07:18:12Z</time>
      </trkpt>
      <trkpt lat="43.82362" lon="4.16307">
        <ele>130.9</ele>
        <time>2015-05-31T07:18:17Z</time>
      </trkpt>
      <trkpt lat="43.82368" lon="4.16319">
        <ele>131.3</ele>
        <time>2015-05-31T07:18:23Z</time>
      </trkpt>
      <trkpt lat="43.82367" lon="4.16332">
        <ele>131.8</ele>
        <time>2015-05-31T07:18:29Z</time>
      </trkpt>
      <trkpt lat="43.82367" lon="4.16345">
        <ele>132.3</ele>
        <time>2015-05-31T07:18:35Z</time>
      </trkpt>
      <trkpt lat="43.82369" lon="4.16362">
        <ele>132.6</ele>
        <time>2015-05-31T07:18:39Z</time>
      </trkpt>
      <trkpt lat="43.82369" lon="4.16376">
        <ele>132.8</ele>
        <time>2015-05-31T07:18:43Z</time>
      </trkpt>
      <trkpt lat="43.82367" lon="4.16389">
        <ele>133.1</ele>
        <time>2015-05-31T07:18:48Z</time>
      </trkpt>
      <trkpt lat="43.82368" lon="4.16403">
        <ele>133.8</ele>
        <time>2015-05-31T07:18:58Z</time>
      </trkpt>
      <trkpt lat="43.82366" lon="4.16415">
        <ele>135.4</ele>
        <time>2015-05-31T07:19:26Z</time>
      </trkpt>
      <trkpt lat="43.82367" lon="4.16429">
        <ele>135.6</ele>
        <time>2015-05-31T07:19:34Z</time>
      </trkpt>
      <trkpt lat="43.82362" lon="4.16442">
        <ele>135.7</ele>
        <time>2015-05-31T07:19:40Z</time>
      </trkpt>
      <trkpt lat="43.82356" lon="4.16452">
        <ele>135.8</ele>
        <time>2015-05-31T07:19:44Z</time>
      </trkpt>
      <trkpt lat="43.8235" lon="4.16466">
        <ele>137.7</ele>
        <time>2015-05-31T07:20:17Z</time>
      </trkpt>
      <trkpt lat="43.82343" lon="4.16476">
        <ele>137.8</ele>
        <time>2015-05-31T07:20:22Z</time>
      </trkpt>
      <trkpt lat="43.8234" lon="4.16487">
        <ele>137.9</ele>
        <time>2015-05-31T07:20:31Z</time>
      </trkpt>
      <trkpt lat="43.82334" lon="4.16499">
        <ele>138.2</ele>
        <time>2015-05-31T07:21:07Z</time>
      </trkpt>
      <trkpt lat="43.82329" lon="4.1651">
        <ele>138.3</ele>
        <time>2015-05-31T07:21:12Z</time>
      </trkpt>
      <trkpt lat="43.82321" lon="4.16519">
        <ele>138.9</ele>
        <time>2015-05-31T07:21:19Z</time>
      </trkpt>
      <trkpt lat="43.82314" lon="4.16527">
        <ele>139.2</ele>
        <time>2015-05-31T07:21:23Z</time>
      </trkpt>
      <trkpt lat="43.82312" lon="4.1654">
        <ele>139.5</ele>
        <time>2015-05-31T07:21:27Z</time>
      </trkpt>
      <trkpt lat="43.82312" lon="4.16554">
        <ele>139.8</ele>
        <time>2015-05-31T07:21:31Z</time>
      </trkpt>
      <trkpt lat="43.82312" lon="4.16567">
        <ele>140.9</ele>
        <time>2015-05-31T07:21:39Z</time>
      </trkpt>
      <trkpt lat="43.8231" lon="4.1658">
        <ele>141.6</ele>
        <time>2015-05-31T07:21:45Z</time>
      </trkpt>
      <trkpt lat="43.8231" lon="4.16596">
        <ele>142.3</ele>
        <time>2015-05-31T07:21:50Z</time>
      </trkpt>
      <trkpt lat="43.82312" lon="4.16609">
        <ele>142.9</ele>
        <time>2015-05-31T07:21:55Z</time>
      </trkpt>
      <trkpt lat="43.82312" lon="4.16623">
        <ele>143.5</ele>
        <time>2015-05-31T07:22:00Z</time>
      </trkpt>
      <trkpt lat="43.82307" lon="4.16635">
        <ele>144.1</ele>
        <time>2015-05-31T07:22:05Z</time>
      </trkpt>
      <trkpt lat="43.82307" lon="4.16649">
        <ele>145.3</ele>
        <time>2015-05-31T07:22:11Z</time>
      </trkpt>
      <trkpt lat="43.82308" lon="4.16663">
        <ele>146</ele>
        <time>2015-05-31T07:22:15Z</time>
      </trkpt>
      <trkpt lat="43.82309" lon="4.16676">
        <ele>147.2</ele>
        <time>2015-05-31T07:22:21Z</time>
      </trkpt>
      <trkpt lat="43.82313" lon="4.1669">
        <ele>148</ele>
        <time>2015-05-31T07:22:26Z</time>
      </trkpt>
      <trkpt lat="43.82318" lon="4.16701">
        <ele>149.9</ele>
        <time>2015-05-31T07:22:39Z</time>
      </trkpt>
      <trkpt lat="43.82326" lon="4.1671">
        <ele>151.3</ele>
        <time>2015-05-31T07:22:55Z</time>
      </trkpt>
      <trkpt lat="43.82328" lon="4.16726">
        <ele>153.1</ele>
        <time>2015-05-31T07:23:39Z</time>
      </trkpt>
      <trkpt lat="43.82337" lon="4.16734">
        <ele>153.1</ele>
        <time>2015-05-31T07:23:44Z</time>
      </trkpt>
      <trkpt lat="43.82347" lon="4.16741">
        <ele>153.2</ele>
        <time>2015-05-31T07:23:48Z</time>
      </trkpt>
      <trkpt lat="43.82356" lon="4.16747">
        <ele>153.4</ele>
        <time>2015-05-31T07:23:52Z</time>
      </trkpt>
      <trkpt lat="43.82365" lon="4.1675">
        <ele>153.7</ele>
        <time>2015-05-31T07:23:56Z</time>
      </trkpt>
      <trkpt lat="43.82374" lon="4.16754">
        <ele>154.1</ele>
        <time>2015-05-31T07:24:00Z</time>
      </trkpt>
      <trkpt lat="43.82383" lon="4.16762">
        <ele>154.5</ele>
        <time>2015-05-31T07:24:05Z</time>
      </trkpt>
      <trkpt lat="43.82389" lon="4.16774">
        <ele>154.9</ele>
        <time>2015-05-31T07:24:09Z</time>
      </trkpt>
      <trkpt lat="43.82399" lon="4.16772">
        <ele>155.4</ele>
        <time>2015-05-31T07:24:14Z</time>
      </trkpt>
      <trkpt lat="43.82403" lon="4.16759">
        <ele>155.9</ele>
        <time>2015-05-31T07:24:19Z</time>
      </trkpt>
      <trkpt lat="43.82408" lon="4.16745">
        <ele>156.3</ele>
        <time>2015-05-31T07:24:23Z</time>
      </trkpt>
      <trkpt lat="43.82413" lon="4.16735">
        <ele>156.7</ele>
        <time>2015-05-31T07:24:27Z</time>
      </trkpt>
      <trkpt lat="43.82423" lon="4.16732">
        <ele>157.3</ele>
        <time>2015-05-31T07:24:32Z</time>
      </trkpt>
      <trkpt lat="43.82433" lon="4.16733">
        <ele>157.9</ele>
        <time>2015-05-31T07:24:37Z</time>
      </trkpt>
      <trkpt lat="43.82443" lon="4.16734">
        <ele>158.4</ele>
        <time>2015-05-31T07:24:42Z</time>
      </trkpt>
      <trkpt lat="43.82452" lon="4.16726">
        <ele>158.8</ele>
        <time>2015-05-31T07:24:47Z</time>
      </trkpt>
      <trkpt lat="43.82461" lon="4.1672">
        <ele>159.2</ele>
        <time>2015-05-31T07:24:52Z</time>
      </trkpt>
      <trkpt lat="43.82469" lon="4.16713">
        <ele>159.5</ele>
        <time>2015-05-31T07:24:57Z</time>
      </trkpt>
      <trkpt lat="43.82478" lon="4.16708">
        <ele>159.6</ele>
        <time>2015-05-31T07:25:00Z</time>
      </trkpt>
      <trkpt lat="43.82493" lon="4.16702">
        <ele>159.7</ele>
        <time>2015-05-31T07:25:03Z</time>
      </trkpt>
      <trkpt lat="43.82499" lon="4.1669">
        <ele>159.6</ele>
        <time>2015-05-31T07:25:13Z</time>
      </trkpt>
      <trkpt lat="43.82508" lon="4.16685">
        <ele>159.6</ele>
        <time>2015-05-31T07:25:16Z</time>
      </trkpt>
      <trkpt lat="43.82517" lon="4.16678">
        <ele>159.6</ele>
        <time>2015-05-31T07:25:20Z</time>
      </trkpt>
      <trkpt lat="43.82523" lon="4.16667">
        <ele>159.3</ele>
        <time>2015-05-31T07:25:24Z</time>
      </trkpt>
      <trkpt lat="43.82533" lon="4.16657">
        <ele>159.2</ele>
        <time>2015-05-31T07:25:28Z</time>
      </trkpt>
      <trkpt lat="43.82543" lon="4.16649">
        <ele>159.2</ele>
        <time>2015-05-31T07:25:31Z</time>
      </trkpt>
      <trkpt lat="43.82548" lon="4.16638">
        <ele>159.2</ele>
        <time>2015-05-31T07:25:33Z</time>
      </trkpt>
      <trkpt lat="43.82553" lon="4.16628">
        <ele>159.2</ele>
        <time>2015-05-31T07:25:37Z</time>
      </trkpt>
      <trkpt lat="43.82548" lon="4.16614">
        <ele>158</ele>
        <time>2015-05-31T07:26:28Z</time>
      </trkpt>
      <trkpt lat="43.82546" lon="4.16602">
        <ele>157.9</ele>
        <time>2015-05-31T07:26:31Z</time>
      </trkpt>
      <trkpt lat="43.82541" lon="4.16587">
        <ele>157.7</ele>
        <time>2015-05-31T07:26:34Z</time>
      </trkpt>
      <trkpt lat="43.82538" lon="4.16575">
        <ele>157.6</ele>
        <time>2015-05-31T07:26:36Z</time>
      </trkpt>
      <trkpt lat="43.82534" lon="4.16561">
        <ele>157.4</ele>
        <time>2015-05-31T07:26:38Z</time>
      </trkpt>
      <trkpt lat="43.82529" lon="4.16546">
        <ele>157.1</ele>
        <time>2015-05-31T07:26:40Z</time>
      </trkpt>
      <trkpt lat="43.82525" lon="4.1653">
        <ele>156.8</ele>
        <time>2015-05-31T07:26:42Z</time>
      </trkpt>
      <trkpt lat="43.8252" lon="4.16516">
        <ele>156.5</ele>
        <time>2015-05-31T07:26:44Z</time>
      </trkpt>
      <trkpt lat="43.82518" lon="4.16503">
        <ele>156</ele>
        <time>2015-05-31T07:26:46Z</time>
      </trkpt>
      <trkpt lat="43.82525" lon="4.16489">
        <ele>155.2</ele>
        <time>2015-05-31T07:26:50Z</time>
      </trkpt>
      <trkpt lat="43.82534" lon="4.16485">
        <ele>154.4</ele>
        <time>2015-05-31T07:26:53Z</time>
      </trkpt>
      <trkpt lat="43.82543" lon="4.16482">
        <ele>153.5</ele>
        <time>2015-05-31T07:26:56Z</time>
      </trkpt>
      <trkpt lat="43.82552" lon="4.16478">
        <ele>152.2</ele>
        <time>2015-05-31T07:27:00Z</time>
      </trkpt>
      <trkpt lat="43.82561" lon="4.16473">
        <ele>151</ele>
        <time>2015-05-31T07:27:03Z</time>
      </trkpt>
      <trkpt lat="43.82572" lon="4.16469">
        <ele>149.7</ele>
        <time>2015-05-31T07:27:06Z</time>
      </trkpt>
      <trkpt lat="43.82578" lon="4.16456">
        <ele>147.9</ele>
        <time>2015-05-31T07:27:10Z</time>
      </trkpt>
      <trkpt lat="43.82585" lon="4.16446">
        <ele>146.5</ele>
        <time>2015-05-31T07:27:13Z</time>
      </trkpt>
      <trkpt lat="43.82595" lon="4.16439">
        <ele>145.1</ele>
        <time>2015-05-31T07:27:16Z</time>
      </trkpt>
      <trkpt lat="43.82604" lon="4.16428">
        <ele>143.4</ele>
        <time>2015-05-31T07:27:20Z</time>
      </trkpt>
      <trkpt lat="43.82611" lon="4.16418">
        <ele>142</ele>
        <time>2015-05-31T07:27:23Z</time>
      </trkpt>
      <trkpt lat="43.82616" lon="4.16408">
        <ele>140.7</ele>
        <time>2015-05-31T07:27:26Z</time>
      </trkpt>
      <trkpt lat="43.82623" lon="4.16399">
        <ele>139.3</ele>
        <time>2015-05-31T07:27:29Z</time>
      </trkpt>
      <trkpt lat="43.82633" lon="4.16394">
        <ele>137.4</ele>
        <time>2015-05-31T07:27:33Z</time>
      </trkpt>
      <trkpt lat="43.82636" lon="4.16382">
        <ele>135.5</ele>
        <time>2015-05-31T07:27:38Z</time>
      </trkpt>
      <trkpt lat="43.8263" lon="4.16368">
        <ele>133.8</ele>
        <time>2015-05-31T07:27:43Z</time>
      </trkpt>
      <trkpt lat="43.82627" lon="4.16354">
        <ele>132.7</ele>
        <time>2015-05-31T07:27:47Z</time>
      </trkpt>
      <trkpt lat="43.82621" lon="4.16343">
        <ele>131.6</ele>
        <time>2015-05-31T07:27:51Z</time>
      </trkpt>
      <trkpt lat="43.82614" lon="4.16334">
        <ele>131.1</ele>
        <time>2015-05-31T07:27:53Z</time>
      </trkpt>
      <trkpt lat="43.8261" lon="4.16322">
        <ele>130.3</ele>
        <time>2015-05-31T07:27:56Z</time>
      </trkpt>
      <trkpt lat="43.82608" lon="4.16308">
        <ele>129.7</ele>
        <time>2015-05-31T07:27:59Z</time>
      </trkpt>
      <trkpt lat="43.8261" lon="4.16291">
        <ele>129.2</ele>
        <time>2015-05-31T07:28:02Z</time>
      </trkpt>
      <trkpt lat="43.82613" lon="4.16274">
        <ele>128.7</ele>
        <time>2015-05-31T07:28:05Z</time>
      </trkpt>
      <trkpt lat="43.82613" lon="4.1626">
        <ele>128.4</ele>
        <time>2015-05-31T07:28:07Z</time>
      </trkpt>
      <trkpt lat="43.82616" lon="4.16241">
        <ele>128</ele>
        <time>2015-05-31T07:28:10Z</time>
      </trkpt>
      <trkpt lat="43.82618" lon="4.16227">
        <ele>127.8</ele>
        <time>2015-05-31T07:28:12Z</time>
      </trkpt>
      <trkpt lat="43.82619" lon="4.16214">
        <ele>127.5</ele>
        <time>2015-05-31T07:28:14Z</time>
      </trkpt>
      <trkpt lat="43.82619" lon="4.16196">
        <ele>127</ele>
        <time>2015-05-31T07:28:17Z</time>
      </trkpt>
      <trkpt lat="43.8262" lon="4.16182">
        <ele>126.8</ele>
        <time>2015-05-31T07:28:19Z</time>
      </trkpt>
      <trkpt lat="43.82623" lon="4.16169">
        <ele>126.5</ele>
        <time>2015-05-31T07:28:21Z</time>
      </trkpt>
      <trkpt lat="43.82624" lon="4.16155">
        <ele>126.2</ele>
        <time>2015-05-31T07:28:23Z</time>
      </trkpt>
      <trkpt lat="43.82627" lon="4.16143">
        <ele>125.9</ele>
        <time>2015-05-31T07:28:25Z</time>
      </trkpt>
      <trkpt lat="43.82629" lon="4.16129">
        <ele>125.6</ele>
        <time>2015-05-31T07:28:27Z</time>
      </trkpt>
      <trkpt lat="43.8263" lon="4.16116">
        <ele>125.3</ele>
        <time>2015-05-31T07:28:29Z</time>
      </trkpt>
      <trkpt lat="43.82632" lon="4.16101">
        <ele>124.8</ele>
        <time>2015-05-31T07:28:32Z</time>
      </trkpt>
      <trkpt lat="43.82628" lon="4.16088">
        <ele>124.2</ele>
        <time>2015-05-31T07:28:37Z</time>
      </trkpt>
      <trkpt lat="43.82628" lon="4.16075">
        <ele>123.6</ele>
        <time>2015-05-31T07:28:41Z</time>
      </trkpt>
      <trkpt lat="43.82623" lon="4.16064">
        <ele>123.3</ele>
        <time>2015-05-31T07:28:44Z</time>
      </trkpt>
      <trkpt lat="43.82621" lon="4.16049">
        <ele>122.8</ele>
        <time>2015-05-31T07:28:48Z</time>
      </trkpt>
      <trkpt lat="43.82613" lon="4.16043">
        <ele>120.3</ele>
        <time>2015-05-31T07:29:57Z</time>
      </trkpt>
      <trkpt lat="43.82605" lon="4.16035">
        <ele>120.2</ele>
        <time>2015-05-31T07:30:02Z</time>
      </trkpt>
      <trkpt lat="43.826" lon="4.16024">
        <ele>120.3</ele>
        <time>2015-05-31T07:30:41Z</time>
      </trkpt>
      <trkpt lat="43.82604" lon="4.16012">
        <ele>120.3</ele>
        <time>2015-05-31T07:30:46Z</time>
      </trkpt>
      <trkpt lat="43.82605" lon="4.15999">
        <ele>120.5</ele>
        <time>2015-05-31T07:30:57Z</time>
      </trkpt>
      <trkpt lat="43.82614" lon="4.15995">
        <ele>122.2</ele>
        <time>2015-05-31T07:31:22Z</time>
      </trkpt>
      <trkpt lat="43.82624" lon="4.15991">
        <ele>123.2</ele>
        <time>2015-05-31T07:31:34Z</time>
      </trkpt>
      <trkpt lat="43.82632" lon="4.15987">
        <ele>124.9</ele>
        <time>2015-05-31T07:31:46Z</time>
      </trkpt>
      <trkpt lat="43.82641" lon="4.15981">
        <ele>127.1</ele>
        <time>2015-05-31T07:31:57Z</time>
      </trkpt>
      <trkpt lat="43.82651" lon="4.15982">
        <ele>129.6</ele>
        <time>2015-05-31T07:32:10Z</time>
      </trkpt>
      <trkpt lat="43.8266" lon="4.15985">
        <ele>131.5</ele>
        <time>2015-05-31T07:32:22Z</time>
      </trkpt>
      <trkpt lat="43.82669" lon="4.15984">
        <ele>133.3</ele>
        <time>2015-05-31T07:32:34Z</time>
      </trkpt>
      <trkpt lat="43.8268" lon="4.15987">
        <ele>137.4</ele>
        <time>2015-05-31T07:33:27Z</time>
      </trkpt>
      <trkpt lat="43.82688" lon="4.15994">
        <ele>137.9</ele>
        <time>2015-05-31T07:33:41Z</time>
      </trkpt>
      <trkpt lat="43.82695" lon="4.16004">
        <ele>139</ele>
        <time>2015-05-31T07:34:07Z</time>
      </trkpt>
      <trkpt lat="43.82704" lon="4.16">
        <ele>143.3</ele>
        <time>2015-05-31T07:35:37Z</time>
      </trkpt>
      <trkpt lat="43.82713" lon="4.15999">
        <ele>144.7</ele>
        <time>2015-05-31T07:35:52Z</time>
      </trkpt>
      <trkpt lat="43.82722" lon="4.16008">
        <ele>145.7</ele>
        <time>2015-05-31T07:36:00Z</time>
      </trkpt>
      <trkpt lat="43.82729" lon="4.16016">
        <ele>146.3</ele>
        <time>2015-05-31T07:36:04Z</time>
      </trkpt>
      <trkpt lat="43.82738" lon="4.16014">
        <ele>147.9</ele>
        <time>2015-05-31T07:36:13Z</time>
      </trkpt>
      <trkpt lat="43.82749" lon="4.16012">
        <ele>149</ele>
        <time>2015-05-31T07:36:20Z</time>
      </trkpt>
      <trkpt lat="43.82759" lon="4.16015">
        <ele>149.9</ele>
        <time>2015-05-31T07:36:26Z</time>
      </trkpt>
      <trkpt lat="43.82769" lon="4.16016">
        <ele>151</ele>
        <time>2015-05-31T07:36:33Z</time>
      </trkpt>
      <trkpt lat="43.82779" lon="4.1602">
        <ele>153.1</ele>
        <time>2015-05-31T07:37:09Z</time>
      </trkpt>
      <trkpt lat="43.82788" lon="4.16018">
        <ele>152.9</ele>
        <time>2015-05-31T07:37:14Z</time>
      </trkpt>
      <trkpt lat="43.82798" lon="4.16024">
        <ele>152.7</ele>
        <time>2015-05-31T07:37:20Z</time>
      </trkpt>
      <trkpt lat="43.82805" lon="4.16032">
        <ele>152.6</ele>
        <time>2015-05-31T07:37:25Z</time>
      </trkpt>
      <trkpt lat="43.82817" lon="4.16032">
        <ele>152.3</ele>
        <time>2015-05-31T07:37:32Z</time>
      </trkpt>
      <trkpt lat="43.82826" lon="4.16033">
        <ele>151.4</ele>
        <time>2015-05-31T07:37:45Z</time>
      </trkpt>
      <trkpt lat="43.82834" lon="4.16028">
        <ele>150.9</ele>
        <time>2015-05-31T07:37:51Z</time>
      </trkpt>
      <trkpt lat="43.82841" lon="4.16019">
        <ele>149.9</ele>
        <time>2015-05-31T07:37:57Z</time>
      </trkpt>
      <trkpt lat="43.82851" lon="4.16018">
        <ele>148.4</ele>
        <time>2015-05-31T07:38:06Z</time>
      </trkpt>
      <trkpt lat="43.8286" lon="4.16013">
        <ele>146.2</ele>
        <time>2015-05-31T07:38:18Z</time>
      </trkpt>
      <trkpt lat="43.82869" lon="4.16009">
        <ele>145.8</ele>
        <time>2015-05-31T07:38:29Z</time>
      </trkpt>
      <trkpt lat="43.82877" lon="4.16015">
        <ele>146.5</ele>
        <time>2015-05-31T07:38:36Z</time>
      </trkpt>
      <trkpt lat="43.82885" lon="4.16022">
        <ele>147.3</ele>
        <time>2015-05-31T07:38:42Z</time>
      </trkpt>
      <trkpt lat="43.82895" lon="4.16025">
        <ele>148.2</ele>
        <time>2015-05-31T07:38:47Z</time>
      </trkpt>
      <trkpt lat="43.82904" lon="4.16024">
        <ele>149.2</ele>
        <time>2015-05-31T07:38:53Z</time>
      </trkpt>
      <trkpt lat="43.82914" lon="4.16022">
        <ele>152.6</ele>
        <time>2015-05-31T07:39:19Z</time>
      </trkpt>
      <trkpt lat="43.82922" lon="4.16017">
        <ele>153.5</ele>
        <time>2015-05-31T07:39:34Z</time>
      </trkpt>
      <trkpt lat="43.82931" lon="4.16016">
        <ele>153.9</ele>
        <time>2015-05-31T07:39:43Z</time>
      </trkpt>
      <trkpt lat="43.82939" lon="4.16025">
        <ele>154.5</ele>
        <time>2015-05-31T07:39:50Z</time>
      </trkpt>
      <trkpt lat="43.82945" lon="4.16036">
        <ele>155.8</ele>
        <time>2015-05-31T07:39:58Z</time>
      </trkpt>
      <trkpt lat="43.82954" lon="4.1604">
        <ele>156.8</ele>
        <time>2015-05-31T07:40:04Z</time>
      </trkpt>
      <trkpt lat="43.82964" lon="4.16034">
        <ele>157.6</ele>
        <time>2015-05-31T07:40:10Z</time>
      </trkpt>
      <trkpt lat="43.82972" lon="4.16026">
        <ele>158.3</ele>
        <time>2015-05-31T07:40:15Z</time>
      </trkpt>
      <trkpt lat="43.82981" lon="4.16031">
        <ele>158.8</ele>
        <time>2015-05-31T07:40:20Z</time>
      </trkpt>
      <trkpt lat="43.82987" lon="4.16041">
        <ele>159.2</ele>
        <time>2015-05-31T07:40:24Z</time>
      </trkpt>
      <trkpt lat="43.82994" lon="4.1605">
        <ele>159.8</ele>
        <time>2015-05-31T07:40:29Z</time>
      </trkpt>
      <trkpt lat="43.82999" lon="4.16062">
        <ele>160.4</ele>
        <time>2015-05-31T07:40:36Z</time>
      </trkpt>
      <trkpt lat="43.82999" lon="4.16075">
        <ele>160.8</ele>
        <time>2015-05-31T07:40:41Z</time>
      </trkpt>
      <trkpt lat="43.83" lon="4.16089">
        <ele>161.4</ele>
        <time>2015-05-31T07:40:46Z</time>
      </trkpt>
      <trkpt lat="43.82998" lon="4.16103">
        <ele>161.9</ele>
        <time>2015-05-31T07:40:52Z</time>
      </trkpt>
      <trkpt lat="43.82997" lon="4.16115">
        <ele>162.2</ele>
        <time>2015-05-31T07:40:56Z</time>
      </trkpt>
      <trkpt lat="43.82998" lon="4.16129">
        <ele>162.7</ele>
        <time>2015-05-31T07:41:01Z</time>
      </trkpt>
      <trkpt lat="43.82996" lon="4.16141">
        <ele>163.1</ele>
        <time>2015-05-31T07:41:06Z</time>
      </trkpt>
      <trkpt lat="43.82996" lon="4.16156">
        <ele>163.5</ele>
        <time>2015-05-31T07:41:11Z</time>
      </trkpt>
      <trkpt lat="43.82996" lon="4.1617">
        <ele>163.9</ele>
        <time>2015-05-31T07:41:15Z</time>
      </trkpt>
      <trkpt lat="43.82998" lon="4.16185">
        <ele>164.2</ele>
        <time>2015-05-31T07:41:19Z</time>
      </trkpt>
      <trkpt lat="43.83" lon="4.162">
        <ele>164.4</ele>
        <time>2015-05-31T07:41:23Z</time>
      </trkpt>
      <trkpt lat="43.83006" lon="4.16214">
        <ele>164.6</ele>
        <time>2015-05-31T07:41:26Z</time>
      </trkpt>
      <trkpt lat="43.83007" lon="4.16227">
        <ele>164.7</ele>
        <time>2015-05-31T07:41:30Z</time>
      </trkpt>
      <trkpt lat="43.83007" lon="4.16244">
        <ele>164.9</ele>
        <time>2015-05-31T07:41:34Z</time>
      </trkpt>
      <trkpt lat="43.83009" lon="4.16257">
        <ele>165</ele>
        <time>2015-05-31T07:41:37Z</time>
      </trkpt>
      <trkpt lat="43.83008" lon="4.1627">
        <ele>165.1</ele>
        <time>2015-05-31T07:41:41Z</time>
      </trkpt>
      <trkpt lat="43.83007" lon="4.16285">
        <ele>165.2</ele>
        <time>2015-05-31T07:41:46Z</time>
      </trkpt>
      <trkpt lat="43.83005" lon="4.16297">
        <ele>165.1</ele>
        <time>2015-05-31T07:41:50Z</time>
      </trkpt>
      <trkpt lat="43.83005" lon="4.1631">
        <ele>165.1</ele>
        <time>2015-05-31T07:41:53Z</time>
      </trkpt>
      <trkpt lat="43.83005" lon="4.16324">
        <ele>165</ele>
        <time>2015-05-31T07:41:56Z</time>
      </trkpt>
      <trkpt lat="43.83009" lon="4.16339">
        <ele>165</ele>
        <time>2015-05-31T07:42:00Z</time>
      </trkpt>
      <trkpt lat="43.83011" lon="4.16353">
        <ele>165</ele>
        <time>2015-05-31T07:42:03Z</time>
      </trkpt>
      <trkpt lat="43.83012" lon="4.16366">
        <ele>165</ele>
        <time>2015-05-31T07:42:06Z</time>
      </trkpt>
      <trkpt lat="43.83014" lon="4.16378">
        <ele>165</ele>
        <time>2015-05-31T07:42:09Z</time>
      </trkpt>
      <trkpt lat="43.83016" lon="4.16392">
        <ele>165</ele>
        <time>2015-05-31T07:42:12Z</time>
      </trkpt>
      <trkpt lat="43.83014" lon="4.16405">
        <ele>165</ele>
        <time>2015-05-31T07:42:15Z</time>
      </trkpt>
      <trkpt lat="43.83011" lon="4.16417">
        <ele>165</ele>
        <time>2015-05-31T07:42:18Z</time>
      </trkpt>
      <trkpt lat="43.83008" lon="4.16429">
        <ele>165</ele>
        <time>2015-05-31T07:42:22Z</time>
      </trkpt>
      <trkpt lat="43.83009" lon="4.16447">
        <ele>164.9</ele>
        <time>2015-05-31T07:42:26Z</time>
      </trkpt>
      <trkpt lat="43.8301" lon="4.16462">
        <ele>164.8</ele>
        <time>2015-05-31T07:42:29Z</time>
      </trkpt>
      <trkpt lat="43.83011" lon="4.1648">
        <ele>164.5</ele>
        <time>2015-05-31T07:42:32Z</time>
      </trkpt>
      <trkpt lat="43.83009" lon="4.16495">
        <ele>164.1</ele>
        <time>2015-05-31T07:42:35Z</time>
      </trkpt>
      <trkpt lat="43.83008" lon="4.16508">
        <ele>163.9</ele>
        <time>2015-05-31T07:42:38Z</time>
      </trkpt>
      <trkpt lat="43.83004" lon="4.16521">
        <ele>163.5</ele>
        <time>2015-05-31T07:42:42Z</time>
      </trkpt>
      <trkpt lat="43.82995" lon="4.16533">
        <ele>163.3</ele>
        <time>2015-05-31T07:42:46Z</time>
      </trkpt>
      <trkpt lat="43.82987" lon="4.16544">
        <ele>163.1</ele>
        <time>2015-05-31T07:42:49Z</time>
      </trkpt>
      <trkpt lat="43.82979" lon="4.16555">
        <ele>163</ele>
        <time>2015-05-31T07:42:52Z</time>
      </trkpt>
      <trkpt lat="43.82973" lon="4.16565">
        <ele>162.9</ele>
        <time>2015-05-31T07:42:55Z</time>
      </trkpt>
      <trkpt lat="43.82967" lon="4.16577">
        <ele>162.7</ele>
        <time>2015-05-31T07:42:58Z</time>
      </trkpt>
      <trkpt lat="43.82964" lon="4.1659">
        <ele>162.5</ele>
        <time>2015-05-31T07:43:01Z</time>
      </trkpt>
      <trkpt lat="43.82965" lon="4.16607">
        <ele>162.2</ele>
        <time>2015-05-31T07:43:04Z</time>
      </trkpt>
      <trkpt lat="43.82965" lon="4.16619">
        <ele>161.8</ele>
        <time>2015-05-31T07:43:07Z</time>
      </trkpt>
      <trkpt lat="43.82974" lon="4.16612">
        <ele>160.8</ele>
        <time>2015-05-31T07:43:16Z</time>
      </trkpt>
      <trkpt lat="43.82983" lon="4.16607">
        <ele>160.7</ele>
        <time>2015-05-31T07:43:21Z</time>
      </trkpt>
      <trkpt lat="43.82992" lon="4.16601">
        <ele>160.7</ele>
        <time>2015-05-31T07:43:25Z</time>
      </trkpt>
      <trkpt lat="43.83002" lon="4.16597">
        <ele>160.7</ele>
        <time>2015-05-31T07:43:29Z</time>
      </trkpt>
      <trkpt lat="43.83011" lon="4.16593">
        <ele>160.8</ele>
        <time>2015-05-31T07:43:32Z</time>
      </trkpt>
      <trkpt lat="43.8302" lon="4.16588">
        <ele>161</ele>
        <time>2015-05-31T07:43:36Z</time>
      </trkpt>
      <trkpt lat="43.83029" lon="4.1658">
        <ele>161.4</ele>
        <time>2015-05-31T07:43:40Z</time>
      </trkpt>
      <trkpt lat="43.83036" lon="4.1657">
        <ele>161.8</ele>
        <time>2015-05-31T07:43:44Z</time>
      </trkpt>
      <trkpt lat="43.83046" lon="4.16569">
        <ele>162.5</ele>
        <time>2015-05-31T07:43:49Z</time>
      </trkpt>
      <trkpt lat="43.83056" lon="4.16571">
        <ele>163.2</ele>
        <time>2015-05-31T07:43:54Z</time>
      </trkpt>
      <trkpt lat="43.83066" lon="4.16576">
        <ele>164.2</ele>
        <time>2015-05-31T07:43:59Z</time>
      </trkpt>
      <trkpt lat="43.83076" lon="4.16574">
        <ele>165</ele>
        <time>2015-05-31T07:44:04Z</time>
      </trkpt>
      <trkpt lat="43.83087" lon="4.16569">
        <ele>165.4</ele>
        <time>2015-05-31T07:44:08Z</time>
      </trkpt>
      <trkpt lat="43.83096" lon="4.16564">
        <ele>165.9</ele>
        <time>2015-05-31T07:44:12Z</time>
      </trkpt>
      <trkpt lat="43.83106" lon="4.16561">
        <ele>166.4</ele>
        <time>2015-05-31T07:44:17Z</time>
      </trkpt>
      <trkpt lat="43.83117" lon="4.16563">
        <ele>166.7</ele>
        <time>2015-05-31T07:44:21Z</time>
      </trkpt>
      <trkpt lat="43.83127" lon="4.16565">
        <ele>166.8</ele>
        <time>2015-05-31T07:44:24Z</time>
      </trkpt>
      <trkpt lat="43.83138" lon="4.16567">
        <ele>166.9</ele>
        <time>2015-05-31T07:44:27Z</time>
      </trkpt>
      <trkpt lat="43.8315" lon="4.16567">
        <ele>166.9</ele>
        <time>2015-05-31T07:44:30Z</time>
      </trkpt>
      <trkpt lat="43.83161" lon="4.16566">
        <ele>166.9</ele>
        <time>2015-05-31T07:44:33Z</time>
      </trkpt>
      <trkpt lat="43.83173" lon="4.16563">
        <ele>166.9</ele>
        <time>2015-05-31T07:44:36Z</time>
      </trkpt>
      <trkpt lat="43.83185" lon="4.16555">
        <ele>166.8</ele>
        <time>2015-05-31T07:44:39Z</time>
      </trkpt>
      <trkpt lat="43.83195" lon="4.16556">
        <ele>166.4</ele>
        <time>2015-05-31T07:44:43Z</time>
      </trkpt>
      <trkpt lat="43.83204" lon="4.16563">
        <ele>166</ele>
        <time>2015-05-31T07:44:47Z</time>
      </trkpt>
      <trkpt lat="43.83206" lon="4.16576">
        <ele>165.7</ele>
        <time>2015-05-31T07:44:51Z</time>
      </trkpt>
      <trkpt lat="43.83208" lon="4.16589">
        <ele>165.6</ele>
        <time>2015-05-31T07:44:56Z</time>
      </trkpt>
      <trkpt lat="43.83218" lon="4.16595">
        <ele>165.7</ele>
        <time>2015-05-31T07:45:00Z</time>
      </trkpt>
      <trkpt lat="43.83216" lon="4.16608">
        <ele>165.8</ele>
        <time>2015-05-31T07:45:05Z</time>
      </trkpt>
      <trkpt lat="43.83223" lon="4.16618">
        <ele>166</ele>
        <time>2015-05-31T07:45:13Z</time>
      </trkpt>
      <trkpt lat="43.83233" lon="4.1662">
        <ele>166.3</ele>
        <time>2015-05-31T07:45:22Z</time>
      </trkpt>
      <trkpt lat="43.83235" lon="4.16634">
        <ele>166.3</ele>
        <time>2015-05-31T07:45:27Z</time>
      </trkpt>
      <trkpt lat="43.83236" lon="4.16649">
        <ele>166.1</ele>
        <time>2015-05-31T07:45:32Z</time>
      </trkpt>
      <trkpt lat="43.83233" lon="4.16663">
        <ele>166.2</ele>
        <time>2015-05-31T07:45:37Z</time>
      </trkpt>
      <trkpt lat="43.83236" lon="4.16677">
        <ele>166.5</ele>
        <time>2015-05-31T07:45:42Z</time>
      </trkpt>
      <trkpt lat="43.83233" lon="4.16689">
        <ele>166.9</ele>
        <time>2015-05-31T07:45:47Z</time>
      </trkpt>
      <trkpt lat="43.8323" lon="4.16702">
        <ele>167.3</ele>
        <time>2015-05-31T07:45:51Z</time>
      </trkpt>
      <trkpt lat="43.83235" lon="4.16715">
        <ele>167.8</ele>
        <time>2015-05-31T07:45:57Z</time>
      </trkpt>
      <trkpt lat="43.83243" lon="4.16721">
        <ele>168</ele>
        <time>2015-05-31T07:46:01Z</time>
      </trkpt>
      <trkpt lat="43.83252" lon="4.16728">
        <ele>168.2</ele>
        <time>2015-05-31T07:46:05Z</time>
      </trkpt>
      <trkpt lat="43.83259" lon="4.1674">
        <ele>168.3</ele>
        <time>2015-05-31T07:46:10Z</time>
      </trkpt>
      <trkpt lat="43.83265" lon="4.16751">
        <ele>168.2</ele>
        <time>2015-05-31T07:46:15Z</time>
      </trkpt>
      <trkpt lat="43.8327" lon="4.16765">
        <ele>168.1</ele>
        <time>2015-05-31T07:46:20Z</time>
      </trkpt>
      <trkpt lat="43.83273" lon="4.16777">
        <ele>168</ele>
        <time>2015-05-31T07:46:24Z</time>
      </trkpt>
      <trkpt lat="43.83281" lon="4.16785">
        <ele>167.9</ele>
        <time>2015-05-31T07:46:28Z</time>
      </trkpt>
      <trkpt lat="43.83288" lon="4.16792">
        <ele>167.9</ele>
        <time>2015-05-31T07:46:34Z</time>
      </trkpt>
      <trkpt lat="43.83297" lon="4.16798">
        <ele>167.8</ele>
        <time>2015-05-31T07:46:38Z</time>
      </trkpt>
      <trkpt lat="43.83307" lon="4.16799">
        <ele>167.7</ele>
        <time>2015-05-31T07:46:41Z</time>
      </trkpt>
      <trkpt lat="43.83316" lon="4.16802">
        <ele>167.5</ele>
        <time>2015-05-31T07:46:45Z</time>
      </trkpt>
      <trkpt lat="43.83325" lon="4.16807">
        <ele>167.5</ele>
        <time>2015-05-31T07:46:49Z</time>
      </trkpt>
      <trkpt lat="43.83334" lon="4.16807">
        <ele>167.4</ele>
        <time>2015-05-31T07:46:53Z</time>
      </trkpt>
      <trkpt lat="43.83344" lon="4.16811">
        <ele>167.4</ele>
        <time>2015-05-31T07:46:59Z</time>
      </trkpt>
      <trkpt lat="43.83351" lon="4.16821">
        <ele>167.3</ele>
        <time>2015-05-31T07:47:04Z</time>
      </trkpt>
      <trkpt lat="43.83355" lon="4.16833">
        <ele>167.3</ele>
        <time>2015-05-31T07:47:11Z</time>
      </trkpt>
      <trkpt lat="43.83364" lon="4.16839">
        <ele>167.4</ele>
        <time>2015-05-31T07:47:20Z</time>
      </trkpt>
      <trkpt lat="43.83371" lon="4.16847">
        <ele>167.5</ele>
        <time>2015-05-31T07:47:24Z</time>
      </trkpt>
      <trkpt lat="43.83379" lon="4.16856">
        <ele>167.6</ele>
        <time>2015-05-31T07:47:29Z</time>
      </trkpt>
      <trkpt lat="43.8338" lon="4.16869">
        <ele>167.7</ele>
        <time>2015-05-31T07:47:35Z</time>
      </trkpt>
      <trkpt lat="43.83388" lon="4.16877">
        <ele>167.8</ele>
        <time>2015-05-31T07:47:39Z</time>
      </trkpt>
      <trkpt lat="43.83389" lon="4.16892">
        <ele>168.1</ele>
        <time>2015-05-31T07:47:44Z</time>
      </trkpt>
      <trkpt lat="43.83387" lon="4.16906">
        <ele>168.2</ele>
        <time>2015-05-31T07:47:48Z</time>
      </trkpt>
      <trkpt lat="43.83385" lon="4.16922">
        <ele>168.4</ele>
        <time>2015-05-31T07:47:52Z</time>
      </trkpt>
      <trkpt lat="43.8338" lon="4.16937">
        <ele>168.5</ele>
        <time>2015-05-31T07:47:55Z</time>
      </trkpt>
      <trkpt lat="43.83368" lon="4.16937">
        <ele>168.7</ele>
        <time>2015-05-31T07:47:59Z</time>
      </trkpt>
      <trkpt lat="43.83355" lon="4.16932">
        <ele>168.7</ele>
        <time>2015-05-31T07:48:02Z</time>
      </trkpt>
      <trkpt lat="43.83346" lon="4.16928">
        <ele>168.8</ele>
        <time>2015-05-31T07:48:04Z</time>
      </trkpt>
      <trkpt lat="43.83338" lon="4.16924">
        <ele>168.8</ele>
        <time>2015-05-31T07:48:06Z</time>
      </trkpt>
      <trkpt lat="43.83329" lon="4.1692">
        <ele>168.7</ele>
        <time>2015-05-31T07:48:08Z</time>
      </trkpt>
      <trkpt lat="43.8332" lon="4.16916">
        <ele>168.7</ele>
        <time>2015-05-31T07:48:10Z</time>
      </trkpt>
      <trkpt lat="43.8331" lon="4.16914">
        <ele>168.4</ele>
        <time>2015-05-31T07:48:13Z</time>
      </trkpt>
      <trkpt lat="43.83301" lon="4.16919">
        <ele>167.7</ele>
        <time>2015-05-31T07:48:19Z</time>
      </trkpt>
      <trkpt lat="43.83292" lon="4.16926">
        <ele>167.2</ele>
        <time>2015-05-31T07:48:22Z</time>
      </trkpt>
      <trkpt lat="43.83287" lon="4.16936">
        <ele>166.6</ele>
        <time>2015-05-31T07:48:27Z</time>
      </trkpt>
      <trkpt lat="43.83281" lon="4.16946">
        <ele>165.6</ele>
        <time>2015-05-31T07:48:33Z</time>
      </trkpt>
      <trkpt lat="43.83289" lon="4.16955">
        <ele>165.1</ele>
        <time>2015-05-31T07:48:37Z</time>
      </trkpt>
      <trkpt lat="43.83298" lon="4.16963">
        <ele>164.6</ele>
        <time>2015-05-31T07:48:41Z</time>
      </trkpt>
      <trkpt lat="43.83304" lon="4.16974">
        <ele>164.1</ele>
        <time>2015-05-31T07:48:46Z</time>
      </trkpt>
      <trkpt lat="43.83311" lon="4.16983">
        <ele>163.8</ele>
        <time>2015-05-31T07:48:52Z</time>
      </trkpt>
      <trkpt lat="43.83318" lon="4.16991">
        <ele>163.6</ele>
        <time>2015-05-31T07:48:56Z</time>
      </trkpt>
      <trkpt lat="43.83327" lon="4.17">
        <ele>163.5</ele>
        <time>2015-05-31T07:49:00Z</time>
      </trkpt>
      <trkpt lat="43.83333" lon="4.17012">
        <ele>163.6</ele>
        <time>2015-05-31T07:49:05Z</time>
      </trkpt>
      <trkpt lat="43.83344" lon="4.17016">
        <ele>163.9</ele>
        <time>2015-05-31T07:49:10Z</time>
      </trkpt>
      <trkpt lat="43.83352" lon="4.17023">
        <ele>164.3</ele>
        <time>2015-05-31T07:49:15Z</time>
      </trkpt>
      <trkpt lat="43.83361" lon="4.17021">
        <ele>164.5</ele>
        <time>2015-05-31T07:49:18Z</time>
      </trkpt>
      <trkpt lat="43.83371" lon="4.1702">
        <ele>165</ele>
        <time>2015-05-31T07:49:24Z</time>
      </trkpt>
      <trkpt lat="43.83377" lon="4.17031">
        <ele>165.3</ele>
        <time>2015-05-31T07:49:30Z</time>
      </trkpt>
      <trkpt lat="43.83372" lon="4.17044">
        <ele>165.8</ele>
        <time>2015-05-31T07:49:37Z</time>
      </trkpt>
      <trkpt lat="43.83369" lon="4.17058">
        <ele>166</ele>
        <time>2015-05-31T07:49:42Z</time>
      </trkpt>
      <trkpt lat="43.8337" lon="4.17071">
        <ele>166.5</ele>
        <time>2015-05-31T07:49:47Z</time>
      </trkpt>
      <trkpt lat="43.83371" lon="4.17085">
        <ele>167</ele>
        <time>2015-05-31T07:49:52Z</time>
      </trkpt>
      <trkpt lat="43.8337" lon="4.17099">
        <ele>167.5</ele>
        <time>2015-05-31T07:49:58Z</time>
      </trkpt>
      <trkpt lat="43.83374" lon="4.1711">
        <ele>167.9</ele>
        <time>2015-05-31T07:50:03Z</time>
      </trkpt>
      <trkpt lat="43.83377" lon="4.17123">
        <ele>168.5</ele>
        <time>2015-05-31T07:50:08Z</time>
      </trkpt>
      <trkpt lat="43.83382" lon="4.17135">
        <ele>168.8</ele>
        <time>2015-05-31T07:50:12Z</time>
      </trkpt>
      <trkpt lat="43.83391" lon="4.17139">
        <ele>169</ele>
        <time>2015-05-31T07:50:16Z</time>
      </trkpt>
      <trkpt lat="43.83402" lon="4.17145">
        <ele>169.3</ele>
        <time>2015-05-31T07:50:21Z</time>
      </trkpt>
      <trkpt lat="43.83412" lon="4.17151">
        <ele>169.5</ele>
        <time>2015-05-31T07:50:25Z</time>
      </trkpt>
      <trkpt lat="43.83421" lon="4.17154">
        <ele>169.6</ele>
        <time>2015-05-31T07:50:29Z</time>
      </trkpt>
      <trkpt lat="43.83429" lon="4.17164">
        <ele>169.9</ele>
        <time>2015-05-31T07:50:34Z</time>
      </trkpt>
      <trkpt lat="43.83431" lon="4.17177">
        <ele>170.6</ele>
        <time>2015-05-31T07:50:56Z</time>
      </trkpt>
      <trkpt lat="43.83424" lon="4.17186">
        <ele>170.7</ele>
        <time>2015-05-31T07:51:01Z</time>
      </trkpt>
      <trkpt lat="43.83424" lon="4.172">
        <ele>170.6</ele>
        <time>2015-05-31T07:51:08Z</time>
      </trkpt>
      <trkpt lat="43.83433" lon="4.17208">
        <ele>170.5</ele>
        <time>2015-05-31T07:51:14Z</time>
      </trkpt>
      <trkpt lat="43.83441" lon="4.1722">
        <ele>170.2</ele>
        <time>2015-05-31T07:51:18Z</time>
      </trkpt>
      <trkpt lat="43.83446" lon="4.1721">
        <ele>169.6</ele>
        <time>2015-05-31T07:51:24Z</time>
      </trkpt>
      <trkpt lat="43.83449" lon="4.17196">
        <ele>169.5</ele>
        <time>2015-05-31T07:51:31Z</time>
      </trkpt>
      <trkpt lat="43.8345" lon="4.17182">
        <ele>169.8</ele>
        <time>2015-05-31T07:51:37Z</time>
      </trkpt>
      <trkpt lat="43.83455" lon="4.1717">
        <ele>170.2</ele>
        <time>2015-05-31T07:51:43Z</time>
      </trkpt>
      <trkpt lat="43.83464" lon="4.17169">
        <ele>170.5</ele>
        <time>2015-05-31T07:51:47Z</time>
      </trkpt>
      <trkpt lat="43.83475" lon="4.17166">
        <ele>170.8</ele>
        <time>2015-05-31T07:51:51Z</time>
      </trkpt>
      <trkpt lat="43.83485" lon="4.17162">
        <ele>171</ele>
        <time>2015-05-31T07:51:55Z</time>
      </trkpt>
      <trkpt lat="43.83491" lon="4.17172">
        <ele>171.4</ele>
        <time>2015-05-31T07:52:01Z</time>
      </trkpt>
      <trkpt lat="43.83502" lon="4.17173">
        <ele>171.7</ele>
        <time>2015-05-31T07:52:05Z</time>
      </trkpt>
      <trkpt lat="43.83513" lon="4.17178">
        <ele>172</ele>
        <time>2015-05-31T07:52:09Z</time>
      </trkpt>
      <trkpt lat="43.83522" lon="4.17184">
        <ele>172.2</ele>
        <time>2015-05-31T07:52:12Z</time>
      </trkpt>
      <trkpt lat="43.83531" lon="4.17187">
        <ele>172.3</ele>
        <time>2015-05-31T07:52:15Z</time>
      </trkpt>
      <trkpt lat="43.83539" lon="4.17195">
        <ele>172.5</ele>
        <time>2015-05-31T07:52:18Z</time>
      </trkpt>
      <trkpt lat="43.83549" lon="4.17199">
        <ele>172.6</ele>
        <time>2015-05-31T07:52:21Z</time>
      </trkpt>
      <trkpt lat="43.83558" lon="4.17209">
        <ele>172.8</ele>
        <time>2015-05-31T07:52:25Z</time>
      </trkpt>
      <trkpt lat="43.83553" lon="4.17222">
        <ele>172.8</ele>
        <time>2015-05-31T07:52:29Z</time>
      </trkpt>
      <trkpt lat="43.83553" lon="4.17236">
        <ele>172.7</ele>
        <time>2015-05-31T07:52:32Z</time>
      </trkpt>
      <trkpt lat="43.83555" lon="4.1725">
        <ele>172.5</ele>
        <time>2015-05-31T07:52:35Z</time>
      </trkpt>
      <trkpt lat="43.83563" lon="4.1726">
        <ele>172</ele>
        <time>2015-05-31T07:52:39Z</time>
      </trkpt>
      <trkpt lat="43.83572" lon="4.17268">
        <ele>171.1</ele>
        <time>2015-05-31T07:52:42Z</time>
      </trkpt>
      <trkpt lat="43.83579" lon="4.17276">
        <ele>170.1</ele>
        <time>2015-05-31T07:52:45Z</time>
      </trkpt>
      <trkpt lat="43.83584" lon="4.17287">
        <ele>168.6</ele>
        <time>2015-05-31T07:52:49Z</time>
      </trkpt>
      <trkpt lat="43.83593" lon="4.17288">
        <ele>167.6</ele>
        <time>2015-05-31T07:52:52Z</time>
      </trkpt>
      <trkpt lat="43.83603" lon="4.17286">
        <ele>166.2</ele>
        <time>2015-05-31T07:52:57Z</time>
      </trkpt>
      <trkpt lat="43.83612" lon="4.17286">
        <ele>164.2</ele>
        <time>2015-05-31T07:53:09Z</time>
      </trkpt>
      <trkpt lat="43.83621" lon="4.17285">
        <ele>164</ele>
        <time>2015-05-31T07:53:22Z</time>
      </trkpt>
      <trkpt lat="43.8363" lon="4.17286">
        <ele>165.5</ele>
        <time>2015-05-31T07:53:42Z</time>
      </trkpt>
      <trkpt lat="43.83639" lon="4.17291">
        <ele>165.9</ele>
        <time>2015-05-31T07:53:47Z</time>
      </trkpt>
      <trkpt lat="43.83648" lon="4.17297">
        <ele>166.8</ele>
        <time>2015-05-31T07:53:59Z</time>
      </trkpt>
      <trkpt lat="43.83656" lon="4.17303">
        <ele>167.2</ele>
        <time>2015-05-31T07:54:05Z</time>
      </trkpt>
      <trkpt lat="43.83659" lon="4.17315">
        <ele>167.3</ele>
        <time>2015-05-31T07:54:10Z</time>
      </trkpt>
      <trkpt lat="43.8366" lon="4.17328">
        <ele>166.5</ele>
        <time>2015-05-31T07:54:15Z</time>
      </trkpt>
      <trkpt lat="43.83651" lon="4.17331">
        <ele>161.5</ele>
        <time>2015-05-31T07:56:06Z</time>
      </trkpt>
      <trkpt lat="43.83641" lon="4.17336">
        <ele>161.2</ele>
        <time>2015-05-31T07:56:12Z</time>
      </trkpt>
      <trkpt lat="43.83638" lon="4.17348">
        <ele>156.1</ele>
        <time>2015-05-31T07:57:33Z</time>
      </trkpt>
      <trkpt lat="43.83647" lon="4.17353">
        <ele>153.9</ele>
        <time>2015-05-31T07:57:53Z</time>
      </trkpt>
      <trkpt lat="43.83656" lon="4.17358">
        <ele>153.5</ele>
        <time>2015-05-31T07:58:01Z</time>
      </trkpt>
      <trkpt lat="43.83667" lon="4.17362">
        <ele>153.5</ele>
        <time>2015-05-31T07:58:06Z</time>
      </trkpt>
      <trkpt lat="43.83676" lon="4.17364">
        <ele>153.5</ele>
        <time>2015-05-31T07:58:10Z</time>
      </trkpt>
      <trkpt lat="43.83686" lon="4.17364">
        <ele>153.5</ele>
        <time>2015-05-31T07:58:15Z</time>
      </trkpt>
      <trkpt lat="43.83696" lon="4.17363">
        <ele>153.9</ele>
        <time>2015-05-31T07:58:19Z</time>
      </trkpt>
      <trkpt lat="43.83707" lon="4.17364">
        <ele>154.1</ele>
        <time>2015-05-31T07:58:23Z</time>
      </trkpt>
      <trkpt lat="43.83718" lon="4.17367">
        <ele>154.6</ele>
        <time>2015-05-31T07:58:28Z</time>
      </trkpt>
      <trkpt lat="43.83727" lon="4.17373">
        <ele>154.8</ele>
        <time>2015-05-31T07:58:32Z</time>
      </trkpt>
      <trkpt lat="43.83735" lon="4.17385">
        <ele>155.1</ele>
        <time>2015-05-31T07:58:36Z</time>
      </trkpt>
      <trkpt lat="43.83744" lon="4.17392">
        <ele>155.5</ele>
        <time>2015-05-31T07:58:40Z</time>
      </trkpt>
      <trkpt lat="43.83754" lon="4.17396">
        <ele>155.9</ele>
        <time>2015-05-31T07:58:45Z</time>
      </trkpt>
      <trkpt lat="43.83765" lon="4.17393">
        <ele>156.4</ele>
        <time>2015-05-31T07:58:50Z</time>
      </trkpt>
      <trkpt lat="43.83772" lon="4.17386">
        <ele>156.8</ele>
        <time>2015-05-31T07:58:55Z</time>
      </trkpt>
      <trkpt lat="43.83779" lon="4.17376">
        <ele>157.1</ele>
        <time>2015-05-31T07:59:00Z</time>
      </trkpt>
      <trkpt lat="43.83788" lon="4.17367">
        <ele>157.9</ele>
        <time>2015-05-31T07:59:06Z</time>
      </trkpt>
      <trkpt lat="43.83798" lon="4.17364">
        <ele>159.6</ele>
        <time>2015-05-31T07:59:23Z</time>
      </trkpt>
      <trkpt lat="43.83807" lon="4.17367">
        <ele>160.9</ele>
        <time>2015-05-31T07:59:38Z</time>
      </trkpt>
      <trkpt lat="43.83816" lon="4.17373">
        <ele>162.8</ele>
        <time>2015-05-31T07:59:49Z</time>
      </trkpt>
      <trkpt lat="43.83814" lon="4.17386">
        <ele>166.4</ele>
        <time>2015-05-31T08:03:10Z</time>
      </trkpt>
      <trkpt lat="43.83805" lon="4.17393">
        <ele>166.3</ele>
        <time>2015-05-31T08:03:14Z</time>
      </trkpt>
      <trkpt lat="43.83798" lon="4.17407">
        <ele>166.4</ele>
        <time>2015-05-31T08:03:19Z</time>
      </trkpt>
      <trkpt lat="43.83793" lon="4.17421">
        <ele>166.7</ele>
        <time>2015-05-31T08:03:23Z</time>
      </trkpt>
      <trkpt lat="43.8379" lon="4.17433">
        <ele>166.8</ele>
        <time>2015-05-31T08:03:26Z</time>
      </trkpt>
      <trkpt lat="43.83785" lon="4.17445">
        <ele>167</ele>
        <time>2015-05-31T08:03:29Z</time>
      </trkpt>
      <trkpt lat="43.8378" lon="4.17458">
        <ele>167.3</ele>
        <time>2015-05-31T08:03:34Z</time>
      </trkpt>
      <trkpt lat="43.83784" lon="4.17469">
        <ele>167.5</ele>
        <time>2015-05-31T08:03:39Z</time>
      </trkpt>
      <trkpt lat="43.83788" lon="4.17482">
        <ele>167.7</ele>
        <time>2015-05-31T08:03:46Z</time>
      </trkpt>
      <trkpt lat="43.83783" lon="4.17493">
        <ele>168.2</ele>
        <time>2015-05-31T08:03:54Z</time>
      </trkpt>
      <trkpt lat="43.83782" lon="4.17506">
        <ele>171.2</ele>
        <time>2015-05-31T08:04:31Z</time>
      </trkpt>
      <trkpt lat="43.83777" lon="4.17518">
        <ele>172.7</ele>
        <time>2015-05-31T08:04:51Z</time>
      </trkpt>
      <trkpt lat="43.83772" lon="4.17529">
        <ele>173.3</ele>
        <time>2015-05-31T08:04:57Z</time>
      </trkpt>
      <trkpt lat="43.83768" lon="4.17542">
        <ele>173.9</ele>
        <time>2015-05-31T08:05:03Z</time>
      </trkpt>
      <trkpt lat="43.83765" lon="4.17555">
        <ele>174.6</ele>
        <time>2015-05-31T08:05:08Z</time>
      </trkpt>
      <trkpt lat="43.83757" lon="4.17564">
        <ele>175.3</ele>
        <time>2015-05-31T08:05:13Z</time>
      </trkpt>
      <trkpt lat="43.83747" lon="4.17572">
        <ele>176</ele>
        <time>2015-05-31T08:05:18Z</time>
      </trkpt>
      <trkpt lat="43.83739" lon="4.1758">
        <ele>176.5</ele>
        <time>2015-05-31T08:05:22Z</time>
      </trkpt>
      <trkpt lat="43.83735" lon="4.17593">
        <ele>177</ele>
        <time>2015-05-31T08:05:26Z</time>
      </trkpt>
      <trkpt lat="43.83734" lon="4.17609">
        <ele>177.5</ele>
        <time>2015-05-31T08:05:30Z</time>
      </trkpt>
      <trkpt lat="43.83741" lon="4.17621">
        <ele>177.9</ele>
        <time>2015-05-31T08:05:33Z</time>
      </trkpt>
      <trkpt lat="43.83746" lon="4.17632">
        <ele>178.1</ele>
        <time>2015-05-31T08:05:35Z</time>
      </trkpt>
      <trkpt lat="43.8375" lon="4.17648">
        <ele>178.4</ele>
        <time>2015-05-31T08:05:39Z</time>
      </trkpt>
      <trkpt lat="43.83757" lon="4.17656">
        <ele>178.7</ele>
        <time>2015-05-31T08:05:42Z</time>
      </trkpt>
      <trkpt lat="43.83769" lon="4.17659">
        <ele>179</ele>
        <time>2015-05-31T08:05:46Z</time>
      </trkpt>
      <trkpt lat="43.8378" lon="4.17663">
        <ele>179.2</ele>
        <time>2015-05-31T08:05:50Z</time>
      </trkpt>
      <trkpt lat="43.83792" lon="4.17667">
        <ele>179.4</ele>
        <time>2015-05-31T08:05:54Z</time>
      </trkpt>
      <trkpt lat="43.83803" lon="4.17672">
        <ele>179.5</ele>
        <time>2015-05-31T08:05:58Z</time>
      </trkpt>
      <trkpt lat="43.83812" lon="4.17677">
        <ele>179.6</ele>
        <time>2015-05-31T08:06:01Z</time>
      </trkpt>
      <trkpt lat="43.83821" lon="4.17685">
        <ele>179.7</ele>
        <time>2015-05-31T08:06:04Z</time>
      </trkpt>
      <trkpt lat="43.83822" lon="4.177">
        <ele>179.8</ele>
        <time>2015-05-31T08:06:13Z</time>
      </trkpt>
      <trkpt lat="43.83821" lon="4.17715">
        <ele>179.7</ele>
        <time>2015-05-31T08:06:18Z</time>
      </trkpt>
      <trkpt lat="43.83818" lon="4.17728">
        <ele>179.4</ele>
        <time>2015-05-31T08:06:22Z</time>
      </trkpt>
      <trkpt lat="43.83824" lon="4.17741">
        <ele>178.6</ele>
        <time>2015-05-31T08:06:27Z</time>
      </trkpt>
      <trkpt lat="43.8382" lon="4.17755">
        <ele>177.8</ele>
        <time>2015-05-31T08:06:32Z</time>
      </trkpt>
      <trkpt lat="43.8382" lon="4.17769">
        <ele>176.3</ele>
        <time>2015-05-31T08:06:37Z</time>
      </trkpt>
      <trkpt lat="43.8382" lon="4.17783">
        <ele>174.4</ele>
        <time>2015-05-31T08:06:43Z</time>
      </trkpt>
      <trkpt lat="43.83813" lon="4.17793">
        <ele>172.2</ele>
        <time>2015-05-31T08:06:50Z</time>
      </trkpt>
      <trkpt lat="43.83807" lon="4.17803">
        <ele>170.2</ele>
        <time>2015-05-31T08:06:55Z</time>
      </trkpt>
      <trkpt lat="43.83796" lon="4.17809">
        <ele>168.7</ele>
        <time>2015-05-31T08:06:59Z</time>
      </trkpt>
      <trkpt lat="43.83793" lon="4.17821">
        <ele>166.8</ele>
        <time>2015-05-31T08:07:05Z</time>
      </trkpt>
      <trkpt lat="43.83801" lon="4.17827">
        <ele>165.6</ele>
        <time>2015-05-31T08:07:09Z</time>
      </trkpt>
      <trkpt lat="43.83807" lon="4.17837">
        <ele>163.7</ele>
        <time>2015-05-31T08:07:15Z</time>
      </trkpt>
      <trkpt lat="43.83802" lon="4.17848">
        <ele>162.6</ele>
        <time>2015-05-31T08:07:18Z</time>
      </trkpt>
      <trkpt lat="43.83794" lon="4.17855">
        <ele>161.5</ele>
        <time>2015-05-31T08:07:21Z</time>
      </trkpt>
      <trkpt lat="43.83785" lon="4.17863">
        <ele>160.3</ele>
        <time>2015-05-31T08:07:24Z</time>
      </trkpt>
      <trkpt lat="43.83776" lon="4.17862">
        <ele>159.4</ele>
        <time>2015-05-31T08:07:27Z</time>
      </trkpt>
      <trkpt lat="43.83766" lon="4.17858">
        <ele>158.5</ele>
        <time>2015-05-31T08:07:30Z</time>
      </trkpt>
      <trkpt lat="43.83757" lon="4.17855">
        <ele>157.6</ele>
        <time>2015-05-31T08:07:33Z</time>
      </trkpt>
      <trkpt lat="43.83748" lon="4.1785">
        <ele>156.6</ele>
        <time>2015-05-31T08:07:37Z</time>
      </trkpt>
      <trkpt lat="43.83741" lon="4.17839">
        <ele>155.8</ele>
        <time>2015-05-31T08:07:42Z</time>
      </trkpt>
      <trkpt lat="43.83739" lon="4.17826">
        <ele>155.4</ele>
        <time>2015-05-31T08:07:45Z</time>
      </trkpt>
      <trkpt lat="43.83734" lon="4.17815">
        <ele>154.9</ele>
        <time>2015-05-31T08:07:48Z</time>
      </trkpt>
      <trkpt lat="43.83728" lon="4.17801">
        <ele>154.2</ele>
        <time>2015-05-31T08:07:52Z</time>
      </trkpt>
      <trkpt lat="43.8372" lon="4.17792">
        <ele>153.7</ele>
        <time>2015-05-31T08:07:55Z</time>
      </trkpt>
      <trkpt lat="43.83712" lon="4.17784">
        <ele>153.3</ele>
        <time>2015-05-31T08:07:58Z</time>
      </trkpt>
      <trkpt lat="43.83701" lon="4.17779">
        <ele>152.8</ele>
        <time>2015-05-31T08:08:02Z</time>
      </trkpt>
      <trkpt lat="43.8369" lon="4.17775">
        <ele>152.4</ele>
        <time>2015-05-31T08:08:06Z</time>
      </trkpt>
      <trkpt lat="43.8368" lon="4.1777">
        <ele>152.2</ele>
        <time>2015-05-31T08:08:09Z</time>
      </trkpt>
      <trkpt lat="43.83669" lon="4.17767">
        <ele>151.9</ele>
        <time>2015-05-31T08:08:12Z</time>
      </trkpt>
      <trkpt lat="43.83659" lon="4.17768">
        <ele>151.6</ele>
        <time>2015-05-31T08:08:15Z</time>
      </trkpt>
      <trkpt lat="43.83649" lon="4.17773">
        <ele>151.4</ele>
        <time>2015-05-31T08:08:18Z</time>
      </trkpt>
      <trkpt lat="43.83642" lon="4.17783">
        <ele>150.9</ele>
        <time>2015-05-31T08:08:22Z</time>
      </trkpt>
      <trkpt lat="43.83637" lon="4.17793">
        <ele>150.6</ele>
        <time>2015-05-31T08:08:25Z</time>
      </trkpt>
      <trkpt lat="43.83629" lon="4.17804">
        <ele>150.2</ele>
        <time>2015-05-31T08:08:29Z</time>
      </trkpt>
      <trkpt lat="43.83627" lon="4.17818">
        <ele>149.9</ele>
        <time>2015-05-31T08:08:33Z</time>
      </trkpt>
      <trkpt lat="43.83631" lon="4.17833">
        <ele>149.6</ele>
        <time>2015-05-31T08:08:37Z</time>
      </trkpt>
      <trkpt lat="43.83635" lon="4.17846">
        <ele>149.5</ele>
        <time>2015-05-31T08:08:40Z</time>
      </trkpt>
      <trkpt lat="43.83637" lon="4.17859">
        <ele>149.5</ele>
        <time>2015-05-31T08:08:43Z</time>
      </trkpt>
      <trkpt lat="43.83634" lon="4.17871">
        <ele>149.5</ele>
        <time>2015-05-31T08:08:46Z</time>
      </trkpt>
      <trkpt lat="43.83638" lon="4.17886">
        <ele>149.6</ele>
        <time>2015-05-31T08:08:51Z</time>
      </trkpt>
      <trkpt lat="43.83642" lon="4.179">
        <ele>149.8</ele>
        <time>2015-05-31T08:08:55Z</time>
      </trkpt>
      <trkpt lat="43.83644" lon="4.17913">
        <ele>150.3</ele>
        <time>2015-05-31T08:09:00Z</time>
      </trkpt>
      <trkpt lat="43.83647" lon="4.17925">
        <ele>150.7</ele>
        <time>2015-05-31T08:09:05Z</time>
      </trkpt>
      <trkpt lat="43.83652" lon="4.17936">
        <ele>151.1</ele>
        <time>2015-05-31T08:09:09Z</time>
      </trkpt>
      <trkpt lat="43.83654" lon="4.17948">
        <ele>151.5</ele>
        <time>2015-05-31T08:09:13Z</time>
      </trkpt>
      <trkpt lat="43.83656" lon="4.17961">
        <ele>151.9</ele>
        <time>2015-05-31T08:09:17Z</time>
      </trkpt>
      <trkpt lat="43.8366" lon="4.17975">
        <ele>152.5</ele>
        <time>2015-05-31T08:09:22Z</time>
      </trkpt>
      <trkpt lat="43.83658" lon="4.17989">
        <ele>153</ele>
        <time>2015-05-31T08:09:27Z</time>
      </trkpt>
      <trkpt lat="43.83658" lon="4.18004">
        <ele>153.5</ele>
        <time>2015-05-31T08:09:32Z</time>
      </trkpt>
      <trkpt lat="43.83659" lon="4.18017">
        <ele>153.9</ele>
        <time>2015-05-31T08:09:36Z</time>
      </trkpt>
      <trkpt lat="43.8366" lon="4.18033">
        <ele>154.3</ele>
        <time>2015-05-31T08:09:40Z</time>
      </trkpt>
      <trkpt lat="43.83658" lon="4.18046">
        <ele>154.8</ele>
        <time>2015-05-31T08:09:44Z</time>
      </trkpt>
      <trkpt lat="43.83648" lon="4.18051">
        <ele>155.5</ele>
        <time>2015-05-31T08:09:49Z</time>
      </trkpt>
      <trkpt lat="43.83639" lon="4.18045">
        <ele>156.2</ele>
        <time>2015-05-31T08:09:54Z</time>
      </trkpt>
      <trkpt lat="43.83628" lon="4.18039">
        <ele>156.6</ele>
        <time>2015-05-31T08:09:59Z</time>
      </trkpt>
      <trkpt lat="43.83619" lon="4.18045">
        <ele>157.5</ele>
        <time>2015-05-31T08:10:05Z</time>
      </trkpt>
      <trkpt lat="43.8361" lon="4.18047">
        <ele>158.1</ele>
        <time>2015-05-31T08:10:09Z</time>
      </trkpt>
      <trkpt lat="43.83603" lon="4.18056">
        <ele>158.9</ele>
        <time>2015-05-31T08:10:14Z</time>
      </trkpt>
      <trkpt lat="43.83602" lon="4.18069">
        <ele>159.6</ele>
        <time>2015-05-31T08:10:18Z</time>
      </trkpt>
      <trkpt lat="43.83594" lon="4.18075">
        <ele>160</ele>
        <time>2015-05-31T08:10:22Z</time>
      </trkpt>
      <trkpt lat="43.83584" lon="4.18076">
        <ele>160.5</ele>
        <time>2015-05-31T08:10:27Z</time>
      </trkpt>
      <trkpt lat="43.83575" lon="4.18081">
        <ele>161.4</ele>
        <time>2015-05-31T08:10:34Z</time>
      </trkpt>
      <trkpt lat="43.83569" lon="4.18091">
        <ele>164.9</ele>
        <time>2015-05-31T08:11:17Z</time>
      </trkpt>
      <trkpt lat="43.83576" lon="4.18104">
        <ele>165.7</ele>
        <time>2015-05-31T08:11:33Z</time>
      </trkpt>
      <trkpt lat="43.83587" lon="4.1811">
        <ele>165.8</ele>
        <time>2015-05-31T08:11:36Z</time>
      </trkpt>
      <trkpt lat="43.83598" lon="4.18118">
        <ele>165.7</ele>
        <time>2015-05-31T08:11:39Z</time>
      </trkpt>
      <trkpt lat="43.83608" lon="4.18128">
        <ele>165.4</ele>
        <time>2015-05-31T08:11:42Z</time>
      </trkpt>
      <trkpt lat="43.83615" lon="4.1814">
        <ele>165.2</ele>
        <time>2015-05-31T08:11:45Z</time>
      </trkpt>
      <trkpt lat="43.83625" lon="4.18151">
        <ele>164.9</ele>
        <time>2015-05-31T08:11:49Z</time>
      </trkpt>
      <trkpt lat="43.83634" lon="4.1816">
        <ele>164.7</ele>
        <time>2015-05-31T08:11:53Z</time>
      </trkpt>
      <trkpt lat="43.83645" lon="4.18163">
        <ele>164.5</ele>
        <time>2015-05-31T08:11:56Z</time>
      </trkpt>
      <trkpt lat="43.83655" lon="4.18161">
        <ele>164.3</ele>
        <time>2015-05-31T08:11:59Z</time>
      </trkpt>
      <trkpt lat="43.83664" lon="4.18159">
        <ele>164.1</ele>
        <time>2015-05-31T08:12:02Z</time>
      </trkpt>
      <trkpt lat="43.83674" lon="4.18163">
        <ele>163.6</ele>
        <time>2015-05-31T08:12:06Z</time>
      </trkpt>
      <trkpt lat="43.83677" lon="4.18175">
        <ele>163.5</ele>
        <time>2015-05-31T08:12:10Z</time>
      </trkpt>
      <trkpt lat="43.83677" lon="4.18188">
        <ele>163.5</ele>
        <time>2015-05-31T08:12:14Z</time>
      </trkpt>
      <trkpt lat="43.83678" lon="4.18203">
        <ele>163.8</ele>
        <time>2015-05-31T08:12:18Z</time>
      </trkpt>
      <trkpt lat="43.83683" lon="4.18216">
        <ele>164.1</ele>
        <time>2015-05-31T08:12:21Z</time>
      </trkpt>
      <trkpt lat="43.83689" lon="4.18226">
        <ele>164.8</ele>
        <time>2015-05-31T08:12:27Z</time>
      </trkpt>
      <trkpt lat="43.83692" lon="4.18241">
        <ele>165.2</ele>
        <time>2015-05-31T08:12:31Z</time>
      </trkpt>
      <trkpt lat="43.83695" lon="4.18255">
        <ele>165.4</ele>
        <time>2015-05-31T08:12:34Z</time>
      </trkpt>
      <trkpt lat="43.83699" lon="4.18269">
        <ele>165.7</ele>
        <time>2015-05-31T08:12:38Z</time>
      </trkpt>
      <trkpt lat="43.83696" lon="4.18283">
        <ele>165.9</ele>
        <time>2015-05-31T08:12:42Z</time>
      </trkpt>
      <trkpt lat="43.83692" lon="4.18297">
        <ele>166.1</ele>
        <time>2015-05-31T08:12:45Z</time>
      </trkpt>
      <trkpt lat="43.83691" lon="4.1831">
        <ele>166.2</ele>
        <time>2015-05-31T08:12:48Z</time>
      </trkpt>
      <trkpt lat="43.83695" lon="4.18323">
        <ele>167.2</ele>
        <time>2015-05-31T08:13:01Z</time>
      </trkpt>
      <trkpt lat="43.83699" lon="4.18335">
        <ele>167.7</ele>
        <time>2015-05-31T08:13:07Z</time>
      </trkpt>
      <trkpt lat="43.83706" lon="4.18344">
        <ele>169.7</ele>
        <time>2015-05-31T08:13:27Z</time>
      </trkpt>
      <trkpt lat="43.83712" lon="4.18353">
        <ele>171.8</ele>
        <time>2015-05-31T08:13:45Z</time>
      </trkpt>
      <trkpt lat="43.83716" lon="4.18365">
        <ele>173.3</ele>
        <time>2015-05-31T08:13:58Z</time>
      </trkpt>
      <trkpt lat="43.83721" lon="4.18375">
        <ele>175.4</ele>
        <time>2015-05-31T08:14:14Z</time>
      </trkpt>
      <trkpt lat="43.83722" lon="4.18388">
        <ele>178.5</ele>
        <time>2015-05-31T08:14:42Z</time>
      </trkpt>
      <trkpt lat="43.83722" lon="4.18401">
        <ele>179.7</ele>
        <time>2015-05-31T08:14:53Z</time>
      </trkpt>
      <trkpt lat="43.83717" lon="4.18412">
        <ele>180.4</ele>
        <time>2015-05-31T08:15:03Z</time>
      </trkpt>
      <trkpt lat="43.83713" lon="4.18425">
        <ele>180.9</ele>
        <time>2015-05-31T08:15:09Z</time>
      </trkpt>
      <trkpt lat="43.83713" lon="4.18438">
        <ele>182.2</ele>
        <time>2015-05-31T08:15:20Z</time>
      </trkpt>
      <trkpt lat="43.83709" lon="4.1845">
        <ele>183.7</ele>
        <time>2015-05-31T08:15:33Z</time>
      </trkpt>
      <trkpt lat="43.83703" lon="4.18459">
        <ele>186.1</ele>
        <time>2015-05-31T08:15:59Z</time>
      </trkpt>
      <trkpt lat="43.8371" lon="4.18468">
        <ele>186.9</ele>
        <time>2015-05-31T08:16:14Z</time>
      </trkpt>
      <trkpt lat="43.8371" lon="4.18483">
        <ele>187.8</ele>
        <time>2015-05-31T08:16:28Z</time>
      </trkpt>
      <trkpt lat="43.8371" lon="4.18495">
        <ele>188</ele>
        <time>2015-05-31T08:16:32Z</time>
      </trkpt>
      <trkpt lat="43.8371" lon="4.1851">
        <ele>188.3</ele>
        <time>2015-05-31T08:16:37Z</time>
      </trkpt>
      <trkpt lat="43.8371" lon="4.18524">
        <ele>188.5</ele>
        <time>2015-05-31T08:16:42Z</time>
      </trkpt>
      <trkpt lat="43.83718" lon="4.18534">
        <ele>188.8</ele>
        <time>2015-05-31T08:16:46Z</time>
      </trkpt>
      <trkpt lat="43.83718" lon="4.1855">
        <ele>189.2</ele>
        <time>2015-05-31T08:16:51Z</time>
      </trkpt>
      <trkpt lat="43.83724" lon="4.1856">
        <ele>189.5</ele>
        <time>2015-05-31T08:16:55Z</time>
      </trkpt>
      <trkpt lat="43.83728" lon="4.18574">
        <ele>189.8</ele>
        <time>2015-05-31T08:17:00Z</time>
      </trkpt>
      <trkpt lat="43.83734" lon="4.18586">
        <ele>190.1</ele>
        <time>2015-05-31T08:17:04Z</time>
      </trkpt>
      <trkpt lat="43.83738" lon="4.18597">
        <ele>190.3</ele>
        <time>2015-05-31T08:17:10Z</time>
      </trkpt>
      <trkpt lat="43.83748" lon="4.18591">
        <ele>190.5</ele>
        <time>2015-05-31T08:17:17Z</time>
      </trkpt>
      <trkpt lat="43.83756" lon="4.1858">
        <ele>190.6</ele>
        <time>2015-05-31T08:17:22Z</time>
      </trkpt>
      <trkpt lat="43.83764" lon="4.18569">
        <ele>190.8</ele>
        <time>2015-05-31T08:17:26Z</time>
      </trkpt>
      <trkpt lat="43.83773" lon="4.18559">
        <ele>190.9</ele>
        <time>2015-05-31T08:17:30Z</time>
      </trkpt>
      <trkpt lat="43.83782" lon="4.18561">
        <ele>191</ele>
        <time>2015-05-31T08:17:34Z</time>
      </trkpt>
      <trkpt lat="43.83788" lon="4.18571">
        <ele>191.1</ele>
        <time>2015-05-31T08:17:37Z</time>
      </trkpt>
      <trkpt lat="43.83794" lon="4.18581">
        <ele>191.2</ele>
        <time>2015-05-31T08:17:40Z</time>
      </trkpt>
      <trkpt lat="43.83802" lon="4.18592">
        <ele>191.2</ele>
        <time>2015-05-31T08:17:44Z</time>
      </trkpt>
      <trkpt lat="43.83809" lon="4.18601">
        <ele>191.4</ele>
        <time>2015-05-31T08:17:49Z</time>
      </trkpt>
      <trkpt lat="43.83818" lon="4.18603">
        <ele>191.7</ele>
        <time>2015-05-31T08:17:55Z</time>
      </trkpt>
      <trkpt lat="43.83827" lon="4.186">
        <ele>192.1</ele>
        <time>2015-05-31T08:17:59Z</time>
      </trkpt>
      <trkpt lat="43.83832" lon="4.18589">
        <ele>192.6</ele>
        <time>2015-05-31T08:18:03Z</time>
      </trkpt>
      <trkpt lat="43.83839" lon="4.18577">
        <ele>192.9</ele>
        <time>2015-05-31T08:18:07Z</time>
      </trkpt>
      <trkpt lat="43.83848" lon="4.18573">
        <ele>193.1</ele>
        <time>2015-05-31T08:18:12Z</time>
      </trkpt>
      <trkpt lat="43.83857" lon="4.18569">
        <ele>193.1</ele>
        <time>2015-05-31T08:18:17Z</time>
      </trkpt>
      <trkpt lat="43.83866" lon="4.18569">
        <ele>193.6</ele>
        <time>2015-05-31T08:18:23Z</time>
      </trkpt>
      <trkpt lat="43.83876" lon="4.18562">
        <ele>194.1</ele>
        <time>2015-05-31T08:18:28Z</time>
      </trkpt>
      <trkpt lat="43.83885" lon="4.18558">
        <ele>194.4</ele>
        <time>2015-05-31T08:18:31Z</time>
      </trkpt>
      <trkpt lat="43.83896" lon="4.18562">
        <ele>194.8</ele>
        <time>2015-05-31T08:18:36Z</time>
      </trkpt>
      <trkpt lat="43.83905" lon="4.18557">
        <ele>195.2</ele>
        <time>2015-05-31T08:18:41Z</time>
      </trkpt>
      <trkpt lat="43.83914" lon="4.18549">
        <ele>195.5</ele>
        <time>2015-05-31T08:18:46Z</time>
      </trkpt>
      <trkpt lat="43.83922" lon="4.18539">
        <ele>195.8</ele>
        <time>2015-05-31T08:18:51Z</time>
      </trkpt>
      <trkpt lat="43.83933" lon="4.18535">
        <ele>196.1</ele>
        <time>2015-05-31T08:18:56Z</time>
      </trkpt>
      <trkpt lat="43.83939" lon="4.18527">
        <ele>196.3</ele>
        <time>2015-05-31T08:19:00Z</time>
      </trkpt>
      <trkpt lat="43.83949" lon="4.18526">
        <ele>196.6</ele>
        <time>2015-05-31T08:19:05Z</time>
      </trkpt>
      <trkpt lat="43.8396" lon="4.18533">
        <ele>197.1</ele>
        <time>2015-05-31T08:19:11Z</time>
      </trkpt>
      <trkpt lat="43.83969" lon="4.18541">
        <ele>197.5</ele>
        <time>2015-05-31T08:19:16Z</time>
      </trkpt>
      <trkpt lat="43.83973" lon="4.18554">
        <ele>197.8</ele>
        <time>2015-05-31T08:19:21Z</time>
      </trkpt>
      <trkpt lat="43.83979" lon="4.18564">
        <ele>199.5</ele>
        <time>2015-05-31T08:19:39Z</time>
      </trkpt>
      <trkpt lat="43.83988" lon="4.18565">
        <ele>200.2</ele>
        <time>2015-05-31T08:20:00Z</time>
      </trkpt>
      <trkpt lat="43.83979" lon="4.18563">
        <ele>201.3</ele>
        <time>2015-05-31T08:21:57Z</time>
      </trkpt>
      <trkpt lat="43.83987" lon="4.18569">
        <ele>205.2</ele>
        <time>2015-05-31T08:30:49Z</time>
      </trkpt>
      <trkpt lat="43.83993" lon="4.18556">
        <ele>206.3</ele>
        <time>2015-05-31T08:32:15Z</time>
      </trkpt>
      <trkpt lat="43.84" lon="4.18546">
        <ele>206.4</ele>
        <time>2015-05-31T08:32:20Z</time>
      </trkpt>
      <trkpt lat="43.84006" lon="4.18536">
        <ele>206.6</ele>
        <time>2015-05-31T08:32:24Z</time>
      </trkpt>
      <trkpt lat="43.84015" lon="4.18526">
        <ele>206.8</ele>
        <time>2015-05-31T08:32:28Z</time>
      </trkpt>
      <trkpt lat="43.84023" lon="4.18519">
        <ele>207</ele>
        <time>2015-05-31T08:32:31Z</time>
      </trkpt>
      <trkpt lat="43.84032" lon="4.18513">
        <ele>207.2</ele>
        <time>2015-05-31T08:32:34Z</time>
      </trkpt>
      <trkpt lat="43.84042" lon="4.18509">
        <ele>207.4</ele>
        <time>2015-05-31T08:32:37Z</time>
      </trkpt>
      <trkpt lat="43.84052" lon="4.18505">
        <ele>207.6</ele>
        <time>2015-05-31T08:32:40Z</time>
      </trkpt>
      <trkpt lat="43.84063" lon="4.185">
        <ele>207.7</ele>
        <time>2015-05-31T08:32:43Z</time>
      </trkpt>
      <trkpt lat="43.84075" lon="4.18493">
        <ele>207.8</ele>
        <time>2015-05-31T08:32:46Z</time>
      </trkpt>
      <trkpt lat="43.84084" lon="4.18481">
        <ele>207.9</ele>
        <time>2015-05-31T08:32:49Z</time>
      </trkpt>
      <trkpt lat="43.8409" lon="4.18472">
        <ele>208</ele>
        <time>2015-05-31T08:32:51Z</time>
      </trkpt>
      <trkpt lat="43.84097" lon="4.18462">
        <ele>208</ele>
        <time>2015-05-31T08:32:53Z</time>
      </trkpt>
      <trkpt lat="43.84103" lon="4.18452">
        <ele>208</ele>
        <time>2015-05-31T08:32:55Z</time>
      </trkpt>
      <trkpt lat="43.84111" lon="4.18443">
        <ele>207.9</ele>
        <time>2015-05-31T08:32:57Z</time>
      </trkpt>
      <trkpt lat="43.84122" lon="4.18434">
        <ele>207.8</ele>
        <time>2015-05-31T08:32:59Z</time>
      </trkpt>
      <trkpt lat="43.84132" lon="4.18425">
        <ele>207.8</ele>
        <time>2015-05-31T08:33:01Z</time>
      </trkpt>
      <trkpt lat="43.84142" lon="4.18418">
        <ele>207.6</ele>
        <time>2015-05-31T08:33:03Z</time>
      </trkpt>
      <trkpt lat="43.84153" lon="4.18411">
        <ele>207.4</ele>
        <time>2015-05-31T08:33:05Z</time>
      </trkpt>
      <trkpt lat="43.84164" lon="4.18403">
        <ele>207.2</ele>
        <time>2015-05-31T08:33:07Z</time>
      </trkpt>
      <trkpt lat="43.84175" lon="4.18396">
        <ele>206.9</ele>
        <time>2015-05-31T08:33:09Z</time>
      </trkpt>
      <trkpt lat="43.84187" lon="4.18388">
        <ele>206.7</ele>
        <time>2015-05-31T08:33:11Z</time>
      </trkpt>
      <trkpt lat="43.84198" lon="4.18378">
        <ele>206.3</ele>
        <time>2015-05-31T08:33:13Z</time>
      </trkpt>
      <trkpt lat="43.8421" lon="4.18367">
        <ele>205.9</ele>
        <time>2015-05-31T08:33:15Z</time>
      </trkpt>
      <trkpt lat="43.84221" lon="4.18355">
        <ele>205.4</ele>
        <time>2015-05-31T08:33:17Z</time>
      </trkpt>
      <trkpt lat="43.84232" lon="4.18343">
        <ele>205</ele>
        <time>2015-05-31T08:33:19Z</time>
      </trkpt>
      <trkpt lat="43.84242" lon="4.18329">
        <ele>204.5</ele>
        <time>2015-05-31T08:33:21Z</time>
      </trkpt>
      <trkpt lat="43.84249" lon="4.18314">
        <ele>203.9</ele>
        <time>2015-05-31T08:33:23Z</time>
      </trkpt>
      <trkpt lat="43.84256" lon="4.183">
        <ele>203.4</ele>
        <time>2015-05-31T08:33:25Z</time>
      </trkpt>
      <trkpt lat="43.84263" lon="4.18286">
        <ele>202.9</ele>
        <time>2015-05-31T08:33:27Z</time>
      </trkpt>
      <trkpt lat="43.84269" lon="4.18273">
        <ele>202.4</ele>
        <time>2015-05-31T08:33:29Z</time>
      </trkpt>
      <trkpt lat="43.84276" lon="4.18259">
        <ele>201.9</ele>
        <time>2015-05-31T08:33:31Z</time>
      </trkpt>
      <trkpt lat="43.84282" lon="4.18245">
        <ele>201.4</ele>
        <time>2015-05-31T08:33:33Z</time>
      </trkpt>
      <trkpt lat="43.84287" lon="4.1823">
        <ele>200.9</ele>
        <time>2015-05-31T08:33:35Z</time>
      </trkpt>
      <trkpt lat="43.84292" lon="4.18217">
        <ele>200.5</ele>
        <time>2015-05-31T08:33:37Z</time>
      </trkpt>
      <trkpt lat="43.84296" lon="4.18204">
        <ele>200.1</ele>
        <time>2015-05-31T08:33:39Z</time>
      </trkpt>
      <trkpt lat="43.84298" lon="4.1819">
        <ele>199.7</ele>
        <time>2015-05-31T08:33:41Z</time>
      </trkpt>
      <trkpt lat="43.84298" lon="4.18175">
        <ele>199.3</ele>
        <time>2015-05-31T08:33:43Z</time>
      </trkpt>
      <trkpt lat="43.84299" lon="4.18161">
        <ele>198.9</ele>
        <time>2015-05-31T08:33:45Z</time>
      </trkpt>
      <trkpt lat="43.843" lon="4.18147">
        <ele>198.6</ele>
        <time>2015-05-31T08:33:47Z</time>
      </trkpt>
      <trkpt lat="43.84302" lon="4.18134">
        <ele>198.3</ele>
        <time>2015-05-31T08:33:49Z</time>
      </trkpt>
      <trkpt lat="43.84303" lon="4.18121">
        <ele>198</ele>
        <time>2015-05-31T08:33:51Z</time>
      </trkpt>
      <trkpt lat="43.84305" lon="4.18103">
        <ele>197.7</ele>
        <time>2015-05-31T08:33:54Z</time>
      </trkpt>
      <trkpt lat="43.84307" lon="4.18084">
        <ele>197.5</ele>
        <time>2015-05-31T08:33:57Z</time>
      </trkpt>
      <trkpt lat="43.84308" lon="4.18071">
        <ele>197.3</ele>
        <time>2015-05-31T08:33:59Z</time>
      </trkpt>
      <trkpt lat="43.84309" lon="4.18053">
        <ele>197.2</ele>
        <time>2015-05-31T08:34:02Z</time>
      </trkpt>
      <trkpt lat="43.84309" lon="4.1804">
        <ele>197.2</ele>
        <time>2015-05-31T08:34:04Z</time>
      </trkpt>
      <trkpt lat="43.84307" lon="4.18027">
        <ele>197.2</ele>
        <time>2015-05-31T08:34:06Z</time>
      </trkpt>
      <trkpt lat="43.84304" lon="4.18013">
        <ele>197.2</ele>
        <time>2015-05-31T08:34:08Z</time>
      </trkpt>
      <trkpt lat="43.843" lon="4.18">
        <ele>197.2</ele>
        <time>2015-05-31T08:34:10Z</time>
      </trkpt>
      <trkpt lat="43.84295" lon="4.17984">
        <ele>197.2</ele>
        <time>2015-05-31T08:34:13Z</time>
      </trkpt>
      <trkpt lat="43.84289" lon="4.17971">
        <ele>197.3</ele>
        <time>2015-05-31T08:34:16Z</time>
      </trkpt>
      <trkpt lat="43.84283" lon="4.17957">
        <ele>197.1</ele>
        <time>2015-05-31T08:34:19Z</time>
      </trkpt>
      <trkpt lat="43.84275" lon="4.17945">
        <ele>197</ele>
        <time>2015-05-31T08:34:22Z</time>
      </trkpt>
      <trkpt lat="43.84265" lon="4.17939">
        <ele>196.9</ele>
        <time>2015-05-31T08:34:25Z</time>
      </trkpt>
      <trkpt lat="43.84255" lon="4.17939">
        <ele>196.7</ele>
        <time>2015-05-31T08:34:28Z</time>
      </trkpt>
      <trkpt lat="43.84244" lon="4.17939">
        <ele>196.5</ele>
        <time>2015-05-31T08:34:31Z</time>
      </trkpt>
      <trkpt lat="43.84233" lon="4.17938">
        <ele>196.2</ele>
        <time>2015-05-31T08:34:34Z</time>
      </trkpt>
      <trkpt lat="43.84221" lon="4.17935">
        <ele>195.9</ele>
        <time>2015-05-31T08:34:37Z</time>
      </trkpt>
      <trkpt lat="43.8421" lon="4.17933">
        <ele>195.7</ele>
        <time>2015-05-31T08:34:40Z</time>
      </trkpt>
      <trkpt lat="43.84199" lon="4.1793">
        <ele>195.5</ele>
        <time>2015-05-31T08:34:43Z</time>
      </trkpt>
      <trkpt lat="43.84188" lon="4.17926">
        <ele>195.3</ele>
        <time>2015-05-31T08:34:46Z</time>
      </trkpt>
      <trkpt lat="43.84175" lon="4.17925">
        <ele>195.2</ele>
        <time>2015-05-31T08:34:49Z</time>
      </trkpt>
      <trkpt lat="43.84166" lon="4.17924">
        <ele>195</ele>
        <time>2015-05-31T08:34:51Z</time>
      </trkpt>
      <trkpt lat="43.84156" lon="4.1792">
        <ele>194.9</ele>
        <time>2015-05-31T08:34:54Z</time>
      </trkpt>
      <trkpt lat="43.84147" lon="4.17914">
        <ele>194.7</ele>
        <time>2015-05-31T08:34:58Z</time>
      </trkpt>
      <trkpt lat="43.84142" lon="4.17902">
        <ele>194.5</ele>
        <time>2015-05-31T08:35:03Z</time>
      </trkpt>
      <trkpt lat="43.84138" lon="4.17891">
        <ele>194.5</ele>
        <time>2015-05-31T08:35:07Z</time>
      </trkpt>
      <trkpt lat="43.84134" lon="4.17878">
        <ele>194.6</ele>
        <time>2015-05-31T08:35:11Z</time>
      </trkpt>
      <trkpt lat="43.84131" lon="4.17865">
        <ele>194.7</ele>
        <time>2015-05-31T08:35:15Z</time>
      </trkpt>
      <trkpt lat="43.84128" lon="4.1785">
        <ele>194.9</ele>
        <time>2015-05-31T08:35:19Z</time>
      </trkpt>
      <trkpt lat="43.84125" lon="4.17837">
        <ele>195</ele>
        <time>2015-05-31T08:35:22Z</time>
      </trkpt>
      <trkpt lat="43.84123" lon="4.17821">
        <ele>195.3</ele>
        <time>2015-05-31T08:35:26Z</time>
      </trkpt>
      <trkpt lat="43.84121" lon="4.17809">
        <ele>195.6</ele>
        <time>2015-05-31T08:35:29Z</time>
      </trkpt>
      <trkpt lat="43.8412" lon="4.17796">
        <ele>195.8</ele>
        <time>2015-05-31T08:35:32Z</time>
      </trkpt>
      <trkpt lat="43.84118" lon="4.17783">
        <ele>196</ele>
        <time>2015-05-31T08:35:35Z</time>
      </trkpt>
      <trkpt lat="43.84115" lon="4.1777">
        <ele>196.1</ele>
        <time>2015-05-31T08:35:38Z</time>
      </trkpt>
      <trkpt lat="43.84109" lon="4.17757">
        <ele>196.4</ele>
        <time>2015-05-31T08:35:42Z</time>
      </trkpt>
      <trkpt lat="43.84107" lon="4.17743">
        <ele>196.7</ele>
        <time>2015-05-31T08:35:45Z</time>
      </trkpt>
      <trkpt lat="43.84101" lon="4.17732">
        <ele>197</ele>
        <time>2015-05-31T08:35:48Z</time>
      </trkpt>
      <trkpt lat="43.84095" lon="4.17721">
        <ele>197</ele>
        <time>2015-05-31T08:35:51Z</time>
      </trkpt>
      <trkpt lat="43.84088" lon="4.17712">
        <ele>197.1</ele>
        <time>2015-05-31T08:35:54Z</time>
      </trkpt>
      <trkpt lat="43.8408" lon="4.17705">
        <ele>197.2</ele>
        <time>2015-05-31T08:35:57Z</time>
      </trkpt>
      <trkpt lat="43.84072" lon="4.17697">
        <ele>197.3</ele>
        <time>2015-05-31T08:36:00Z</time>
      </trkpt>
      <trkpt lat="43.84064" lon="4.1769">
        <ele>197.4</ele>
        <time>2015-05-31T08:36:03Z</time>
      </trkpt>
      <trkpt lat="43.84054" lon="4.17684">
        <ele>197.5</ele>
        <time>2015-05-31T08:36:06Z</time>
      </trkpt>
      <trkpt lat="43.84043" lon="4.17682">
        <ele>197.4</ele>
        <time>2015-05-31T08:36:09Z</time>
      </trkpt>
      <trkpt lat="43.84031" lon="4.17681">
        <ele>197.4</ele>
        <time>2015-05-31T08:36:12Z</time>
      </trkpt>
      <trkpt lat="43.8402" lon="4.1768">
        <ele>197.3</ele>
        <time>2015-05-31T08:36:15Z</time>
      </trkpt>
      <trkpt lat="43.84009" lon="4.17681">
        <ele>197.3</ele>
        <time>2015-05-31T08:36:18Z</time>
      </trkpt>
      <trkpt lat="43.83998" lon="4.1768">
        <ele>197.2</ele>
        <time>2015-05-31T08:36:21Z</time>
      </trkpt>
      <trkpt lat="43.83989" lon="4.1768">
        <ele>197.2</ele>
        <time>2015-05-31T08:36:23Z</time>
      </trkpt>
      <trkpt lat="43.83977" lon="4.17679">
        <ele>197.2</ele>
        <time>2015-05-31T08:36:26Z</time>
      </trkpt>
      <trkpt lat="43.83965" lon="4.17678">
        <ele>197</ele>
        <time>2015-05-31T08:36:29Z</time>
      </trkpt>
      <trkpt lat="43.83953" lon="4.1767">
        <ele>196.7</ele>
        <time>2015-05-31T08:36:32Z</time>
      </trkpt>
      <trkpt lat="43.83944" lon="4.17668">
        <ele>196.3</ele>
        <time>2015-05-31T08:36:34Z</time>
      </trkpt>
      <trkpt lat="43.83934" lon="4.17671">
        <ele>195.9</ele>
        <time>2015-05-31T08:36:36Z</time>
      </trkpt>
      <trkpt lat="43.83924" lon="4.17668">
        <ele>194.6</ele>
        <time>2015-05-31T08:36:40Z</time>
      </trkpt>
      <trkpt lat="43.83924" lon="4.17654">
        <ele>193.4</ele>
        <time>2015-05-31T08:36:44Z</time>
      </trkpt>
      <trkpt lat="43.83921" lon="4.17638">
        <ele>192</ele>
        <time>2015-05-31T08:36:49Z</time>
      </trkpt>
      <trkpt lat="43.83923" lon="4.17622">
        <ele>191.1</ele>
        <time>2015-05-31T08:36:52Z</time>
      </trkpt>
      <trkpt lat="43.83922" lon="4.17608">
        <ele>190.5</ele>
        <time>2015-05-31T08:36:54Z</time>
      </trkpt>
      <trkpt lat="43.83918" lon="4.17593">
        <ele>189.5</ele>
        <time>2015-05-31T08:36:57Z</time>
      </trkpt>
      <trkpt lat="43.83916" lon="4.17575">
        <ele>188.4</ele>
        <time>2015-05-31T08:37:00Z</time>
      </trkpt>
      <trkpt lat="43.83914" lon="4.1756">
        <ele>187.3</ele>
        <time>2015-05-31T08:37:03Z</time>
      </trkpt>
      <trkpt lat="43.83915" lon="4.17548">
        <ele>185.9</ele>
        <time>2015-05-31T08:37:07Z</time>
      </trkpt>
      <trkpt lat="43.83919" lon="4.17536">
        <ele>184.7</ele>
        <time>2015-05-31T08:37:11Z</time>
      </trkpt>
      <trkpt lat="43.8392" lon="4.17523">
        <ele>183.9</ele>
        <time>2015-05-31T08:37:14Z</time>
      </trkpt>
      <trkpt lat="43.83927" lon="4.17512">
        <ele>183</ele>
        <time>2015-05-31T08:37:18Z</time>
      </trkpt>
      <trkpt lat="43.83934" lon="4.17504">
        <ele>182.1</ele>
        <time>2015-05-31T08:37:23Z</time>
      </trkpt>
      <trkpt lat="43.8394" lon="4.17491">
        <ele>181.6</ele>
        <time>2015-05-31T08:37:28Z</time>
      </trkpt>
      <trkpt lat="43.83944" lon="4.17476">
        <ele>181.2</ele>
        <time>2015-05-31T08:37:33Z</time>
      </trkpt>
      <trkpt lat="43.83947" lon="4.17462">
        <ele>181</ele>
        <time>2015-05-31T08:37:37Z</time>
      </trkpt>
      <trkpt lat="43.83953" lon="4.17452">
        <ele>180.7</ele>
        <time>2015-05-31T08:37:42Z</time>
      </trkpt>
      <trkpt lat="43.83942" lon="4.17449">
        <ele>179.9</ele>
        <time>2015-05-31T08:37:50Z</time>
      </trkpt>
      <trkpt lat="43.83933" lon="4.17439">
        <ele>179.5</ele>
        <time>2015-05-31T08:37:54Z</time>
      </trkpt>
      <trkpt lat="43.83924" lon="4.17432">
        <ele>179</ele>
        <time>2015-05-31T08:37:57Z</time>
      </trkpt>
      <trkpt lat="43.83914" lon="4.17423">
        <ele>178.6</ele>
        <time>2015-05-31T08:38:00Z</time>
      </trkpt>
      <trkpt lat="43.83904" lon="4.17415">
        <ele>178.2</ele>
        <time>2015-05-31T08:38:03Z</time>
      </trkpt>
      <trkpt lat="43.83894" lon="4.17403">
        <ele>177.9</ele>
        <time>2015-05-31T08:38:06Z</time>
      </trkpt>
      <trkpt lat="43.83885" lon="4.17391">
        <ele>177.4</ele>
        <time>2015-05-31T08:38:09Z</time>
      </trkpt>
      <trkpt lat="43.83875" lon="4.1738">
        <ele>177</ele>
        <time>2015-05-31T08:38:12Z</time>
      </trkpt>
      <trkpt lat="43.83865" lon="4.17371">
        <ele>176.7</ele>
        <time>2015-05-31T08:38:15Z</time>
      </trkpt>
      <trkpt lat="43.83858" lon="4.17357">
        <ele>176.4</ele>
        <time>2015-05-31T08:38:18Z</time>
      </trkpt>
      <trkpt lat="43.83853" lon="4.17343">
        <ele>175.9</ele>
        <time>2015-05-31T08:38:21Z</time>
      </trkpt>
      <trkpt lat="43.83849" lon="4.1733">
        <ele>175.6</ele>
        <time>2015-05-31T08:38:24Z</time>
      </trkpt>
      <trkpt lat="43.83843" lon="4.17318">
        <ele>175.4</ele>
        <time>2015-05-31T08:38:27Z</time>
      </trkpt>
      <trkpt lat="43.83839" lon="4.17306">
        <ele>175.2</ele>
        <time>2015-05-31T08:38:30Z</time>
      </trkpt>
      <trkpt lat="43.83837" lon="4.17292">
        <ele>175</ele>
        <time>2015-05-31T08:38:33Z</time>
      </trkpt>
      <trkpt lat="43.83834" lon="4.17279">
        <ele>174.9</ele>
        <time>2015-05-31T08:38:36Z</time>
      </trkpt>
      <trkpt lat="43.83829" lon="4.17267">
        <ele>174.9</ele>
        <time>2015-05-31T08:38:39Z</time>
      </trkpt>
      <trkpt lat="43.83824" lon="4.17254">
        <ele>174.9</ele>
        <time>2015-05-31T08:38:42Z</time>
      </trkpt>
      <trkpt lat="43.8382" lon="4.17243">
        <ele>174.9</ele>
        <time>2015-05-31T08:38:45Z</time>
      </trkpt>
      <trkpt lat="43.83816" lon="4.1723">
        <ele>174.9</ele>
        <time>2015-05-31T08:38:48Z</time>
      </trkpt>
      <trkpt lat="43.83811" lon="4.17218">
        <ele>175</ele>
        <time>2015-05-31T08:38:51Z</time>
      </trkpt>
      <trkpt lat="43.83805" lon="4.17207">
        <ele>175.1</ele>
        <time>2015-05-31T08:38:54Z</time>
      </trkpt>
      <trkpt lat="43.83798" lon="4.17196">
        <ele>175.4</ele>
        <time>2015-05-31T08:38:57Z</time>
      </trkpt>
      <trkpt lat="43.83792" lon="4.17185">
        <ele>175.6</ele>
        <time>2015-05-31T08:39:00Z</time>
      </trkpt>
      <trkpt lat="43.83787" lon="4.17173">
        <ele>175.9</ele>
        <time>2015-05-31T08:39:03Z</time>
      </trkpt>
      <trkpt lat="43.83783" lon="4.17161">
        <ele>176.2</ele>
        <time>2015-05-31T08:39:06Z</time>
      </trkpt>
      <trkpt lat="43.83779" lon="4.17149">
        <ele>176.6</ele>
        <time>2015-05-31T08:39:09Z</time>
      </trkpt>
      <trkpt lat="43.83775" lon="4.17135">
        <ele>177.1</ele>
        <time>2015-05-31T08:39:13Z</time>
      </trkpt>
      <trkpt lat="43.83769" lon="4.17121">
        <ele>177.8</ele>
        <time>2015-05-31T08:39:17Z</time>
      </trkpt>
      <trkpt lat="43.83761" lon="4.1711">
        <ele>178.4</ele>
        <time>2015-05-31T08:39:21Z</time>
      </trkpt>
      <trkpt lat="43.83754" lon="4.17101">
        <ele>179</ele>
        <time>2015-05-31T08:39:24Z</time>
      </trkpt>
      <trkpt lat="43.83744" lon="4.17091">
        <ele>179.4</ele>
        <time>2015-05-31T08:39:27Z</time>
      </trkpt>
      <trkpt lat="43.83735" lon="4.1708">
        <ele>179.8</ele>
        <time>2015-05-31T08:39:30Z</time>
      </trkpt>
      <trkpt lat="43.83727" lon="4.1707">
        <ele>180.1</ele>
        <time>2015-05-31T08:39:33Z</time>
      </trkpt>
      <trkpt lat="43.83719" lon="4.17061">
        <ele>180.4</ele>
        <time>2015-05-31T08:39:36Z</time>
      </trkpt>
      <trkpt lat="43.83707" lon="4.17056">
        <ele>180.7</ele>
        <time>2015-05-31T08:39:39Z</time>
      </trkpt>
      <trkpt lat="43.83695" lon="4.17053">
        <ele>181</ele>
        <time>2015-05-31T08:39:42Z</time>
      </trkpt>
      <trkpt lat="43.83682" lon="4.17053">
        <ele>181.3</ele>
        <time>2015-05-31T08:39:45Z</time>
      </trkpt>
      <trkpt lat="43.83672" lon="4.17053">
        <ele>181.5</ele>
        <time>2015-05-31T08:39:47Z</time>
      </trkpt>
      <trkpt lat="43.83662" lon="4.17053">
        <ele>181.7</ele>
        <time>2015-05-31T08:39:49Z</time>
      </trkpt>
      <trkpt lat="43.83651" lon="4.17052">
        <ele>181.8</ele>
        <time>2015-05-31T08:39:51Z</time>
      </trkpt>
      <trkpt lat="43.83641" lon="4.17052">
        <ele>181.9</ele>
        <time>2015-05-31T08:39:53Z</time>
      </trkpt>
      <trkpt lat="43.83631" lon="4.17051">
        <ele>182</ele>
        <time>2015-05-31T08:39:55Z</time>
      </trkpt>
      <trkpt lat="43.8362" lon="4.17051">
        <ele>182</ele>
        <time>2015-05-31T08:39:57Z</time>
      </trkpt>
      <trkpt lat="43.83609" lon="4.17049">
        <ele>182</ele>
        <time>2015-05-31T08:39:59Z</time>
      </trkpt>
      <trkpt lat="43.83599" lon="4.17046">
        <ele>181.9</ele>
        <time>2015-05-31T08:40:01Z</time>
      </trkpt>
      <trkpt lat="43.8359" lon="4.17043">
        <ele>181.8</ele>
        <time>2015-05-31T08:40:03Z</time>
      </trkpt>
      <trkpt lat="43.8358" lon="4.17038">
        <ele>181.7</ele>
        <time>2015-05-31T08:40:06Z</time>
      </trkpt>
      <trkpt lat="43.83571" lon="4.17034">
        <ele>181.6</ele>
        <time>2015-05-31T08:40:09Z</time>
      </trkpt>
      <trkpt lat="43.83562" lon="4.17027">
        <ele>181.4</ele>
        <time>2015-05-31T08:40:13Z</time>
      </trkpt>
      <trkpt lat="43.8357" lon="4.17019">
        <ele>181.3</ele>
        <time>2015-05-31T08:40:17Z</time>
      </trkpt>
      <trkpt lat="43.83583" lon="4.17015">
        <ele>181.2</ele>
        <time>2015-05-31T08:40:20Z</time>
      </trkpt>
      <trkpt lat="43.83593" lon="4.17011">
        <ele>181.1</ele>
        <time>2015-05-31T08:40:22Z</time>
      </trkpt>
      <trkpt lat="43.83604" lon="4.17008">
        <ele>181.1</ele>
        <time>2015-05-31T08:40:24Z</time>
      </trkpt>
      <trkpt lat="43.83613" lon="4.17005">
        <ele>181</ele>
        <time>2015-05-31T08:40:26Z</time>
      </trkpt>
      <trkpt lat="43.83622" lon="4.17001">
        <ele>180.9</ele>
        <time>2015-05-31T08:40:28Z</time>
      </trkpt>
      <trkpt lat="43.83632" lon="4.16994">
        <ele>180.8</ele>
        <time>2015-05-31T08:40:31Z</time>
      </trkpt>
      <trkpt lat="43.83639" lon="4.16986">
        <ele>180.8</ele>
        <time>2015-05-31T08:40:34Z</time>
      </trkpt>
      <trkpt lat="43.83645" lon="4.16975">
        <ele>180.8</ele>
        <time>2015-05-31T08:40:38Z</time>
      </trkpt>
      <trkpt lat="43.83651" lon="4.16964">
        <ele>181</ele>
        <time>2015-05-31T08:40:42Z</time>
      </trkpt>
      <trkpt lat="43.83655" lon="4.1695">
        <ele>181.7</ele>
        <time>2015-05-31T08:40:47Z</time>
      </trkpt>
      <trkpt lat="43.83661" lon="4.16939">
        <ele>182.2</ele>
        <time>2015-05-31T08:40:51Z</time>
      </trkpt>
      <trkpt lat="43.83669" lon="4.16929">
        <ele>182.8</ele>
        <time>2015-05-31T08:40:55Z</time>
      </trkpt>
      <trkpt lat="43.83677" lon="4.1692">
        <ele>183.4</ele>
        <time>2015-05-31T08:40:59Z</time>
      </trkpt>
      <trkpt lat="43.83686" lon="4.1691">
        <ele>184.1</ele>
        <time>2015-05-31T08:41:03Z</time>
      </trkpt>
      <trkpt lat="43.83694" lon="4.16902">
        <ele>184.5</ele>
        <time>2015-05-31T08:41:06Z</time>
      </trkpt>
      <trkpt lat="43.83702" lon="4.16895">
        <ele>184.9</ele>
        <time>2015-05-31T08:41:09Z</time>
      </trkpt>
      <trkpt lat="43.8371" lon="4.16887">
        <ele>185.3</ele>
        <time>2015-05-31T08:41:12Z</time>
      </trkpt>
      <trkpt lat="43.83718" lon="4.16879">
        <ele>185.6</ele>
        <time>2015-05-31T08:41:15Z</time>
      </trkpt>
      <trkpt lat="43.83727" lon="4.1687">
        <ele>185.8</ele>
        <time>2015-05-31T08:41:18Z</time>
      </trkpt>
      <trkpt lat="43.83736" lon="4.16864">
        <ele>186</ele>
        <time>2015-05-31T08:41:21Z</time>
      </trkpt>
      <trkpt lat="43.83745" lon="4.16858">
        <ele>186.3</ele>
        <time>2015-05-31T08:41:24Z</time>
      </trkpt>
      <trkpt lat="43.83754" lon="4.16853">
        <ele>186.5</ele>
        <time>2015-05-31T08:41:27Z</time>
      </trkpt>
      <trkpt lat="43.83764" lon="4.16847">
        <ele>186.8</ele>
        <time>2015-05-31T08:41:30Z</time>
      </trkpt>
      <trkpt lat="43.83774" lon="4.1684">
        <ele>187</ele>
        <time>2015-05-31T08:41:33Z</time>
      </trkpt>
      <trkpt lat="43.83783" lon="4.16832">
        <ele>187.2</ele>
        <time>2015-05-31T08:41:36Z</time>
      </trkpt>
      <trkpt lat="43.83793" lon="4.16824">
        <ele>187.4</ele>
        <time>2015-05-31T08:41:39Z</time>
      </trkpt>
      <trkpt lat="43.83803" lon="4.16816">
        <ele>187.6</ele>
        <time>2015-05-31T08:41:42Z</time>
      </trkpt>
      <trkpt lat="43.8381" lon="4.16808">
        <ele>187.9</ele>
        <time>2015-05-31T08:41:48Z</time>
      </trkpt>
      <trkpt lat="43.83801" lon="4.168">
        <ele>187.9</ele>
        <time>2015-05-31T08:41:54Z</time>
      </trkpt>
      <trkpt lat="43.83792" lon="4.16793">
        <ele>187.8</ele>
        <time>2015-05-31T08:41:59Z</time>
      </trkpt>
      <trkpt lat="43.83783" lon="4.16788">
        <ele>187.6</ele>
        <time>2015-05-31T08:42:03Z</time>
      </trkpt>
      <trkpt lat="43.83774" lon="4.1678">
        <ele>187.3</ele>
        <time>2015-05-31T08:42:06Z</time>
      </trkpt>
      <trkpt lat="43.83763" lon="4.16775">
        <ele>187.1</ele>
        <time>2015-05-31T08:42:09Z</time>
      </trkpt>
      <trkpt lat="43.83753" lon="4.16764">
        <ele>186.7</ele>
        <time>2015-05-31T08:42:12Z</time>
      </trkpt>
      <trkpt lat="43.83748" lon="4.16753">
        <ele>186.4</ele>
        <time>2015-05-31T08:42:15Z</time>
      </trkpt>
      <trkpt lat="43.83743" lon="4.16741">
        <ele>185.9</ele>
        <time>2015-05-31T08:42:19Z</time>
      </trkpt>
      <trkpt lat="43.83735" lon="4.16731">
        <ele>185.3</ele>
        <time>2015-05-31T08:42:23Z</time>
      </trkpt>
      <trkpt lat="43.83728" lon="4.16722">
        <ele>184.8</ele>
        <time>2015-05-31T08:42:26Z</time>
      </trkpt>
      <trkpt lat="43.83719" lon="4.16714">
        <ele>184.4</ele>
        <time>2015-05-31T08:42:29Z</time>
      </trkpt>
      <trkpt lat="43.83708" lon="4.16705">
        <ele>183.9</ele>
        <time>2015-05-31T08:42:32Z</time>
      </trkpt>
      <trkpt lat="43.83698" lon="4.16694">
        <ele>183.5</ele>
        <time>2015-05-31T08:42:34Z</time>
      </trkpt>
      <trkpt lat="43.83689" lon="4.16685">
        <ele>182.9</ele>
        <time>2015-05-31T08:42:37Z</time>
      </trkpt>
      <trkpt lat="43.83679" lon="4.16675">
        <ele>182.3</ele>
        <time>2015-05-31T08:42:40Z</time>
      </trkpt>
      <trkpt lat="43.83669" lon="4.16668">
        <ele>181.7</ele>
        <time>2015-05-31T08:42:43Z</time>
      </trkpt>
      <trkpt lat="43.83658" lon="4.16661">
        <ele>181.1</ele>
        <time>2015-05-31T08:42:46Z</time>
      </trkpt>
      <trkpt lat="43.83648" lon="4.16655">
        <ele>180.4</ele>
        <time>2015-05-31T08:42:49Z</time>
      </trkpt>
      <trkpt lat="43.83637" lon="4.16651">
        <ele>179.7</ele>
        <time>2015-05-31T08:42:52Z</time>
      </trkpt>
      <trkpt lat="43.83628" lon="4.1664">
        <ele>179</ele>
        <time>2015-05-31T08:42:55Z</time>
      </trkpt>
      <trkpt lat="43.83617" lon="4.16634">
        <ele>178.2</ele>
        <time>2015-05-31T08:42:58Z</time>
      </trkpt>
      <trkpt lat="43.83607" lon="4.16627">
        <ele>177.2</ele>
        <time>2015-05-31T08:43:02Z</time>
      </trkpt>
      <trkpt lat="43.836" lon="4.16617">
        <ele>176.5</ele>
        <time>2015-05-31T08:43:05Z</time>
      </trkpt>
      <trkpt lat="43.83592" lon="4.16605">
        <ele>175.7</ele>
        <time>2015-05-31T08:43:08Z</time>
      </trkpt>
      <trkpt lat="43.83583" lon="4.16593">
        <ele>174.7</ele>
        <time>2015-05-31T08:43:12Z</time>
      </trkpt>
      <trkpt lat="43.83575" lon="4.16583">
        <ele>174</ele>
        <time>2015-05-31T08:43:15Z</time>
      </trkpt>
      <trkpt lat="43.83564" lon="4.16577">
        <ele>172.9</ele>
        <time>2015-05-31T08:43:20Z</time>
      </trkpt>
      <trkpt lat="43.83554" lon="4.16571">
        <ele>172.3</ele>
        <time>2015-05-31T08:43:23Z</time>
      </trkpt>
      <trkpt lat="43.83544" lon="4.16562">
        <ele>171.8</ele>
        <time>2015-05-31T08:43:26Z</time>
      </trkpt>
      <trkpt lat="43.83533" lon="4.16556">
        <ele>171.3</ele>
        <time>2015-05-31T08:43:29Z</time>
      </trkpt>
      <trkpt lat="43.83523" lon="4.16555">
        <ele>170.7</ele>
        <time>2015-05-31T08:43:33Z</time>
      </trkpt>
      <trkpt lat="43.83513" lon="4.16558">
        <ele>170.2</ele>
        <time>2015-05-31T08:43:38Z</time>
      </trkpt>
      <trkpt lat="43.83503" lon="4.16559">
        <ele>169.9</ele>
        <time>2015-05-31T08:43:41Z</time>
      </trkpt>
      <trkpt lat="43.83493" lon="4.16562">
        <ele>169.7</ele>
        <time>2015-05-31T08:43:45Z</time>
      </trkpt>
      <trkpt lat="43.83483" lon="4.16558">
        <ele>169.7</ele>
        <time>2015-05-31T08:43:48Z</time>
      </trkpt>
      <trkpt lat="43.83472" lon="4.16555">
        <ele>169.5</ele>
        <time>2015-05-31T08:43:51Z</time>
      </trkpt>
      <trkpt lat="43.83462" lon="4.16558">
        <ele>169.5</ele>
        <time>2015-05-31T08:43:54Z</time>
      </trkpt>
      <trkpt lat="43.83459" lon="4.1657">
        <ele>169.5</ele>
        <time>2015-05-31T08:43:59Z</time>
      </trkpt>
      <trkpt lat="43.83465" lon="4.1658">
        <ele>169.5</ele>
        <time>2015-05-31T08:44:04Z</time>
      </trkpt>
      <trkpt lat="43.83471" lon="4.16591">
        <ele>170</ele>
        <time>2015-05-31T08:44:11Z</time>
      </trkpt>
      <trkpt lat="43.83467" lon="4.16604">
        <ele>170.6</ele>
        <time>2015-05-31T08:44:16Z</time>
      </trkpt>
      <trkpt lat="43.83462" lon="4.16616">
        <ele>171.3</ele>
        <time>2015-05-31T08:44:22Z</time>
      </trkpt>
      <trkpt lat="43.83465" lon="4.16629">
        <ele>171.8</ele>
        <time>2015-05-31T08:44:27Z</time>
      </trkpt>
      <trkpt lat="43.83466" lon="4.16644">
        <ele>172.6</ele>
        <time>2015-05-31T08:44:33Z</time>
      </trkpt>
      <trkpt lat="43.83463" lon="4.16656">
        <ele>173</ele>
        <time>2015-05-31T08:44:37Z</time>
      </trkpt>
      <trkpt lat="43.8346" lon="4.16669">
        <ele>173.5</ele>
        <time>2015-05-31T08:44:41Z</time>
      </trkpt>
      <trkpt lat="43.83457" lon="4.16681">
        <ele>173.7</ele>
        <time>2015-05-31T08:44:44Z</time>
      </trkpt>
      <trkpt lat="43.83455" lon="4.16694">
        <ele>174.2</ele>
        <time>2015-05-31T08:44:48Z</time>
      </trkpt>
      <trkpt lat="43.83452" lon="4.16708">
        <ele>174.3</ele>
        <time>2015-05-31T08:44:52Z</time>
      </trkpt>
      <trkpt lat="43.83446" lon="4.16719">
        <ele>174.1</ele>
        <time>2015-05-31T08:44:57Z</time>
      </trkpt>
      <trkpt lat="43.83435" lon="4.16724">
        <ele>173.6</ele>
        <time>2015-05-31T08:45:02Z</time>
      </trkpt>
      <trkpt lat="43.83426" lon="4.16727">
        <ele>172.8</ele>
        <time>2015-05-31T08:45:07Z</time>
      </trkpt>
      <trkpt lat="43.83416" lon="4.16726">
        <ele>170.7</ele>
        <time>2015-05-31T08:45:20Z</time>
      </trkpt>
      <trkpt lat="43.83405" lon="4.16727">
        <ele>169.9</ele>
        <time>2015-05-31T08:45:25Z</time>
      </trkpt>
      <trkpt lat="43.83395" lon="4.16725">
        <ele>169.1</ele>
        <time>2015-05-31T08:45:31Z</time>
      </trkpt>
      <trkpt lat="43.83386" lon="4.16725">
        <ele>168.2</ele>
        <time>2015-05-31T08:45:38Z</time>
      </trkpt>
      <trkpt lat="43.83378" lon="4.16716">
        <ele>167.8</ele>
        <time>2015-05-31T08:45:41Z</time>
      </trkpt>
      <trkpt lat="43.83371" lon="4.16707">
        <ele>167.4</ele>
        <time>2015-05-31T08:45:45Z</time>
      </trkpt>
      <trkpt lat="43.83364" lon="4.16698">
        <ele>166.8</ele>
        <time>2015-05-31T08:45:49Z</time>
      </trkpt>
      <trkpt lat="43.83363" lon="4.16681">
        <ele>166.4</ele>
        <time>2015-05-31T08:45:53Z</time>
      </trkpt>
      <trkpt lat="43.83363" lon="4.16667">
        <ele>165.8</ele>
        <time>2015-05-31T08:45:58Z</time>
      </trkpt>
      <trkpt lat="43.83363" lon="4.16652">
        <ele>165</ele>
        <time>2015-05-31T08:46:04Z</time>
      </trkpt>
      <trkpt lat="43.83365" lon="4.1664">
        <ele>164.6</ele>
        <time>2015-05-31T08:46:08Z</time>
      </trkpt>
      <trkpt lat="43.83364" lon="4.16627">
        <ele>164.3</ele>
        <time>2015-05-31T08:46:12Z</time>
      </trkpt>
      <trkpt lat="43.83362" lon="4.16612">
        <ele>164</ele>
        <time>2015-05-31T08:46:17Z</time>
      </trkpt>
      <trkpt lat="43.83362" lon="4.16598">
        <ele>163.8</ele>
        <time>2015-05-31T08:46:21Z</time>
      </trkpt>
      <trkpt lat="43.83359" lon="4.16583">
        <ele>163.7</ele>
        <time>2015-05-31T08:46:25Z</time>
      </trkpt>
      <trkpt lat="43.83355" lon="4.16571">
        <ele>163.5</ele>
        <time>2015-05-31T08:46:28Z</time>
      </trkpt>
      <trkpt lat="43.83352" lon="4.16558">
        <ele>163.2</ele>
        <time>2015-05-31T08:46:31Z</time>
      </trkpt>
      <trkpt lat="43.83352" lon="4.16544">
        <ele>162.9</ele>
        <time>2015-05-31T08:46:35Z</time>
      </trkpt>
      <trkpt lat="43.83352" lon="4.1653">
        <ele>162.4</ele>
        <time>2015-05-31T08:46:39Z</time>
      </trkpt>
      <trkpt lat="43.83343" lon="4.16526">
        <ele>161</ele>
        <time>2015-05-31T08:47:01Z</time>
      </trkpt>
      <trkpt lat="43.83334" lon="4.16525">
        <ele>161.2</ele>
        <time>2015-05-31T08:47:37Z</time>
      </trkpt>
      <trkpt lat="43.83326" lon="4.16519">
        <ele>161.8</ele>
        <time>2015-05-31T08:47:48Z</time>
      </trkpt>
      <trkpt lat="43.83318" lon="4.16511">
        <ele>163.2</ele>
        <time>2015-05-31T08:48:01Z</time>
      </trkpt>
      <trkpt lat="43.8331" lon="4.16518">
        <ele>164.5</ele>
        <time>2015-05-31T08:48:15Z</time>
      </trkpt>
      <trkpt lat="43.833" lon="4.16523">
        <ele>165</ele>
        <time>2015-05-31T08:48:21Z</time>
      </trkpt>
      <trkpt lat="43.8329" lon="4.1652">
        <ele>165.6</ele>
        <time>2015-05-31T08:48:27Z</time>
      </trkpt>
      <trkpt lat="43.83282" lon="4.16513">
        <ele>166.1</ele>
        <time>2015-05-31T08:48:31Z</time>
      </trkpt>
      <trkpt lat="43.83273" lon="4.16505">
        <ele>166.6</ele>
        <time>2015-05-31T08:48:35Z</time>
      </trkpt>
      <trkpt lat="43.83267" lon="4.16494">
        <ele>167.1</ele>
        <time>2015-05-31T08:48:40Z</time>
      </trkpt>
      <trkpt lat="43.83258" lon="4.16483">
        <ele>167.4</ele>
        <time>2015-05-31T08:48:44Z</time>
      </trkpt>
      <trkpt lat="43.83249" lon="4.16479">
        <ele>167.6</ele>
        <time>2015-05-31T08:48:47Z</time>
      </trkpt>
      <trkpt lat="43.83238" lon="4.16475">
        <ele>167.8</ele>
        <time>2015-05-31T08:48:51Z</time>
      </trkpt>
      <trkpt lat="43.8323" lon="4.16468">
        <ele>167.9</ele>
        <time>2015-05-31T08:48:54Z</time>
      </trkpt>
      <trkpt lat="43.8322" lon="4.16462">
        <ele>167.9</ele>
        <time>2015-05-31T08:48:57Z</time>
      </trkpt>
      <trkpt lat="43.83213" lon="4.16455">
        <ele>168</ele>
        <time>2015-05-31T08:49:00Z</time>
      </trkpt>
      <trkpt lat="43.83213" lon="4.16439">
        <ele>167.8</ele>
        <time>2015-05-31T08:49:04Z</time>
      </trkpt>
      <trkpt lat="43.83214" lon="4.16426">
        <ele>167.5</ele>
        <time>2015-05-31T08:49:07Z</time>
      </trkpt>
      <trkpt lat="43.83214" lon="4.16413">
        <ele>166.8</ele>
        <time>2015-05-31T08:49:10Z</time>
      </trkpt>
      <trkpt lat="43.83213" lon="4.16397">
        <ele>165.8</ele>
        <time>2015-05-31T08:49:14Z</time>
      </trkpt>
      <trkpt lat="43.8321" lon="4.16384">
        <ele>165.1</ele>
        <time>2015-05-31T08:49:17Z</time>
      </trkpt>
      <trkpt lat="43.83205" lon="4.16373">
        <ele>164.3</ele>
        <time>2015-05-31T08:49:20Z</time>
      </trkpt>
      <trkpt lat="43.83198" lon="4.1636">
        <ele>163.3</ele>
        <time>2015-05-31T08:49:23Z</time>
      </trkpt>
      <trkpt lat="43.83191" lon="4.16353">
        <ele>162.2</ele>
        <time>2015-05-31T08:49:27Z</time>
      </trkpt>
      <trkpt lat="43.83183" lon="4.16347">
        <ele>160.8</ele>
        <time>2015-05-31T08:49:34Z</time>
      </trkpt>
      <trkpt lat="43.83177" lon="4.16338">
        <ele>159.9</ele>
        <time>2015-05-31T08:49:41Z</time>
      </trkpt>
      <trkpt lat="43.83171" lon="4.16328">
        <ele>159.7</ele>
        <time>2015-05-31T08:49:45Z</time>
      </trkpt>
      <trkpt lat="43.83167" lon="4.16313">
        <ele>159.5</ele>
        <time>2015-05-31T08:49:49Z</time>
      </trkpt>
      <trkpt lat="43.83166" lon="4.16299">
        <ele>159.2</ele>
        <time>2015-05-31T08:49:54Z</time>
      </trkpt>
      <trkpt lat="43.8317" lon="4.16287">
        <ele>158.3</ele>
        <time>2015-05-31T08:50:02Z</time>
      </trkpt>
      <trkpt lat="43.83166" lon="4.16275">
        <ele>157.8</ele>
        <time>2015-05-31T08:50:07Z</time>
      </trkpt>
      <trkpt lat="43.83165" lon="4.16263">
        <ele>157.1</ele>
        <time>2015-05-31T08:50:12Z</time>
      </trkpt>
      <trkpt lat="43.83161" lon="4.1625">
        <ele>156.2</ele>
        <time>2015-05-31T08:50:22Z</time>
      </trkpt>
      <trkpt lat="43.83156" lon="4.16239">
        <ele>155.9</ele>
        <time>2015-05-31T08:50:29Z</time>
      </trkpt>
      <trkpt lat="43.83148" lon="4.16231">
        <ele>156.3</ele>
        <time>2015-05-31T08:50:35Z</time>
      </trkpt>
      <trkpt lat="43.83149" lon="4.16218">
        <ele>157.2</ele>
        <time>2015-05-31T08:50:43Z</time>
      </trkpt>
      <trkpt lat="43.83154" lon="4.16205">
        <ele>158</ele>
        <time>2015-05-31T08:50:48Z</time>
      </trkpt>
      <trkpt lat="43.83154" lon="4.16191">
        <ele>159.5</ele>
        <time>2015-05-31T08:50:56Z</time>
      </trkpt>
      <trkpt lat="43.83155" lon="4.16178">
        <ele>160.3</ele>
        <time>2015-05-31T08:51:02Z</time>
      </trkpt>
      <trkpt lat="43.83158" lon="4.16166">
        <ele>161.2</ele>
        <time>2015-05-31T08:51:11Z</time>
      </trkpt>
      <trkpt lat="43.8316" lon="4.16153">
        <ele>161.5</ele>
        <time>2015-05-31T08:51:18Z</time>
      </trkpt>
      <trkpt lat="43.83158" lon="4.1614">
        <ele>161.8</ele>
        <time>2015-05-31T08:51:28Z</time>
      </trkpt>
      <trkpt lat="43.83156" lon="4.16127">
        <ele>161.9</ele>
        <time>2015-05-31T08:51:33Z</time>
      </trkpt>
      <trkpt lat="43.83157" lon="4.16113">
        <ele>161.9</ele>
        <time>2015-05-31T08:51:38Z</time>
      </trkpt>
      <trkpt lat="43.83162" lon="4.16099">
        <ele>161.7</ele>
        <time>2015-05-31T08:51:44Z</time>
      </trkpt>
      <trkpt lat="43.83161" lon="4.16084">
        <ele>161.3</ele>
        <time>2015-05-31T08:51:48Z</time>
      </trkpt>
      <trkpt lat="43.83159" lon="4.16071">
        <ele>160.9</ele>
        <time>2015-05-31T08:51:53Z</time>
      </trkpt>
      <trkpt lat="43.8315" lon="4.16065">
        <ele>160.3</ele>
        <time>2015-05-31T08:52:04Z</time>
      </trkpt>
      <trkpt lat="43.8314" lon="4.16063">
        <ele>160.5</ele>
        <time>2015-05-31T08:52:09Z</time>
      </trkpt>
      <trkpt lat="43.83131" lon="4.16063">
        <ele>160.9</ele>
        <time>2015-05-31T08:52:15Z</time>
      </trkpt>
      <trkpt lat="43.83122" lon="4.16071">
        <ele>161.3</ele>
        <time>2015-05-31T08:52:21Z</time>
      </trkpt>
      <trkpt lat="43.83115" lon="4.1608">
        <ele>161.9</ele>
        <time>2015-05-31T08:52:26Z</time>
      </trkpt>
      <trkpt lat="43.83109" lon="4.1609">
        <ele>162.4</ele>
        <time>2015-05-31T08:52:31Z</time>
      </trkpt>
      <trkpt lat="43.83105" lon="4.16101">
        <ele>163.6</ele>
        <time>2015-05-31T08:52:47Z</time>
      </trkpt>
      <trkpt lat="43.83103" lon="4.16114">
        <ele>165.2</ele>
        <time>2015-05-31T08:53:34Z</time>
      </trkpt>
      <trkpt lat="43.83095" lon="4.1612">
        <ele>166</ele>
        <time>2015-05-31T08:53:48Z</time>
      </trkpt>
      <trkpt lat="43.83088" lon="4.16129">
        <ele>167</ele>
        <time>2015-05-31T08:53:59Z</time>
      </trkpt>
      <trkpt lat="43.8308" lon="4.16137">
        <ele>168.5</ele>
        <time>2015-05-31T08:54:10Z</time>
      </trkpt>
      <trkpt lat="43.83072" lon="4.16131">
        <ele>169.9</ele>
        <time>2015-05-31T08:54:23Z</time>
      </trkpt>
      <trkpt lat="43.83066" lon="4.16122">
        <ele>171.9</ele>
        <time>2015-05-31T08:54:43Z</time>
      </trkpt>
      <trkpt lat="43.83057" lon="4.16115">
        <ele>172.5</ele>
        <time>2015-05-31T08:54:50Z</time>
      </trkpt>
      <trkpt lat="43.83053" lon="4.16103">
        <ele>172.8</ele>
        <time>2015-05-31T08:54:54Z</time>
      </trkpt>
      <trkpt lat="43.83047" lon="4.16092">
        <ele>173</ele>
        <time>2015-05-31T08:54:58Z</time>
      </trkpt>
      <trkpt lat="43.83041" lon="4.1608">
        <ele>173.3</ele>
        <time>2015-05-31T08:55:04Z</time>
      </trkpt>
      <trkpt lat="43.83033" lon="4.16073">
        <ele>173.2</ele>
        <time>2015-05-31T08:55:09Z</time>
      </trkpt>
      <trkpt lat="43.83028" lon="4.1606">
        <ele>173.1</ele>
        <time>2015-05-31T08:55:13Z</time>
      </trkpt>
      <trkpt lat="43.83025" lon="4.16046">
        <ele>173.1</ele>
        <time>2015-05-31T08:55:18Z</time>
      </trkpt>
      <trkpt lat="43.83017" lon="4.16039">
        <ele>173</ele>
        <time>2015-05-31T08:55:24Z</time>
      </trkpt>
      <trkpt lat="43.8301" lon="4.16029">
        <ele>173.1</ele>
        <time>2015-05-31T08:55:29Z</time>
      </trkpt>
      <trkpt lat="43.83002" lon="4.16018">
        <ele>173.5</ele>
        <time>2015-05-31T08:55:34Z</time>
      </trkpt>
      <trkpt lat="43.82998" lon="4.16007">
        <ele>173.8</ele>
        <time>2015-05-31T08:55:38Z</time>
      </trkpt>
      <trkpt lat="43.82996" lon="4.15994">
        <ele>174.1</ele>
        <time>2015-05-31T08:55:42Z</time>
      </trkpt>
      <trkpt lat="43.82998" lon="4.15981">
        <ele>174.5</ele>
        <time>2015-05-31T08:55:47Z</time>
      </trkpt>
      <trkpt lat="43.82996" lon="4.15967">
        <ele>174.9</ele>
        <time>2015-05-31T08:55:55Z</time>
      </trkpt>
      <trkpt lat="43.82991" lon="4.15955">
        <ele>175.1</ele>
        <time>2015-05-31T08:56:00Z</time>
      </trkpt>
      <trkpt lat="43.82985" lon="4.15943">
        <ele>175.2</ele>
        <time>2015-05-31T08:56:04Z</time>
      </trkpt>
      <trkpt lat="43.8298" lon="4.15928">
        <ele>175.5</ele>
        <time>2015-05-31T08:56:08Z</time>
      </trkpt>
      <trkpt lat="43.82975" lon="4.15916">
        <ele>175.6</ele>
        <time>2015-05-31T08:56:11Z</time>
      </trkpt>
      <trkpt lat="43.8297" lon="4.15903">
        <ele>175.8</ele>
        <time>2015-05-31T08:56:14Z</time>
      </trkpt>
      <trkpt lat="43.82964" lon="4.15891">
        <ele>175.9</ele>
        <time>2015-05-31T08:56:17Z</time>
      </trkpt>
      <trkpt lat="43.82958" lon="4.15878">
        <ele>176</ele>
        <time>2015-05-31T08:56:20Z</time>
      </trkpt>
      <trkpt lat="43.8295" lon="4.1587">
        <ele>176</ele>
        <time>2015-05-31T08:56:23Z</time>
      </trkpt>
      <trkpt lat="43.82939" lon="4.15865">
        <ele>175.9</ele>
        <time>2015-05-31T08:56:26Z</time>
      </trkpt>
      <trkpt lat="43.8293" lon="4.15859">
        <ele>175.9</ele>
        <time>2015-05-31T08:56:29Z</time>
      </trkpt>
      <trkpt lat="43.82927" lon="4.15847">
        <ele>175.7</ele>
        <time>2015-05-31T08:56:33Z</time>
      </trkpt>
      <trkpt lat="43.82921" lon="4.15838">
        <ele>175.5</ele>
        <time>2015-05-31T08:56:37Z</time>
      </trkpt>
      <trkpt lat="43.82914" lon="4.15829">
        <ele>175.3</ele>
        <time>2015-05-31T08:56:41Z</time>
      </trkpt>
      <trkpt lat="43.82906" lon="4.15821">
        <ele>175.2</ele>
        <time>2015-05-31T08:56:45Z</time>
      </trkpt>
      <trkpt lat="43.82902" lon="4.15809">
        <ele>175</ele>
        <time>2015-05-31T08:56:49Z</time>
      </trkpt>
      <trkpt lat="43.82897" lon="4.15797">
        <ele>174.7</ele>
        <time>2015-05-31T08:56:53Z</time>
      </trkpt>
      <trkpt lat="43.82901" lon="4.15785">
        <ele>174.4</ele>
        <time>2015-05-31T08:56:58Z</time>
      </trkpt>
      <trkpt lat="43.82911" lon="4.15785">
        <ele>174</ele>
        <time>2015-05-31T08:57:10Z</time>
      </trkpt>
      <trkpt lat="43.82919" lon="4.15779">
        <ele>174.7</ele>
        <time>2015-05-31T08:57:18Z</time>
      </trkpt>
      <trkpt lat="43.82915" lon="4.15768">
        <ele>175.1</ele>
        <time>2015-05-31T08:57:25Z</time>
      </trkpt>
      <trkpt lat="43.82914" lon="4.15755">
        <ele>174.6</ele>
        <time>2015-05-31T08:57:33Z</time>
      </trkpt>
      <trkpt lat="43.82924" lon="4.15755">
        <ele>173.7</ele>
        <time>2015-05-31T08:57:40Z</time>
      </trkpt>
      <trkpt lat="43.82934" lon="4.15752">
        <ele>173</ele>
        <time>2015-05-31T08:57:48Z</time>
      </trkpt>
      <trkpt lat="43.82933" lon="4.15739">
        <ele>171.8</ele>
        <time>2015-05-31T08:58:03Z</time>
      </trkpt>
      <trkpt lat="43.82935" lon="4.15725">
        <ele>169.7</ele>
        <time>2015-05-31T08:58:20Z</time>
      </trkpt>
      <trkpt lat="43.82938" lon="4.15712">
        <ele>168.4</ele>
        <time>2015-05-31T08:58:28Z</time>
      </trkpt>
      <trkpt lat="43.82937" lon="4.15698">
        <ele>166</ele>
        <time>2015-05-31T08:58:37Z</time>
      </trkpt>
      <trkpt lat="43.82946" lon="4.15693">
        <ele>164.3</ele>
        <time>2015-05-31T08:58:43Z</time>
      </trkpt>
      <trkpt lat="43.82956" lon="4.15693">
        <ele>163</ele>
        <time>2015-05-31T08:58:48Z</time>
      </trkpt>
      <trkpt lat="43.8296" lon="4.1568">
        <ele>161.2</ele>
        <time>2015-05-31T08:58:55Z</time>
      </trkpt>
      <trkpt lat="43.82969" lon="4.15675">
        <ele>156.5</ele>
        <time>2015-05-31T08:59:18Z</time>
      </trkpt>
      <trkpt lat="43.82977" lon="4.1567">
        <ele>153.3</ele>
        <time>2015-05-31T08:59:42Z</time>
      </trkpt>
      <trkpt lat="43.82982" lon="4.15657">
        <ele>152.5</ele>
        <time>2015-05-31T08:59:48Z</time>
      </trkpt>
      <trkpt lat="43.82983" lon="4.15643">
        <ele>151</ele>
        <time>2015-05-31T08:59:54Z</time>
      </trkpt>
      <trkpt lat="43.82986" lon="4.1563">
        <ele>149.3</ele>
        <time>2015-05-31T09:00:00Z</time>
      </trkpt>
      <trkpt lat="43.82991" lon="4.15619">
        <ele>147.7</ele>
        <time>2015-05-31T09:00:05Z</time>
      </trkpt>
      <trkpt lat="43.82992" lon="4.15606">
        <ele>146.5</ele>
        <time>2015-05-31T09:00:09Z</time>
      </trkpt>
      <trkpt lat="43.82987" lon="4.15593">
        <ele>144.7</ele>
        <time>2015-05-31T09:00:15Z</time>
      </trkpt>
      <trkpt lat="43.82987" lon="4.15577">
        <ele>143.9</ele>
        <time>2015-05-31T09:00:18Z</time>
      </trkpt>
      <trkpt lat="43.8298" lon="4.15567">
        <ele>143.2</ele>
        <time>2015-05-31T09:00:22Z</time>
      </trkpt>
      <trkpt lat="43.82971" lon="4.15565">
        <ele>142.3</ele>
        <time>2015-05-31T09:00:27Z</time>
      </trkpt>
      <trkpt lat="43.82961" lon="4.15566">
        <ele>141.8</ele>
        <time>2015-05-31T09:00:32Z</time>
      </trkpt>
      <trkpt lat="43.82952" lon="4.15571">
        <ele>141.6</ele>
        <time>2015-05-31T09:00:37Z</time>
      </trkpt>
      <trkpt lat="43.82941" lon="4.15567">
        <ele>141.7</ele>
        <time>2015-05-31T09:00:41Z</time>
      </trkpt>
      <trkpt lat="43.8293" lon="4.15564">
        <ele>141.8</ele>
        <time>2015-05-31T09:00:45Z</time>
      </trkpt>
      <trkpt lat="43.82921" lon="4.15553">
        <ele>141.8</ele>
        <time>2015-05-31T09:00:49Z</time>
      </trkpt>
      <trkpt lat="43.82917" lon="4.15542">
        <ele>141.9</ele>
        <time>2015-05-31T09:00:52Z</time>
      </trkpt>
      <trkpt lat="43.82913" lon="4.15528">
        <ele>142</ele>
        <time>2015-05-31T09:00:55Z</time>
      </trkpt>
      <trkpt lat="43.82911" lon="4.1551">
        <ele>141.8</ele>
        <time>2015-05-31T09:00:58Z</time>
      </trkpt>
      <trkpt lat="43.82908" lon="4.15495">
        <ele>141.4</ele>
        <time>2015-05-31T09:01:01Z</time>
      </trkpt>
      <trkpt lat="43.82903" lon="4.15484">
        <ele>141</ele>
        <time>2015-05-31T09:01:05Z</time>
      </trkpt>
      <trkpt lat="43.82903" lon="4.1547">
        <ele>139.9</ele>
        <time>2015-05-31T09:01:12Z</time>
      </trkpt>
      <trkpt lat="43.82895" lon="4.15462">
        <ele>139</ele>
        <time>2015-05-31T09:01:18Z</time>
      </trkpt>
      <trkpt lat="43.82895" lon="4.15449">
        <ele>138.2</ele>
        <time>2015-05-31T09:01:23Z</time>
      </trkpt>
      <trkpt lat="43.82905" lon="4.15452">
        <ele>137.2</ele>
        <time>2015-05-31T09:01:29Z</time>
      </trkpt>
      <trkpt lat="43.82914" lon="4.15459">
        <ele>136.5</ele>
        <time>2015-05-31T09:01:35Z</time>
      </trkpt>
      <trkpt lat="43.82923" lon="4.15463">
        <ele>136.1</ele>
        <time>2015-05-31T09:01:40Z</time>
      </trkpt>
      <trkpt lat="43.82932" lon="4.15473">
        <ele>135.8</ele>
        <time>2015-05-31T09:01:45Z</time>
      </trkpt>
      <trkpt lat="43.82938" lon="4.15483">
        <ele>135.6</ele>
        <time>2015-05-31T09:01:49Z</time>
      </trkpt>
      <trkpt lat="43.82945" lon="4.15495">
        <ele>135.4</ele>
        <time>2015-05-31T09:01:54Z</time>
      </trkpt>
      <trkpt lat="43.82953" lon="4.15501">
        <ele>135.9</ele>
        <time>2015-05-31T09:02:26Z</time>
      </trkpt>
      <trkpt lat="43.82985" lon="4.15522">
        <ele>135</ele>
        <time>2015-05-31T09:02:44Z</time>
      </trkpt>
      <trkpt lat="43.83001" lon="4.15537">
        <ele>136</ele>
        <time>2015-05-31T09:02:49Z</time>
      </trkpt>
      <trkpt lat="43.83011" lon="4.15541">
        <ele>136.1</ele>
        <time>2015-05-31T09:02:53Z</time>
      </trkpt>
      <trkpt lat="43.8302" lon="4.15537">
        <ele>136.4</ele>
        <time>2015-05-31T09:02:57Z</time>
      </trkpt>
      <trkpt lat="43.83025" lon="4.15525">
        <ele>136.9</ele>
        <time>2015-05-31T09:03:02Z</time>
      </trkpt>
      <trkpt lat="43.83028" lon="4.1551">
        <ele>137.5</ele>
        <time>2015-05-31T09:03:07Z</time>
      </trkpt>
      <trkpt lat="43.83022" lon="4.15495">
        <ele>138</ele>
        <time>2015-05-31T09:03:11Z</time>
      </trkpt>
      <trkpt lat="43.83014" lon="4.15483">
        <ele>138.3</ele>
        <time>2015-05-31T09:03:14Z</time>
      </trkpt>
      <trkpt lat="43.83008" lon="4.15468">
        <ele>138.6</ele>
        <time>2015-05-31T09:03:17Z</time>
      </trkpt>
      <trkpt lat="43.83" lon="4.15455">
        <ele>138.8</ele>
        <time>2015-05-31T09:03:20Z</time>
      </trkpt>
      <trkpt lat="43.82994" lon="4.15444">
        <ele>139</ele>
        <time>2015-05-31T09:03:23Z</time>
      </trkpt>
      <trkpt lat="43.82989" lon="4.15432">
        <ele>139.1</ele>
        <time>2015-05-31T09:03:26Z</time>
      </trkpt>
      <trkpt lat="43.82984" lon="4.15419">
        <ele>139.1</ele>
        <time>2015-05-31T09:03:30Z</time>
      </trkpt>
      <trkpt lat="43.8298" lon="4.15407">
        <ele>139.2</ele>
        <time>2015-05-31T09:03:34Z</time>
      </trkpt>
      <trkpt lat="43.82974" lon="4.15394">
        <ele>139.5</ele>
        <time>2015-05-31T09:03:38Z</time>
      </trkpt>
      <trkpt lat="43.82969" lon="4.15382">
        <ele>139.7</ele>
        <time>2015-05-31T09:03:41Z</time>
      </trkpt>
      <trkpt lat="43.82968" lon="4.15366">
        <ele>139.9</ele>
        <time>2015-05-31T09:03:44Z</time>
      </trkpt>
      <trkpt lat="43.82966" lon="4.15351">
        <ele>140</ele>
        <time>2015-05-31T09:03:47Z</time>
      </trkpt>
      <trkpt lat="43.82958" lon="4.15337">
        <ele>140.2</ele>
        <time>2015-05-31T09:03:50Z</time>
      </trkpt>
      <trkpt lat="43.8295" lon="4.15327">
        <ele>140.1</ele>
        <time>2015-05-31T09:03:53Z</time>
      </trkpt>
      <trkpt lat="43.82941" lon="4.15322">
        <ele>140</ele>
        <time>2015-05-31T09:03:55Z</time>
      </trkpt>
      <trkpt lat="43.82931" lon="4.15319">
        <ele>139.8</ele>
        <time>2015-05-31T09:03:57Z</time>
      </trkpt>
      <trkpt lat="43.82919" lon="4.15318">
        <ele>139.5</ele>
        <time>2015-05-31T09:03:59Z</time>
      </trkpt>
      <trkpt lat="43.82906" lon="4.15316">
        <ele>139.2</ele>
        <time>2015-05-31T09:04:01Z</time>
      </trkpt>
      <trkpt lat="43.82894" lon="4.15312">
        <ele>138.9</ele>
        <time>2015-05-31T09:04:03Z</time>
      </trkpt>
      <trkpt lat="43.82883" lon="4.15309">
        <ele>138.4</ele>
        <time>2015-05-31T09:04:05Z</time>
      </trkpt>
      <trkpt lat="43.82872" lon="4.1531">
        <ele>137.8</ele>
        <time>2015-05-31T09:04:08Z</time>
      </trkpt>
      <trkpt lat="43.82861" lon="4.15314">
        <ele>137</ele>
        <time>2015-05-31T09:04:12Z</time>
      </trkpt>
      <trkpt lat="43.82847" lon="4.15313">
        <ele>136.3</ele>
        <time>2015-05-31T09:04:15Z</time>
      </trkpt>
      <trkpt lat="43.82836" lon="4.15308">
        <ele>136</ele>
        <time>2015-05-31T09:04:17Z</time>
      </trkpt>
      <trkpt lat="43.82825" lon="4.153">
        <ele>135.6</ele>
        <time>2015-05-31T09:04:19Z</time>
      </trkpt>
      <trkpt lat="43.82815" lon="4.1529">
        <ele>135.2</ele>
        <time>2015-05-31T09:04:21Z</time>
      </trkpt>
      <trkpt lat="43.82805" lon="4.1528">
        <ele>134.7</ele>
        <time>2015-05-31T09:04:23Z</time>
      </trkpt>
      <trkpt lat="43.82795" lon="4.15271">
        <ele>134.3</ele>
        <time>2015-05-31T09:04:25Z</time>
      </trkpt>
      <trkpt lat="43.82785" lon="4.15262">
        <ele>133.8</ele>
        <time>2015-05-31T09:04:27Z</time>
      </trkpt>
      <trkpt lat="43.82775" lon="4.15253">
        <ele>133.3</ele>
        <time>2015-05-31T09:04:29Z</time>
      </trkpt>
      <trkpt lat="43.82765" lon="4.15244">
        <ele>132.9</ele>
        <time>2015-05-31T09:04:31Z</time>
      </trkpt>
      <trkpt lat="43.82754" lon="4.15233">
        <ele>132.5</ele>
        <time>2015-05-31T09:04:33Z</time>
      </trkpt>
      <trkpt lat="43.82743" lon="4.15224">
        <ele>132</ele>
        <time>2015-05-31T09:04:35Z</time>
      </trkpt>
      <trkpt lat="43.82731" lon="4.15215">
        <ele>131.5</ele>
        <time>2015-05-31T09:04:37Z</time>
      </trkpt>
      <trkpt lat="43.82719" lon="4.15206">
        <ele>131</ele>
        <time>2015-05-31T09:04:39Z</time>
      </trkpt>
      <trkpt lat="43.82706" lon="4.15198">
        <ele>130.5</ele>
        <time>2015-05-31T09:04:41Z</time>
      </trkpt>
      <trkpt lat="43.82694" lon="4.15189">
        <ele>130</ele>
        <time>2015-05-31T09:04:43Z</time>
      </trkpt>
      <trkpt lat="43.82681" lon="4.15179">
        <ele>129.5</ele>
        <time>2015-05-31T09:04:45Z</time>
      </trkpt>
      <trkpt lat="43.8267" lon="4.15169">
        <ele>129</ele>
        <time>2015-05-31T09:04:47Z</time>
      </trkpt>
      <trkpt lat="43.8266" lon="4.15161">
        <ele>128.4</ele>
        <time>2015-05-31T09:04:49Z</time>
      </trkpt>
      <trkpt lat="43.82652" lon="4.15154">
        <ele>127.8</ele>
        <time>2015-05-31T09:04:51Z</time>
      </trkpt>
      <trkpt lat="43.8264" lon="4.15143">
        <ele>127</ele>
        <time>2015-05-31T09:04:54Z</time>
      </trkpt>
      <trkpt lat="43.82632" lon="4.15132">
        <ele>126.5</ele>
        <time>2015-05-31T09:04:56Z</time>
      </trkpt>
      <trkpt lat="43.82624" lon="4.15119">
        <ele>125.9</ele>
        <time>2015-05-31T09:04:58Z</time>
      </trkpt>
      <trkpt lat="43.82616" lon="4.15106">
        <ele>125.4</ele>
        <time>2015-05-31T09:05:00Z</time>
      </trkpt>
      <trkpt lat="43.8261" lon="4.15094">
        <ele>124.9</ele>
        <time>2015-05-31T09:05:02Z</time>
      </trkpt>
      <trkpt lat="43.82599" lon="4.15096">
        <ele>124.2</ele>
        <time>2015-05-31T09:05:05Z</time>
      </trkpt>
      <trkpt lat="43.82596" lon="4.1511">
        <ele>123.7</ele>
        <time>2015-05-31T09:05:07Z</time>
      </trkpt>
      <trkpt lat="43.82593" lon="4.15122">
        <ele>123.3</ele>
        <time>2015-05-31T09:05:09Z</time>
      </trkpt>
      <trkpt lat="43.82588" lon="4.15133">
        <ele>122.8</ele>
        <time>2015-05-31T09:05:11Z</time>
      </trkpt>
      <trkpt lat="43.82582" lon="4.15143">
        <ele>122.4</ele>
        <time>2015-05-31T09:05:13Z</time>
      </trkpt>
      <trkpt lat="43.82577" lon="4.15153">
        <ele>122.1</ele>
        <time>2015-05-31T09:05:15Z</time>
      </trkpt>
      <trkpt lat="43.8257" lon="4.15168">
        <ele>121.6</ele>
        <time>2015-05-31T09:05:18Z</time>
      </trkpt>
      <trkpt lat="43.82565" lon="4.15182">
        <ele>121.2</ele>
        <time>2015-05-31T09:05:21Z</time>
      </trkpt>
      <trkpt lat="43.8256" lon="4.15198">
        <ele>121</ele>
        <time>2015-05-31T09:05:24Z</time>
      </trkpt>
      <trkpt lat="43.82553" lon="4.15213">
        <ele>120.8</ele>
        <time>2015-05-31T09:05:27Z</time>
      </trkpt>
      <trkpt lat="43.82544" lon="4.15216">
        <ele>120.6</ele>
        <time>2015-05-31T09:05:30Z</time>
      </trkpt>
      <trkpt lat="43.82532" lon="4.15208">
        <ele>120.4</ele>
        <time>2015-05-31T09:05:33Z</time>
      </trkpt>
      <trkpt lat="43.82524" lon="4.15203">
        <ele>120.3</ele>
        <time>2015-05-31T09:05:35Z</time>
      </trkpt>
      <trkpt lat="43.82515" lon="4.15195">
        <ele>120.3</ele>
        <time>2015-05-31T09:05:37Z</time>
      </trkpt>
      <trkpt lat="43.82507" lon="4.15185">
        <ele>120.2</ele>
        <time>2015-05-31T09:05:39Z</time>
      </trkpt>
      <trkpt lat="43.82501" lon="4.15171">
        <ele>120.1</ele>
        <time>2015-05-31T09:05:41Z</time>
      </trkpt>
      <trkpt lat="43.82496" lon="4.15157">
        <ele>120.1</ele>
        <time>2015-05-31T09:05:43Z</time>
      </trkpt>
      <trkpt lat="43.82493" lon="4.15142">
        <ele>119.9</ele>
        <time>2015-05-31T09:05:45Z</time>
      </trkpt>
      <trkpt lat="43.82489" lon="4.15128">
        <ele>119.8</ele>
        <time>2015-05-31T09:05:47Z</time>
      </trkpt>
      <trkpt lat="43.82485" lon="4.15114">
        <ele>119.7</ele>
        <time>2015-05-31T09:05:49Z</time>
      </trkpt>
      <trkpt lat="43.8248" lon="4.15102">
        <ele>119.6</ele>
        <time>2015-05-31T09:05:51Z</time>
      </trkpt>
      <trkpt lat="43.82475" lon="4.15091">
        <ele>119.5</ele>
        <time>2015-05-31T09:05:53Z</time>
      </trkpt>
      <trkpt lat="43.82467" lon="4.15077">
        <ele>119.3</ele>
        <time>2015-05-31T09:05:56Z</time>
      </trkpt>
      <trkpt lat="43.82458" lon="4.15064">
        <ele>119.1</ele>
        <time>2015-05-31T09:05:59Z</time>
      </trkpt>
      <trkpt lat="43.8245" lon="4.15055">
        <ele>119</ele>
        <time>2015-05-31T09:06:01Z</time>
      </trkpt>
      <trkpt lat="43.82441" lon="4.15048">
        <ele>118.9</ele>
        <time>2015-05-31T09:06:03Z</time>
      </trkpt>
      <trkpt lat="43.82431" lon="4.15044">
        <ele>118.7</ele>
        <time>2015-05-31T09:06:05Z</time>
      </trkpt>
      <trkpt lat="43.82419" lon="4.15037">
        <ele>118.6</ele>
        <time>2015-05-31T09:06:08Z</time>
      </trkpt>
      <trkpt lat="43.82408" lon="4.15031">
        <ele>118.4</ele>
        <time>2015-05-31T09:06:11Z</time>
      </trkpt>
      <trkpt lat="43.82397" lon="4.15029">
        <ele>118.3</ele>
        <time>2015-05-31T09:06:14Z</time>
      </trkpt>
      <trkpt lat="43.82385" lon="4.15025">
        <ele>118.1</ele>
        <time>2015-05-31T09:06:17Z</time>
      </trkpt>
      <trkpt lat="43.82372" lon="4.15022">
        <ele>118.1</ele>
        <time>2015-05-31T09:06:20Z</time>
      </trkpt>
      <trkpt lat="43.82363" lon="4.15018">
        <ele>118.1</ele>
        <time>2015-05-31T09:06:22Z</time>
      </trkpt>
      <trkpt lat="43.82354" lon="4.15013">
        <ele>118</ele>
        <time>2015-05-31T09:06:24Z</time>
      </trkpt>
      <trkpt lat="43.82343" lon="4.15008">
        <ele>118</ele>
        <time>2015-05-31T09:06:27Z</time>
      </trkpt>
      <trkpt lat="43.82331" lon="4.15004">
        <ele>118</ele>
        <time>2015-05-31T09:06:30Z</time>
      </trkpt>
      <trkpt lat="43.8232" lon="4.15001">
        <ele>118</ele>
        <time>2015-05-31T09:06:33Z</time>
      </trkpt>
      <trkpt lat="43.82309" lon="4.14999">
        <ele>118</ele>
        <time>2015-05-31T09:06:36Z</time>
      </trkpt>
      <trkpt lat="43.823" lon="4.14996">
        <ele>118</ele>
        <time>2015-05-31T09:06:39Z</time>
      </trkpt>
      <trkpt lat="43.82291" lon="4.14996">
        <ele>118</ele>
        <time>2015-05-31T09:06:42Z</time>
      </trkpt>
      <trkpt lat="43.82281" lon="4.14995">
        <ele>118</ele>
        <time>2015-05-31T09:06:45Z</time>
      </trkpt>
      <trkpt lat="43.8227" lon="4.14994">
        <ele>118</ele>
        <time>2015-05-31T09:06:48Z</time>
      </trkpt>
      <trkpt lat="43.82258" lon="4.14991">
        <ele>118.1</ele>
        <time>2015-05-31T09:06:51Z</time>
      </trkpt>
      <trkpt lat="43.82245" lon="4.14989">
        <ele>118.3</ele>
        <time>2015-05-31T09:06:54Z</time>
      </trkpt>
      <trkpt lat="43.82236" lon="4.14987">
        <ele>118.4</ele>
        <time>2015-05-31T09:06:56Z</time>
      </trkpt>
      <trkpt lat="43.82223" lon="4.14984">
        <ele>118.6</ele>
        <time>2015-05-31T09:06:59Z</time>
      </trkpt>
      <trkpt lat="43.82212" lon="4.14982">
        <ele>118.7</ele>
        <time>2015-05-31T09:07:02Z</time>
      </trkpt>
      <trkpt lat="43.82202" lon="4.14981">
        <ele>118.8</ele>
        <time>2015-05-31T09:07:05Z</time>
      </trkpt>
      <trkpt lat="43.82192" lon="4.14979">
        <ele>118.9</ele>
        <time>2015-05-31T09:07:08Z</time>
      </trkpt>
      <trkpt lat="43.8218" lon="4.14976">
        <ele>119</ele>
        <time>2015-05-31T09:07:11Z</time>
      </trkpt>
      <trkpt lat="43.8217" lon="4.14973">
        <ele>119.1</ele>
        <time>2015-05-31T09:07:14Z</time>
      </trkpt>
      <trkpt lat="43.82159" lon="4.1497">
        <ele>119.1</ele>
        <time>2015-05-31T09:07:17Z</time>
      </trkpt>
      <trkpt lat="43.8215" lon="4.14967">
        <ele>119.2</ele>
        <time>2015-05-31T09:07:19Z</time>
      </trkpt>
      <trkpt lat="43.82138" lon="4.14961">
        <ele>119.2</ele>
        <time>2015-05-31T09:07:22Z</time>
      </trkpt>
      <trkpt lat="43.8213" lon="4.14949">
        <ele>119.3</ele>
        <time>2015-05-31T09:07:25Z</time>
      </trkpt>
      <trkpt lat="43.82129" lon="4.14933">
        <ele>119.1</ele>
        <time>2015-05-31T09:07:28Z</time>
      </trkpt>
      <trkpt lat="43.82129" lon="4.14917">
        <ele>118.9</ele>
        <time>2015-05-31T09:07:31Z</time>
      </trkpt>
      <trkpt lat="43.82129" lon="4.14903">
        <ele>118.5</ele>
        <time>2015-05-31T09:07:34Z</time>
      </trkpt>
      <trkpt lat="43.8212" lon="4.14891">
        <ele>118</ele>
        <time>2015-05-31T09:07:37Z</time>
      </trkpt>
      <trkpt lat="43.82109" lon="4.14882">
        <ele>117.4</ele>
        <time>2015-05-31T09:07:40Z</time>
      </trkpt>
      <trkpt lat="43.82096" lon="4.14875">
        <ele>116.8</ele>
        <time>2015-05-31T09:07:43Z</time>
      </trkpt>
      <trkpt lat="43.82088" lon="4.1487">
        <ele>116.4</ele>
        <time>2015-05-31T09:07:45Z</time>
      </trkpt>
      <trkpt lat="43.8208" lon="4.14864">
        <ele>116</ele>
        <time>2015-05-31T09:07:47Z</time>
      </trkpt>
      <trkpt lat="43.82071" lon="4.14861">
        <ele>115.7</ele>
        <time>2015-05-31T09:07:49Z</time>
      </trkpt>
      <trkpt lat="43.82061" lon="4.14857">
        <ele>115.3</ele>
        <time>2015-05-31T09:07:51Z</time>
      </trkpt>
      <trkpt lat="43.82052" lon="4.14854">
        <ele>115</ele>
        <time>2015-05-31T09:07:53Z</time>
      </trkpt>
      <trkpt lat="43.82039" lon="4.14851">
        <ele>114.4</ele>
        <time>2015-05-31T09:07:56Z</time>
      </trkpt>
      <trkpt lat="43.82027" lon="4.14845">
        <ele>113.8</ele>
        <time>2015-05-31T09:07:59Z</time>
      </trkpt>
      <trkpt lat="43.82016" lon="4.1484">
        <ele>113.3</ele>
        <time>2015-05-31T09:08:02Z</time>
      </trkpt>
      <trkpt lat="43.82005" lon="4.14835">
        <ele>112.9</ele>
        <time>2015-05-31T09:08:05Z</time>
      </trkpt>
      <trkpt lat="43.81996" lon="4.14832">
        <ele>112.7</ele>
        <time>2015-05-31T09:08:07Z</time>
      </trkpt>
      <trkpt lat="43.81983" lon="4.1483">
        <ele>112.3</ele>
        <time>2015-05-31T09:08:10Z</time>
      </trkpt>
      <trkpt lat="43.81973" lon="4.14831">
        <ele>112.1</ele>
        <time>2015-05-31T09:08:12Z</time>
      </trkpt>
      <trkpt lat="43.81963" lon="4.14832">
        <ele>111.8</ele>
        <time>2015-05-31T09:08:14Z</time>
      </trkpt>
      <trkpt lat="43.81951" lon="4.14831">
        <ele>111.4</ele>
        <time>2015-05-31T09:08:17Z</time>
      </trkpt>
      <trkpt lat="43.8194" lon="4.14832">
        <ele>110.9</ele>
        <time>2015-05-31T09:08:20Z</time>
      </trkpt>
      <trkpt lat="43.8193" lon="4.14834">
        <ele>110.3</ele>
        <time>2015-05-31T09:08:23Z</time>
      </trkpt>
      <trkpt lat="43.81918" lon="4.1483">
        <ele>109.8</ele>
        <time>2015-05-31T09:08:26Z</time>
      </trkpt>
      <trkpt lat="43.8191" lon="4.1482">
        <ele>109.3</ele>
        <time>2015-05-31T09:08:29Z</time>
      </trkpt>
      <trkpt lat="43.81903" lon="4.14807">
        <ele>108.7</ele>
        <time>2015-05-31T09:08:32Z</time>
      </trkpt>
      <trkpt lat="43.81898" lon="4.14794">
        <ele>108.2</ele>
        <time>2015-05-31T09:08:35Z</time>
      </trkpt>
      <trkpt lat="43.81893" lon="4.14781">
        <ele>107.8</ele>
        <time>2015-05-31T09:08:38Z</time>
      </trkpt>
      <trkpt lat="43.81886" lon="4.14769">
        <ele>107.2</ele>
        <time>2015-05-31T09:08:42Z</time>
      </trkpt>
      <trkpt lat="43.81883" lon="4.14755">
        <ele>106.5</ele>
        <time>2015-05-31T09:08:47Z</time>
      </trkpt>
      <trkpt lat="43.81891" lon="4.14747">
        <ele>106.1</ele>
        <time>2015-05-31T09:08:51Z</time>
      </trkpt>
      <trkpt lat="43.819" lon="4.14738">
        <ele>105.8</ele>
        <time>2015-05-31T09:08:55Z</time>
      </trkpt>
      <trkpt lat="43.81908" lon="4.14731">
        <ele>105.5</ele>
        <time>2015-05-31T09:08:59Z</time>
      </trkpt>
      <trkpt lat="43.81915" lon="4.14717">
        <ele>105.3</ele>
        <time>2015-05-31T09:09:03Z</time>
      </trkpt>
      <trkpt lat="43.8192" lon="4.14706">
        <ele>105.1</ele>
        <time>2015-05-31T09:09:06Z</time>
      </trkpt>
      <trkpt lat="43.81925" lon="4.14692">
        <ele>105</ele>
        <time>2015-05-31T09:09:10Z</time>
      </trkpt>
      <trkpt lat="43.81928" lon="4.1468">
        <ele>104.9</ele>
        <time>2015-05-31T09:09:13Z</time>
      </trkpt>
      <trkpt lat="43.81925" lon="4.14665">
        <ele>104.8</ele>
        <time>2015-05-31T09:09:17Z</time>
      </trkpt>
      <trkpt lat="43.81916" lon="4.1466">
        <ele>104.7</ele>
        <time>2015-05-31T09:09:20Z</time>
      </trkpt>
      <trkpt lat="43.81905" lon="4.14652">
        <ele>104.7</ele>
        <time>2015-05-31T09:09:24Z</time>
      </trkpt>
      <trkpt lat="43.81898" lon="4.14639">
        <ele>104.6</ele>
        <time>2015-05-31T09:09:27Z</time>
      </trkpt>
      <trkpt lat="43.81891" lon="4.14629">
        <ele>104.4</ele>
        <time>2015-05-31T09:09:30Z</time>
      </trkpt>
      <trkpt lat="43.8188" lon="4.14625">
        <ele>104.3</ele>
        <time>2015-05-31T09:09:33Z</time>
      </trkpt>
      <trkpt lat="43.81867" lon="4.14626">
        <ele>104.1</ele>
        <time>2015-05-31T09:09:36Z</time>
      </trkpt>
      <trkpt lat="43.81856" lon="4.14627">
        <ele>103.8</ele>
        <time>2015-05-31T09:09:39Z</time>
      </trkpt>
      <trkpt lat="43.81843" lon="4.14631">
        <ele>103.6</ele>
        <time>2015-05-31T09:09:42Z</time>
      </trkpt>
      <trkpt lat="43.81834" lon="4.14634">
        <ele>103.4</ele>
        <time>2015-05-31T09:09:44Z</time>
      </trkpt>
      <trkpt lat="43.81821" lon="4.14638">
        <ele>103.3</ele>
        <time>2015-05-31T09:09:47Z</time>
      </trkpt>
      <trkpt lat="43.81809" lon="4.1464">
        <ele>103</ele>
        <time>2015-05-31T09:09:50Z</time>
      </trkpt>
      <trkpt lat="43.81799" lon="4.14639">
        <ele>102.9</ele>
        <time>2015-05-31T09:09:52Z</time>
      </trkpt>
      <trkpt lat="43.81788" lon="4.1464">
        <ele>102.7</ele>
        <time>2015-05-31T09:09:54Z</time>
      </trkpt>
      <trkpt lat="43.81779" lon="4.14639">
        <ele>102.6</ele>
        <time>2015-05-31T09:09:56Z</time>
      </trkpt>
      <trkpt lat="43.81769" lon="4.14633">
        <ele>102.5</ele>
        <time>2015-05-31T09:09:58Z</time>
      </trkpt>
      <trkpt lat="43.81761" lon="4.14626">
        <ele>102.3</ele>
        <time>2015-05-31T09:10:00Z</time>
      </trkpt>
      <trkpt lat="43.81753" lon="4.14612">
        <ele>102</ele>
        <time>2015-05-31T09:10:03Z</time>
      </trkpt>
      <trkpt lat="43.81748" lon="4.14596">
        <ele>101.8</ele>
        <time>2015-05-31T09:10:06Z</time>
      </trkpt>
      <trkpt lat="43.81744" lon="4.14579">
        <ele>101.6</ele>
        <time>2015-05-31T09:10:09Z</time>
      </trkpt>
      <trkpt lat="43.81738" lon="4.14563">
        <ele>101.5</ele>
        <time>2015-05-31T09:10:12Z</time>
      </trkpt>
      <trkpt lat="43.81733" lon="4.14548">
        <ele>101.4</ele>
        <time>2015-05-31T09:10:15Z</time>
      </trkpt>
      <trkpt lat="43.81728" lon="4.14534">
        <ele>101.3</ele>
        <time>2015-05-31T09:10:18Z</time>
      </trkpt>
      <trkpt lat="43.81722" lon="4.14519">
        <ele>101.2</ele>
        <time>2015-05-31T09:10:21Z</time>
      </trkpt>
      <trkpt lat="43.81715" lon="4.14506">
        <ele>101.2</ele>
        <time>2015-05-31T09:10:24Z</time>
      </trkpt>
      <trkpt lat="43.81708" lon="4.14494">
        <ele>101.2</ele>
        <time>2015-05-31T09:10:27Z</time>
      </trkpt>
      <trkpt lat="43.81701" lon="4.14483">
        <ele>101.3</ele>
        <time>2015-05-31T09:10:30Z</time>
      </trkpt>
      <trkpt lat="43.81694" lon="4.14473">
        <ele>101.4</ele>
        <time>2015-05-31T09:10:33Z</time>
      </trkpt>
      <trkpt lat="43.81688" lon="4.14463">
        <ele>101.6</ele>
        <time>2015-05-31T09:10:37Z</time>
      </trkpt>
      <trkpt lat="43.81677" lon="4.14459">
        <ele>101.8</ele>
        <time>2015-05-31T09:10:42Z</time>
      </trkpt>
      <trkpt lat="43.81666" lon="4.14463">
        <ele>101.9</ele>
        <time>2015-05-31T09:10:46Z</time>
      </trkpt>
      <trkpt lat="43.81656" lon="4.14464">
        <ele>102.1</ele>
        <time>2015-05-31T09:10:50Z</time>
      </trkpt>
      <trkpt lat="43.81646" lon="4.14466">
        <ele>102.3</ele>
        <time>2015-05-31T09:10:54Z</time>
      </trkpt>
      <trkpt lat="43.81637" lon="4.14468">
        <ele>102.9</ele>
        <time>2015-05-31T09:10:58Z</time>
      </trkpt>
      <trkpt lat="43.81627" lon="4.14472">
        <ele>103.4</ele>
        <time>2015-05-31T09:11:02Z</time>
      </trkpt>
      <trkpt lat="43.81617" lon="4.14473">
        <ele>104.1</ele>
        <time>2015-05-31T09:11:07Z</time>
      </trkpt>
      <trkpt lat="43.81608" lon="4.14477">
        <ele>104.9</ele>
        <time>2015-05-31T09:11:13Z</time>
      </trkpt>
      <trkpt lat="43.816" lon="4.14487">
        <ele>106</ele>
        <time>2015-05-31T09:11:20Z</time>
      </trkpt>
      <trkpt lat="43.81597" lon="4.14501">
        <ele>107.1</ele>
        <time>2015-05-31T09:11:26Z</time>
      </trkpt>
      <trkpt lat="43.81599" lon="4.14516">
        <ele>107.8</ele>
        <time>2015-05-31T09:11:30Z</time>
      </trkpt>
      <trkpt lat="43.816" lon="4.1453">
        <ele>108.3</ele>
        <time>2015-05-31T09:11:33Z</time>
      </trkpt>
      <trkpt lat="43.816" lon="4.14545">
        <ele>108.7</ele>
        <time>2015-05-31T09:11:36Z</time>
      </trkpt>
      <trkpt lat="43.816" lon="4.14561">
        <ele>109.1</ele>
        <time>2015-05-31T09:11:39Z</time>
      </trkpt>
      <trkpt lat="43.81601" lon="4.14578">
        <ele>109.3</ele>
        <time>2015-05-31T09:11:42Z</time>
      </trkpt>
      <trkpt lat="43.81602" lon="4.14596">
        <ele>109.5</ele>
        <time>2015-05-31T09:11:45Z</time>
      </trkpt>
      <trkpt lat="43.81603" lon="4.1461">
        <ele>109.6</ele>
        <time>2015-05-31T09:11:48Z</time>
      </trkpt>
      <trkpt lat="43.81605" lon="4.14623">
        <ele>109.7</ele>
        <time>2015-05-31T09:11:51Z</time>
      </trkpt>
      <trkpt lat="43.8161" lon="4.14635">
        <ele>109.8</ele>
        <time>2015-05-31T09:11:54Z</time>
      </trkpt>
      <trkpt lat="43.8161" lon="4.14651">
        <ele>109.9</ele>
        <time>2015-05-31T09:11:57Z</time>
      </trkpt>
      <trkpt lat="43.81607" lon="4.14663">
        <ele>109.9</ele>
        <time>2015-05-31T09:11:59Z</time>
      </trkpt>
      <trkpt lat="43.81601" lon="4.14676">
        <ele>109.9</ele>
        <time>2015-05-31T09:12:02Z</time>
      </trkpt>
      <trkpt lat="43.81592" lon="4.14684">
        <ele>109.7</ele>
        <time>2015-05-31T09:12:05Z</time>
      </trkpt>
      <trkpt lat="43.81583" lon="4.14691">
        <ele>109.6</ele>
        <time>2015-05-31T09:12:08Z</time>
      </trkpt>
      <trkpt lat="43.81574" lon="4.14697">
        <ele>109.4</ele>
        <time>2015-05-31T09:12:11Z</time>
      </trkpt>
      <trkpt lat="43.81564" lon="4.14693">
        <ele>109.3</ele>
        <time>2015-05-31T09:12:18Z</time>
      </trkpt>
      <trkpt lat="43.81555" lon="4.14693">
        <ele>109.8</ele>
        <time>2015-05-31T09:12:34Z</time>
      </trkpt>
      <trkpt lat="43.81549" lon="4.14705">
        <ele>110.8</ele>
        <time>2015-05-31T09:12:55Z</time>
      </trkpt>
      <trkpt lat="43.81539" lon="4.14713">
        <ele>110.9</ele>
        <time>2015-05-31T09:12:58Z</time>
      </trkpt>
      <trkpt lat="43.81527" lon="4.14723">
        <ele>111</ele>
        <time>2015-05-31T09:13:01Z</time>
      </trkpt>
      <trkpt lat="43.81518" lon="4.14732">
        <ele>111</ele>
        <time>2015-05-31T09:13:04Z</time>
      </trkpt>
      <trkpt lat="43.81507" lon="4.14738">
        <ele>111.1</ele>
        <time>2015-05-31T09:13:07Z</time>
      </trkpt>
      <trkpt lat="43.81497" lon="4.14739">
        <ele>111.2</ele>
        <time>2015-05-31T09:13:10Z</time>
      </trkpt>
      <trkpt lat="43.81488" lon="4.14739">
        <ele>111.3</ele>
        <time>2015-05-31T09:13:13Z</time>
      </trkpt>
      <trkpt lat="43.81479" lon="4.14742">
        <ele>111.6</ele>
        <time>2015-05-31T09:13:17Z</time>
      </trkpt>
      <trkpt lat="43.81469" lon="4.14746">
        <ele>111.9</ele>
        <time>2015-05-31T09:13:21Z</time>
      </trkpt>
      <trkpt lat="43.81458" lon="4.1475">
        <ele>112.1</ele>
        <time>2015-05-31T09:13:25Z</time>
      </trkpt>
      <trkpt lat="43.81448" lon="4.14749">
        <ele>112.4</ele>
        <time>2015-05-31T09:13:29Z</time>
      </trkpt>
      <trkpt lat="43.81438" lon="4.14748">
        <ele>112.6</ele>
        <time>2015-05-31T09:13:33Z</time>
      </trkpt>
      <trkpt lat="43.81427" lon="4.14748">
        <ele>112.9</ele>
        <time>2015-05-31T09:13:37Z</time>
      </trkpt>
      <trkpt lat="43.81417" lon="4.14747">
        <ele>113.1</ele>
        <time>2015-05-31T09:13:40Z</time>
      </trkpt>
      <trkpt lat="43.81408" lon="4.14746">
        <ele>113.4</ele>
        <time>2015-05-31T09:13:44Z</time>
      </trkpt>
      <trkpt lat="43.81396" lon="4.14747">
        <ele>113.7</ele>
        <time>2015-05-31T09:13:48Z</time>
      </trkpt>
      <trkpt lat="43.81386" lon="4.14745">
        <ele>113.9</ele>
        <time>2015-05-31T09:13:51Z</time>
      </trkpt>
      <trkpt lat="43.81376" lon="4.14743">
        <ele>114.1</ele>
        <time>2015-05-31T09:13:54Z</time>
      </trkpt>
      <trkpt lat="43.81364" lon="4.14743">
        <ele>114.6</ele>
        <time>2015-05-31T09:13:58Z</time>
      </trkpt>
      <trkpt lat="43.81352" lon="4.14745">
        <ele>115</ele>
        <time>2015-05-31T09:14:01Z</time>
      </trkpt>
      <trkpt lat="43.81341" lon="4.14743">
        <ele>115.4</ele>
        <time>2015-05-31T09:14:04Z</time>
      </trkpt>
      <trkpt lat="43.8133" lon="4.14746">
        <ele>115.8</ele>
        <time>2015-05-31T09:14:08Z</time>
      </trkpt>
      <trkpt lat="43.81321" lon="4.14748">
        <ele>116.1</ele>
        <time>2015-05-31T09:14:12Z</time>
      </trkpt>
      <trkpt lat="43.81312" lon="4.14751">
        <ele>116.7</ele>
        <time>2015-05-31T09:14:19Z</time>
      </trkpt>
      <trkpt lat="43.81303" lon="4.14748">
        <ele>118.1</ele>
        <time>2015-05-31T09:14:49Z</time>
      </trkpt>
      <trkpt lat="43.81291" lon="4.1475">
        <ele>120.9</ele>
        <time>2015-05-31T09:15:11Z</time>
      </trkpt>
      <trkpt lat="43.81278" lon="4.14747">
        <ele>121</ele>
        <time>2015-05-31T09:15:13Z</time>
      </trkpt>
      <trkpt lat="43.81268" lon="4.14746">
        <ele>121.3</ele>
        <time>2015-05-31T09:15:16Z</time>
      </trkpt>
      <trkpt lat="43.81258" lon="4.14747">
        <ele>121.5</ele>
        <time>2015-05-31T09:15:19Z</time>
      </trkpt>
      <trkpt lat="43.81245" lon="4.14751">
        <ele>121.7</ele>
        <time>2015-05-31T09:15:22Z</time>
      </trkpt>
      <trkpt lat="43.81236" lon="4.14753">
        <ele>121.8</ele>
        <time>2015-05-31T09:15:24Z</time>
      </trkpt>
      <trkpt lat="43.81225" lon="4.14755">
        <ele>121.9</ele>
        <time>2015-05-31T09:15:28Z</time>
      </trkpt>
      <trkpt lat="43.81214" lon="4.14756">
        <ele>122</ele>
        <time>2015-05-31T09:15:32Z</time>
      </trkpt>
      <trkpt lat="43.81204" lon="4.14754">
        <ele>122</ele>
        <time>2015-05-31T09:15:35Z</time>
      </trkpt>
      <trkpt lat="43.81195" lon="4.1475">
        <ele>121.9</ele>
        <time>2015-05-31T09:15:38Z</time>
      </trkpt>
      <trkpt lat="43.81186" lon="4.14744">
        <ele>121.8</ele>
        <time>2015-05-31T09:15:41Z</time>
      </trkpt>
      <trkpt lat="43.81175" lon="4.14737">
        <ele>121.8</ele>
        <time>2015-05-31T09:15:44Z</time>
      </trkpt>
      <trkpt lat="43.81166" lon="4.14732">
        <ele>121.8</ele>
        <time>2015-05-31T09:15:47Z</time>
      </trkpt>
      <trkpt lat="43.81157" lon="4.14726">
        <ele>121.8</ele>
        <time>2015-05-31T09:15:51Z</time>
      </trkpt>
      <trkpt lat="43.81149" lon="4.14717">
        <ele>121.9</ele>
        <time>2015-05-31T09:15:55Z</time>
      </trkpt>
      <trkpt lat="43.81142" lon="4.14706">
        <ele>122.4</ele>
        <time>2015-05-31T09:16:00Z</time>
      </trkpt>
      <trkpt lat="43.81133" lon="4.14701">
        <ele>122.9</ele>
        <time>2015-05-31T09:16:05Z</time>
      </trkpt>
      <trkpt lat="43.81124" lon="4.14696">
        <ele>123.4</ele>
        <time>2015-05-31T09:16:09Z</time>
      </trkpt>
      <trkpt lat="43.81114" lon="4.14696">
        <ele>123.8</ele>
        <time>2015-05-31T09:16:13Z</time>
      </trkpt>
      <trkpt lat="43.81102" lon="4.14694">
        <ele>124.2</ele>
        <time>2015-05-31T09:16:17Z</time>
      </trkpt>
      <trkpt lat="43.81092" lon="4.14691">
        <ele>124.6</ele>
        <time>2015-05-31T09:16:20Z</time>
      </trkpt>
      <trkpt lat="43.81082" lon="4.14688">
        <ele>125.1</ele>
        <time>2015-05-31T09:16:24Z</time>
      </trkpt>
      <trkpt lat="43.81073" lon="4.14683">
        <ele>125.7</ele>
        <time>2015-05-31T09:16:29Z</time>
      </trkpt>
      <trkpt lat="43.81065" lon="4.14678">
        <ele>126.5</ele>
        <time>2015-05-31T09:16:35Z</time>
      </trkpt>
      <trkpt lat="43.81055" lon="4.14676">
        <ele>127.4</ele>
        <time>2015-05-31T09:16:40Z</time>
      </trkpt>
      <trkpt lat="43.81046" lon="4.14669">
        <ele>128.7</ele>
        <time>2015-05-31T09:16:47Z</time>
      </trkpt>
      <trkpt lat="43.81037" lon="4.14665">
        <ele>129.7</ele>
        <time>2015-05-31T09:16:52Z</time>
      </trkpt>
      <trkpt lat="43.81028" lon="4.14665">
        <ele>131.5</ele>
        <time>2015-05-31T09:17:06Z</time>
      </trkpt>
      <trkpt lat="43.81019" lon="4.14663">
        <ele>131.8</ele>
        <time>2015-05-31T09:17:10Z</time>
      </trkpt>
      <trkpt lat="43.81008" lon="4.1466">
        <ele>132.1</ele>
        <time>2015-05-31T09:17:14Z</time>
      </trkpt>
      <trkpt lat="43.80999" lon="4.14654">
        <ele>132.3</ele>
        <time>2015-05-31T09:17:17Z</time>
      </trkpt>
      <trkpt lat="43.80989" lon="4.14651">
        <ele>132.7</ele>
        <time>2015-05-31T09:17:21Z</time>
      </trkpt>
      <trkpt lat="43.8098" lon="4.14644">
        <ele>133</ele>
        <time>2015-05-31T09:17:25Z</time>
      </trkpt>
      <trkpt lat="43.80973" lon="4.14637">
        <ele>133.6</ele>
        <time>2015-05-31T09:17:30Z</time>
      </trkpt>
      <trkpt lat="43.80963" lon="4.14631">
        <ele>134</ele>
        <time>2015-05-31T09:17:34Z</time>
      </trkpt>
      <trkpt lat="43.80953" lon="4.14622">
        <ele>134.4</ele>
        <time>2015-05-31T09:17:38Z</time>
      </trkpt>
      <trkpt lat="43.80943" lon="4.14616">
        <ele>134.7</ele>
        <time>2015-05-31T09:17:41Z</time>
      </trkpt>
      <trkpt lat="43.80933" lon="4.14609">
        <ele>134.9</ele>
        <time>2015-05-31T09:17:44Z</time>
      </trkpt>
      <trkpt lat="43.80923" lon="4.14602">
        <ele>135.1</ele>
        <time>2015-05-31T09:17:47Z</time>
      </trkpt>
      <trkpt lat="43.80912" lon="4.14594">
        <ele>135.3</ele>
        <time>2015-05-31T09:17:50Z</time>
      </trkpt>
      <trkpt lat="43.80905" lon="4.14586">
        <ele>135.4</ele>
        <time>2015-05-31T09:17:52Z</time>
      </trkpt>
      <trkpt lat="43.80897" lon="4.14571">
        <ele>135.5</ele>
        <time>2015-05-31T09:17:55Z</time>
      </trkpt>
      <trkpt lat="43.8089" lon="4.14557">
        <ele>135.6</ele>
        <time>2015-05-31T09:17:58Z</time>
      </trkpt>
      <trkpt lat="43.80886" lon="4.14544">
        <ele>135.6</ele>
        <time>2015-05-31T09:18:01Z</time>
      </trkpt>
      <trkpt lat="43.80881" lon="4.1453">
        <ele>135.7</ele>
        <time>2015-05-31T09:18:05Z</time>
      </trkpt>
      <trkpt lat="43.80877" lon="4.14518">
        <ele>135.7</ele>
        <time>2015-05-31T09:18:08Z</time>
      </trkpt>
      <trkpt lat="43.80871" lon="4.14506">
        <ele>135.7</ele>
        <time>2015-05-31T09:18:12Z</time>
      </trkpt>
      <trkpt lat="43.8087" lon="4.14521">
        <ele>135.7</ele>
        <time>2015-05-31T09:18:17Z</time>
      </trkpt>
      <trkpt lat="43.80872" lon="4.14538">
        <ele>135.8</ele>
        <time>2015-05-31T09:18:20Z</time>
      </trkpt>
      <trkpt lat="43.80873" lon="4.14551">
        <ele>135.8</ele>
        <time>2015-05-31T09:18:22Z</time>
      </trkpt>
      <trkpt lat="43.80874" lon="4.14564">
        <ele>135.7</ele>
        <time>2015-05-31T09:18:24Z</time>
      </trkpt>
      <trkpt lat="43.80874" lon="4.14577">
        <ele>135.7</ele>
        <time>2015-05-31T09:18:26Z</time>
      </trkpt>
      <trkpt lat="43.80873" lon="4.14592">
        <ele>135.5</ele>
        <time>2015-05-31T09:18:28Z</time>
      </trkpt>
      <trkpt lat="43.80871" lon="4.14605">
        <ele>135.3</ele>
        <time>2015-05-31T09:18:30Z</time>
      </trkpt>
      <trkpt lat="43.80871" lon="4.14618">
        <ele>135</ele>
        <time>2015-05-31T09:18:32Z</time>
      </trkpt>
      <trkpt lat="43.80872" lon="4.1463">
        <ele>134.8</ele>
        <time>2015-05-31T09:18:34Z</time>
      </trkpt>
      <trkpt lat="43.80872" lon="4.14643">
        <ele>134.6</ele>
        <time>2015-05-31T09:18:36Z</time>
      </trkpt>
      <trkpt lat="43.80873" lon="4.14657">
        <ele>134.2</ele>
        <time>2015-05-31T09:18:38Z</time>
      </trkpt>
      <trkpt lat="43.80874" lon="4.14671">
        <ele>133.8</ele>
        <time>2015-05-31T09:18:40Z</time>
      </trkpt>
      <trkpt lat="43.80872" lon="4.14685">
        <ele>132.8</ele>
        <time>2015-05-31T09:18:44Z</time>
      </trkpt>
      <trkpt lat="43.80879" lon="4.14694">
        <ele>128.4</ele>
        <time>2015-05-31T09:19:15Z</time>
      </trkpt>
      <trkpt lat="43.80888" lon="4.14702">
        <ele>127.9</ele>
        <time>2015-05-31T09:19:25Z</time>
      </trkpt>
      <trkpt lat="43.80882" lon="4.14691">
        <ele>126.4</ele>
        <time>2015-05-31T09:20:35Z</time>
      </trkpt>
      <trkpt lat="43.80875" lon="4.14684">
        <ele>127.1</ele>
        <time>2015-05-31T09:20:56Z</time>
      </trkpt>
      <trkpt lat="43.80866" lon="4.1468">
        <ele>127.4</ele>
        <time>2015-05-31T09:23:01Z</time>
      </trkpt>
      <trkpt lat="43.80856" lon="4.14672">
        <ele>127.4</ele>
        <time>2015-05-31T09:23:05Z</time>
      </trkpt>
      <trkpt lat="43.80847" lon="4.14667">
        <ele>127.4</ele>
        <time>2015-05-31T09:23:08Z</time>
      </trkpt>
      <trkpt lat="43.80838" lon="4.14663">
        <ele>127.4</ele>
        <time>2015-05-31T09:23:11Z</time>
      </trkpt>
      <trkpt lat="43.80827" lon="4.1466">
        <ele>127.4</ele>
        <time>2015-05-31T09:23:14Z</time>
      </trkpt>
      <trkpt lat="43.80817" lon="4.14656">
        <ele>127.5</ele>
        <time>2015-05-31T09:23:17Z</time>
      </trkpt>
      <trkpt lat="43.80806" lon="4.14653">
        <ele>127.6</ele>
        <time>2015-05-31T09:23:20Z</time>
      </trkpt>
      <trkpt lat="43.80795" lon="4.1465">
        <ele>127.6</ele>
        <time>2015-05-31T09:23:23Z</time>
      </trkpt>
      <trkpt lat="43.80782" lon="4.14647">
        <ele>127.7</ele>
        <time>2015-05-31T09:23:26Z</time>
      </trkpt>
      <trkpt lat="43.8077" lon="4.14645">
        <ele>127.9</ele>
        <time>2015-05-31T09:23:29Z</time>
      </trkpt>
      <trkpt lat="43.80758" lon="4.14645">
        <ele>128</ele>
        <time>2015-05-31T09:23:32Z</time>
      </trkpt>
      <trkpt lat="43.80746" lon="4.14643">
        <ele>128.1</ele>
        <time>2015-05-31T09:23:35Z</time>
      </trkpt>
      <trkpt lat="43.80735" lon="4.1464">
        <ele>128.2</ele>
        <time>2015-05-31T09:23:38Z</time>
      </trkpt>
      <trkpt lat="43.80723" lon="4.14637">
        <ele>128.3</ele>
        <time>2015-05-31T09:23:41Z</time>
      </trkpt>
      <trkpt lat="43.80711" lon="4.14635">
        <ele>128.3</ele>
        <time>2015-05-31T09:23:44Z</time>
      </trkpt>
      <trkpt lat="43.807" lon="4.14631">
        <ele>128.4</ele>
        <time>2015-05-31T09:23:47Z</time>
      </trkpt>
      <trkpt lat="43.80688" lon="4.14628">
        <ele>128.5</ele>
        <time>2015-05-31T09:23:50Z</time>
      </trkpt>
      <trkpt lat="43.80676" lon="4.14626">
        <ele>128.6</ele>
        <time>2015-05-31T09:23:53Z</time>
      </trkpt>
      <trkpt lat="43.80665" lon="4.14625">
        <ele>128.7</ele>
        <time>2015-05-31T09:23:56Z</time>
      </trkpt>
      <trkpt lat="43.80654" lon="4.14623">
        <ele>128.9</ele>
        <time>2015-05-31T09:23:59Z</time>
      </trkpt>
      <trkpt lat="43.80644" lon="4.14619">
        <ele>129.1</ele>
        <time>2015-05-31T09:24:02Z</time>
      </trkpt>
      <trkpt lat="43.80633" lon="4.14615">
        <ele>129.3</ele>
        <time>2015-05-31T09:24:05Z</time>
      </trkpt>
      <trkpt lat="43.80622" lon="4.14615">
        <ele>129.5</ele>
        <time>2015-05-31T09:24:08Z</time>
      </trkpt>
      <trkpt lat="43.80612" lon="4.14615">
        <ele>129.7</ele>
        <time>2015-05-31T09:24:11Z</time>
      </trkpt>
      <trkpt lat="43.80603" lon="4.14613">
        <ele>129.9</ele>
        <time>2015-05-31T09:24:14Z</time>
      </trkpt>
      <trkpt lat="43.80593" lon="4.14612">
        <ele>130.1</ele>
        <time>2015-05-31T09:24:17Z</time>
      </trkpt>
      <trkpt lat="43.80581" lon="4.14609">
        <ele>130.2</ele>
        <time>2015-05-31T09:24:20Z</time>
      </trkpt>
      <trkpt lat="43.80571" lon="4.146">
        <ele>130.3</ele>
        <time>2015-05-31T09:24:23Z</time>
      </trkpt>
      <trkpt lat="43.80562" lon="4.14588">
        <ele>130.4</ele>
        <time>2015-05-31T09:24:26Z</time>
      </trkpt>
      <trkpt lat="43.80552" lon="4.14577">
        <ele>130.5</ele>
        <time>2015-05-31T09:24:29Z</time>
      </trkpt>
      <trkpt lat="43.80541" lon="4.14568">
        <ele>130.6</ele>
        <time>2015-05-31T09:24:32Z</time>
      </trkpt>
      <trkpt lat="43.8053" lon="4.14557">
        <ele>130.7</ele>
        <time>2015-05-31T09:24:35Z</time>
      </trkpt>
      <trkpt lat="43.80518" lon="4.14547">
        <ele>130.7</ele>
        <time>2015-05-31T09:24:38Z</time>
      </trkpt>
      <trkpt lat="43.80507" lon="4.14538">
        <ele>130.7</ele>
        <time>2015-05-31T09:24:41Z</time>
      </trkpt>
      <trkpt lat="43.80495" lon="4.14534">
        <ele>130.6</ele>
        <time>2015-05-31T09:24:44Z</time>
      </trkpt>
      <trkpt lat="43.80483" lon="4.14535">
        <ele>130.5</ele>
        <time>2015-05-31T09:24:47Z</time>
      </trkpt>
      <trkpt lat="43.80475" lon="4.14541">
        <ele>130.4</ele>
        <time>2015-05-31T09:24:49Z</time>
      </trkpt>
      <trkpt lat="43.80466" lon="4.14554">
        <ele>130.3</ele>
        <time>2015-05-31T09:24:52Z</time>
      </trkpt>
      <trkpt lat="43.80457" lon="4.14564">
        <ele>130.3</ele>
        <time>2015-05-31T09:24:55Z</time>
      </trkpt>
      <trkpt lat="43.80448" lon="4.14576">
        <ele>130.2</ele>
        <time>2015-05-31T09:24:58Z</time>
      </trkpt>
      <trkpt lat="43.80439" lon="4.14585">
        <ele>130.2</ele>
        <time>2015-05-31T09:25:01Z</time>
      </trkpt>
      <trkpt lat="43.8043" lon="4.14594">
        <ele>130.1</ele>
        <time>2015-05-31T09:25:04Z</time>
      </trkpt>
      <trkpt lat="43.80421" lon="4.14604">
        <ele>130.1</ele>
        <time>2015-05-31T09:25:07Z</time>
      </trkpt>
      <trkpt lat="43.80413" lon="4.14615">
        <ele>130.1</ele>
        <time>2015-05-31T09:25:10Z</time>
      </trkpt>
      <trkpt lat="43.80403" lon="4.14626">
        <ele>130.1</ele>
        <time>2015-05-31T09:25:13Z</time>
      </trkpt>
      <trkpt lat="43.80394" lon="4.14639">
        <ele>130.2</ele>
        <time>2015-05-31T09:25:16Z</time>
      </trkpt>
      <trkpt lat="43.80387" lon="4.14653">
        <ele>130.2</ele>
        <time>2015-05-31T09:25:19Z</time>
      </trkpt>
      <trkpt lat="43.80379" lon="4.14665">
        <ele>130.4</ele>
        <time>2015-05-31T09:25:22Z</time>
      </trkpt>
      <trkpt lat="43.8037" lon="4.14677">
        <ele>130.5</ele>
        <time>2015-05-31T09:25:25Z</time>
      </trkpt>
      <trkpt lat="43.80362" lon="4.14691">
        <ele>130.6</ele>
        <time>2015-05-31T09:25:28Z</time>
      </trkpt>
      <trkpt lat="43.80355" lon="4.14705">
        <ele>130.7</ele>
        <time>2015-05-31T09:25:31Z</time>
      </trkpt>
      <trkpt lat="43.80348" lon="4.1472">
        <ele>130.9</ele>
        <time>2015-05-31T09:25:34Z</time>
      </trkpt>
      <trkpt lat="43.80343" lon="4.14735">
        <ele>131.1</ele>
        <time>2015-05-31T09:25:37Z</time>
      </trkpt>
      <trkpt lat="43.80336" lon="4.14748">
        <ele>131.2</ele>
        <time>2015-05-31T09:25:40Z</time>
      </trkpt>
      <trkpt lat="43.80326" lon="4.14758">
        <ele>131.4</ele>
        <time>2015-05-31T09:25:43Z</time>
      </trkpt>
      <trkpt lat="43.80314" lon="4.14765">
        <ele>131.6</ele>
        <time>2015-05-31T09:25:46Z</time>
      </trkpt>
      <trkpt lat="43.80303" lon="4.14773">
        <ele>131.7</ele>
        <time>2015-05-31T09:25:49Z</time>
      </trkpt>
      <trkpt lat="43.80295" lon="4.14779">
        <ele>131.8</ele>
        <time>2015-05-31T09:25:51Z</time>
      </trkpt>
      <trkpt lat="43.80285" lon="4.1479">
        <ele>131.9</ele>
        <time>2015-05-31T09:25:54Z</time>
      </trkpt>
      <trkpt lat="43.80276" lon="4.14801">
        <ele>131.9</ele>
        <time>2015-05-31T09:25:57Z</time>
      </trkpt>
      <trkpt lat="43.80268" lon="4.14812">
        <ele>132.1</ele>
        <time>2015-05-31T09:26:00Z</time>
      </trkpt>
      <trkpt lat="43.8026" lon="4.14824">
        <ele>132.2</ele>
        <time>2015-05-31T09:26:03Z</time>
      </trkpt>
      <trkpt lat="43.80251" lon="4.14835">
        <ele>132.3</ele>
        <time>2015-05-31T09:26:06Z</time>
      </trkpt>
      <trkpt lat="43.80243" lon="4.14848">
        <ele>132.4</ele>
        <time>2015-05-31T09:26:09Z</time>
      </trkpt>
      <trkpt lat="43.80235" lon="4.14858">
        <ele>132.5</ele>
        <time>2015-05-31T09:26:12Z</time>
      </trkpt>
      <trkpt lat="43.80236" lon="4.14874">
        <ele>132.6</ele>
        <time>2015-05-31T09:26:16Z</time>
      </trkpt>
      <trkpt lat="43.80238" lon="4.14887">
        <ele>132.7</ele>
        <time>2015-05-31T09:26:19Z</time>
      </trkpt>
      <trkpt lat="43.80244" lon="4.14897">
        <ele>132.9</ele>
        <time>2015-05-31T09:26:24Z</time>
      </trkpt>
      <trkpt lat="43.8025" lon="4.14908">
        <ele>133.2</ele>
        <time>2015-05-31T09:26:28Z</time>
      </trkpt>
      <trkpt lat="43.80247" lon="4.14924">
        <ele>133.6</ele>
        <time>2015-05-31T09:26:33Z</time>
      </trkpt>
      <trkpt lat="43.8024" lon="4.14936">
        <ele>133.9</ele>
        <time>2015-05-31T09:26:36Z</time>
      </trkpt>
      <trkpt lat="43.80237" lon="4.14949">
        <ele>134.1</ele>
        <time>2015-05-31T09:26:38Z</time>
      </trkpt>
      <trkpt lat="43.80233" lon="4.14962">
        <ele>134.4</ele>
        <time>2015-05-31T09:26:41Z</time>
      </trkpt>
      <trkpt lat="43.80226" lon="4.14971">
        <ele>134.7</ele>
        <time>2015-05-31T09:26:44Z</time>
      </trkpt>
      <trkpt lat="43.80218" lon="4.1498">
        <ele>135.1</ele>
        <time>2015-05-31T09:26:47Z</time>
      </trkpt>
      <trkpt lat="43.80211" lon="4.14989">
        <ele>135.4</ele>
        <time>2015-05-31T09:26:50Z</time>
      </trkpt>
      <trkpt lat="43.80204" lon="4.15001">
        <ele>135.8</ele>
        <time>2015-05-31T09:26:53Z</time>
      </trkpt>
      <trkpt lat="43.80196" lon="4.15012">
        <ele>136.1</ele>
        <time>2015-05-31T09:26:56Z</time>
      </trkpt>
      <trkpt lat="43.80189" lon="4.15022">
        <ele>136.4</ele>
        <time>2015-05-31T09:26:59Z</time>
      </trkpt>
      <trkpt lat="43.80182" lon="4.15033">
        <ele>136.8</ele>
        <time>2015-05-31T09:27:02Z</time>
      </trkpt>
      <trkpt lat="43.80174" lon="4.15045">
        <ele>137.1</ele>
        <time>2015-05-31T09:27:05Z</time>
      </trkpt>
      <trkpt lat="43.80164" lon="4.15055">
        <ele>137.3</ele>
        <time>2015-05-31T09:27:08Z</time>
      </trkpt>
      <trkpt lat="43.80155" lon="4.15066">
        <ele>137.6</ele>
        <time>2015-05-31T09:27:11Z</time>
      </trkpt>
      <trkpt lat="43.80146" lon="4.15076">
        <ele>137.9</ele>
        <time>2015-05-31T09:27:14Z</time>
      </trkpt>
      <trkpt lat="43.80135" lon="4.15084">
        <ele>138.2</ele>
        <time>2015-05-31T09:27:17Z</time>
      </trkpt>
      <trkpt lat="43.80127" lon="4.15097">
        <ele>138.5</ele>
        <time>2015-05-31T09:27:20Z</time>
      </trkpt>
      <trkpt lat="43.80118" lon="4.15106">
        <ele>138.7</ele>
        <time>2015-05-31T09:27:23Z</time>
      </trkpt>
      <trkpt lat="43.80107" lon="4.15112">
        <ele>138.9</ele>
        <time>2015-05-31T09:27:26Z</time>
      </trkpt>
      <trkpt lat="43.80098" lon="4.15115">
        <ele>139</ele>
        <time>2015-05-31T09:27:28Z</time>
      </trkpt>
      <trkpt lat="43.80089" lon="4.15126">
        <ele>139.2</ele>
        <time>2015-05-31T09:27:31Z</time>
      </trkpt>
      <trkpt lat="43.8008" lon="4.15135">
        <ele>139.4</ele>
        <time>2015-05-31T09:27:34Z</time>
      </trkpt>
      <trkpt lat="43.80069" lon="4.15143">
        <ele>139.5</ele>
        <time>2015-05-31T09:27:37Z</time>
      </trkpt>
      <trkpt lat="43.80059" lon="4.15152">
        <ele>139.6</ele>
        <time>2015-05-31T09:27:40Z</time>
      </trkpt>
      <trkpt lat="43.80052" lon="4.1516">
        <ele>139.7</ele>
        <time>2015-05-31T09:27:42Z</time>
      </trkpt>
      <trkpt lat="43.8004" lon="4.15169">
        <ele>139.7</ele>
        <time>2015-05-31T09:27:45Z</time>
      </trkpt>
      <trkpt lat="43.8003" lon="4.1517">
        <ele>139.9</ele>
        <time>2015-05-31T09:27:48Z</time>
      </trkpt>
      <trkpt lat="43.80021" lon="4.15172">
        <ele>140.1</ele>
        <time>2015-05-31T09:27:52Z</time>
      </trkpt>
      <trkpt lat="43.80013" lon="4.15178">
        <ele>140.8</ele>
        <time>2015-05-31T09:27:58Z</time>
      </trkpt>
      <trkpt lat="43.80004" lon="4.15185">
        <ele>141.4</ele>
        <time>2015-05-31T09:28:04Z</time>
      </trkpt>
      <trkpt lat="43.79994" lon="4.15188">
        <ele>142.4</ele>
        <time>2015-05-31T09:28:10Z</time>
      </trkpt>
      <trkpt lat="43.79984" lon="4.15193">
        <ele>143.8</ele>
        <time>2015-05-31T09:28:17Z</time>
      </trkpt>
      <trkpt lat="43.79974" lon="4.15198">
        <ele>145</ele>
        <time>2015-05-31T09:28:24Z</time>
      </trkpt>
      <trkpt lat="43.79966" lon="4.15205">
        <ele>146.3</ele>
        <time>2015-05-31T09:28:30Z</time>
      </trkpt>
      <trkpt lat="43.79959" lon="4.15213">
        <ele>147.4</ele>
        <time>2015-05-31T09:28:36Z</time>
      </trkpt>
      <trkpt lat="43.79955" lon="4.15226">
        <ele>148.4</ele>
        <time>2015-05-31T09:28:42Z</time>
      </trkpt>
      <trkpt lat="43.79952" lon="4.15239">
        <ele>149.2</ele>
        <time>2015-05-31T09:28:47Z</time>
      </trkpt>
      <trkpt lat="43.79949" lon="4.15253">
        <ele>149.9</ele>
        <time>2015-05-31T09:28:52Z</time>
      </trkpt>
      <trkpt lat="43.79944" lon="4.15265">
        <ele>150.6</ele>
        <time>2015-05-31T09:28:57Z</time>
      </trkpt>
      <trkpt lat="43.79938" lon="4.15277">
        <ele>151.1</ele>
        <time>2015-05-31T09:29:02Z</time>
      </trkpt>
      <trkpt lat="43.79929" lon="4.15284">
        <ele>151.9</ele>
        <time>2015-05-31T09:29:08Z</time>
      </trkpt>
      <trkpt lat="43.7992" lon="4.15288">
        <ele>152.6</ele>
        <time>2015-05-31T09:29:13Z</time>
      </trkpt>
      <trkpt lat="43.79912" lon="4.15297">
        <ele>153.4</ele>
        <time>2015-05-31T09:29:18Z</time>
      </trkpt>
      <trkpt lat="43.79903" lon="4.15301">
        <ele>154.2</ele>
        <time>2015-05-31T09:29:24Z</time>
      </trkpt>
      <trkpt lat="43.79896" lon="4.15292">
        <ele>154.7</ele>
        <time>2015-05-31T09:29:29Z</time>
      </trkpt>
      <trkpt lat="43.79896" lon="4.15277">
        <ele>154.7</ele>
        <time>2015-05-31T09:29:32Z</time>
      </trkpt>
      <trkpt lat="43.79894" lon="4.1526">
        <ele>154.5</ele>
        <time>2015-05-31T09:29:35Z</time>
      </trkpt>
      <trkpt lat="43.79894" lon="4.15241">
        <ele>153.9</ele>
        <time>2015-05-31T09:29:38Z</time>
      </trkpt>
      <trkpt lat="43.79895" lon="4.15225">
        <ele>153.4</ele>
        <time>2015-05-31T09:29:40Z</time>
      </trkpt>
      <trkpt lat="43.79895" lon="4.15209">
        <ele>152.7</ele>
        <time>2015-05-31T09:29:42Z</time>
      </trkpt>
      <trkpt lat="43.79895" lon="4.15195">
        <ele>151.9</ele>
        <time>2015-05-31T09:29:44Z</time>
      </trkpt>
      <trkpt lat="43.79892" lon="4.15179">
        <ele>150.5</ele>
        <time>2015-05-31T09:29:47Z</time>
      </trkpt>
      <trkpt lat="43.79881" lon="4.15173">
        <ele>149.5</ele>
        <time>2015-05-31T09:29:49Z</time>
      </trkpt>
      <trkpt lat="43.79868" lon="4.15169">
        <ele>148.5</ele>
        <time>2015-05-31T09:29:51Z</time>
      </trkpt>
      <trkpt lat="43.79855" lon="4.15167">
        <ele>147.5</ele>
        <time>2015-05-31T09:29:53Z</time>
      </trkpt>
      <trkpt lat="43.79842" lon="4.15166">
        <ele>146.6</ele>
        <time>2015-05-31T09:29:55Z</time>
      </trkpt>
      <trkpt lat="43.79828" lon="4.15164">
        <ele>145.7</ele>
        <time>2015-05-31T09:29:57Z</time>
      </trkpt>
      <trkpt lat="43.79814" lon="4.15163">
        <ele>144.8</ele>
        <time>2015-05-31T09:29:59Z</time>
      </trkpt>
      <trkpt lat="43.79801" lon="4.15161">
        <ele>143.9</ele>
        <time>2015-05-31T09:30:01Z</time>
      </trkpt>
      <trkpt lat="43.79791" lon="4.15158">
        <ele>143</ele>
        <time>2015-05-31T09:30:03Z</time>
      </trkpt>
      <trkpt lat="43.79782" lon="4.15156">
        <ele>142.2</ele>
        <time>2015-05-31T09:30:05Z</time>
      </trkpt>
      <trkpt lat="43.79773" lon="4.15155">
        <ele>141.5</ele>
        <time>2015-05-31T09:30:07Z</time>
      </trkpt>
      <trkpt lat="43.79763" lon="4.15153">
        <ele>140.9</ele>
        <time>2015-05-31T09:30:09Z</time>
      </trkpt>
      <trkpt lat="43.79753" lon="4.15151">
        <ele>140.1</ele>
        <time>2015-05-31T09:30:11Z</time>
      </trkpt>
      <trkpt lat="43.79743" lon="4.15149">
        <ele>139.5</ele>
        <time>2015-05-31T09:30:13Z</time>
      </trkpt>
      <trkpt lat="43.79732" lon="4.15147">
        <ele>138.9</ele>
        <time>2015-05-31T09:30:15Z</time>
      </trkpt>
      <trkpt lat="43.79723" lon="4.15149">
        <ele>138.5</ele>
        <time>2015-05-31T09:30:17Z</time>
      </trkpt>
      <trkpt lat="43.79712" lon="4.15152">
        <ele>137.8</ele>
        <time>2015-05-31T09:30:20Z</time>
      </trkpt>
      <trkpt lat="43.79701" lon="4.15155">
        <ele>137.3</ele>
        <time>2015-05-31T09:30:23Z</time>
      </trkpt>
      <trkpt lat="43.79691" lon="4.15158">
        <ele>136.9</ele>
        <time>2015-05-31T09:30:26Z</time>
      </trkpt>
      <trkpt lat="43.79681" lon="4.1516">
        <ele>136.5</ele>
        <time>2015-05-31T09:30:29Z</time>
      </trkpt>
      <trkpt lat="43.7967" lon="4.15162">
        <ele>136.3</ele>
        <time>2015-05-31T09:30:33Z</time>
      </trkpt>
      <trkpt lat="43.7966" lon="4.15164">
        <ele>136.2</ele>
        <time>2015-05-31T09:30:37Z</time>
      </trkpt>
      <trkpt lat="43.79651" lon="4.15167">
        <ele>136.3</ele>
        <time>2015-05-31T09:30:41Z</time>
      </trkpt>
      <trkpt lat="43.79642" lon="4.15169">
        <ele>136.5</ele>
        <time>2015-05-31T09:30:45Z</time>
      </trkpt>
      <trkpt lat="43.79631" lon="4.15167">
        <ele>136.8</ele>
        <time>2015-05-31T09:30:50Z</time>
      </trkpt>
      <trkpt lat="43.79623" lon="4.15159">
        <ele>137.2</ele>
        <time>2015-05-31T09:30:54Z</time>
      </trkpt>
      <trkpt lat="43.79618" lon="4.15146">
        <ele>137.4</ele>
        <time>2015-05-31T09:30:57Z</time>
      </trkpt>
      <trkpt lat="43.79619" lon="4.15128">
        <ele>137.6</ele>
        <time>2015-05-31T09:31:00Z</time>
      </trkpt>
      <trkpt lat="43.79617" lon="4.15111">
        <ele>137.8</ele>
        <time>2015-05-31T09:31:03Z</time>
      </trkpt>
      <trkpt lat="43.79611" lon="4.15096">
        <ele>137.9</ele>
        <time>2015-05-31T09:31:06Z</time>
      </trkpt>
      <trkpt lat="43.79606" lon="4.15085">
        <ele>137.9</ele>
        <time>2015-05-31T09:31:08Z</time>
      </trkpt>
      <trkpt lat="43.79598" lon="4.15072">
        <ele>137.9</ele>
        <time>2015-05-31T09:31:11Z</time>
      </trkpt>
      <trkpt lat="43.79589" lon="4.15059">
        <ele>137.8</ele>
        <time>2015-05-31T09:31:14Z</time>
      </trkpt>
      <trkpt lat="43.79581" lon="4.1505">
        <ele>137.7</ele>
        <time>2015-05-31T09:31:16Z</time>
      </trkpt>
      <trkpt lat="43.79572" lon="4.15043">
        <ele>137.6</ele>
        <time>2015-05-31T09:31:18Z</time>
      </trkpt>
      <trkpt lat="43.79562" lon="4.15036">
        <ele>137.4</ele>
        <time>2015-05-31T09:31:21Z</time>
      </trkpt>
      <trkpt lat="43.79551" lon="4.1503">
        <ele>137.2</ele>
        <time>2015-05-31T09:31:24Z</time>
      </trkpt>
      <trkpt lat="43.79541" lon="4.15025">
        <ele>137</ele>
        <time>2015-05-31T09:31:26Z</time>
      </trkpt>
      <trkpt lat="43.79528" lon="4.15019">
        <ele>136.8</ele>
        <time>2015-05-31T09:31:29Z</time>
      </trkpt>
      <trkpt lat="43.7952" lon="4.1501">
        <ele>136.7</ele>
        <time>2015-05-31T09:31:31Z</time>
      </trkpt>
      <trkpt lat="43.79513" lon="4.14998">
        <ele>136.6</ele>
        <time>2015-05-31T09:31:33Z</time>
      </trkpt>
      <trkpt lat="43.79506" lon="4.14986">
        <ele>136.5</ele>
        <time>2015-05-31T09:31:35Z</time>
      </trkpt>
      <trkpt lat="43.79496" lon="4.14979">
        <ele>136.4</ele>
        <time>2015-05-31T09:31:37Z</time>
      </trkpt>
      <trkpt lat="43.79486" lon="4.14978">
        <ele>136.3</ele>
        <time>2015-05-31T09:31:39Z</time>
      </trkpt>
      <trkpt lat="43.79477" lon="4.1498">
        <ele>136.3</ele>
        <time>2015-05-31T09:31:41Z</time>
      </trkpt>
      <trkpt lat="43.79464" lon="4.14983">
        <ele>136.2</ele>
        <time>2015-05-31T09:31:44Z</time>
      </trkpt>
      <trkpt lat="43.79451" lon="4.14987">
        <ele>136.1</ele>
        <time>2015-05-31T09:31:47Z</time>
      </trkpt>
      <trkpt lat="43.7944" lon="4.1499">
        <ele>136.1</ele>
        <time>2015-05-31T09:31:50Z</time>
      </trkpt>
      <trkpt lat="43.79429" lon="4.14987">
        <ele>136.1</ele>
        <time>2015-05-31T09:31:54Z</time>
      </trkpt>
      <trkpt lat="43.79423" lon="4.14973">
        <ele>136.1</ele>
        <time>2015-05-31T09:31:57Z</time>
      </trkpt>
      <trkpt lat="43.79413" lon="4.14971">
        <ele>136.1</ele>
        <time>2015-05-31T09:32:02Z</time>
      </trkpt>
      <trkpt lat="43.79403" lon="4.14977">
        <ele>136.1</ele>
        <time>2015-05-31T09:32:06Z</time>
      </trkpt>
      <trkpt lat="43.79393" lon="4.14985">
        <ele>136.1</ele>
        <time>2015-05-31T09:32:10Z</time>
      </trkpt>
      <trkpt lat="43.79383" lon="4.14993">
        <ele>136</ele>
        <time>2015-05-31T09:32:14Z</time>
      </trkpt>
      <trkpt lat="43.79374" lon="4.15001">
        <ele>135.9</ele>
        <time>2015-05-31T09:32:18Z</time>
      </trkpt>
      <trkpt lat="43.79365" lon="4.15006">
        <ele>135.8</ele>
        <time>2015-05-31T09:32:22Z</time>
      </trkpt>
      <trkpt lat="43.79357" lon="4.15014">
        <ele>136.1</ele>
        <time>2015-05-31T09:32:26Z</time>
      </trkpt>
      <trkpt lat="43.79349" lon="4.15024">
        <ele>136.4</ele>
        <time>2015-05-31T09:32:31Z</time>
      </trkpt>
      <trkpt lat="43.79342" lon="4.15034">
        <ele>136.9</ele>
        <time>2015-05-31T09:32:36Z</time>
      </trkpt>
      <trkpt lat="43.79336" lon="4.15046">
        <ele>137.5</ele>
        <time>2015-05-31T09:32:41Z</time>
      </trkpt>
      <trkpt lat="43.79329" lon="4.15057">
        <ele>138.2</ele>
        <time>2015-05-31T09:32:46Z</time>
      </trkpt>
      <trkpt lat="43.79323" lon="4.15068">
        <ele>138.7</ele>
        <time>2015-05-31T09:32:50Z</time>
      </trkpt>
      <trkpt lat="43.79319" lon="4.1508">
        <ele>139.2</ele>
        <time>2015-05-31T09:32:54Z</time>
      </trkpt>
      <trkpt lat="43.79311" lon="4.15091">
        <ele>139.6</ele>
        <time>2015-05-31T09:32:58Z</time>
      </trkpt>
      <trkpt lat="43.79303" lon="4.15099">
        <ele>139.9</ele>
        <time>2015-05-31T09:33:01Z</time>
      </trkpt>
      <trkpt lat="43.79295" lon="4.15109">
        <ele>140.2</ele>
        <time>2015-05-31T09:33:04Z</time>
      </trkpt>
      <trkpt lat="43.79286" lon="4.15121">
        <ele>140.5</ele>
        <time>2015-05-31T09:33:07Z</time>
      </trkpt>
      <trkpt lat="43.79278" lon="4.1513">
        <ele>140.6</ele>
        <time>2015-05-31T09:33:09Z</time>
      </trkpt>
      <trkpt lat="43.79271" lon="4.15141">
        <ele>140.7</ele>
        <time>2015-05-31T09:33:11Z</time>
      </trkpt>
      <trkpt lat="43.79262" lon="4.15151">
        <ele>140.8</ele>
        <time>2015-05-31T09:33:13Z</time>
      </trkpt>
      <trkpt lat="43.79255" lon="4.15162">
        <ele>140.9</ele>
        <time>2015-05-31T09:33:15Z</time>
      </trkpt>
      <trkpt lat="43.79247" lon="4.15173">
        <ele>140.9</ele>
        <time>2015-05-31T09:33:17Z</time>
      </trkpt>
      <trkpt lat="43.79238" lon="4.15184">
        <ele>140.9</ele>
        <time>2015-05-31T09:33:19Z</time>
      </trkpt>
      <trkpt lat="43.79229" lon="4.15194">
        <ele>140.9</ele>
        <time>2015-05-31T09:33:21Z</time>
      </trkpt>
      <trkpt lat="43.79221" lon="4.15204">
        <ele>140.8</ele>
        <time>2015-05-31T09:33:23Z</time>
      </trkpt>
      <trkpt lat="43.79213" lon="4.15213">
        <ele>140.8</ele>
        <time>2015-05-31T09:33:25Z</time>
      </trkpt>
      <trkpt lat="43.79206" lon="4.15222">
        <ele>140.7</ele>
        <time>2015-05-31T09:33:27Z</time>
      </trkpt>
      <trkpt lat="43.792" lon="4.15232">
        <ele>140.6</ele>
        <time>2015-05-31T09:33:29Z</time>
      </trkpt>
      <trkpt lat="43.79191" lon="4.15245">
        <ele>140.6</ele>
        <time>2015-05-31T09:33:32Z</time>
      </trkpt>
      <trkpt lat="43.79183" lon="4.15258">
        <ele>140.5</ele>
        <time>2015-05-31T09:33:35Z</time>
      </trkpt>
      <trkpt lat="43.79175" lon="4.15271">
        <ele>140.5</ele>
        <time>2015-05-31T09:33:38Z</time>
      </trkpt>
      <trkpt lat="43.79166" lon="4.15285">
        <ele>140.4</ele>
        <time>2015-05-31T09:33:41Z</time>
      </trkpt>
      <trkpt lat="43.7916" lon="4.15295">
        <ele>140.5</ele>
        <time>2015-05-31T09:33:43Z</time>
      </trkpt>
      <trkpt lat="43.79155" lon="4.15305">
        <ele>140.6</ele>
        <time>2015-05-31T09:33:45Z</time>
      </trkpt>
      <trkpt lat="43.79149" lon="4.15316">
        <ele>140.7</ele>
        <time>2015-05-31T09:33:47Z</time>
      </trkpt>
      <trkpt lat="43.79143" lon="4.15326">
        <ele>140.8</ele>
        <time>2015-05-31T09:33:49Z</time>
      </trkpt>
      <trkpt lat="43.79136" lon="4.15341">
        <ele>140.9</ele>
        <time>2015-05-31T09:33:52Z</time>
      </trkpt>
      <trkpt lat="43.79131" lon="4.15358">
        <ele>141</ele>
        <time>2015-05-31T09:33:55Z</time>
      </trkpt>
      <trkpt lat="43.79126" lon="4.15369">
        <ele>141.1</ele>
        <time>2015-05-31T09:33:57Z</time>
      </trkpt>
      <trkpt lat="43.79121" lon="4.1538">
        <ele>141.1</ele>
        <time>2015-05-31T09:33:59Z</time>
      </trkpt>
      <trkpt lat="43.79115" lon="4.15391">
        <ele>141.1</ele>
        <time>2015-05-31T09:34:01Z</time>
      </trkpt>
      <trkpt lat="43.79108" lon="4.15402">
        <ele>141.2</ele>
        <time>2015-05-31T09:34:03Z</time>
      </trkpt>
      <trkpt lat="43.791" lon="4.15414">
        <ele>141.2</ele>
        <time>2015-05-31T09:34:05Z</time>
      </trkpt>
      <trkpt lat="43.79093" lon="4.15426">
        <ele>141.2</ele>
        <time>2015-05-31T09:34:07Z</time>
      </trkpt>
      <trkpt lat="43.79086" lon="4.15437">
        <ele>141.3</ele>
        <time>2015-05-31T09:34:09Z</time>
      </trkpt>
      <trkpt lat="43.7908" lon="4.15452">
        <ele>141.3</ele>
        <time>2015-05-31T09:34:12Z</time>
      </trkpt>
      <trkpt lat="43.79075" lon="4.15467">
        <ele>141.3</ele>
        <time>2015-05-31T09:34:15Z</time>
      </trkpt>
      <trkpt lat="43.79072" lon="4.15483">
        <ele>141.2</ele>
        <time>2015-05-31T09:34:18Z</time>
      </trkpt>
      <trkpt lat="43.79069" lon="4.15497">
        <ele>141.1</ele>
        <time>2015-05-31T09:34:21Z</time>
      </trkpt>
      <trkpt lat="43.79061" lon="4.15505">
        <ele>141</ele>
        <time>2015-05-31T09:34:24Z</time>
      </trkpt>
      <trkpt lat="43.79059" lon="4.15519">
        <ele>140.9</ele>
        <time>2015-05-31T09:34:29Z</time>
      </trkpt>
      <trkpt lat="43.79063" lon="4.15531">
        <ele>140.8</ele>
        <time>2015-05-31T09:34:32Z</time>
      </trkpt>
      <trkpt lat="43.79064" lon="4.15545">
        <ele>140.6</ele>
        <time>2015-05-31T09:34:35Z</time>
      </trkpt>
      <trkpt lat="43.79062" lon="4.1556">
        <ele>140.5</ele>
        <time>2015-05-31T09:34:38Z</time>
      </trkpt>
      <trkpt lat="43.79061" lon="4.15575">
        <ele>140.2</ele>
        <time>2015-05-31T09:34:42Z</time>
      </trkpt>
      <trkpt lat="43.79061" lon="4.1559">
        <ele>139.7</ele>
        <time>2015-05-31T09:34:46Z</time>
      </trkpt>
      <trkpt lat="43.7906" lon="4.15603">
        <ele>139.4</ele>
        <time>2015-05-31T09:34:49Z</time>
      </trkpt>
      <trkpt lat="43.79057" lon="4.15616">
        <ele>139.1</ele>
        <time>2015-05-31T09:34:53Z</time>
      </trkpt>
      <trkpt lat="43.79057" lon="4.15628">
        <ele>138.7</ele>
        <time>2015-05-31T09:34:56Z</time>
      </trkpt>
      <trkpt lat="43.79048" lon="4.15641">
        <ele>138.2</ele>
        <time>2015-05-31T09:34:59Z</time>
      </trkpt>
      <trkpt lat="43.7904" lon="4.15655">
        <ele>137.7</ele>
        <time>2015-05-31T09:35:02Z</time>
      </trkpt>
      <trkpt lat="43.79036" lon="4.1567">
        <ele>137.1</ele>
        <time>2015-05-31T09:35:05Z</time>
      </trkpt>
      <trkpt lat="43.79032" lon="4.15684">
        <ele>136.5</ele>
        <time>2015-05-31T09:35:08Z</time>
      </trkpt>
      <trkpt lat="43.79028" lon="4.157">
        <ele>135.9</ele>
        <time>2015-05-31T09:35:12Z</time>
      </trkpt>
      <trkpt lat="43.79024" lon="4.15713">
        <ele>135.5</ele>
        <time>2015-05-31T09:35:15Z</time>
      </trkpt>
      <trkpt lat="43.7902" lon="4.15729">
        <ele>135.2</ele>
        <time>2015-05-31T09:35:18Z</time>
      </trkpt>
      <trkpt lat="43.79015" lon="4.15745">
        <ele>134.8</ele>
        <time>2015-05-31T09:35:21Z</time>
      </trkpt>
      <trkpt lat="43.7901" lon="4.15762">
        <ele>134.5</ele>
        <time>2015-05-31T09:35:24Z</time>
      </trkpt>
      <trkpt lat="43.79008" lon="4.15776">
        <ele>134.1</ele>
        <time>2015-05-31T09:35:26Z</time>
      </trkpt>
      <trkpt lat="43.79005" lon="4.15789">
        <ele>133.8</ele>
        <time>2015-05-31T09:35:28Z</time>
      </trkpt>
      <trkpt lat="43.79002" lon="4.15801">
        <ele>133.5</ele>
        <time>2015-05-31T09:35:30Z</time>
      </trkpt>
      <trkpt lat="43.78997" lon="4.15814">
        <ele>133.2</ele>
        <time>2015-05-31T09:35:32Z</time>
      </trkpt>
      <trkpt lat="43.78995" lon="4.15826">
        <ele>132.8</ele>
        <time>2015-05-31T09:35:34Z</time>
      </trkpt>
      <trkpt lat="43.7899" lon="4.15843">
        <ele>132.2</ele>
        <time>2015-05-31T09:35:37Z</time>
      </trkpt>
      <trkpt lat="43.78987" lon="4.15858">
        <ele>131.7</ele>
        <time>2015-05-31T09:35:40Z</time>
      </trkpt>
      <trkpt lat="43.78986" lon="4.15871">
        <ele>131.3</ele>
        <time>2015-05-31T09:35:43Z</time>
      </trkpt>
      <trkpt lat="43.7898" lon="4.15887">
        <ele>130.9</ele>
        <time>2015-05-31T09:35:46Z</time>
      </trkpt>
      <trkpt lat="43.78976" lon="4.15903">
        <ele>130.5</ele>
        <time>2015-05-31T09:35:49Z</time>
      </trkpt>
      <trkpt lat="43.78971" lon="4.15915">
        <ele>130.1</ele>
        <time>2015-05-31T09:35:53Z</time>
      </trkpt>
      <trkpt lat="43.78969" lon="4.1593">
        <ele>129.8</ele>
        <time>2015-05-31T09:35:56Z</time>
      </trkpt>
      <trkpt lat="43.78966" lon="4.15942">
        <ele>129.5</ele>
        <time>2015-05-31T09:35:58Z</time>
      </trkpt>
      <trkpt lat="43.78963" lon="4.15954">
        <ele>129.3</ele>
        <time>2015-05-31T09:36:00Z</time>
      </trkpt>
      <trkpt lat="43.78959" lon="4.15966">
        <ele>129.1</ele>
        <time>2015-05-31T09:36:02Z</time>
      </trkpt>
      <trkpt lat="43.78956" lon="4.1598">
        <ele>128.8</ele>
        <time>2015-05-31T09:36:04Z</time>
      </trkpt>
      <trkpt lat="43.78952" lon="4.15992">
        <ele>128.6</ele>
        <time>2015-05-31T09:36:06Z</time>
      </trkpt>
      <trkpt lat="43.78947" lon="4.16003">
        <ele>128.4</ele>
        <time>2015-05-31T09:36:08Z</time>
      </trkpt>
      <trkpt lat="43.78942" lon="4.16015">
        <ele>128.2</ele>
        <time>2015-05-31T09:36:10Z</time>
      </trkpt>
      <trkpt lat="43.78936" lon="4.16029">
        <ele>127.9</ele>
        <time>2015-05-31T09:36:13Z</time>
      </trkpt>
      <trkpt lat="43.78932" lon="4.16045">
        <ele>127.7</ele>
        <time>2015-05-31T09:36:16Z</time>
      </trkpt>
      <trkpt lat="43.7893" lon="4.16058">
        <ele>127.6</ele>
        <time>2015-05-31T09:36:19Z</time>
      </trkpt>
      <trkpt lat="43.78925" lon="4.16071">
        <ele>127.5</ele>
        <time>2015-05-31T09:36:23Z</time>
      </trkpt>
      <trkpt lat="43.78923" lon="4.16085">
        <ele>127.5</ele>
        <time>2015-05-31T09:36:26Z</time>
      </trkpt>
      <trkpt lat="43.78921" lon="4.16098">
        <ele>127.6</ele>
        <time>2015-05-31T09:36:29Z</time>
      </trkpt>
      <trkpt lat="43.78917" lon="4.16114">
        <ele>127.8</ele>
        <time>2015-05-31T09:36:32Z</time>
      </trkpt>
      <trkpt lat="43.78915" lon="4.16126">
        <ele>128</ele>
        <time>2015-05-31T09:36:34Z</time>
      </trkpt>
      <trkpt lat="43.78913" lon="4.1614">
        <ele>128.1</ele>
        <time>2015-05-31T09:36:36Z</time>
      </trkpt>
      <trkpt lat="43.78912" lon="4.16156">
        <ele>128.2</ele>
        <time>2015-05-31T09:36:38Z</time>
      </trkpt>
      <trkpt lat="43.7891" lon="4.16173">
        <ele>128.3</ele>
        <time>2015-05-31T09:36:40Z</time>
      </trkpt>
      <trkpt lat="43.78907" lon="4.16191">
        <ele>128.2</ele>
        <time>2015-05-31T09:36:42Z</time>
      </trkpt>
      <trkpt lat="43.78903" lon="4.16206">
        <ele>128.1</ele>
        <time>2015-05-31T09:36:44Z</time>
      </trkpt>
      <trkpt lat="43.78899" lon="4.16218">
        <ele>128</ele>
        <time>2015-05-31T09:36:46Z</time>
      </trkpt>
      <trkpt lat="43.78897" lon="4.16231">
        <ele>127.5</ele>
        <time>2015-05-31T09:36:48Z</time>
      </trkpt>
      <trkpt lat="43.78897" lon="4.16246">
        <ele>127.1</ele>
        <time>2015-05-31T09:36:50Z</time>
      </trkpt>
      <trkpt lat="43.78895" lon="4.16261">
        <ele>126.8</ele>
        <time>2015-05-31T09:36:52Z</time>
      </trkpt>
      <trkpt lat="43.7889" lon="4.16277">
        <ele>126.4</ele>
        <time>2015-05-31T09:36:54Z</time>
      </trkpt>
      <trkpt lat="43.78887" lon="4.16293">
        <ele>125.9</ele>
        <time>2015-05-31T09:36:56Z</time>
      </trkpt>
      <trkpt lat="43.78889" lon="4.16306">
        <ele>125.5</ele>
        <time>2015-05-31T09:36:58Z</time>
      </trkpt>
      <trkpt lat="43.78895" lon="4.16316">
        <ele>125</ele>
        <time>2015-05-31T09:37:00Z</time>
      </trkpt>
      <trkpt lat="43.789" lon="4.16332">
        <ele>123.9</ele>
        <time>2015-05-31T09:37:04Z</time>
      </trkpt>
      <trkpt lat="43.78897" lon="4.1635">
        <ele>123.1</ele>
        <time>2015-05-31T09:37:07Z</time>
      </trkpt>
      <trkpt lat="43.78888" lon="4.16359">
        <ele>122.5</ele>
        <time>2015-05-31T09:37:09Z</time>
      </trkpt>
      <trkpt lat="43.78879" lon="4.16367">
        <ele>122</ele>
        <time>2015-05-31T09:37:11Z</time>
      </trkpt>
      <trkpt lat="43.78871" lon="4.16378">
        <ele>121.4</ele>
        <time>2015-05-31T09:37:13Z</time>
      </trkpt>
      <trkpt lat="43.78865" lon="4.16392">
        <ele>120.8</ele>
        <time>2015-05-31T09:37:15Z</time>
      </trkpt>
      <trkpt lat="43.78859" lon="4.16404">
        <ele>120.3</ele>
        <time>2015-05-31T09:37:17Z</time>
      </trkpt>
      <trkpt lat="43.78852" lon="4.16415">
        <ele>119.8</ele>
        <time>2015-05-31T09:37:19Z</time>
      </trkpt>
      <trkpt lat="43.78848" lon="4.16427">
        <ele>119.4</ele>
        <time>2015-05-31T09:37:21Z</time>
      </trkpt>
      <trkpt lat="43.78846" lon="4.16442">
        <ele>118.9</ele>
        <time>2015-05-31T09:37:23Z</time>
      </trkpt>
      <trkpt lat="43.78844" lon="4.16456">
        <ele>118.5</ele>
        <time>2015-05-31T09:37:25Z</time>
      </trkpt>
      <trkpt lat="43.78842" lon="4.16469">
        <ele>118.1</ele>
        <time>2015-05-31T09:37:27Z</time>
      </trkpt>
      <trkpt lat="43.78839" lon="4.16481">
        <ele>117.7</ele>
        <time>2015-05-31T09:37:29Z</time>
      </trkpt>
      <trkpt lat="43.78837" lon="4.16496">
        <ele>117</ele>
        <time>2015-05-31T09:37:32Z</time>
      </trkpt>
      <trkpt lat="43.78832" lon="4.16507">
        <ele>116.7</ele>
        <time>2015-05-31T09:37:34Z</time>
      </trkpt>
      <trkpt lat="43.78827" lon="4.16519">
        <ele>116.3</ele>
        <time>2015-05-31T09:37:36Z</time>
      </trkpt>
      <trkpt lat="43.78823" lon="4.1653">
        <ele>116</ele>
        <time>2015-05-31T09:37:38Z</time>
      </trkpt>
      <trkpt lat="43.78817" lon="4.16541">
        <ele>115.7</ele>
        <time>2015-05-31T09:37:40Z</time>
      </trkpt>
      <trkpt lat="43.78813" lon="4.16553">
        <ele>115.3</ele>
        <time>2015-05-31T09:37:42Z</time>
      </trkpt>
      <trkpt lat="43.78808" lon="4.16566">
        <ele>115</ele>
        <time>2015-05-31T09:37:44Z</time>
      </trkpt>
      <trkpt lat="43.78803" lon="4.16577">
        <ele>114.8</ele>
        <time>2015-05-31T09:37:46Z</time>
      </trkpt>
      <trkpt lat="43.78799" lon="4.16588">
        <ele>114.5</ele>
        <time>2015-05-31T09:37:48Z</time>
      </trkpt>
      <trkpt lat="43.78795" lon="4.16599">
        <ele>114.3</ele>
        <time>2015-05-31T09:37:50Z</time>
      </trkpt>
      <trkpt lat="43.78787" lon="4.16615">
        <ele>113.9</ele>
        <time>2015-05-31T09:37:53Z</time>
      </trkpt>
      <trkpt lat="43.78777" lon="4.16623">
        <ele>113.7</ele>
        <time>2015-05-31T09:37:56Z</time>
      </trkpt>
      <trkpt lat="43.78769" lon="4.16634">
        <ele>113.2</ele>
        <time>2015-05-31T09:38:01Z</time>
      </trkpt>
      <trkpt lat="43.78768" lon="4.1665">
        <ele>112.9</ele>
        <time>2015-05-31T09:38:04Z</time>
      </trkpt>
      <trkpt lat="43.78766" lon="4.16665">
        <ele>112.6</ele>
        <time>2015-05-31T09:38:07Z</time>
      </trkpt>
      <trkpt lat="43.78762" lon="4.1668">
        <ele>112.3</ele>
        <time>2015-05-31T09:38:10Z</time>
      </trkpt>
      <trkpt lat="43.78759" lon="4.16696">
        <ele>112.1</ele>
        <time>2015-05-31T09:38:13Z</time>
      </trkpt>
      <trkpt lat="43.78754" lon="4.16709">
        <ele>111.9</ele>
        <time>2015-05-31T09:38:16Z</time>
      </trkpt>
      <trkpt lat="43.78747" lon="4.16722">
        <ele>111.7</ele>
        <time>2015-05-31T09:38:19Z</time>
      </trkpt>
      <trkpt lat="43.78737" lon="4.16735">
        <ele>111.2</ele>
        <time>2015-05-31T09:38:22Z</time>
      </trkpt>
      <trkpt lat="43.7873" lon="4.16749">
        <ele>110.9</ele>
        <time>2015-05-31T09:38:25Z</time>
      </trkpt>
      <trkpt lat="43.78724" lon="4.16763">
        <ele>110.6</ele>
        <time>2015-05-31T09:38:28Z</time>
      </trkpt>
      <trkpt lat="43.78719" lon="4.16776">
        <ele>110.3</ele>
        <time>2015-05-31T09:38:31Z</time>
      </trkpt>
      <trkpt lat="43.78715" lon="4.1679">
        <ele>110.1</ele>
        <time>2015-05-31T09:38:34Z</time>
      </trkpt>
      <trkpt lat="43.78705" lon="4.16802">
        <ele>109.9</ele>
        <time>2015-05-31T09:38:37Z</time>
      </trkpt>
      <trkpt lat="43.78697" lon="4.16813">
        <ele>109.7</ele>
        <time>2015-05-31T09:38:40Z</time>
      </trkpt>
      <trkpt lat="43.78688" lon="4.16823">
        <ele>109.5</ele>
        <time>2015-05-31T09:38:43Z</time>
      </trkpt>
      <trkpt lat="43.7868" lon="4.16833">
        <ele>109.3</ele>
        <time>2015-05-31T09:38:46Z</time>
      </trkpt>
      <trkpt lat="43.7867" lon="4.16844">
        <ele>109</ele>
        <time>2015-05-31T09:38:50Z</time>
      </trkpt>
      <trkpt lat="43.7866" lon="4.16851">
        <ele>108.8</ele>
        <time>2015-05-31T09:38:53Z</time>
      </trkpt>
      <trkpt lat="43.7865" lon="4.16857">
        <ele>108.6</ele>
        <time>2015-05-31T09:38:56Z</time>
      </trkpt>
      <trkpt lat="43.78641" lon="4.1686">
        <ele>108.4</ele>
        <time>2015-05-31T09:38:59Z</time>
      </trkpt>
      <trkpt lat="43.78631" lon="4.16862">
        <ele>108.1</ele>
        <time>2015-05-31T09:39:02Z</time>
      </trkpt>
      <trkpt lat="43.7862" lon="4.16863">
        <ele>107.7</ele>
        <time>2015-05-31T09:39:07Z</time>
      </trkpt>
      <trkpt lat="43.78609" lon="4.16863">
        <ele>107.2</ele>
        <time>2015-05-31T09:39:11Z</time>
      </trkpt>
      <trkpt lat="43.78599" lon="4.16864">
        <ele>106.8</ele>
        <time>2015-05-31T09:39:15Z</time>
      </trkpt>
      <trkpt lat="43.78589" lon="4.16865">
        <ele>106.4</ele>
        <time>2015-05-31T09:39:19Z</time>
      </trkpt>
      <trkpt lat="43.7858" lon="4.16866">
        <ele>105.9</ele>
        <time>2015-05-31T09:39:25Z</time>
      </trkpt>
      <trkpt lat="43.7857" lon="4.16863">
        <ele>105.6</ele>
        <time>2015-05-31T09:39:31Z</time>
      </trkpt>
      <trkpt lat="43.7856" lon="4.16865">
        <ele>105.1</ele>
        <time>2015-05-31T09:39:36Z</time>
      </trkpt>
      <trkpt lat="43.7855" lon="4.16867">
        <ele>104.9</ele>
        <time>2015-05-31T09:39:40Z</time>
      </trkpt>
      <trkpt lat="43.7854" lon="4.16868">
        <ele>104.7</ele>
        <time>2015-05-31T09:39:44Z</time>
      </trkpt>
      <trkpt lat="43.7853" lon="4.16873">
        <ele>104.6</ele>
        <time>2015-05-31T09:39:47Z</time>
      </trkpt>
      <trkpt lat="43.7852" lon="4.16879">
        <ele>104.5</ele>
        <time>2015-05-31T09:39:50Z</time>
      </trkpt>
      <trkpt lat="43.7851" lon="4.16885">
        <ele>104.3</ele>
        <time>2015-05-31T09:39:53Z</time>
      </trkpt>
      <trkpt lat="43.78501" lon="4.16894">
        <ele>104.1</ele>
        <time>2015-05-31T09:39:57Z</time>
      </trkpt>
      <trkpt lat="43.78493" lon="4.16902">
        <ele>103.8</ele>
        <time>2015-05-31T09:40:01Z</time>
      </trkpt>
      <trkpt lat="43.78486" lon="4.16912">
        <ele>103.4</ele>
        <time>2015-05-31T09:40:07Z</time>
      </trkpt>
      <trkpt lat="43.78477" lon="4.16913">
        <ele>103.2</ele>
        <time>2015-05-31T09:40:12Z</time>
      </trkpt>
      <trkpt lat="43.78467" lon="4.16909">
        <ele>103.1</ele>
        <time>2015-05-31T09:40:16Z</time>
      </trkpt>
      <trkpt lat="43.78456" lon="4.16915">
        <ele>103</ele>
        <time>2015-05-31T09:40:20Z</time>
      </trkpt>
      <trkpt lat="43.78445" lon="4.16917">
        <ele>102.6</ele>
        <time>2015-05-31T09:40:24Z</time>
      </trkpt>
      <trkpt lat="43.78434" lon="4.1692">
        <ele>102.3</ele>
        <time>2015-05-31T09:40:27Z</time>
      </trkpt>
      <trkpt lat="43.78424" lon="4.16915">
        <ele>102</ele>
        <time>2015-05-31T09:40:31Z</time>
      </trkpt>
      <trkpt lat="43.78417" lon="4.16908">
        <ele>101.9</ele>
        <time>2015-05-31T09:40:34Z</time>
      </trkpt>
      <trkpt lat="43.78406" lon="4.16907">
        <ele>101.7</ele>
        <time>2015-05-31T09:40:37Z</time>
      </trkpt>
      <trkpt lat="43.78395" lon="4.16908">
        <ele>101.6</ele>
        <time>2015-05-31T09:40:40Z</time>
      </trkpt>
      <trkpt lat="43.78385" lon="4.16907">
        <ele>101.4</ele>
        <time>2015-05-31T09:40:43Z</time>
      </trkpt>
      <trkpt lat="43.78375" lon="4.16911">
        <ele>101.3</ele>
        <time>2015-05-31T09:40:46Z</time>
      </trkpt>
      <trkpt lat="43.78366" lon="4.16916">
        <ele>101.2</ele>
        <time>2015-05-31T09:40:49Z</time>
      </trkpt>
      <trkpt lat="43.78357" lon="4.1692">
        <ele>101.1</ele>
        <time>2015-05-31T09:40:53Z</time>
      </trkpt>
      <trkpt lat="43.78349" lon="4.16913">
        <ele>101</ele>
        <time>2015-05-31T09:40:57Z</time>
      </trkpt>
      <trkpt lat="43.78339" lon="4.16905">
        <ele>100.9</ele>
        <time>2015-05-31T09:41:01Z</time>
      </trkpt>
      <trkpt lat="43.7833" lon="4.16904">
        <ele>100.9</ele>
        <time>2015-05-31T09:41:06Z</time>
      </trkpt>
      <trkpt lat="43.78323" lon="4.16891">
        <ele>100.9</ele>
        <time>2015-05-31T09:41:10Z</time>
      </trkpt>
      <trkpt lat="43.78317" lon="4.16878">
        <ele>100.8</ele>
        <time>2015-05-31T09:41:14Z</time>
      </trkpt>
      <trkpt lat="43.78308" lon="4.16873">
        <ele>100.8</ele>
        <time>2015-05-31T09:41:18Z</time>
      </trkpt>
      <trkpt lat="43.78296" lon="4.16875">
        <ele>100.8</ele>
        <time>2015-05-31T09:41:22Z</time>
      </trkpt>
      <trkpt lat="43.78285" lon="4.16875">
        <ele>100.9</ele>
        <time>2015-05-31T09:41:26Z</time>
      </trkpt>
      <trkpt lat="43.78275" lon="4.16874">
        <ele>101</ele>
        <time>2015-05-31T09:41:29Z</time>
      </trkpt>
      <trkpt lat="43.78263" lon="4.16877">
        <ele>101.1</ele>
        <time>2015-05-31T09:41:32Z</time>
      </trkpt>
      <trkpt lat="43.78253" lon="4.16881">
        <ele>101.2</ele>
        <time>2015-05-31T09:41:35Z</time>
      </trkpt>
      <trkpt lat="43.78242" lon="4.16878">
        <ele>101.2</ele>
        <time>2015-05-31T09:41:37Z</time>
      </trkpt>
      <trkpt lat="43.78232" lon="4.16878">
        <ele>101.3</ele>
        <time>2015-05-31T09:41:40Z</time>
      </trkpt>
      <trkpt lat="43.78219" lon="4.16877">
        <ele>101.6</ele>
        <time>2015-05-31T09:41:44Z</time>
      </trkpt>
      <trkpt lat="43.78209" lon="4.16877">
        <ele>101.8</ele>
        <time>2015-05-31T09:41:47Z</time>
      </trkpt>
      <trkpt lat="43.78199" lon="4.16878">
        <ele>101.8</ele>
        <time>2015-05-31T09:41:50Z</time>
      </trkpt>
      <trkpt lat="43.78188" lon="4.16878">
        <ele>101.7</ele>
        <time>2015-05-31T09:41:53Z</time>
      </trkpt>
      <trkpt lat="43.78177" lon="4.16879">
        <ele>101.7</ele>
        <time>2015-05-31T09:41:56Z</time>
      </trkpt>
      <trkpt lat="43.78167" lon="4.16885">
        <ele>101.7</ele>
        <time>2015-05-31T09:41:59Z</time>
      </trkpt>
      <trkpt lat="43.78158" lon="4.16891">
        <ele>101.8</ele>
        <time>2015-05-31T09:42:02Z</time>
      </trkpt>
      <trkpt lat="43.78149" lon="4.16889">
        <ele>102.1</ele>
        <time>2015-05-31T09:42:06Z</time>
      </trkpt>
      <trkpt lat="43.78138" lon="4.16892">
        <ele>102.4</ele>
        <time>2015-05-31T09:42:09Z</time>
      </trkpt>
      <trkpt lat="43.78127" lon="4.16896">
        <ele>102.6</ele>
        <time>2015-05-31T09:42:12Z</time>
      </trkpt>
      <trkpt lat="43.7812" lon="4.16904">
        <ele>102.9</ele>
        <time>2015-05-31T09:42:15Z</time>
      </trkpt>
      <trkpt lat="43.78114" lon="4.16917">
        <ele>103.3</ele>
        <time>2015-05-31T09:42:19Z</time>
      </trkpt>
      <trkpt lat="43.78105" lon="4.16925">
        <ele>103.6</ele>
        <time>2015-05-31T09:42:22Z</time>
      </trkpt>
      <trkpt lat="43.78097" lon="4.16936">
        <ele>104.1</ele>
        <time>2015-05-31T09:42:26Z</time>
      </trkpt>
      <trkpt lat="43.78087" lon="4.16946">
        <ele>104.5</ele>
        <time>2015-05-31T09:42:30Z</time>
      </trkpt>
      <trkpt lat="43.78079" lon="4.16954">
        <ele>105</ele>
        <time>2015-05-31T09:42:33Z</time>
      </trkpt>
      <trkpt lat="43.78073" lon="4.16965">
        <ele>105.6</ele>
        <time>2015-05-31T09:42:37Z</time>
      </trkpt>
      <trkpt lat="43.78067" lon="4.16975">
        <ele>106.6</ele>
        <time>2015-05-31T09:42:43Z</time>
      </trkpt>
      <trkpt lat="43.7806" lon="4.16983">
        <ele>107.5</ele>
        <time>2015-05-31T09:42:48Z</time>
      </trkpt>
      <trkpt lat="43.7805" lon="4.16991">
        <ele>108.1</ele>
        <time>2015-05-31T09:42:52Z</time>
      </trkpt>
      <trkpt lat="43.78041" lon="4.17">
        <ele>108.6</ele>
        <time>2015-05-31T09:42:56Z</time>
      </trkpt>
      <trkpt lat="43.78033" lon="4.17011">
        <ele>108.8</ele>
        <time>2015-05-31T09:42:59Z</time>
      </trkpt>
      <trkpt lat="43.78026" lon="4.17024">
        <ele>109.1</ele>
        <time>2015-05-31T09:43:03Z</time>
      </trkpt>
      <trkpt lat="43.78021" lon="4.17035">
        <ele>109.4</ele>
        <time>2015-05-31T09:43:07Z</time>
      </trkpt>
      <trkpt lat="43.78013" lon="4.17047">
        <ele>109.6</ele>
        <time>2015-05-31T09:43:11Z</time>
      </trkpt>
      <trkpt lat="43.78003" lon="4.17054">
        <ele>109.9</ele>
        <time>2015-05-31T09:43:15Z</time>
      </trkpt>
      <trkpt lat="43.77995" lon="4.1706">
        <ele>110.3</ele>
        <time>2015-05-31T09:43:18Z</time>
      </trkpt>
      <trkpt lat="43.77986" lon="4.17069">
        <ele>110.6</ele>
        <time>2015-05-31T09:43:21Z</time>
      </trkpt>
      <trkpt lat="43.77977" lon="4.17081">
        <ele>110.9</ele>
        <time>2015-05-31T09:43:25Z</time>
      </trkpt>
      <trkpt lat="43.7797" lon="4.17088">
        <ele>111.1</ele>
        <time>2015-05-31T09:43:28Z</time>
      </trkpt>
      <trkpt lat="43.77959" lon="4.17098">
        <ele>111.3</ele>
        <time>2015-05-31T09:43:31Z</time>
      </trkpt>
      <trkpt lat="43.7795" lon="4.17109">
        <ele>111.4</ele>
        <time>2015-05-31T09:43:34Z</time>
      </trkpt>
      <trkpt lat="43.77941" lon="4.1712">
        <ele>111.5</ele>
        <time>2015-05-31T09:43:37Z</time>
      </trkpt>
      <trkpt lat="43.77939" lon="4.17133">
        <ele>111.5</ele>
        <time>2015-05-31T09:43:41Z</time>
      </trkpt>
      <trkpt lat="43.77941" lon="4.17146">
        <ele>111.3</ele>
        <time>2015-05-31T09:43:45Z</time>
      </trkpt>
      <trkpt lat="43.77942" lon="4.17161">
        <ele>111.2</ele>
        <time>2015-05-31T09:43:51Z</time>
      </trkpt>
      <trkpt lat="43.7794" lon="4.17173">
        <ele>111.3</ele>
        <time>2015-05-31T09:43:54Z</time>
      </trkpt>
      <trkpt lat="43.77942" lon="4.17186">
        <ele>111.3</ele>
        <time>2015-05-31T09:43:57Z</time>
      </trkpt>
      <trkpt lat="43.77948" lon="4.17199">
        <ele>111.3</ele>
        <time>2015-05-31T09:44:01Z</time>
      </trkpt>
      <trkpt lat="43.77952" lon="4.17212">
        <ele>111.3</ele>
        <time>2015-05-31T09:44:05Z</time>
      </trkpt>
      <trkpt lat="43.77955" lon="4.17224">
        <ele>111.3</ele>
        <time>2015-05-31T09:44:08Z</time>
      </trkpt>
      <trkpt lat="43.77962" lon="4.17235">
        <ele>110.8</ele>
        <time>2015-05-31T09:44:12Z</time>
      </trkpt>
      <trkpt lat="43.77965" lon="4.17248">
        <ele>110.7</ele>
        <time>2015-05-31T09:44:15Z</time>
      </trkpt>
      <trkpt lat="43.77968" lon="4.17262">
        <ele>110.6</ele>
        <time>2015-05-31T09:44:18Z</time>
      </trkpt>
      <trkpt lat="43.77973" lon="4.17276">
        <ele>110.4</ele>
        <time>2015-05-31T09:44:22Z</time>
      </trkpt>
      <trkpt lat="43.77977" lon="4.17289">
        <ele>110.3</ele>
        <time>2015-05-31T09:44:26Z</time>
      </trkpt>
      <trkpt lat="43.77985" lon="4.17302">
        <ele>110</ele>
        <time>2015-05-31T09:44:30Z</time>
      </trkpt>
      <trkpt lat="43.7799" lon="4.17314">
        <ele>109.9</ele>
        <time>2015-05-31T09:44:33Z</time>
      </trkpt>
      <trkpt lat="43.77995" lon="4.17329">
        <ele>109.8</ele>
        <time>2015-05-31T09:44:36Z</time>
      </trkpt>
      <trkpt lat="43.78001" lon="4.17342">
        <ele>109.7</ele>
        <time>2015-05-31T09:44:39Z</time>
      </trkpt>
      <trkpt lat="43.78009" lon="4.17357">
        <ele>109.5</ele>
        <time>2015-05-31T09:44:42Z</time>
      </trkpt>
      <trkpt lat="43.78017" lon="4.17368">
        <ele>109.1</ele>
        <time>2015-05-31T09:44:45Z</time>
      </trkpt>
      <trkpt lat="43.78021" lon="4.17379">
        <ele>108.6</ele>
        <time>2015-05-31T09:44:48Z</time>
      </trkpt>
      <trkpt lat="43.78024" lon="4.17391">
        <ele>108</ele>
        <time>2015-05-31T09:44:52Z</time>
      </trkpt>
      <trkpt lat="43.78025" lon="4.17406">
        <ele>107.6</ele>
        <time>2015-05-31T09:44:56Z</time>
      </trkpt>
      <trkpt lat="43.7802" lon="4.17418">
        <ele>107.1</ele>
        <time>2015-05-31T09:45:02Z</time>
      </trkpt>
      <trkpt lat="43.78013" lon="4.17426">
        <ele>106.9</ele>
        <time>2015-05-31T09:45:05Z</time>
      </trkpt>
      <trkpt lat="43.7801" lon="4.17438">
        <ele>107.1</ele>
        <time>2015-05-31T09:45:13Z</time>
      </trkpt>
      <trkpt lat="43.78006" lon="4.17452">
        <ele>110.1</ele>
        <time>2015-05-31T09:46:11Z</time>
      </trkpt>
      <trkpt lat="43.78002" lon="4.17465">
        <ele>110.2</ele>
        <time>2015-05-31T09:46:21Z</time>
      </trkpt>
      <trkpt lat="43.77997" lon="4.17477">
        <ele>111.1</ele>
        <time>2015-05-31T09:46:35Z</time>
      </trkpt>
      <trkpt lat="43.77991" lon="4.17486">
        <ele>111.9</ele>
        <time>2015-05-31T09:46:45Z</time>
      </trkpt>
      <trkpt lat="43.7798" lon="4.17485">
        <ele>112.8</ele>
        <time>2015-05-31T09:46:57Z</time>
      </trkpt>
      <trkpt lat="43.77971" lon="4.17488">
        <ele>112.9</ele>
        <time>2015-05-31T09:47:01Z</time>
      </trkpt>
      <trkpt lat="43.77961" lon="4.17487">
        <ele>112.8</ele>
        <time>2015-05-31T09:47:06Z</time>
      </trkpt>
      <trkpt lat="43.77952" lon="4.17491">
        <ele>112.5</ele>
        <time>2015-05-31T09:47:09Z</time>
      </trkpt>
      <trkpt lat="43.77942" lon="4.17493">
        <ele>111.2</ele>
        <time>2015-05-31T09:47:14Z</time>
      </trkpt>
      <trkpt lat="43.77933" lon="4.17489">
        <ele>108.6</ele>
        <time>2015-05-31T09:47:28Z</time>
      </trkpt>
      <trkpt lat="43.77924" lon="4.17482">
        <ele>106.3</ele>
        <time>2015-05-31T09:47:38Z</time>
      </trkpt>
      <trkpt lat="43.77914" lon="4.17483">
        <ele>103.4</ele>
        <time>2015-05-31T09:47:52Z</time>
      </trkpt>
      <trkpt lat="43.7791" lon="4.17494">
        <ele>102.1</ele>
        <time>2015-05-31T09:47:58Z</time>
      </trkpt>
      <trkpt lat="43.779" lon="4.175">
        <ele>101.5</ele>
        <time>2015-05-31T09:48:01Z</time>
      </trkpt>
      <trkpt lat="43.77886" lon="4.17499">
        <ele>100.9</ele>
        <time>2015-05-31T09:48:04Z</time>
      </trkpt>
      <trkpt lat="43.77877" lon="4.17499">
        <ele>100.4</ele>
        <time>2015-05-31T09:48:06Z</time>
      </trkpt>
      <trkpt lat="43.7787" lon="4.17509">
        <ele>99.8</ele>
        <time>2015-05-31T09:48:09Z</time>
      </trkpt>
      <trkpt lat="43.77874" lon="4.17521">
        <ele>99.3</ele>
        <time>2015-05-31T09:48:12Z</time>
      </trkpt>
      <trkpt lat="43.77874" lon="4.17537">
        <ele>98.7</ele>
        <time>2015-05-31T09:48:16Z</time>
      </trkpt>
      <trkpt lat="43.77871" lon="4.17551">
        <ele>98.4</ele>
        <time>2015-05-31T09:48:19Z</time>
      </trkpt>
      <trkpt lat="43.77872" lon="4.17566">
        <ele>98.1</ele>
        <time>2015-05-31T09:48:22Z</time>
      </trkpt>
      <trkpt lat="43.77872" lon="4.17583">
        <ele>97.8</ele>
        <time>2015-05-31T09:48:25Z</time>
      </trkpt>
      <trkpt lat="43.77873" lon="4.17598">
        <ele>97.6</ele>
        <time>2015-05-31T09:48:28Z</time>
      </trkpt>
      <trkpt lat="43.77873" lon="4.17612">
        <ele>97.5</ele>
        <time>2015-05-31T09:48:31Z</time>
      </trkpt>
      <trkpt lat="43.77872" lon="4.17627">
        <ele>97.4</ele>
        <time>2015-05-31T09:48:35Z</time>
      </trkpt>
      <trkpt lat="43.77866" lon="4.17643">
        <ele>97.4</ele>
        <time>2015-05-31T09:48:38Z</time>
      </trkpt>
      <trkpt lat="43.77857" lon="4.17655">
        <ele>97.3</ele>
        <time>2015-05-31T09:48:41Z</time>
      </trkpt>
      <trkpt lat="43.77847" lon="4.17659">
        <ele>97.2</ele>
        <time>2015-05-31T09:48:44Z</time>
      </trkpt>
      <trkpt lat="43.77841" lon="4.1767">
        <ele>97</ele>
        <time>2015-05-31T09:48:47Z</time>
      </trkpt>
      <trkpt lat="43.77842" lon="4.17685">
        <ele>96.9</ele>
        <time>2015-05-31T09:48:50Z</time>
      </trkpt>
      <trkpt lat="43.77844" lon="4.177">
        <ele>96.7</ele>
        <time>2015-05-31T09:48:53Z</time>
      </trkpt>
      <trkpt lat="43.77846" lon="4.17714">
        <ele>96.6</ele>
        <time>2015-05-31T09:48:56Z</time>
      </trkpt>
      <trkpt lat="43.77848" lon="4.17728">
        <ele>96.5</ele>
        <time>2015-05-31T09:48:59Z</time>
      </trkpt>
      <trkpt lat="43.77847" lon="4.17744">
        <ele>96.3</ele>
        <time>2015-05-31T09:49:02Z</time>
      </trkpt>
      <trkpt lat="43.77847" lon="4.17761">
        <ele>95.9</ele>
        <time>2015-05-31T09:49:06Z</time>
      </trkpt>
      <trkpt lat="43.77847" lon="4.17778">
        <ele>95.6</ele>
        <time>2015-05-31T09:49:09Z</time>
      </trkpt>
      <trkpt lat="43.7785" lon="4.17792">
        <ele>95.2</ele>
        <time>2015-05-31T09:49:12Z</time>
      </trkpt>
      <trkpt lat="43.77856" lon="4.17804">
        <ele>94.9</ele>
        <time>2015-05-31T09:49:15Z</time>
      </trkpt>
      <trkpt lat="43.77861" lon="4.17816">
        <ele>94.6</ele>
        <time>2015-05-31T09:49:18Z</time>
      </trkpt>
      <trkpt lat="43.77868" lon="4.17827">
        <ele>94.4</ele>
        <time>2015-05-31T09:49:21Z</time>
      </trkpt>
      <trkpt lat="43.77874" lon="4.17839">
        <ele>94.2</ele>
        <time>2015-05-31T09:49:24Z</time>
      </trkpt>
      <trkpt lat="43.7788" lon="4.17852">
        <ele>94</ele>
        <time>2015-05-31T09:49:27Z</time>
      </trkpt>
      <trkpt lat="43.77885" lon="4.17865">
        <ele>93.8</ele>
        <time>2015-05-31T09:49:30Z</time>
      </trkpt>
      <trkpt lat="43.77889" lon="4.17877">
        <ele>93.7</ele>
        <time>2015-05-31T09:49:33Z</time>
      </trkpt>
      <trkpt lat="43.77893" lon="4.1789">
        <ele>93.6</ele>
        <time>2015-05-31T09:49:36Z</time>
      </trkpt>
      <trkpt lat="43.77897" lon="4.17903">
        <ele>93.5</ele>
        <time>2015-05-31T09:49:39Z</time>
      </trkpt>
      <trkpt lat="43.77902" lon="4.17919">
        <ele>93.5</ele>
        <time>2015-05-31T09:49:43Z</time>
      </trkpt>
      <trkpt lat="43.77907" lon="4.17932">
        <ele>93.6</ele>
        <time>2015-05-31T09:49:47Z</time>
      </trkpt>
      <trkpt lat="43.77914" lon="4.17945">
        <ele>93.8</ele>
        <time>2015-05-31T09:49:51Z</time>
      </trkpt>
      <trkpt lat="43.77919" lon="4.17957">
        <ele>94</ele>
        <time>2015-05-31T09:49:54Z</time>
      </trkpt>
      <trkpt lat="43.77922" lon="4.17971">
        <ele>94.1</ele>
        <time>2015-05-31T09:49:57Z</time>
      </trkpt>
      <trkpt lat="43.77924" lon="4.17985">
        <ele>94.3</ele>
        <time>2015-05-31T09:50:00Z</time>
      </trkpt>
      <trkpt lat="43.77928" lon="4.17999">
        <ele>94.5</ele>
        <time>2015-05-31T09:50:03Z</time>
      </trkpt>
      <trkpt lat="43.77939" lon="4.18009">
        <ele>94.7</ele>
        <time>2015-05-31T09:50:06Z</time>
      </trkpt>
      <trkpt lat="43.77948" lon="4.18019">
        <ele>94.8</ele>
        <time>2015-05-31T09:50:09Z</time>
      </trkpt>
      <trkpt lat="43.77954" lon="4.18032">
        <ele>94.9</ele>
        <time>2015-05-31T09:50:12Z</time>
      </trkpt>
      <trkpt lat="43.7796" lon="4.18046">
        <ele>95.1</ele>
        <time>2015-05-31T09:50:15Z</time>
      </trkpt>
      <trkpt lat="43.77959" lon="4.18062">
        <ele>95.2</ele>
        <time>2015-05-31T09:50:18Z</time>
      </trkpt>
      <trkpt lat="43.77953" lon="4.18072">
        <ele>95.2</ele>
        <time>2015-05-31T09:50:20Z</time>
      </trkpt>
      <trkpt lat="43.77946" lon="4.18083">
        <ele>95.3</ele>
        <time>2015-05-31T09:50:22Z</time>
      </trkpt>
      <trkpt lat="43.77938" lon="4.18092">
        <ele>95.3</ele>
        <time>2015-05-31T09:50:24Z</time>
      </trkpt>
      <trkpt lat="43.7793" lon="4.18103">
        <ele>95.4</ele>
        <time>2015-05-31T09:50:26Z</time>
      </trkpt>
      <trkpt lat="43.77921" lon="4.18115">
        <ele>95.4</ele>
        <time>2015-05-31T09:50:28Z</time>
      </trkpt>
      <trkpt lat="43.77914" lon="4.18129">
        <ele>95.4</ele>
        <time>2015-05-31T09:50:30Z</time>
      </trkpt>
      <trkpt lat="43.77907" lon="4.18146">
        <ele>95.3</ele>
        <time>2015-05-31T09:50:32Z</time>
      </trkpt>
      <trkpt lat="43.77898" lon="4.18162">
        <ele>95.1</ele>
        <time>2015-05-31T09:50:34Z</time>
      </trkpt>
      <trkpt lat="43.7789" lon="4.18179">
        <ele>94.8</ele>
        <time>2015-05-31T09:50:36Z</time>
      </trkpt>
      <trkpt lat="43.77881" lon="4.18193">
        <ele>94.5</ele>
        <time>2015-05-31T09:50:38Z</time>
      </trkpt>
      <trkpt lat="43.77872" lon="4.18203">
        <ele>94.2</ele>
        <time>2015-05-31T09:50:40Z</time>
      </trkpt>
      <trkpt lat="43.77865" lon="4.18214">
        <ele>93.8</ele>
        <time>2015-05-31T09:50:42Z</time>
      </trkpt>
      <trkpt lat="43.7786" lon="4.18229">
        <ele>92.9</ele>
        <time>2015-05-31T09:50:45Z</time>
      </trkpt>
      <trkpt lat="43.77863" lon="4.18248">
        <ele>92.1</ele>
        <time>2015-05-31T09:50:48Z</time>
      </trkpt>
      <trkpt lat="43.77866" lon="4.18262">
        <ele>91.6</ele>
        <time>2015-05-31T09:50:50Z</time>
      </trkpt>
      <trkpt lat="43.77871" lon="4.18275">
        <ele>91.1</ele>
        <time>2015-05-31T09:50:52Z</time>
      </trkpt>
      <trkpt lat="43.77876" lon="4.18287">
        <ele>90.7</ele>
        <time>2015-05-31T09:50:54Z</time>
      </trkpt>
      <trkpt lat="43.77883" lon="4.18296">
        <ele>90.3</ele>
        <time>2015-05-31T09:50:56Z</time>
      </trkpt>
      <trkpt lat="43.7789" lon="4.18306">
        <ele>89.9</ele>
        <time>2015-05-31T09:50:58Z</time>
      </trkpt>
      <trkpt lat="43.77897" lon="4.18316">
        <ele>89.6</ele>
        <time>2015-05-31T09:51:00Z</time>
      </trkpt>
      <trkpt lat="43.77903" lon="4.18326">
        <ele>89.2</ele>
        <time>2015-05-31T09:51:02Z</time>
      </trkpt>
      <trkpt lat="43.77907" lon="4.18337">
        <ele>88.9</ele>
        <time>2015-05-31T09:51:04Z</time>
      </trkpt>
      <trkpt lat="43.77915" lon="4.18352">
        <ele>88.6</ele>
        <time>2015-05-31T09:51:07Z</time>
      </trkpt>
      <trkpt lat="43.77921" lon="4.18361">
        <ele>88.4</ele>
        <time>2015-05-31T09:51:09Z</time>
      </trkpt>
      <trkpt lat="43.7793" lon="4.18371">
        <ele>88.2</ele>
        <time>2015-05-31T09:51:12Z</time>
      </trkpt>
      <trkpt lat="43.77936" lon="4.18384">
        <ele>88.2</ele>
        <time>2015-05-31T09:51:16Z</time>
      </trkpt>
      <trkpt lat="43.77939" lon="4.18395">
        <ele>88.2</ele>
        <time>2015-05-31T09:51:19Z</time>
      </trkpt>
      <trkpt lat="43.77939" lon="4.18409">
        <ele>88.2</ele>
        <time>2015-05-31T09:51:22Z</time>
      </trkpt>
      <trkpt lat="43.77941" lon="4.18423">
        <ele>88.3</ele>
        <time>2015-05-31T09:51:25Z</time>
      </trkpt>
      <trkpt lat="43.77942" lon="4.18437">
        <ele>88.4</ele>
        <time>2015-05-31T09:51:28Z</time>
      </trkpt>
      <trkpt lat="43.77946" lon="4.18452">
        <ele>88.5</ele>
        <time>2015-05-31T09:51:31Z</time>
      </trkpt>
      <trkpt lat="43.77947" lon="4.18467">
        <ele>88.5</ele>
        <time>2015-05-31T09:51:34Z</time>
      </trkpt>
      <trkpt lat="43.77949" lon="4.18483">
        <ele>88.5</ele>
        <time>2015-05-31T09:51:37Z</time>
      </trkpt>
      <trkpt lat="43.7795" lon="4.18499">
        <ele>88.6</ele>
        <time>2015-05-31T09:51:40Z</time>
      </trkpt>
      <trkpt lat="43.77952" lon="4.18512">
        <ele>88.6</ele>
        <time>2015-05-31T09:51:42Z</time>
      </trkpt>
      <trkpt lat="43.77954" lon="4.18525">
        <ele>88.6</ele>
        <time>2015-05-31T09:51:44Z</time>
      </trkpt>
      <trkpt lat="43.77954" lon="4.18538">
        <ele>88.6</ele>
        <time>2015-05-31T09:51:46Z</time>
      </trkpt>
      <trkpt lat="43.77955" lon="4.18552">
        <ele>88.6</ele>
        <time>2015-05-31T09:51:48Z</time>
      </trkpt>
      <trkpt lat="43.77956" lon="4.18565">
        <ele>88.6</ele>
        <time>2015-05-31T09:51:50Z</time>
      </trkpt>
      <trkpt lat="43.77958" lon="4.18579">
        <ele>88.5</ele>
        <time>2015-05-31T09:51:52Z</time>
      </trkpt>
      <trkpt lat="43.7796" lon="4.18591">
        <ele>88.5</ele>
        <time>2015-05-31T09:51:54Z</time>
      </trkpt>
      <trkpt lat="43.7796" lon="4.18607">
        <ele>88.3</ele>
        <time>2015-05-31T09:51:57Z</time>
      </trkpt>
      <trkpt lat="43.77948" lon="4.18615">
        <ele>88.2</ele>
        <time>2015-05-31T09:52:00Z</time>
      </trkpt>
      <trkpt lat="43.77932" lon="4.18616">
        <ele>87.9</ele>
        <time>2015-05-31T09:52:02Z</time>
      </trkpt>
      <trkpt lat="43.77918" lon="4.18617">
        <ele>87.6</ele>
        <time>2015-05-31T09:52:04Z</time>
      </trkpt>
      <trkpt lat="43.77903" lon="4.18619">
        <ele>87.1</ele>
        <time>2015-05-31T09:52:06Z</time>
      </trkpt>
      <trkpt lat="43.77888" lon="4.1862">
        <ele>86.6</ele>
        <time>2015-05-31T09:52:08Z</time>
      </trkpt>
      <trkpt lat="43.77871" lon="4.18622">
        <ele>86</ele>
        <time>2015-05-31T09:52:10Z</time>
      </trkpt>
      <trkpt lat="43.77857" lon="4.18622">
        <ele>85.3</ele>
        <time>2015-05-31T09:52:12Z</time>
      </trkpt>
      <trkpt lat="43.77846" lon="4.18626">
        <ele>84.5</ele>
        <time>2015-05-31T09:52:14Z</time>
      </trkpt>
      <trkpt lat="43.77841" lon="4.18642">
        <ele>83.8</ele>
        <time>2015-05-31T09:52:16Z</time>
      </trkpt>
      <trkpt lat="43.77839" lon="4.1866">
        <ele>83</ele>
        <time>2015-05-31T09:52:18Z</time>
      </trkpt>
      <trkpt lat="43.77837" lon="4.18677">
        <ele>82.3</ele>
        <time>2015-05-31T09:52:20Z</time>
      </trkpt>
      <trkpt lat="43.77836" lon="4.18692">
        <ele>81.5</ele>
        <time>2015-05-31T09:52:22Z</time>
      </trkpt>
      <trkpt lat="43.77834" lon="4.18708">
        <ele>80.9</ele>
        <time>2015-05-31T09:52:24Z</time>
      </trkpt>
      <trkpt lat="43.77832" lon="4.18724">
        <ele>80.3</ele>
        <time>2015-05-31T09:52:26Z</time>
      </trkpt>
      <trkpt lat="43.77832" lon="4.18741">
        <ele>79.6</ele>
        <time>2015-05-31T09:52:28Z</time>
      </trkpt>
      <trkpt lat="43.77832" lon="4.18755">
        <ele>78.9</ele>
        <time>2015-05-31T09:52:30Z</time>
      </trkpt>
      <trkpt lat="43.77824" lon="4.18767">
        <ele>77.9</ele>
        <time>2015-05-31T09:52:33Z</time>
      </trkpt>
      <trkpt lat="43.77816" lon="4.18775">
        <ele>77.1</ele>
        <time>2015-05-31T09:52:35Z</time>
      </trkpt>
      <trkpt lat="43.77811" lon="4.18789">
        <ele>76.4</ele>
        <time>2015-05-31T09:52:37Z</time>
      </trkpt>
      <trkpt lat="43.7781" lon="4.18806">
        <ele>75.7</ele>
        <time>2015-05-31T09:52:39Z</time>
      </trkpt>
      <trkpt lat="43.77812" lon="4.18821">
        <ele>75.1</ele>
        <time>2015-05-31T09:52:41Z</time>
      </trkpt>
      <trkpt lat="43.77814" lon="4.18838">
        <ele>74.5</ele>
        <time>2015-05-31T09:52:43Z</time>
      </trkpt>
      <trkpt lat="43.77815" lon="4.18856">
        <ele>73.9</ele>
        <time>2015-05-31T09:52:45Z</time>
      </trkpt>
      <trkpt lat="43.77818" lon="4.18874">
        <ele>73.4</ele>
        <time>2015-05-31T09:52:47Z</time>
      </trkpt>
      <trkpt lat="43.77822" lon="4.18892">
        <ele>72.8</ele>
        <time>2015-05-31T09:52:49Z</time>
      </trkpt>
      <trkpt lat="43.77826" lon="4.18909">
        <ele>72.4</ele>
        <time>2015-05-31T09:52:51Z</time>
      </trkpt>
      <trkpt lat="43.77829" lon="4.18926">
        <ele>71.9</ele>
        <time>2015-05-31T09:52:53Z</time>
      </trkpt>
      <trkpt lat="43.77832" lon="4.18942">
        <ele>71.5</ele>
        <time>2015-05-31T09:52:55Z</time>
      </trkpt>
      <trkpt lat="43.77834" lon="4.18959">
        <ele>71.1</ele>
        <time>2015-05-31T09:52:57Z</time>
      </trkpt>
      <trkpt lat="43.77835" lon="4.18976">
        <ele>70.7</ele>
        <time>2015-05-31T09:52:59Z</time>
      </trkpt>
      <trkpt lat="43.77838" lon="4.1899">
        <ele>70.3</ele>
        <time>2015-05-31T09:53:01Z</time>
      </trkpt>
      <trkpt lat="43.77834" lon="4.19001">
        <ele>69.2</ele>
        <time>2015-05-31T09:53:06Z</time>
      </trkpt>
      <trkpt lat="43.77836" lon="4.19017">
        <ele>67.2</ele>
        <time>2015-05-31T09:53:19Z</time>
      </trkpt>
      <trkpt lat="43.77842" lon="4.19034">
        <ele>66.8</ele>
        <time>2015-05-31T09:53:22Z</time>
      </trkpt>
      <trkpt lat="43.77846" lon="4.19045">
        <ele>66.6</ele>
        <time>2015-05-31T09:53:24Z</time>
      </trkpt>
      <trkpt lat="43.7785" lon="4.19061">
        <ele>66.3</ele>
        <time>2015-05-31T09:53:27Z</time>
      </trkpt>
      <trkpt lat="43.77854" lon="4.19077">
        <ele>66.1</ele>
        <time>2015-05-31T09:53:30Z</time>
      </trkpt>
      <trkpt lat="43.77859" lon="4.19092">
        <ele>65.9</ele>
        <time>2015-05-31T09:53:33Z</time>
      </trkpt>
      <trkpt lat="43.77865" lon="4.19108">
        <ele>65.7</ele>
        <time>2015-05-31T09:53:36Z</time>
      </trkpt>
      <trkpt lat="43.7787" lon="4.19119">
        <ele>65.6</ele>
        <time>2015-05-31T09:53:38Z</time>
      </trkpt>
      <trkpt lat="43.77875" lon="4.19131">
        <ele>65.5</ele>
        <time>2015-05-31T09:53:40Z</time>
      </trkpt>
      <trkpt lat="43.7788" lon="4.19143">
        <ele>65.4</ele>
        <time>2015-05-31T09:53:42Z</time>
      </trkpt>
      <trkpt lat="43.77885" lon="4.19153">
        <ele>65.3</ele>
        <time>2015-05-31T09:53:44Z</time>
      </trkpt>
      <trkpt lat="43.77891" lon="4.19165">
        <ele>65.3</ele>
        <time>2015-05-31T09:53:46Z</time>
      </trkpt>
      <trkpt lat="43.77896" lon="4.19176">
        <ele>65.2</ele>
        <time>2015-05-31T09:53:48Z</time>
      </trkpt>
      <trkpt lat="43.779" lon="4.19188">
        <ele>65.1</ele>
        <time>2015-05-31T09:53:50Z</time>
      </trkpt>
      <trkpt lat="43.77905" lon="4.19199">
        <ele>65</ele>
        <time>2015-05-31T09:53:52Z</time>
      </trkpt>
      <trkpt lat="43.77909" lon="4.1921">
        <ele>64.9</ele>
        <time>2015-05-31T09:53:54Z</time>
      </trkpt>
      <trkpt lat="43.77915" lon="4.19226">
        <ele>64.8</ele>
        <time>2015-05-31T09:53:57Z</time>
      </trkpt>
      <trkpt lat="43.77923" lon="4.19239">
        <ele>64.7</ele>
        <time>2015-05-31T09:54:00Z</time>
      </trkpt>
      <trkpt lat="43.77932" lon="4.19251">
        <ele>64.6</ele>
        <time>2015-05-31T09:54:03Z</time>
      </trkpt>
      <trkpt lat="43.77936" lon="4.19267">
        <ele>64.5</ele>
        <time>2015-05-31T09:54:06Z</time>
      </trkpt>
      <trkpt lat="43.77939" lon="4.19284">
        <ele>64.4</ele>
        <time>2015-05-31T09:54:09Z</time>
      </trkpt>
      <trkpt lat="43.7794" lon="4.19298">
        <ele>64.3</ele>
        <time>2015-05-31T09:54:11Z</time>
      </trkpt>
      <trkpt lat="43.77944" lon="4.19312">
        <ele>64.2</ele>
        <time>2015-05-31T09:54:13Z</time>
      </trkpt>
      <trkpt lat="43.77947" lon="4.19326">
        <ele>64.1</ele>
        <time>2015-05-31T09:54:15Z</time>
      </trkpt>
      <trkpt lat="43.77953" lon="4.19336">
        <ele>64</ele>
        <time>2015-05-31T09:54:17Z</time>
      </trkpt>
      <trkpt lat="43.77959" lon="4.19347">
        <ele>64</ele>
        <time>2015-05-31T09:54:19Z</time>
      </trkpt>
      <trkpt lat="43.77964" lon="4.19359">
        <ele>63.9</ele>
        <time>2015-05-31T09:54:21Z</time>
      </trkpt>
      <trkpt lat="43.7797" lon="4.19371">
        <ele>63.8</ele>
        <time>2015-05-31T09:54:23Z</time>
      </trkpt>
      <trkpt lat="43.77976" lon="4.19382">
        <ele>63.7</ele>
        <time>2015-05-31T09:54:25Z</time>
      </trkpt>
      <trkpt lat="43.77982" lon="4.19392">
        <ele>63.6</ele>
        <time>2015-05-31T09:54:27Z</time>
      </trkpt>
      <trkpt lat="43.77988" lon="4.19401">
        <ele>63.5</ele>
        <time>2015-05-31T09:54:29Z</time>
      </trkpt>
      <trkpt lat="43.77998" lon="4.19412">
        <ele>63.4</ele>
        <time>2015-05-31T09:54:32Z</time>
      </trkpt>
      <trkpt lat="43.78003" lon="4.19423">
        <ele>63.4</ele>
        <time>2015-05-31T09:54:34Z</time>
      </trkpt>
      <trkpt lat="43.78008" lon="4.19436">
        <ele>63.3</ele>
        <time>2015-05-31T09:54:36Z</time>
      </trkpt>
      <trkpt lat="43.78013" lon="4.19448">
        <ele>63.3</ele>
        <time>2015-05-31T09:54:38Z</time>
      </trkpt>
      <trkpt lat="43.78018" lon="4.19461">
        <ele>63.2</ele>
        <time>2015-05-31T09:54:40Z</time>
      </trkpt>
      <trkpt lat="43.78023" lon="4.19476">
        <ele>63.2</ele>
        <time>2015-05-31T09:54:42Z</time>
      </trkpt>
      <trkpt lat="43.78029" lon="4.19492">
        <ele>63.1</ele>
        <time>2015-05-31T09:54:44Z</time>
      </trkpt>
      <trkpt lat="43.78036" lon="4.19508">
        <ele>63</ele>
        <time>2015-05-31T09:54:46Z</time>
      </trkpt>
      <trkpt lat="43.78042" lon="4.19525">
        <ele>62.9</ele>
        <time>2015-05-31T09:54:48Z</time>
      </trkpt>
      <trkpt lat="43.78047" lon="4.19541">
        <ele>62.9</ele>
        <time>2015-05-31T09:54:50Z</time>
      </trkpt>
      <trkpt lat="43.78053" lon="4.19556">
        <ele>62.7</ele>
        <time>2015-05-31T09:54:52Z</time>
      </trkpt>
      <trkpt lat="43.78059" lon="4.1957">
        <ele>62.5</ele>
        <time>2015-05-31T09:54:54Z</time>
      </trkpt>
      <trkpt lat="43.78064" lon="4.19583">
        <ele>62.3</ele>
        <time>2015-05-31T09:54:56Z</time>
      </trkpt>
      <trkpt lat="43.78069" lon="4.19595">
        <ele>62.1</ele>
        <time>2015-05-31T09:54:58Z</time>
      </trkpt>
      <trkpt lat="43.78075" lon="4.19611">
        <ele>61.9</ele>
        <time>2015-05-31T09:55:01Z</time>
      </trkpt>
      <trkpt lat="43.78081" lon="4.19625">
        <ele>61.8</ele>
        <time>2015-05-31T09:55:04Z</time>
      </trkpt>
      <trkpt lat="43.78085" lon="4.19636">
        <ele>61.7</ele>
        <time>2015-05-31T09:55:06Z</time>
      </trkpt>
      <trkpt lat="43.7809" lon="4.19648">
        <ele>61.7</ele>
        <time>2015-05-31T09:55:08Z</time>
      </trkpt>
      <trkpt lat="43.78095" lon="4.19661">
        <ele>61.6</ele>
        <time>2015-05-31T09:55:10Z</time>
      </trkpt>
      <trkpt lat="43.78099" lon="4.19673">
        <ele>61.6</ele>
        <time>2015-05-31T09:55:12Z</time>
      </trkpt>
      <trkpt lat="43.78104" lon="4.19686">
        <ele>61.6</ele>
        <time>2015-05-31T09:55:14Z</time>
      </trkpt>
      <trkpt lat="43.78108" lon="4.19698">
        <ele>61.6</ele>
        <time>2015-05-31T09:55:16Z</time>
      </trkpt>
      <trkpt lat="43.78113" lon="4.1971">
        <ele>61.5</ele>
        <time>2015-05-31T09:55:18Z</time>
      </trkpt>
      <trkpt lat="43.78119" lon="4.19721">
        <ele>61.5</ele>
        <time>2015-05-31T09:55:20Z</time>
      </trkpt>
      <trkpt lat="43.78124" lon="4.19733">
        <ele>61.5</ele>
        <time>2015-05-31T09:55:22Z</time>
      </trkpt>
      <trkpt lat="43.7813" lon="4.19744">
        <ele>61.5</ele>
        <time>2015-05-31T09:55:24Z</time>
      </trkpt>
      <trkpt lat="43.78135" lon="4.19756">
        <ele>61.4</ele>
        <time>2015-05-31T09:55:26Z</time>
      </trkpt>
      <trkpt lat="43.7814" lon="4.19767">
        <ele>61.4</ele>
        <time>2015-05-31T09:55:28Z</time>
      </trkpt>
      <trkpt lat="43.78148" lon="4.19781">
        <ele>61.4</ele>
        <time>2015-05-31T09:55:31Z</time>
      </trkpt>
      <trkpt lat="43.78151" lon="4.19794">
        <ele>61.3</ele>
        <time>2015-05-31T09:55:34Z</time>
      </trkpt>
      <trkpt lat="43.78157" lon="4.19806">
        <ele>61.1</ele>
        <time>2015-05-31T09:55:38Z</time>
      </trkpt>
      <trkpt lat="43.78161" lon="4.19819">
        <ele>61.1</ele>
        <time>2015-05-31T09:55:41Z</time>
      </trkpt>
      <trkpt lat="43.78166" lon="4.19834">
        <ele>61</ele>
        <time>2015-05-31T09:55:44Z</time>
      </trkpt>
      <trkpt lat="43.78172" lon="4.1985">
        <ele>60.9</ele>
        <time>2015-05-31T09:55:47Z</time>
      </trkpt>
      <trkpt lat="43.78177" lon="4.19862">
        <ele>60.9</ele>
        <time>2015-05-31T09:55:49Z</time>
      </trkpt>
      <trkpt lat="43.78182" lon="4.19873">
        <ele>60.8</ele>
        <time>2015-05-31T09:55:51Z</time>
      </trkpt>
      <trkpt lat="43.78186" lon="4.19885">
        <ele>60.8</ele>
        <time>2015-05-31T09:55:53Z</time>
      </trkpt>
      <trkpt lat="43.78191" lon="4.19897">
        <ele>60.8</ele>
        <time>2015-05-31T09:55:55Z</time>
      </trkpt>
      <trkpt lat="43.78196" lon="4.19908">
        <ele>60.7</ele>
        <time>2015-05-31T09:55:57Z</time>
      </trkpt>
      <trkpt lat="43.78201" lon="4.1992">
        <ele>60.7</ele>
        <time>2015-05-31T09:55:59Z</time>
      </trkpt>
      <trkpt lat="43.78206" lon="4.19931">
        <ele>60.7</ele>
        <time>2015-05-31T09:56:01Z</time>
      </trkpt>
      <trkpt lat="43.78212" lon="4.19946">
        <ele>60.6</ele>
        <time>2015-05-31T09:56:04Z</time>
      </trkpt>
      <trkpt lat="43.78219" lon="4.19959">
        <ele>60.6</ele>
        <time>2015-05-31T09:56:07Z</time>
      </trkpt>
      <trkpt lat="43.78225" lon="4.19971">
        <ele>60.5</ele>
        <time>2015-05-31T09:56:10Z</time>
      </trkpt>
      <trkpt lat="43.78229" lon="4.19982">
        <ele>60.5</ele>
        <time>2015-05-31T09:56:13Z</time>
      </trkpt>
      <trkpt lat="43.78236" lon="4.19993">
        <ele>60.4</ele>
        <time>2015-05-31T09:56:17Z</time>
      </trkpt>
      <trkpt lat="43.78242" lon="4.20002">
        <ele>60.3</ele>
        <time>2015-05-31T09:56:21Z</time>
      </trkpt>
      <trkpt lat="43.78248" lon="4.20015">
        <ele>60.3</ele>
        <time>2015-05-31T09:56:25Z</time>
      </trkpt>
      <trkpt lat="43.78253" lon="4.20026">
        <ele>60.2</ele>
        <time>2015-05-31T09:56:28Z</time>
      </trkpt>
      <trkpt lat="43.78259" lon="4.20035">
        <ele>60.1</ele>
        <time>2015-05-31T09:56:32Z</time>
      </trkpt>
      <trkpt lat="43.78265" lon="4.20045">
        <ele>60</ele>
        <time>2015-05-31T09:56:36Z</time>
      </trkpt>
      <trkpt lat="43.78274" lon="4.20052">
        <ele>59.9</ele>
        <time>2015-05-31T09:56:41Z</time>
      </trkpt>
      <trkpt lat="43.78284" lon="4.2006">
        <ele>59.8</ele>
        <time>2015-05-31T09:56:45Z</time>
      </trkpt>
      <trkpt lat="43.78292" lon="4.20065">
        <ele>59.8</ele>
        <time>2015-05-31T09:56:48Z</time>
      </trkpt>
      <trkpt lat="43.78301" lon="4.20071">
        <ele>59.7</ele>
        <time>2015-05-31T09:56:51Z</time>
      </trkpt>
      <trkpt lat="43.78311" lon="4.20077">
        <ele>59.7</ele>
        <time>2015-05-31T09:56:54Z</time>
      </trkpt>
      <trkpt lat="43.78321" lon="4.20085">
        <ele>59.6</ele>
        <time>2015-05-31T09:56:57Z</time>
      </trkpt>
      <trkpt lat="43.7833" lon="4.20097">
        <ele>59.6</ele>
        <time>2015-05-31T09:57:00Z</time>
      </trkpt>
      <trkpt lat="43.78339" lon="4.20108">
        <ele>59.5</ele>
        <time>2015-05-31T09:57:03Z</time>
      </trkpt>
      <trkpt lat="43.78348" lon="4.20121">
        <ele>59.5</ele>
        <time>2015-05-31T09:57:06Z</time>
      </trkpt>
      <trkpt lat="43.78354" lon="4.20133">
        <ele>59.5</ele>
        <time>2015-05-31T09:57:10Z</time>
      </trkpt>
      <trkpt lat="43.78355" lon="4.20146">
        <ele>59.4</ele>
        <time>2015-05-31T09:57:15Z</time>
      </trkpt>
      <trkpt lat="43.78351" lon="4.20158">
        <ele>59.4</ele>
        <time>2015-05-31T09:57:18Z</time>
      </trkpt>
      <trkpt lat="43.78358" lon="4.20169">
        <ele>59.3</ele>
        <time>2015-05-31T09:57:21Z</time>
      </trkpt>
      <trkpt lat="43.78366" lon="4.20178">
        <ele>59.3</ele>
        <time>2015-05-31T09:57:25Z</time>
      </trkpt>
      <trkpt lat="43.78364" lon="4.20191">
        <ele>59</ele>
        <time>2015-05-31T09:57:34Z</time>
      </trkpt>
      <trkpt lat="43.78367" lon="4.20203">
        <ele>57.6</ele>
        <time>2015-05-31T09:58:11Z</time>
      </trkpt>
      <trkpt lat="43.78369" lon="4.20215">
        <ele>57.3</ele>
        <time>2015-05-31T09:58:26Z</time>
      </trkpt>
      <trkpt lat="43.78368" lon="4.20228">
        <ele>56.4</ele>
        <time>2015-05-31T10:00:22Z</time>
      </trkpt>
      <trkpt lat="43.78363" lon="4.20231">
        <ele>55.3</ele>
        <time>2015-05-31T10:01:15Z</time>
      </trkpt>
    </trkseg>
  </trk>
</gpx>